Wetterdaten: Sonntag, 29.01.2017
Datum Zeit Temp. A. Temp. A. max Feuchte A. Luftdruck Regen Wind Richtung Richtung Sonnenschein ET UV Solar Taupunkt Windchill Windböen
29.01.2017 00:00 -5,2 °C -5,2 °C 85 % 1023,4 hPa 0,0 mm 0,0 km/h (0 Bft) SO 143 ° 0 min 0,000 mm 0,0 UV-I 0 W/m² -7,3 °C -5,2 °C 0,0 km/h (0 Bft)
29.01.2017 00:01 -5,2 °C -5,2 °C 85 % 1023,4 hPa 0,0 mm 0,0 km/h (0 Bft) SO 143 ° 0 min 0,000 mm 0,0 UV-I 0 W/m² -7,3 °C -5,2 °C 0,0 km/h (0 Bft)
29.01.2017 00:02 -5,2 °C -5,2 °C 84 % 1023,5 hPa 0,0 mm 0,0 km/h (0 Bft) SO 143 ° 0 min 0,000 mm 0,0 UV-I 0 W/m² -7,5 °C -5,2 °C 0,0 km/h (0 Bft)
29.01.2017 00:03 -5,2 °C -5,2 °C 84 % 1023,5 hPa 0,0 mm 0,3 km/h (0 Bft) SO 143 ° 0 min 0,000 mm 0,0 UV-I 0 W/m² -7,5 °C -5,2 °C 1,6 km/h (1 Bft)
29.01.2017 00:04 -5,3 °C -5,2 °C 84 % 1023,5 hPa 0,0 mm 0,0 km/h (0 Bft) SO 143 ° 0 min 0,000 mm 0,0 UV-I 0 W/m² -7,6 °C -5,3 °C 0,0 km/h (0 Bft)
29.01.2017 00:05 -5,3 °C -5,3 °C 84 % 1023,5 hPa 0,0 mm 0,2 km/h (0 Bft) SO 143 ° 0 min 0,000 mm 0,0 UV-I 0 W/m² -7,6 °C -5,3 °C 1,6 km/h (1 Bft)
29.01.2017 00:06 -5,3 °C -5,3 °C 84 % 1023,5 hPa 0,0 mm 0,0 km/h (0 Bft) SO 143 ° 0 min 0,000 mm 0,0 UV-I 0 W/m² -7,6 °C -5,3 °C 0,0 km/h (0 Bft)
29.01.2017 00:07 -5,3 °C -5,3 °C 84 % 1023,4 hPa 0,0 mm 0,0 km/h (0 Bft) SO 143 ° 0 min 0,000 mm 0,0 UV-I 0 W/m² -7,6 °C -5,3 °C 0,0 km/h (0 Bft)
29.01.2017 00:08 -5,3 °C -5,3 °C 84 % 1023,4 hPa 0,0 mm 0,0 km/h (0 Bft) SO 143 ° 0 min 0,000 mm 0,0 UV-I 0 W/m² -7,6 °C -5,3 °C 0,0 km/h (0 Bft)
29.01.2017 00:09 -5,3 °C -5,3 °C 84 % 1023,5 hPa 0,0 mm 0,0 km/h (0 Bft) SO 143 ° 0 min 0,000 mm 0,0 UV-I 0 W/m² -7,6 °C -5,3 °C 0,0 km/h (0 Bft)
29.01.2017 00:10 -5,3 °C -5,3 °C 84 % 1023,4 hPa 0,0 mm 0,0 km/h (0 Bft) SO 143 ° 0 min 0,000 mm 0,0 UV-I 0 W/m² -7,6 °C -5,3 °C 0,0 km/h (0 Bft)
29.01.2017 00:11 -5,3 °C -5,3 °C 84 % 1023,5 hPa 0,0 mm 0,0 km/h (0 Bft) SO 143 ° 0 min 0,000 mm 0,0 UV-I 0 W/m² -7,6 °C -5,3 °C 0,0 km/h (0 Bft)
29.01.2017 00:12 -5,4 °C -5,3 °C 84 % 1023,4 hPa 0,0 mm 0,2 km/h (0 Bft) SO 143 ° 0 min 0,000 mm 0,0 UV-I 0 W/m² -7,7 °C -5,4 °C 1,6 km/h (1 Bft)
29.01.2017 00:13 -5,4 °C -5,4 °C 84 % 1023,4 hPa 0,0 mm 0,0 km/h (0 Bft) SO 143 ° 0 min 0,000 mm 0,0 UV-I 0 W/m² -7,7 °C -5,4 °C 0,0 km/h (0 Bft)
29.01.2017 00:14 -5,4 °C -5,4 °C 85 % 1023,4 hPa 0,0 mm 0,0 km/h (0 Bft) SO 143 ° 0 min 0,000 mm 0,0 UV-I 0 W/m² -7,5 °C -5,4 °C 0,0 km/h (0 Bft)
29.01.2017 00:15 -5,4 °C -5,4 °C 85 % 1023,4 hPa 0,0 mm 0,0 km/h (0 Bft) SO 143 ° 0 min 0,000 mm 0,0 UV-I 0 W/m² -7,5 °C -5,4 °C 0,0 km/h (0 Bft)
29.01.2017 00:16 -5,4 °C -5,4 °C 85 % 1023,4 hPa 0,0 mm 0,0 km/h (0 Bft) SO 143 ° 0 min 0,000 mm 0,0 UV-I 0 W/m² -7,5 °C -5,4 °C 0,0 km/h (0 Bft)
29.01.2017 00:17 -5,4 °C -5,4 °C 85 % 1023,4 hPa 0,0 mm 0,0 km/h (0 Bft) SO 143 ° 0 min 0,000 mm 0,0 UV-I 0 W/m² -7,5 °C -5,4 °C 0,0 km/h (0 Bft)
29.01.2017 00:18 -5,4 °C -5,4 °C 85 % 1023,4 hPa 0,0 mm 0,0 km/h (0 Bft) SO 143 ° 0 min 0,000 mm 0,0 UV-I 0 W/m² -7,5 °C -5,4 °C 0,0 km/h (0 Bft)
29.01.2017 00:19 -5,4 °C -5,4 °C 85 % 1023,4 hPa 0,0 mm 0,0 km/h (0 Bft) SO 143 ° 0 min 0,000 mm 0,0 UV-I 0 W/m² -7,5 °C -5,4 °C 0,0 km/h (0 Bft)
29.01.2017 00:20 -5,4 °C -5,4 °C 86 % 1023,5 hPa 0,0 mm 0,0 km/h (0 Bft) SO 143 ° 0 min 0,000 mm 0,0 UV-I 0 W/m² -7,4 °C -5,4 °C 0,0 km/h (0 Bft)
29.01.2017 00:21 -5,4 °C -5,4 °C 85 % 1023,4 hPa 0,0 mm 0,0 km/h (0 Bft) SO 143 ° 0 min 0,000 mm 0,0 UV-I 0 W/m² -7,5 °C -5,4 °C 0,0 km/h (0 Bft)
29.01.2017 00:22 -5,5 °C -5,4 °C 86 % 1023,5 hPa 0,0 mm 0,1 km/h (0 Bft) SO 143 ° 0 min 0,000 mm 0,0 UV-I 0 W/m² -7,5 °C -5,5 °C 1,6 km/h (1 Bft)
29.01.2017 00:23 -5,5 °C -5,5 °C 86 % 1023,4 hPa 0,0 mm 0,2 km/h (0 Bft) SO 143 ° 0 min 0,000 mm 0,0 UV-I 0 W/m² -7,5 °C -5,5 °C 1,6 km/h (1 Bft)
29.01.2017 00:24 -5,5 °C -5,5 °C 86 % 1023,4 hPa 0,0 mm 1,4 km/h (1 Bft) S 182 ° 0 min 0,000 mm 0,0 UV-I 0 W/m² -7,5 °C -5,5 °C 3,2 km/h (1 Bft)
29.01.2017 00:25 -5,6 °C -5,5 °C 86 % 1023,4 hPa 0,0 mm 1,6 km/h (1 Bft) S 182 ° 0 min 0,000 mm 0,0 UV-I 0 W/m² -7,6 °C -5,6 °C 1,6 km/h (1 Bft)
29.01.2017 00:26 -5,5 °C -5,5 °C 86 % 1023,4 hPa 0,0 mm 1,9 km/h (1 Bft) S 182 ° 0 min 0,000 mm 0,0 UV-I 0 W/m² -7,5 °C -5,5 °C 3,2 km/h (1 Bft)
29.01.2017 00:27 -5,4 °C -5,4 °C 86 % 1023,4 hPa 0,0 mm 3,0 km/h (1 Bft) S 182 ° 0 min 0,000 mm 0,0 UV-I 0 W/m² -7,4 °C -5,4 °C 4,8 km/h (1 Bft)
29.01.2017 00:28 -5,4 °C -5,4 °C 86 % 1023,4 hPa 0,0 mm 1,8 km/h (1 Bft) S 182 ° 0 min 0,000 mm 0,0 UV-I 0 W/m² -7,4 °C -5,4 °C 3,2 km/h (1 Bft)
29.01.2017 00:29 -5,4 °C -5,4 °C 86 % 1023,4 hPa 0,0 mm 0,7 km/h (0 Bft) S 182 ° 0 min 0,000 mm 0,0 UV-I 0 W/m² -7,4 °C -5,4 °C 1,6 km/h (1 Bft)
29.01.2017 00:30 -5,4 °C -5,4 °C 86 % 1023,4 hPa 0,0 mm 0,3 km/h (0 Bft) S 182 ° 0 min 0,000 mm 0,0 UV-I 0 W/m² -7,4 °C -5,4 °C 1,6 km/h (1 Bft)
29.01.2017 00:31 -5,4 °C -5,4 °C 86 % 1023,4 hPa 0,0 mm 0,1 km/h (0 Bft) S 182 ° 0 min 0,000 mm 0,0 UV-I 0 W/m² -7,4 °C -5,4 °C 1,6 km/h (1 Bft)
29.01.2017 00:32 -5,4 °C -5,4 °C 86 % 1023,4 hPa 0,0 mm 0,0 km/h (0 Bft) S 182 ° 0 min 0,000 mm 0,0 UV-I 0 W/m² -7,4 °C -5,4 °C 0,0 km/h (0 Bft)
29.01.2017 00:33 -5,4 °C -5,4 °C 85 % 1023,4 hPa 0,0 mm 0,1 km/h (0 Bft) S 182 ° 0 min 0,000 mm 0,0 UV-I 0 W/m² -7,5 °C -5,4 °C 1,6 km/h (1 Bft)
29.01.2017 00:34 -5,4 °C -5,4 °C 86 % 1023,4 hPa 0,0 mm 0,1 km/h (0 Bft) S 182 ° 0 min 0,000 mm 0,0 UV-I 0 W/m² -7,4 °C -5,4 °C 1,6 km/h (1 Bft)
29.01.2017 00:35 -5,4 °C -5,4 °C 86 % 1023,4 hPa 0,0 mm 0,7 km/h (0 Bft) S 182 ° 0 min 0,000 mm 0,0 UV-I 0 W/m² -7,4 °C -5,4 °C 1,6 km/h (1 Bft)
29.01.2017 00:36 -5,3 °C -5,3 °C 86 % 1023,4 hPa 0,0 mm 3,0 km/h (1 Bft) S-SW 203 ° 0 min 0,000 mm 0,0 UV-I 0 W/m² -7,3 °C -5,3 °C 6,4 km/h (2 Bft)
29.01.2017 00:37 -5,3 °C -5,3 °C 86 % 1023,4 hPa 0,0 mm 7,4 km/h (2 Bft) S-SW 194 ° 0 min 0,000 mm 0,0 UV-I 0 W/m² -7,3 °C -8,7 °C 9,7 km/h (2 Bft)
29.01.2017 00:38 -5,2 °C -5,2 °C 86 % 1023,4 hPa 0,0 mm 6,5 km/h (2 Bft) S-SW 202 ° 0 min 0,000 mm 0,0 UV-I 0 W/m² -7,2 °C -8,2 °C 11,3 km/h (2 Bft)
29.01.2017 00:39 -5,2 °C -5,2 °C 86 % 1023,4 hPa 0,0 mm 4,0 km/h (1 Bft) S 185 ° 0 min 0,000 mm 0,0 UV-I 0 W/m² -7,2 °C -5,2 °C 8,0 km/h (2 Bft)
29.01.2017 00:40 -5,1 °C -5,1 °C 86 % 1023,4 hPa 0,0 mm 2,2 km/h (1 Bft) S 185 ° 0 min 0,000 mm 0,0 UV-I 0 W/m² -7,1 °C -5,1 °C 4,8 km/h (1 Bft)
29.01.2017 00:41 -5,0 °C -5,0 °C 86 % 1023,4 hPa 0,0 mm 5,6 km/h (1 Bft) S-SW 204 ° 0 min 0,000 mm 0,0 UV-I 0 W/m² -7,0 °C -7,6 °C 8,0 km/h (2 Bft)
29.01.2017 00:42 -4,9 °C -4,9 °C 86 % 1023,4 hPa 0,0 mm 6,4 km/h (2 Bft) S-SW 206 ° 0 min 0,000 mm 0,0 UV-I 0 W/m² -6,9 °C -7,8 °C 8,0 km/h (2 Bft)
29.01.2017 00:43 -4,9 °C -4,9 °C 85 % 1023,4 hPa 0,0 mm 2,3 km/h (1 Bft) S-SW 206 ° 0 min 0,000 mm 0,0 UV-I 0 W/m² -7,0 °C -4,9 °C 4,8 km/h (1 Bft)
29.01.2017 00:44 -4,8 °C -4,8 °C 85 % 1023,4 hPa 0,0 mm 3,4 km/h (1 Bft) S-SW 204 ° 0 min 0,000 mm 0,0 UV-I 0 W/m² -6,9 °C -4,8 °C 4,8 km/h (1 Bft)
29.01.2017 00:45 -4,8 °C -4,8 °C 84 % 1023,4 hPa 0,0 mm 3,2 km/h (1 Bft) S-SW 204 ° 0 min 0,000 mm 0,0 UV-I 0 W/m² -7,1 °C -4,8 °C 4,8 km/h (1 Bft)
29.01.2017 00:46 -4,8 °C -4,8 °C 84 % 1023,4 hPa 0,0 mm 4,2 km/h (1 Bft) S-SW 198 ° 0 min 0,000 mm 0,0 UV-I 0 W/m² -7,1 °C -4,8 °C 6,4 km/h (2 Bft)
29.01.2017 00:47 -4,7 °C -4,7 °C 84 % 1023,4 hPa 0,0 mm 5,9 km/h (2 Bft) S-SW 198 ° 0 min 0,000 mm 0,0 UV-I 0 W/m² -7,0 °C -7,4 °C 8,0 km/h (2 Bft)
29.01.2017 00:48 -4,7 °C -4,7 °C 84 % 1023,4 hPa 0,0 mm 5,8 km/h (2 Bft) S 183 ° 0 min 0,000 mm 0,0 UV-I 0 W/m² -7,0 °C -7,3 °C 8,0 km/h (2 Bft)
29.01.2017 00:49 -4,6 °C -4,6 °C 84 % 1023,4 hPa 0,0 mm 6,4 km/h (2 Bft) S-SW 202 ° 0 min 0,000 mm 0,0 UV-I 0 W/m² -6,9 °C -7,5 °C 8,0 km/h (2 Bft)
29.01.2017 00:50 -4,4 °C -4,4 °C 84 % 1023,4 hPa 0,0 mm 4,0 km/h (1 Bft) S 186 ° 0 min 0,000 mm 0,0 UV-I 0 W/m² -6,7 °C -4,4 °C 4,8 km/h (1 Bft)
29.01.2017 00:51 -4,4 °C -4,4 °C 84 % 1023,4 hPa 0,0 mm 2,3 km/h (1 Bft) S 186 ° 0 min 0,000 mm 0,0 UV-I 0 W/m² -6,7 °C -4,4 °C 3,2 km/h (1 Bft)
29.01.2017 00:52 -4,4 °C -4,4 °C 84 % 1023,4 hPa 0,0 mm 1,4 km/h (1 Bft) S 186 ° 0 min 0,000 mm 0,0 UV-I 0 W/m² -6,7 °C -4,4 °C 3,2 km/h (1 Bft)
29.01.2017 00:53 -4,3 °C -4,3 °C 84 % 1023,4 hPa 0,0 mm 0,1 km/h (0 Bft) S 186 ° 0 min 0,000 mm 0,0 UV-I 0 W/m² -6,6 °C -4,3 °C 1,6 km/h (1 Bft)
29.01.2017 00:54 -4,3 °C -4,3 °C 84 % 1023,4 hPa 0,0 mm 0,0 km/h (0 Bft) S 186 ° 0 min 0,000 mm 0,0 UV-I 0 W/m² -6,6 °C -4,3 °C 0,0 km/h (0 Bft)
29.01.2017 00:55 -4,2 °C -4,2 °C 82 % 1023,5 hPa 0,0 mm 0,0 km/h (0 Bft) S 186 ° 0 min 0,000 mm 0,0 UV-I 0 W/m² -6,8 °C -4,2 °C 0,0 km/h (0 Bft)
29.01.2017 00:56 -4,2 °C -4,2 °C 82 % 1023,4 hPa 0,0 mm 0,0 km/h (0 Bft) S 186 ° 0 min 0,000 mm 0,0 UV-I 0 W/m² -6,8 °C -4,2 °C 0,0 km/h (0 Bft)
29.01.2017 00:57 -4,2 °C -4,2 °C 82 % 1023,4 hPa 0,0 mm 0,0 km/h (0 Bft) S 186 ° 0 min 0,000 mm 0,0 UV-I 0 W/m² -6,8 °C -4,2 °C 0,0 km/h (0 Bft)
29.01.2017 00:58 -4,1 °C -4,1 °C 82 % 1023,5 hPa 0,0 mm 0,0 km/h (0 Bft) S 186 ° 0 min 0,000 mm 0,0 UV-I 0 W/m² -6,7 °C -4,1 °C 0,0 km/h (0 Bft)
29.01.2017 00:59 -4,1 °C -4,1 °C 82 % 1023,5 hPa 0,0 mm 1,0 km/h (0 Bft) S-SW 192 ° 0 min 0,000 mm 0,0 UV-I 0 W/m² -6,7 °C -4,1 °C 4,8 km/h (1 Bft)
29.01.2017 01:00 -4,1 °C -4,1 °C 82 % 1023,5 hPa 0,0 mm 5,9 km/h (2 Bft) S-SW 205 ° 0 min 0,000 mm 0,0 UV-I 0 W/m² -6,7 °C -6,7 °C 8,0 km/h (2 Bft)
29.01.2017 01:01 -4,1 °C -4,1 °C 81 % 1023,5 hPa 0,0 mm 0,6 km/h (0 Bft) S-SW 205 ° 0 min 0,000 mm 0,0 UV-I 0 W/m² -6,9 °C -4,1 °C 3,2 km/h (1 Bft)
29.01.2017 01:02 -4,0 °C -4,0 °C 82 % 1023,5 hPa 0,0 mm 0,0 km/h (0 Bft) S-SW 205 ° 0 min 0,000 mm 0,0 UV-I 0 W/m² -6,6 °C -4,0 °C 0,0 km/h (0 Bft)
29.01.2017 01:03 -4,0 °C -4,0 °C 82 % 1023,4 hPa 0,0 mm 0,1 km/h (0 Bft) S-SW 205 ° 0 min 0,000 mm 0,0 UV-I 0 W/m² -6,6 °C -4,0 °C 1,6 km/h (1 Bft)
29.01.2017 01:04 -4,0 °C -4,0 °C 82 % 1023,5 hPa 0,0 mm 0,3 km/h (0 Bft) S-SW 205 ° 0 min 0,000 mm 0,0 UV-I 0 W/m² -6,6 °C -4,0 °C 1,6 km/h (1 Bft)
29.01.2017 01:05 -4,0 °C -3,9 °C 81 % 1023,5 hPa 0,0 mm 0,6 km/h (0 Bft) S-SW 205 ° 0 min 0,000 mm 0,0 UV-I 0 W/m² -6,8 °C -4,0 °C 1,6 km/h (1 Bft)
29.01.2017 01:06 -3,9 °C -3,9 °C 81 % 1023,5 hPa 0,0 mm 0,6 km/h (0 Bft) S-SW 205 ° 0 min 0,000 mm 0,0 UV-I 0 W/m² -6,7 °C -3,9 °C 1,6 km/h (1 Bft)
29.01.2017 01:07 -4,0 °C -3,9 °C 81 % 1023,5 hPa 0,0 mm 0,2 km/h (0 Bft) S-SW 205 ° 0 min 0,000 mm 0,0 UV-I 0 W/m² -6,8 °C -4,0 °C 1,6 km/h (1 Bft)
29.01.2017 01:08 -3,9 °C -3,9 °C 81 % 1023,5 hPa 0,0 mm 0,9 km/h (0 Bft) S-SW 205 ° 0 min 0,000 mm 0,0 UV-I 0 W/m² -6,7 °C -3,9 °C 1,6 km/h (1 Bft)
29.01.2017 01:09 -3,9 °C -3,9 °C 81 % 1023,5 hPa 0,0 mm 1,1 km/h (1 Bft) S-SW 205 ° 0 min 0,000 mm 0,0 UV-I 0 W/m² -6,7 °C -3,9 °C 1,6 km/h (1 Bft)
29.01.2017 01:10 -4,0 °C -3,9 °C 81 % 1023,5 hPa 0,0 mm 0,6 km/h (0 Bft) S-SW 205 ° 0 min 0,000 mm 0,0 UV-I 0 W/m² -6,8 °C -4,0 °C 1,6 km/h (1 Bft)
29.01.2017 01:11 -4,0 °C -3,9 °C 81 % 1023,5 hPa 0,0 mm 0,0 km/h (0 Bft) S-SW 205 ° 0 min 0,000 mm 0,0 UV-I 0 W/m² -6,8 °C -4,0 °C 0,0 km/h (0 Bft)
29.01.2017 01:12 -4,0 °C -4,0 °C 81 % 1023,5 hPa 0,0 mm 0,0 km/h (0 Bft) S-SW 205 ° 0 min 0,000 mm 0,0 UV-I 0 W/m² -6,8 °C -4,0 °C 0,0 km/h (0 Bft)
29.01.2017 01:13 -4,1 °C -4,0 °C 81 % 1023,5 hPa 0,0 mm 0,5 km/h (0 Bft) S-SW 205 ° 0 min 0,000 mm 0,0 UV-I 0 W/m² -6,9 °C -4,1 °C 1,6 km/h (1 Bft)
29.01.2017 01:14 -4,1 °C -4,0 °C 81 % 1023,6 hPa 0,0 mm 0,5 km/h (0 Bft) S-SW 205 ° 0 min 0,000 mm 0,0 UV-I 0 W/m² -6,9 °C -4,1 °C 1,6 km/h (1 Bft)
29.01.2017 01:15 -4,1 °C -4,1 °C 81 % 1023,5 hPa 0,0 mm 0,9 km/h (0 Bft) S-SW 205 ° 0 min 0,000 mm 0,0 UV-I 0 W/m² -6,9 °C -4,1 °C 1,6 km/h (1 Bft)
29.01.2017 01:16 -4,1 °C -4,1 °C 81 % 1023,5 hPa 0,0 mm 0,1 km/h (0 Bft) S-SW 205 ° 0 min 0,000 mm 0,0 UV-I 0 W/m² -6,9 °C -4,1 °C 1,6 km/h (1 Bft)
29.01.2017 01:17 -4,1 °C -4,1 °C 81 % 1023,5 hPa 0,0 mm 0,0 km/h (0 Bft) S-SW 205 ° 0 min 0,000 mm 0,0 UV-I 0 W/m² -6,9 °C -4,1 °C 0,0 km/h (0 Bft)
29.01.2017 01:18 -4,1 °C -4,1 °C 81 % 1023,6 hPa 0,0 mm 0,0 km/h (0 Bft) S-SW 205 ° 0 min 0,000 mm 0,0 UV-I 0 W/m² -6,9 °C -4,1 °C 0,0 km/h (0 Bft)
29.01.2017 01:19 -4,1 °C -4,1 °C 81 % 1023,5 hPa 0,0 mm 0,0 km/h (0 Bft) S-SW 205 ° 0 min 0,000 mm 0,0 UV-I 0 W/m² -6,9 °C -4,1 °C 0,0 km/h (0 Bft)
29.01.2017 01:20 -4,1 °C -4,1 °C 81 % 1023,5 hPa 0,0 mm 0,0 km/h (0 Bft) S-SW 205 ° 0 min 0,000 mm 0,0 UV-I 0 W/m² -6,9 °C -4,1 °C 0,0 km/h (0 Bft)
29.01.2017 01:21 -4,2 °C -4,1 °C 81 % 1023,5 hPa 0,0 mm 0,0 km/h (0 Bft) S-SW 205 ° 0 min 0,000 mm 0,0 UV-I 0 W/m² -7,0 °C -4,2 °C 0,0 km/h (0 Bft)
29.01.2017 01:22 -4,2 °C -4,2 °C 81 % 1023,5 hPa 0,0 mm 0,0 km/h (0 Bft) S-SW 205 ° 0 min 0,000 mm 0,0 UV-I 0 W/m² -7,0 °C -4,2 °C 0,0 km/h (0 Bft)
29.01.2017 01:23 -4,2 °C -4,1 °C 81 % 1023,5 hPa 0,0 mm 0,0 km/h (0 Bft) S-SW 205 ° 0 min 0,000 mm 0,0 UV-I 0 W/m² -7,0 °C -4,2 °C 0,0 km/h (0 Bft)
29.01.2017 01:24 -4,2 °C -4,2 °C 81 % 1023,4 hPa 0,0 mm 0,0 km/h (0 Bft) S-SW 205 ° 0 min 0,000 mm 0,0 UV-I 0 W/m² -7,0 °C -4,2 °C 0,0 km/h (0 Bft)
29.01.2017 01:25 -4,2 °C -4,2 °C 81 % 1023,4 hPa 0,0 mm 0,0 km/h (0 Bft) S-SW 205 ° 0 min 0,000 mm 0,0 UV-I 0 W/m² -7,0 °C -4,2 °C 0,0 km/h (0 Bft)
29.01.2017 01:26 -4,2 °C -4,2 °C 81 % 1023,5 hPa 0,0 mm 0,0 km/h (0 Bft) S-SW 205 ° 0 min 0,000 mm 0,0 UV-I 0 W/m² -7,0 °C -4,2 °C 0,0 km/h (0 Bft)
29.01.2017 01:27 -4,2 °C -4,2 °C 81 % 1023,5 hPa 0,0 mm 0,0 km/h (0 Bft) S-SW 205 ° 0 min 0,000 mm 0,0 UV-I 0 W/m² -7,0 °C -4,2 °C 0,0 km/h (0 Bft)
29.01.2017 01:28 -4,3 °C -4,2 °C 81 % 1023,5 hPa 0,0 mm 0,0 km/h (0 Bft) S-SW 205 ° 0 min 0,000 mm 0,0 UV-I 0 W/m² -7,1 °C -4,3 °C 0,0 km/h (0 Bft)
29.01.2017 01:29 -4,3 °C -4,3 °C 82 % 1023,5 hPa 0,0 mm 0,0 km/h (0 Bft) S-SW 205 ° 0 min 0,000 mm 0,0 UV-I 0 W/m² -6,9 °C -4,3 °C 0,0 km/h (0 Bft)
29.01.2017 01:30 -4,3 °C -4,3 °C 82 % 1023,5 hPa 0,0 mm 0,6 km/h (0 Bft) S-SW 205 ° 0 min 0,000 mm 0,0 UV-I 0 W/m² -6,9 °C -4,3 °C 1,6 km/h (1 Bft)
29.01.2017 01:31 -4,3 °C -4,3 °C 82 % 1023,5 hPa 0,0 mm 0,7 km/h (0 Bft) S-SW 205 ° 0 min 0,000 mm 0,0 UV-I 0 W/m² -6,9 °C -4,3 °C 1,6 km/h (1 Bft)
29.01.2017 01:32 -4,3 °C -4,3 °C 82 % 1023,6 hPa 0,0 mm 0,3 km/h (0 Bft) S-SW 205 ° 0 min 0,000 mm 0,0 UV-I 0 W/m² -6,9 °C -4,3 °C 1,6 km/h (1 Bft)
29.01.2017 01:33 -4,3 °C -4,3 °C 82 % 1023,6 hPa 0,0 mm 0,9 km/h (0 Bft) S-SW 205 ° 0 min 0,000 mm 0,0 UV-I 0 W/m² -6,9 °C -4,3 °C 1,6 km/h (1 Bft)
29.01.2017 01:34 -4,3 °C -4,3 °C 83 % 1023,5 hPa 0,0 mm 0,9 km/h (0 Bft) S-SW 205 ° 0 min 0,000 mm 0,0 UV-I 0 W/m² -6,7 °C -4,3 °C 1,6 km/h (1 Bft)
29.01.2017 01:35 -4,3 °C -4,3 °C 83 % 1023,6 hPa 0,0 mm 1,2 km/h (1 Bft) S-SW 205 ° 0 min 0,000 mm 0,0 UV-I 0 W/m² -6,7 °C -4,3 °C 3,2 km/h (1 Bft)
29.01.2017 01:36 -4,3 °C -4,3 °C 83 % 1023,6 hPa 0,0 mm 1,0 km/h (0 Bft) S-SW 205 ° 0 min 0,000 mm 0,0 UV-I 0 W/m² -6,7 °C -4,3 °C 3,2 km/h (1 Bft)
29.01.2017 01:37 -4,3 °C -4,3 °C 83 % 1023,5 hPa 0,0 mm 0,0 km/h (0 Bft) S-SW 205 ° 0 min 0,000 mm 0,0 UV-I 0 W/m² -6,7 °C -4,3 °C 0,0 km/h (0 Bft)
29.01.2017 01:38 -4,3 °C -4,3 °C 83 % 1023,5 hPa 0,0 mm 0,0 km/h (0 Bft) S-SW 205 ° 0 min 0,000 mm 0,0 UV-I 0 W/m² -6,7 °C -4,3 °C 0,0 km/h (0 Bft)
29.01.2017 01:39 -4,3 °C -4,3 °C 83 % 1023,6 hPa 0,0 mm 0,0 km/h (0 Bft) S-SW 205 ° 0 min 0,000 mm 0,0 UV-I 0 W/m² -6,7 °C -4,3 °C 0,0 km/h (0 Bft)
29.01.2017 01:40 -4,3 °C -4,3 °C 83 % 1023,5 hPa 0,0 mm 0,0 km/h (0 Bft) S-SW 205 ° 0 min 0,000 mm 0,0 UV-I 0 W/m² -6,7 °C -4,3 °C 0,0 km/h (0 Bft)
29.01.2017 01:41 -4,3 °C -4,3 °C 83 % 1023,6 hPa 0,0 mm 0,0 km/h (0 Bft) S-SW 205 ° 0 min 0,000 mm 0,0 UV-I 0 W/m² -6,7 °C -4,3 °C 0,0 km/h (0 Bft)
29.01.2017 01:42 -4,3 °C -4,3 °C 83 % 1023,6 hPa 0,0 mm 0,1 km/h (0 Bft) S-SW 205 ° 0 min 0,000 mm 0,0 UV-I 0 W/m² -6,7 °C -4,3 °C 1,6 km/h (1 Bft)
29.01.2017 01:43 -4,3 °C -4,3 °C 83 % 1023,6 hPa 0,0 mm 0,9 km/h (0 Bft) S-SW 205 ° 0 min 0,000 mm 0,0 UV-I 0 W/m² -6,7 °C -4,3 °C 1,6 km/h (1 Bft)
29.01.2017 01:44 -4,2 °C -4,2 °C 83 % 1023,6 hPa 0,0 mm 1,1 km/h (1 Bft) S-SW 205 ° 0 min 0,000 mm 0,0 UV-I 0 W/m² -6,6 °C -4,2 °C 1,6 km/h (1 Bft)
29.01.2017 01:45 -4,2 °C -4,2 °C 84 % 1023,5 hPa 0,0 mm 1,3 km/h (1 Bft) S-SW 205 ° 0 min 0,000 mm 0,0 UV-I 0 W/m² -6,5 °C -4,2 °C 3,2 km/h (1 Bft)
29.01.2017 01:46 -4,1 °C -4,1 °C 84 % 1023,5 hPa 0,0 mm 1,7 km/h (1 Bft) S-SW 205 ° 0 min 0,000 mm 0,0 UV-I 0 W/m² -6,4 °C -4,1 °C 3,2 km/h (1 Bft)
29.01.2017 01:47 -4,1 °C -4,1 °C 83 % 1023,5 hPa 0,0 mm 1,8 km/h (1 Bft) S-SW 204 ° 0 min 0,000 mm 0,0 UV-I 0 W/m² -6,5 °C -4,1 °C 3,2 km/h (1 Bft)
29.01.2017 01:48 -4,1 °C -4,1 °C 83 % 1023,5 hPa 0,0 mm 0,1 km/h (0 Bft) S-SW 204 ° 0 min 0,000 mm 0,0 UV-I 0 W/m² -6,5 °C -4,1 °C 1,6 km/h (1 Bft)
29.01.2017 01:49 -4,0 °C -4,0 °C 83 % 1023,5 hPa 0,0 mm 0,1 km/h (0 Bft) S-SW 204 ° 0 min 0,000 mm 0,0 UV-I 0 W/m² -6,4 °C -4,0 °C 1,6 km/h (1 Bft)
29.01.2017 01:50 -3,9 °C -3,9 °C 83 % 1023,5 hPa 0,0 mm 0,5 km/h (0 Bft) S-SW 205 ° 0 min 0,000 mm 0,0 UV-I 0 W/m² -6,4 °C -3,9 °C 1,6 km/h (1 Bft)
29.01.2017 01:51 -3,9 °C -3,9 °C 83 % 1023,5 hPa 0,0 mm 0,9 km/h (0 Bft) S-SW 205 ° 0 min 0,000 mm 0,0 UV-I 0 W/m² -6,4 °C -3,9 °C 1,6 km/h (1 Bft)
29.01.2017 01:52 -3,9 °C -3,9 °C 81 % 1023,6 hPa 0,0 mm 0,6 km/h (0 Bft) S-SW 205 ° 0 min 0,000 mm 0,0 UV-I 0 W/m² -6,7 °C -3,9 °C 1,6 km/h (1 Bft)
29.01.2017 01:53 -3,9 °C -3,9 °C 81 % 1023,6 hPa 0,0 mm 0,5 km/h (0 Bft) S-SW 204 ° 0 min 0,000 mm 0,0 UV-I 0 W/m² -6,7 °C -3,9 °C 1,6 km/h (1 Bft)
29.01.2017 01:54 -3,9 °C -3,9 °C 81 % 1023,5 hPa 0,0 mm 1,3 km/h (1 Bft) S-SW 204 ° 0 min 0,000 mm 0,0 UV-I 0 W/m² -6,7 °C -3,9 °C 1,6 km/h (1 Bft)
29.01.2017 01:55 -3,9 °C -3,9 °C 81 % 1023,5 hPa 0,0 mm 1,3 km/h (1 Bft) S-SW 204 ° 0 min 0,000 mm 0,0 UV-I 0 W/m² -6,7 °C -3,9 °C 1,6 km/h (1 Bft)
29.01.2017 01:56 -3,9 °C -3,9 °C 81 % 1023,5 hPa 0,0 mm 2,0 km/h (1 Bft) S-SW 204 ° 0 min 0,000 mm 0,0 UV-I 0 W/m² -6,7 °C -3,9 °C 3,2 km/h (1 Bft)
29.01.2017 01:57 -3,9 °C -3,9 °C 81 % 1023,5 hPa 0,0 mm 2,5 km/h (1 Bft) S-SO 148 ° 0 min 0,000 mm 0,0 UV-I 0 W/m² -6,7 °C -3,9 °C 3,2 km/h (1 Bft)
29.01.2017 01:58 -3,9 °C -3,9 °C 81 % 1023,6 hPa 0,0 mm 2,3 km/h (1 Bft) S-SO 148 ° 0 min 0,000 mm 0,0 UV-I 0 W/m² -6,7 °C -3,9 °C 3,2 km/h (1 Bft)
29.01.2017 01:59 -3,9 °C -3,9 °C 81 % 1023,6 hPa 0,0 mm 1,5 km/h (1 Bft) S-SO 148 ° 0 min 0,000 mm 0,0 UV-I 0 W/m² -6,7 °C -3,9 °C 3,2 km/h (1 Bft)
29.01.2017 02:00 -3,9 °C -3,9 °C 81 % 1023,6 hPa 0,0 mm 1,3 km/h (1 Bft) S-SO 148 ° 0 min 0,000 mm 0,0 UV-I 0 W/m² -6,7 °C -3,9 °C 1,6 km/h (1 Bft)
29.01.2017 02:01 -3,9 °C -3,9 °C 81 % 1023,6 hPa 0,0 mm 0,1 km/h (0 Bft) S-SO 148 ° 0 min 0,000 mm 0,0 UV-I 0 W/m² -6,7 °C -3,9 °C 1,6 km/h (1 Bft)
29.01.2017 02:02 -3,9 °C -3,9 °C 81 % 1023,6 hPa 0,0 mm 0,0 km/h (0 Bft) S-SO 148 ° 0 min 0,000 mm 0,0 UV-I 0 W/m² -6,7 °C -3,9 °C 0,0 km/h (0 Bft)
29.01.2017 02:03 -3,9 °C -3,9 °C 81 % 1023,6 hPa 0,0 mm 0,0 km/h (0 Bft) S-SO 148 ° 0 min 0,000 mm 0,0 UV-I 0 W/m² -6,7 °C -3,9 °C 0,0 km/h (0 Bft)
29.01.2017 02:04 -3,9 °C -3,9 °C 81 % 1023,6 hPa 0,0 mm 0,4 km/h (0 Bft) S-SO 148 ° 0 min 0,000 mm 0,0 UV-I 0 W/m² -6,7 °C -3,9 °C 1,6 km/h (1 Bft)
29.01.2017 02:05 -3,9 °C -3,9 °C 81 % 1023,6 hPa 0,0 mm 0,9 km/h (0 Bft) S-SO 148 ° 0 min 0,000 mm 0,0 UV-I 0 W/m² -6,7 °C -3,9 °C 1,6 km/h (1 Bft)
29.01.2017 02:06 -3,9 °C -3,9 °C 81 % 1023,6 hPa 0,0 mm 0,1 km/h (0 Bft) S-SO 148 ° 0 min 0,000 mm 0,0 UV-I 0 W/m² -6,7 °C -3,9 °C 1,6 km/h (1 Bft)
29.01.2017 02:07 -3,9 °C -3,9 °C 81 % 1023,6 hPa 0,0 mm 0,8 km/h (0 Bft) S-SO 148 ° 0 min 0,000 mm 0,0 UV-I 0 W/m² -6,7 °C -3,9 °C 1,6 km/h (1 Bft)
29.01.2017 02:08 -3,9 °C -3,9 °C 81 % 1023,6 hPa 0,0 mm 1,2 km/h (1 Bft) S-SO 148 ° 0 min 0,000 mm 0,0 UV-I 0 W/m² -6,7 °C -3,9 °C 1,6 km/h (1 Bft)
29.01.2017 02:09 -3,9 °C -3,9 °C 81 % 1023,6 hPa 0,0 mm 1,5 km/h (1 Bft) S-SO 148 ° 0 min 0,000 mm 0,0 UV-I 0 W/m² -6,7 °C -3,9 °C 1,6 km/h (1 Bft)
29.01.2017 02:10 -3,9 °C -3,9 °C 82 % 1023,6 hPa 0,0 mm 0,8 km/h (0 Bft) S-SO 148 ° 0 min 0,000 mm 0,0 UV-I 0 W/m² -6,5 °C -3,9 °C 1,6 km/h (1 Bft)
29.01.2017 02:11 -3,9 °C -3,9 °C 82 % 1023,6 hPa 0,0 mm 0,3 km/h (0 Bft) S-SO 148 ° 0 min 0,000 mm 0,0 UV-I 0 W/m² -6,5 °C -3,9 °C 1,6 km/h (1 Bft)
29.01.2017 02:12 -3,9 °C -3,9 °C 82 % 1023,6 hPa 0,0 mm 0,1 km/h (0 Bft) S-SO 148 ° 0 min 0,000 mm 0,0 UV-I 0 W/m² -6,5 °C -3,9 °C 1,6 km/h (1 Bft)
29.01.2017 02:13 -3,9 °C -3,9 °C 81 % 1023,6 hPa 0,0 mm 0,0 km/h (0 Bft) S-SO 148 ° 0 min 0,000 mm 0,0 UV-I 0 W/m² -6,7 °C -3,9 °C 0,0 km/h (0 Bft)
29.01.2017 02:14 -4,0 °C -3,9 °C 80 % 1023,6 hPa 0,0 mm 0,1 km/h (0 Bft) S-SO 148 ° 0 min 0,000 mm 0,0 UV-I 0 W/m² -6,9 °C -4,0 °C 1,6 km/h (1 Bft)
29.01.2017 02:15 -4,0 °C -4,0 °C 80 % 1023,6 hPa 0,0 mm 1,1 km/h (1 Bft) S-SO 148 ° 0 min 0,000 mm 0,0 UV-I 0 W/m² -6,9 °C -4,0 °C 1,6 km/h (1 Bft)
29.01.2017 02:16 -4,0 °C -4,0 °C 81 % 1023,6 hPa 0,0 mm 0,6 km/h (0 Bft) S-SO 148 ° 0 min 0,000 mm 0,0 UV-I 0 W/m² -6,8 °C -4,0 °C 1,6 km/h (1 Bft)
29.01.2017 02:17 -4,1 °C -4,0 °C 81 % 1023,7 hPa 0,0 mm 0,0 km/h (0 Bft) S-SO 148 ° 0 min 0,000 mm 0,0 UV-I 0 W/m² -6,9 °C -4,1 °C 0,0 km/h (0 Bft)
29.01.2017 02:18 -4,1 °C -4,0 °C 81 % 1023,6 hPa 0,0 mm 0,5 km/h (0 Bft) S-SO 148 ° 0 min 0,000 mm 0,0 UV-I 0 W/m² -6,9 °C -4,1 °C 1,6 km/h (1 Bft)
29.01.2017 02:19 -4,1 °C -4,1 °C 80 % 1023,7 hPa 0,0 mm 0,3 km/h (0 Bft) S-SO 148 ° 0 min 0,000 mm 0,0 UV-I 0 W/m² -7,0 °C -4,1 °C 1,6 km/h (1 Bft)
29.01.2017 02:20 -4,1 °C -4,1 °C 80 % 1023,7 hPa 0,0 mm 2,3 km/h (1 Bft) S-SW 213 ° 0 min 0,000 mm 0,0 UV-I 0 W/m² -7,0 °C -4,1 °C 3,2 km/h (1 Bft)
29.01.2017 02:21 -4,1 °C -4,1 °C 79 % 1023,7 hPa 0,0 mm 0,5 km/h (0 Bft) S-SW 213 ° 0 min 0,000 mm 0,0 UV-I 0 W/m² -7,2 °C -4,1 °C 1,6 km/h (1 Bft)
29.01.2017 02:22 -4,2 °C -4,1 °C 79 % 1023,7 hPa 0,0 mm 0,4 km/h (0 Bft) S-SW 213 ° 0 min 0,000 mm 0,0 UV-I 0 W/m² -7,3 °C -4,2 °C 1,6 km/h (1 Bft)
29.01.2017 02:23 -4,2 °C -4,2 °C 80 % 1023,6 hPa 0,0 mm 1,3 km/h (1 Bft) W-SW 256 ° 0 min 0,000 mm 0,0 UV-I 0 W/m² -7,1 °C -4,2 °C 3,2 km/h (1 Bft)
29.01.2017 02:24 -4,2 °C -4,2 °C 79 % 1023,7 hPa 0,0 mm 3,8 km/h (1 Bft) W-NW 288 ° 0 min 0,000 mm 0,0 UV-I 0 W/m² -7,3 °C -4,2 °C 4,8 km/h (1 Bft)
29.01.2017 02:25 -4,3 °C -4,2 °C 78 % 1023,7 hPa 0,0 mm 2,9 km/h (1 Bft) O-NO 68 ° 0 min 0,000 mm 0,0 UV-I 0 W/m² -7,5 °C -4,3 °C 6,4 km/h (2 Bft)
29.01.2017 02:26 -4,4 °C -4,3 °C 78 % 1023,6 hPa 0,0 mm 3,5 km/h (1 Bft) O-NO 68 ° 0 min 0,000 mm 0,0 UV-I 0 W/m² -7,6 °C -4,4 °C 6,4 km/h (2 Bft)
29.01.2017 02:27 -4,4 °C -4,4 °C 78 % 1023,7 hPa 0,0 mm 0,7 km/h (0 Bft) O-NO 68 ° 0 min 0,000 mm 0,0 UV-I 0 W/m² -7,6 °C -4,4 °C 1,6 km/h (1 Bft)
29.01.2017 02:28 -4,5 °C -4,4 °C 79 % 1023,7 hPa 0,0 mm 0,8 km/h (0 Bft) O-NO 68 ° 0 min 0,000 mm 0,0 UV-I 0 W/m² -7,6 °C -4,5 °C 3,2 km/h (1 Bft)
29.01.2017 02:29 -4,6 °C -4,5 °C 79 % 1023,7 hPa 0,0 mm 2,7 km/h (1 Bft) O-NO 68 ° 0 min 0,000 mm 0,0 UV-I 0 W/m² -7,7 °C -4,6 °C 4,8 km/h (1 Bft)
29.01.2017 02:30 -4,6 °C -4,6 °C 80 % 1023,7 hPa 0,0 mm 1,5 km/h (1 Bft) O-NO 68 ° 0 min 0,000 mm 0,0 UV-I 0 W/m² -7,5 °C -4,6 °C 1,6 km/h (1 Bft)
29.01.2017 02:31 -4,7 °C -4,6 °C 80 % 1023,7 hPa 0,0 mm 0,1 km/h (0 Bft) O-NO 68 ° 0 min 0,000 mm 0,0 UV-I 0 W/m² -7,6 °C -4,7 °C 1,6 km/h (1 Bft)
29.01.2017 02:32 -4,7 °C -4,7 °C 81 % 1023,7 hPa 0,0 mm 0,9 km/h (0 Bft) O-NO 68 ° 0 min 0,000 mm 0,0 UV-I 0 W/m² -7,4 °C -4,7 °C 1,6 km/h (1 Bft)
29.01.2017 02:33 -4,7 °C -4,7 °C 81 % 1023,6 hPa 0,0 mm 3,0 km/h (1 Bft) O-NO 68 ° 0 min 0,000 mm 0,0 UV-I 0 W/m² -7,4 °C -4,7 °C 4,8 km/h (1 Bft)
29.01.2017 02:34 -4,8 °C -4,7 °C 81 % 1023,7 hPa 0,0 mm 1,7 km/h (1 Bft) O-NO 68 ° 0 min 0,000 mm 0,0 UV-I 0 W/m² -7,5 °C -4,8 °C 3,2 km/h (1 Bft)
29.01.2017 02:35 -4,8 °C -4,8 °C 82 % 1023,7 hPa 0,0 mm 1,0 km/h (0 Bft) O-NO 68 ° 0 min 0,000 mm 0,0 UV-I 0 W/m² -7,4 °C -4,8 °C 3,2 km/h (1 Bft)
29.01.2017 02:36 -4,8 °C -4,8 °C 82 % 1023,7 hPa 0,0 mm 0,3 km/h (0 Bft) O-NO 68 ° 0 min 0,000 mm 0,0 UV-I 0 W/m² -7,4 °C -4,8 °C 1,6 km/h (1 Bft)
29.01.2017 02:37 -4,8 °C -4,8 °C 82 % 1023,8 hPa 0,0 mm 0,0 km/h (0 Bft) O-NO 68 ° 0 min 0,000 mm 0,0 UV-I 0 W/m² -7,4 °C -4,8 °C 0,0 km/h (0 Bft)
29.01.2017 02:38 -4,8 °C -4,8 °C 82 % 1023,7 hPa 0,0 mm 0,0 km/h (0 Bft) O-NO 68 ° 0 min 0,000 mm 0,0 UV-I 0 W/m² -7,4 °C -4,8 °C 0,0 km/h (0 Bft)
29.01.2017 02:39 -4,8 °C -4,8 °C 82 % 1023,7 hPa 0,0 mm 0,0 km/h (0 Bft) O-NO 68 ° 0 min 0,000 mm 0,0 UV-I 0 W/m² -7,4 °C -4,8 °C 0,0 km/h (0 Bft)
29.01.2017 02:40 -4,9 °C -4,8 °C 82 % 1023,7 hPa 0,0 mm 0,1 km/h (0 Bft) O-NO 68 ° 0 min 0,000 mm 0,0 UV-I 0 W/m² -7,5 °C -4,9 °C 1,6 km/h (1 Bft)
29.01.2017 02:41 -4,9 °C -4,9 °C 82 % 1023,7 hPa 0,0 mm 1,3 km/h (1 Bft) O-NO 68 ° 0 min 0,000 mm 0,0 UV-I 0 W/m² -7,5 °C -4,9 °C 1,6 km/h (1 Bft)
29.01.2017 02:42 -4,9 °C -4,9 °C 82 % 1023,8 hPa 0,0 mm 0,5 km/h (0 Bft) O-NO 68 ° 0 min 0,000 mm 0,0 UV-I 0 W/m² -7,5 °C -4,9 °C 1,6 km/h (1 Bft)
29.01.2017 02:43 -4,9 °C -4,9 °C 82 % 1023,7 hPa 0,0 mm 0,7 km/h (0 Bft) O-NO 68 ° 0 min 0,000 mm 0,0 UV-I 0 W/m² -7,5 °C -4,9 °C 1,6 km/h (1 Bft)
29.01.2017 02:44 -4,9 °C -4,9 °C 82 % 1023,7 hPa 0,0 mm 1,1 km/h (1 Bft) O-NO 68 ° 0 min 0,000 mm 0,0 UV-I 0 W/m² -7,5 °C -4,9 °C 3,2 km/h (1 Bft)
29.01.2017 02:45 -4,9 °C -4,9 °C 82 % 1023,7 hPa 0,0 mm 0,0 km/h (0 Bft) O-NO 68 ° 0 min 0,000 mm 0,0 UV-I 0 W/m² -7,5 °C -4,9 °C 0,0 km/h (0 Bft)
29.01.2017 02:46 -4,9 °C -4,9 °C 83 % 1023,7 hPa 0,0 mm 0,0 km/h (0 Bft) O-NO 68 ° 0 min 0,000 mm 0,0 UV-I 0 W/m² -7,3 °C -4,9 °C 0,0 km/h (0 Bft)
29.01.2017 02:47 -5,0 °C -4,9 °C 83 % 1023,7 hPa 0,0 mm 0,0 km/h (0 Bft) O-NO 68 ° 0 min 0,000 mm 0,0 UV-I 0 W/m² -7,4 °C -5,0 °C 0,0 km/h (0 Bft)
29.01.2017 02:48 -5,0 °C -5,0 °C 83 % 1023,7 hPa 0,0 mm 0,0 km/h (0 Bft) O-NO 68 ° 0 min 0,000 mm 0,0 UV-I 0 W/m² -7,4 °C -5,0 °C 0,0 km/h (0 Bft)
29.01.2017 02:49 -5,0 °C -5,0 °C 83 % 1023,7 hPa 0,0 mm 0,0 km/h (0 Bft) O-NO 68 ° 0 min 0,000 mm 0,0 UV-I 0 W/m² -7,4 °C -5,0 °C 0,0 km/h (0 Bft)
29.01.2017 02:50 -5,1 °C -5,0 °C 83 % 1023,8 hPa 0,0 mm 0,5 km/h (0 Bft) O-NO 68 ° 0 min 0,000 mm 0,0 UV-I 0 W/m² -7,5 °C -5,1 °C 1,6 km/h (1 Bft)
29.01.2017 02:51 -5,1 °C -5,1 °C 83 % 1023,8 hPa 0,0 mm 0,2 km/h (0 Bft) O-NO 68 ° 0 min 0,000 mm 0,0 UV-I 0 W/m² -7,5 °C -5,1 °C 1,6 km/h (1 Bft)
29.01.2017 02:52 -5,1 °C -5,1 °C 82 % 1023,8 hPa 0,0 mm 0,4 km/h (0 Bft) O-NO 68 ° 0 min 0,000 mm 0,0 UV-I 0 W/m² -7,7 °C -5,1 °C 1,6 km/h (1 Bft)
29.01.2017 02:53 -5,1 °C -5,1 °C 82 % 1023,8 hPa 0,0 mm 0,0 km/h (0 Bft) O-NO 68 ° 0 min 0,000 mm 0,0 UV-I 0 W/m² -7,7 °C -5,1 °C 0,0 km/h (0 Bft)
29.01.2017 02:54 -5,1 °C -5,1 °C 82 % 1023,8 hPa 0,0 mm 0,0 km/h (0 Bft) O-NO 68 ° 0 min 0,000 mm 0,0 UV-I 0 W/m² -7,7 °C -5,1 °C 0,0 km/h (0 Bft)
29.01.2017 02:55 -5,2 °C -5,1 °C 82 % 1023,8 hPa 0,0 mm 0,8 km/h (0 Bft) O-NO 68 ° 0 min 0,000 mm 0,0 UV-I 0 W/m² -7,8 °C -5,2 °C 3,2 km/h (1 Bft)
29.01.2017 02:56 -5,2 °C -5,2 °C 82 % 1023,8 hPa 0,0 mm 0,6 km/h (0 Bft) O-NO 68 ° 0 min 0,000 mm 0,0 UV-I 0 W/m² -7,8 °C -5,2 °C 1,6 km/h (1 Bft)
29.01.2017 02:57 -5,2 °C -5,2 °C 82 % 1023,9 hPa 0,0 mm 0,8 km/h (0 Bft) O-NO 68 ° 0 min 0,000 mm 0,0 UV-I 0 W/m² -7,8 °C -5,2 °C 1,6 km/h (1 Bft)
29.01.2017 02:58 -5,2 °C -5,2 °C 83 % 1023,9 hPa 0,0 mm 0,3 km/h (0 Bft) O-NO 68 ° 0 min 0,000 mm 0,0 UV-I 0 W/m² -7,6 °C -5,2 °C 1,6 km/h (1 Bft)
29.01.2017 02:59 -5,2 °C -5,2 °C 83 % 1023,9 hPa 0,0 mm 0,1 km/h (0 Bft) O-NO 68 ° 0 min 0,000 mm 0,0 UV-I 0 W/m² -7,6 °C -5,2 °C 1,6 km/h (1 Bft)
29.01.2017 03:00 -5,2 °C -5,2 °C 83 % 1023,8 hPa 0,0 mm 0,0 km/h (0 Bft) O-NO 68 ° 0 min 0,000 mm 0,0 UV-I 0 W/m² -7,6 °C -5,2 °C 0,0 km/h (0 Bft)
29.01.2017 03:01 -5,3 °C -5,2 °C 83 % 1023,9 hPa 0,0 mm 0,0 km/h (0 Bft) O-NO 68 ° 0 min 0,000 mm 0,0 UV-I 0 W/m² -7,7 °C -5,3 °C 0,0 km/h (0 Bft)
29.01.2017 03:02 -5,3 °C -5,3 °C 83 % 1023,8 hPa 0,0 mm 0,0 km/h (0 Bft) O-NO 68 ° 0 min 0,000 mm 0,0 UV-I 0 W/m² -7,7 °C -5,3 °C 0,0 km/h (0 Bft)
29.01.2017 03:03 -5,3 °C -5,3 °C 83 % 1023,8 hPa 0,0 mm 0,0 km/h (0 Bft) O-NO 68 ° 0 min 0,000 mm 0,0 UV-I 0 W/m² -7,7 °C -5,3 °C 0,0 km/h (0 Bft)
29.01.2017 03:04 -5,3 °C -5,3 °C 83 % 1023,8 hPa 0,0 mm 0,0 km/h (0 Bft) O-NO 68 ° 0 min 0,000 mm 0,0 UV-I 0 W/m² -7,7 °C -5,3 °C 0,0 km/h (0 Bft)
29.01.2017 03:05 -5,3 °C -5,3 °C 83 % 1023,8 hPa 0,0 mm 0,0 km/h (0 Bft) O-NO 67 ° 0 min 0,000 mm 0,0 UV-I 0 W/m² -7,7 °C -5,3 °C 0,0 km/h (0 Bft)
29.01.2017 03:06 -5,3 °C -5,3 °C 83 % 1023,8 hPa 0,0 mm 0,6 km/h (0 Bft) O-NO 68 ° 0 min 0,000 mm 0,0 UV-I 0 W/m² -7,7 °C -5,3 °C 1,6 km/h (1 Bft)
29.01.2017 03:07 -5,3 °C -5,3 °C 83 % 1023,8 hPa 0,0 mm 0,0 km/h (0 Bft) O-NO 68 ° 0 min 0,000 mm 0,0 UV-I 0 W/m² -7,7 °C -5,3 °C 0,0 km/h (0 Bft)
29.01.2017 03:08 -5,4 °C -5,3 °C 83 % 1023,8 hPa 0,0 mm 0,3 km/h (0 Bft) O-NO 67 ° 0 min 0,000 mm 0,0 UV-I 0 W/m² -7,8 °C -5,4 °C 1,6 km/h (1 Bft)
29.01.2017 03:09 -5,4 °C -5,4 °C 83 % 1023,8 hPa 0,0 mm 0,1 km/h (0 Bft) O-NO 68 ° 0 min 0,000 mm 0,0 UV-I 0 W/m² -7,8 °C -5,4 °C 1,6 km/h (1 Bft)
29.01.2017 03:10 -5,4 °C -5,4 °C 83 % 1023,8 hPa 0,0 mm 0,0 km/h (0 Bft) O-NO 68 ° 0 min 0,000 mm 0,0 UV-I 0 W/m² -7,8 °C -5,4 °C 0,0 km/h (0 Bft)
29.01.2017 03:11 -5,4 °C -5,4 °C 84 % 1023,8 hPa 0,0 mm 0,0 km/h (0 Bft) O-NO 68 ° 0 min 0,000 mm 0,0 UV-I 0 W/m² -7,7 °C -5,4 °C 0,0 km/h (0 Bft)
29.01.2017 03:12 -5,4 °C -5,4 °C 84 % 1023,8 hPa 0,0 mm 0,1 km/h (0 Bft) O-NO 68 ° 0 min 0,000 mm 0,0 UV-I 0 W/m² -7,7 °C -5,4 °C 1,6 km/h (1 Bft)
29.01.2017 03:13 -5,4 °C -5,4 °C 84 % 1023,8 hPa 0,0 mm 0,3 km/h (0 Bft) O-NO 68 ° 0 min 0,000 mm 0,0 UV-I 0 W/m² -7,7 °C -5,4 °C 1,6 km/h (1 Bft)
29.01.2017 03:14 -5,4 °C -5,4 °C 84 % 1023,8 hPa 0,0 mm 0,0 km/h (0 Bft) O-NO 68 ° 0 min 0,000 mm 0,0 UV-I 0 W/m² -7,7 °C -5,4 °C 0,0 km/h (0 Bft)
29.01.2017 03:15 -5,5 °C -5,4 °C 84 % 1023,8 hPa 0,0 mm 0,0 km/h (0 Bft) O-NO 68 ° 0 min 0,000 mm 0,0 UV-I 0 W/m² -7,8 °C -5,5 °C 0,0 km/h (0 Bft)
29.01.2017 03:16 -5,5 °C -5,4 °C 84 % 1023,8 hPa 0,0 mm 1,0 km/h (0 Bft) O-NO 68 ° 0 min 0,000 mm 0,0 UV-I 0 W/m² -7,8 °C -5,5 °C 1,6 km/h (1 Bft)
29.01.2017 03:17 -5,5 °C -5,4 °C 84 % 1023,8 hPa 0,0 mm 0,5 km/h (0 Bft) O-NO 68 ° 0 min 0,000 mm 0,0 UV-I 0 W/m² -7,8 °C -5,5 °C 1,6 km/h (1 Bft)
29.01.2017 03:18 -5,6 °C -5,5 °C 84 % 1023,8 hPa 0,0 mm 0,7 km/h (0 Bft) O-NO 68 ° 0 min 0,000 mm 0,0 UV-I 0 W/m² -7,9 °C -5,6 °C 1,6 km/h (1 Bft)
29.01.2017 03:19 -5,6 °C -5,5 °C 84 % 1023,8 hPa 0,0 mm 0,3 km/h (0 Bft) O-NO 68 ° 0 min 0,000 mm 0,0 UV-I 0 W/m² -7,9 °C -5,6 °C 1,6 km/h (1 Bft)
29.01.2017 03:20 -5,6 °C -5,6 °C 84 % 1023,9 hPa 0,0 mm 0,5 km/h (0 Bft) O-NO 68 ° 0 min 0,000 mm 0,0 UV-I 0 W/m² -7,9 °C -5,6 °C 1,6 km/h (1 Bft)
29.01.2017 03:21 -5,6 °C -5,6 °C 84 % 1023,8 hPa 0,0 mm 1,1 km/h (1 Bft) O-NO 68 ° 0 min 0,000 mm 0,0 UV-I 0 W/m² -7,9 °C -5,6 °C 1,6 km/h (1 Bft)
29.01.2017 03:22 -5,6 °C -5,6 °C 84 % 1023,8 hPa 0,0 mm 1,9 km/h (1 Bft) O-NO 68 ° 0 min 0,000 mm 0,0 UV-I 0 W/m² -7,9 °C -5,6 °C 3,2 km/h (1 Bft)
29.01.2017 03:23 -5,6 °C -5,6 °C 85 % 1023,9 hPa 0,0 mm 1,7 km/h (1 Bft) O-NO 68 ° 0 min 0,000 mm 0,0 UV-I 0 W/m² -7,7 °C -5,6 °C 3,2 km/h (1 Bft)
29.01.2017 03:24 -5,6 °C -5,6 °C 85 % 1023,8 hPa 0,0 mm 1,1 km/h (1 Bft) O-NO 68 ° 0 min 0,000 mm 0,0 UV-I 0 W/m² -7,7 °C -5,6 °C 1,6 km/h (1 Bft)
29.01.2017 03:25 -5,7 °C -5,6 °C 85 % 1023,9 hPa 0,0 mm 0,0 km/h (0 Bft) O-NO 68 ° 0 min 0,000 mm 0,0 UV-I 0 W/m² -7,8 °C -5,7 °C 0,0 km/h (0 Bft)
29.01.2017 03:26 -5,7 °C -5,6 °C 85 % 1023,9 hPa 0,0 mm 0,0 km/h (0 Bft) O-NO 68 ° 0 min 0,000 mm 0,0 UV-I 0 W/m² -7,8 °C -5,7 °C 0,0 km/h (0 Bft)
29.01.2017 03:27 -5,7 °C -5,7 °C 85 % 1023,8 hPa 0,0 mm 0,4 km/h (0 Bft) O-NO 68 ° 0 min 0,000 mm 0,0 UV-I 0 W/m² -7,8 °C -5,7 °C 1,6 km/h (1 Bft)
29.01.2017 03:28 -5,7 °C -5,7 °C 86 % 1023,8 hPa 0,0 mm 0,9 km/h (0 Bft) O-NO 67 ° 0 min 0,000 mm 0,0 UV-I 0 W/m² -7,7 °C -5,7 °C 1,6 km/h (1 Bft)
29.01.2017 03:29 -5,7 °C -5,7 °C 86 % 1023,8 hPa 0,0 mm 1,3 km/h (1 Bft) O-NO 68 ° 0 min 0,000 mm 0,0 UV-I 0 W/m² -7,7 °C -5,7 °C 1,6 km/h (1 Bft)
29.01.2017 03:30 -5,7 °C -5,7 °C 87 % 1023,8 hPa 0,0 mm 0,6 km/h (0 Bft) O-NO 68 ° 0 min 0,000 mm 0,0 UV-I 0 W/m² -7,5 °C -5,7 °C 1,6 km/h (1 Bft)
29.01.2017 03:31 -5,6 °C -5,6 °C 87 % 1023,8 hPa 0,0 mm 0,9 km/h (0 Bft) O-NO 68 ° 0 min 0,000 mm 0,0 UV-I 0 W/m² -7,4 °C -5,6 °C 1,6 km/h (1 Bft)
29.01.2017 03:32 -5,7 °C -5,6 °C 87 % 1023,8 hPa 0,0 mm 0,0 km/h (0 Bft) O-NO 68 ° 0 min 0,000 mm 0,0 UV-I 0 W/m² -7,5 °C -5,7 °C 0,0 km/h (0 Bft)
29.01.2017 03:33 -5,7 °C -5,6 °C 87 % 1023,8 hPa 0,0 mm 0,0 km/h (0 Bft) O-NO 68 ° 0 min 0,000 mm 0,0 UV-I 0 W/m² -7,5 °C -5,7 °C 0,0 km/h (0 Bft)
29.01.2017 03:34 -5,7 °C -5,7 °C 87 % 1023,9 hPa 0,0 mm 0,0 km/h (0 Bft) O-NO 68 ° 0 min 0,000 mm 0,0 UV-I 0 W/m² -7,5 °C -5,7 °C 0,0 km/h (0 Bft)
29.01.2017 03:35 -5,7 °C -5,6 °C 87 % 1023,8 hPa 0,0 mm 1,4 km/h (1 Bft) O-NO 68 ° 0 min 0,000 mm 0,0 UV-I 0 W/m² -7,5 °C -5,7 °C 3,2 km/h (1 Bft)
29.01.2017 03:36 -5,7 °C -5,7 °C 87 % 1023,8 hPa 0,0 mm 1,3 km/h (1 Bft) O-NO 68 ° 0 min 0,000 mm 0,0 UV-I 0 W/m² -7,5 °C -5,7 °C 1,6 km/h (1 Bft)
29.01.2017 03:37 -5,6 °C -5,6 °C 87 % 1023,8 hPa 0,0 mm 0,1 km/h (0 Bft) O-NO 68 ° 0 min 0,000 mm 0,0 UV-I 0 W/m² -7,4 °C -5,6 °C 1,6 km/h (1 Bft)
29.01.2017 03:38 -5,6 °C -5,6 °C 87 % 1023,8 hPa 0,0 mm 0,3 km/h (0 Bft) O-NO 68 ° 0 min 0,000 mm 0,0 UV-I 0 W/m² -7,4 °C -5,6 °C 1,6 km/h (1 Bft)
29.01.2017 03:39 -5,7 °C -5,6 °C 87 % 1023,8 hPa 0,0 mm 0,3 km/h (0 Bft) O-NO 68 ° 0 min 0,000 mm 0,0 UV-I 0 W/m² -7,5 °C -5,7 °C 1,6 km/h (1 Bft)
29.01.2017 03:40 -5,6 °C -5,6 °C 87 % 1023,8 hPa 0,0 mm 0,0 km/h (0 Bft) O-NO 68 ° 0 min 0,000 mm 0,0 UV-I 0 W/m² -7,4 °C -5,6 °C 0,0 km/h (0 Bft)
29.01.2017 03:41 -5,6 °C -5,6 °C 87 % 1023,8 hPa 0,0 mm 1,0 km/h (0 Bft) O-NO 68 ° 0 min 0,000 mm 0,0 UV-I 0 W/m² -7,4 °C -5,6 °C 3,2 km/h (1 Bft)
29.01.2017 03:42 -5,6 °C -5,6 °C 87 % 1023,8 hPa 0,0 mm 2,0 km/h (1 Bft) O-NO 68 ° 0 min 0,000 mm 0,0 UV-I 0 W/m² -7,4 °C -5,6 °C 3,2 km/h (1 Bft)
29.01.2017 03:43 -5,6 °C -5,6 °C 87 % 1023,9 hPa 0,0 mm 1,5 km/h (1 Bft) O-NO 68 ° 0 min 0,000 mm 0,0 UV-I 0 W/m² -7,4 °C -5,6 °C 3,2 km/h (1 Bft)
29.01.2017 03:44 -5,6 °C -5,6 °C 87 % 1023,9 hPa 0,0 mm 1,5 km/h (1 Bft) O-NO 68 ° 0 min 0,000 mm 0,0 UV-I 0 W/m² -7,4 °C -5,6 °C 3,2 km/h (1 Bft)
29.01.2017 03:45 -5,6 °C -5,6 °C 87 % 1024,0 hPa 0,0 mm 1,1 km/h (1 Bft) O-NO 68 ° 0 min 0,000 mm 0,0 UV-I 0 W/m² -7,4 °C -5,6 °C 3,2 km/h (1 Bft)
29.01.2017 03:46 -5,6 °C -5,6 °C 87 % 1024,0 hPa 0,0 mm 0,7 km/h (0 Bft) O-NO 68 ° 0 min 0,000 mm 0,0 UV-I 0 W/m² -7,4 °C -5,6 °C 3,2 km/h (1 Bft)
29.01.2017 03:47 -5,6 °C -5,6 °C 87 % 1024,0 hPa 0,0 mm 1,5 km/h (1 Bft) O-NO 68 ° 0 min 0,000 mm 0,0 UV-I 0 W/m² -7,4 °C -5,6 °C 3,2 km/h (1 Bft)
29.01.2017 03:48 -5,6 °C -5,6 °C 87 % 1024,0 hPa 0,0 mm 0,8 km/h (0 Bft) O-NO 67 ° 0 min 0,000 mm 0,0 UV-I 0 W/m² -7,4 °C -5,6 °C 3,2 km/h (1 Bft)
29.01.2017 03:49 -5,6 °C -5,6 °C 87 % 1024,0 hPa 0,0 mm 0,8 km/h (0 Bft) O-NO 68 ° 0 min 0,000 mm 0,0 UV-I 0 W/m² -7,4 °C -5,6 °C 3,2 km/h (1 Bft)
29.01.2017 03:50 -5,6 °C -5,6 °C 86 % 1024,0 hPa 0,0 mm 2,4 km/h (1 Bft) O-NO 68 ° 0 min 0,000 mm 0,0 UV-I 0 W/m² -7,6 °C -5,6 °C 3,2 km/h (1 Bft)
29.01.2017 03:51 -5,6 °C -5,6 °C 86 % 1024,0 hPa 0,0 mm 0,3 km/h (0 Bft) O-NO 68 ° 0 min 0,000 mm 0,0 UV-I 0 W/m² -7,6 °C -5,6 °C 1,6 km/h (1 Bft)
29.01.2017 03:52 -5,6 °C -5,6 °C 86 % 1024,0 hPa 0,0 mm 0,4 km/h (0 Bft) O-NO 68 ° 0 min 0,000 mm 0,0 UV-I 0 W/m² -7,6 °C -5,6 °C 1,6 km/h (1 Bft)
29.01.2017 03:53 -5,6 °C -5,6 °C 86 % 1024,0 hPa 0,0 mm 2,7 km/h (1 Bft) O-NO 68 ° 0 min 0,000 mm 0,0 UV-I 0 W/m² -7,6 °C -5,6 °C 3,2 km/h (1 Bft)
29.01.2017 03:54 -5,6 °C -5,6 °C 87 % 1024,0 hPa 0,0 mm 1,3 km/h (1 Bft) O-NO 68 ° 0 min 0,000 mm 0,0 UV-I 0 W/m² -7,4 °C -5,6 °C 3,2 km/h (1 Bft)
29.01.2017 03:55 -5,6 °C -5,6 °C 87 % 1024,0 hPa 0,0 mm 0,4 km/h (0 Bft) O-NO 68 ° 0 min 0,000 mm 0,0 UV-I 0 W/m² -7,4 °C -5,6 °C 1,6 km/h (1 Bft)
29.01.2017 03:56 -5,6 °C -5,5 °C 87 % 1024,0 hPa 0,0 mm 0,0 km/h (0 Bft) O-NO 68 ° 0 min 0,000 mm 0,0 UV-I 0 W/m² -7,4 °C -5,6 °C 0,0 km/h (0 Bft)
29.01.2017 03:57 -5,5 °C -5,5 °C 87 % 1024,0 hPa 0,0 mm 0,8 km/h (0 Bft) O-NO 68 ° 0 min 0,000 mm 0,0 UV-I 0 W/m² -7,3 °C -5,5 °C 1,6 km/h (1 Bft)
29.01.2017 03:58 -5,5 °C -5,5 °C 87 % 1024,0 hPa 0,0 mm 0,1 km/h (0 Bft) O-NO 68 ° 0 min 0,000 mm 0,0 UV-I 0 W/m² -7,3 °C -5,5 °C 1,6 km/h (1 Bft)
29.01.2017 03:59 -5,5 °C -5,5 °C 86 % 1024,1 hPa 0,0 mm 0,1 km/h (0 Bft) O-NO 68 ° 0 min 0,000 mm 0,0 UV-I 0 W/m² -7,5 °C -5,5 °C 1,6 km/h (1 Bft)
29.01.2017 04:00 -5,5 °C -5,4 °C 86 % 1024,1 hPa 0,0 mm 0,2 km/h (0 Bft) O-NO 68 ° 0 min 0,000 mm 0,0 UV-I 0 W/m² -7,5 °C -5,5 °C 1,6 km/h (1 Bft)
29.01.2017 04:02 -5,5 °C -5,4 °C 86 % 1024,1 hPa 0,0 mm 0,0 km/h (0 Bft) O-NO 68 ° 0 min 0,000 mm 0,0 UV-I 0 W/m² -7,5 °C -5,5 °C 0,0 km/h (0 Bft)
29.01.2017 04:03 -5,5 °C -5,4 °C 86 % 1024,1 hPa 0,0 mm 0,0 km/h (0 Bft) O-NO 68 ° 0 min 0,000 mm 0,0 UV-I 0 W/m² -7,5 °C -5,5 °C 0,0 km/h (0 Bft)
29.01.2017 04:04 -5,4 °C -5,4 °C 86 % 1024,1 hPa 0,0 mm 0,0 km/h (0 Bft) O-NO 68 ° 0 min 0,000 mm 0,0 UV-I 0 W/m² -7,4 °C -5,4 °C 0,0 km/h (0 Bft)
29.01.2017 04:05 -5,4 °C -5,4 °C 86 % 1024,1 hPa 0,0 mm 0,0 km/h (0 Bft) O-NO 68 ° 0 min 0,000 mm 0,0 UV-I 0 W/m² -7,4 °C -5,4 °C 0,0 km/h (0 Bft)
29.01.2017 04:06 -5,4 °C -5,4 °C 86 % 1024,1 hPa 0,0 mm 0,0 km/h (0 Bft) O-NO 68 ° 0 min 0,000 mm 0,0 UV-I 0 W/m² -7,4 °C -5,4 °C 0,0 km/h (0 Bft)
29.01.2017 04:07 -5,4 °C -5,4 °C 86 % 1024,1 hPa 0,0 mm 1,5 km/h (1 Bft) O-NO 68 ° 0 min 0,000 mm 0,0 UV-I 0 W/m² -7,4 °C -5,4 °C 3,2 km/h (1 Bft)
29.01.2017 04:08 -5,4 °C -5,4 °C 86 % 1024,1 hPa 0,0 mm 0,5 km/h (0 Bft) O-NO 68 ° 0 min 0,000 mm 0,0 UV-I 0 W/m² -7,4 °C -5,4 °C 1,6 km/h (1 Bft)
29.01.2017 04:09 -5,4 °C -5,4 °C 86 % 1024,1 hPa 0,0 mm 0,1 km/h (0 Bft) O-NO 68 ° 0 min 0,000 mm 0,0 UV-I 0 W/m² -7,4 °C -5,4 °C 1,6 km/h (1 Bft)
29.01.2017 04:10 -5,4 °C -5,4 °C 85 % 1024,0 hPa 0,0 mm 1,1 km/h (1 Bft) O-NO 68 ° 0 min 0,000 mm 0,0 UV-I 0 W/m² -7,5 °C -5,4 °C 1,6 km/h (1 Bft)
29.01.2017 04:11 -5,4 °C -5,4 °C 86 % 1024,0 hPa 0,0 mm 1,5 km/h (1 Bft) O-NO 67 ° 0 min 0,000 mm 0,0 UV-I 0 W/m² -7,4 °C -5,4 °C 3,2 km/h (1 Bft)
29.01.2017 04:12 -5,5 °C -5,4 °C 86 % 1024,0 hPa 0,0 mm 0,4 km/h (0 Bft) O-NO 68 ° 0 min 0,000 mm 0,0 UV-I 0 W/m² -7,5 °C -5,5 °C 1,6 km/h (1 Bft)
29.01.2017 04:13 -5,4 °C -5,4 °C 86 % 1024,0 hPa 0,0 mm 0,7 km/h (0 Bft) O-NO 67 ° 0 min 0,000 mm 0,0 UV-I 0 W/m² -7,4 °C -5,4 °C 1,6 km/h (1 Bft)
29.01.2017 04:14 -5,4 °C -5,4 °C 85 % 1024,1 hPa 0,0 mm 1,0 km/h (0 Bft) O-NO 67 ° 0 min 0,000 mm 0,0 UV-I 0 W/m² -7,5 °C -5,4 °C 1,6 km/h (1 Bft)
29.01.2017 04:15 -5,5 °C -5,4 °C 85 % 1024,1 hPa 0,0 mm 2,4 km/h (1 Bft) O-NO 68 ° 0 min 0,000 mm 0,0 UV-I 0 W/m² -7,6 °C -5,5 °C 3,2 km/h (1 Bft)
29.01.2017 04:16 -5,5 °C -5,5 °C 85 % 1024,1 hPa 0,0 mm 0,7 km/h (0 Bft) O-NO 68 ° 0 min 0,000 mm 0,0 UV-I 0 W/m² -7,6 °C -5,5 °C 3,2 km/h (1 Bft)
29.01.2017 04:17 -5,5 °C -5,5 °C 85 % 1024,1 hPa 0,0 mm 1,3 km/h (1 Bft) O-NO 68 ° 0 min 0,000 mm 0,0 UV-I 0 W/m² -7,6 °C -5,5 °C 1,6 km/h (1 Bft)
29.01.2017 04:18 -5,5 °C -5,5 °C 85 % 1024,1 hPa 0,0 mm 0,7 km/h (0 Bft) O-NO 68 ° 0 min 0,000 mm 0,0 UV-I 0 W/m² -7,6 °C -5,5 °C 1,6 km/h (1 Bft)
29.01.2017 04:19 -5,6 °C -5,5 °C 85 % 1024,1 hPa 0,0 mm 1,8 km/h (1 Bft) O-NO 68 ° 0 min 0,000 mm 0,0 UV-I 0 W/m² -7,7 °C -5,6 °C 3,2 km/h (1 Bft)
29.01.2017 04:20 -5,6 °C -5,5 °C 85 % 1024,1 hPa 0,0 mm 1,8 km/h (1 Bft) O-NO 68 ° 0 min 0,000 mm 0,0 UV-I 0 W/m² -7,7 °C -5,6 °C 3,2 km/h (1 Bft)
29.01.2017 04:21 -5,6 °C -5,6 °C 86 % 1024,1 hPa 0,0 mm 0,2 km/h (0 Bft) O-NO 68 ° 0 min 0,000 mm 0,0 UV-I 0 W/m² -7,6 °C -5,6 °C 1,6 km/h (1 Bft)
29.01.2017 04:22 -5,5 °C -5,5 °C 86 % 1024,1 hPa 0,0 mm 0,1 km/h (0 Bft) O-NO 68 ° 0 min 0,000 mm 0,0 UV-I 0 W/m² -7,5 °C -5,5 °C 1,6 km/h (1 Bft)
29.01.2017 04:23 -5,6 °C -5,5 °C 86 % 1024,1 hPa 0,0 mm 0,0 km/h (0 Bft) O-NO 68 ° 0 min 0,000 mm 0,0 UV-I 0 W/m² -7,6 °C -5,6 °C 0,0 km/h (0 Bft)
29.01.2017 04:24 -5,6 °C -5,5 °C 86 % 1024,1 hPa 0,0 mm 0,0 km/h (0 Bft) O-NO 68 ° 0 min 0,000 mm 0,0 UV-I 0 W/m² -7,6 °C -5,6 °C 0,0 km/h (0 Bft)
29.01.2017 04:25 -5,6 °C -5,5 °C 86 % 1024,1 hPa 0,0 mm 0,0 km/h (0 Bft) O-NO 68 ° 0 min 0,000 mm 0,0 UV-I 0 W/m² -7,6 °C -5,6 °C 0,0 km/h (0 Bft)
29.01.2017 04:26 -5,5 °C -5,5 °C 86 % 1024,1 hPa 0,0 mm 0,0 km/h (0 Bft) O-NO 68 ° 0 min 0,000 mm 0,0 UV-I 0 W/m² -7,5 °C -5,5 °C 0,0 km/h (0 Bft)
29.01.2017 04:27 -5,6 °C -5,5 °C 86 % 1024,1 hPa 0,0 mm 0,0 km/h (0 Bft) O-NO 68 ° 0 min 0,000 mm 0,0 UV-I 0 W/m² -7,6 °C -5,6 °C 0,0 km/h (0 Bft)
29.01.2017 04:28 -5,6 °C -5,5 °C 86 % 1024,1 hPa 0,0 mm 0,0 km/h (0 Bft) O-NO 68 ° 0 min 0,000 mm 0,0 UV-I 0 W/m² -7,6 °C -5,6 °C 0,0 km/h (0 Bft)
29.01.2017 04:29 -5,6 °C -5,5 °C 86 % 1024,1 hPa 0,0 mm 0,0 km/h (0 Bft) O-NO 68 ° 0 min 0,000 mm 0,0 UV-I 0 W/m² -7,6 °C -5,6 °C 0,0 km/h (0 Bft)
29.01.2017 04:30 -5,6 °C -5,6 °C 85 % 1024,1 hPa 0,0 mm 0,0 km/h (0 Bft) O-NO 68 ° 0 min 0,000 mm 0,0 UV-I 0 W/m² -7,7 °C -5,6 °C 0,0 km/h (0 Bft)
29.01.2017 04:31 -5,6 °C -5,6 °C 86 % 1024,1 hPa 0,0 mm 0,0 km/h (0 Bft) O-NO 68 ° 0 min 0,000 mm 0,0 UV-I 0 W/m² -7,6 °C -5,6 °C 0,0 km/h (0 Bft)
29.01.2017 04:32 -5,6 °C -5,6 °C 86 % 1024,1 hPa 0,0 mm 0,0 km/h (0 Bft) O-NO 68 ° 0 min 0,000 mm 0,0 UV-I 0 W/m² -7,6 °C -5,6 °C 0,0 km/h (0 Bft)
29.01.2017 04:33 -5,5 °C -5,5 °C 86 % 1024,1 hPa 0,0 mm 0,0 km/h (0 Bft) O-NO 68 ° 0 min 0,000 mm 0,0 UV-I 0 W/m² -7,5 °C -5,5 °C 0,0 km/h (0 Bft)
29.01.2017 04:34 -5,6 °C -5,5 °C 86 % 1024,1 hPa 0,0 mm 0,0 km/h (0 Bft) O-NO 68 ° 0 min 0,000 mm 0,0 UV-I 0 W/m² -7,6 °C -5,6 °C 0,0 km/h (0 Bft)
29.01.2017 04:35 -5,6 °C -5,6 °C 86 % 1024,1 hPa 0,0 mm 0,0 km/h (0 Bft) O-NO 68 ° 0 min 0,000 mm 0,0 UV-I 0 W/m² -7,6 °C -5,6 °C 0,0 km/h (0 Bft)
29.01.2017 04:36 -5,6 °C -5,6 °C 86 % 1024,1 hPa 0,0 mm 0,0 km/h (0 Bft) O-NO 68 ° 0 min 0,000 mm 0,0 UV-I 0 W/m² -7,6 °C -5,6 °C 0,0 km/h (0 Bft)
29.01.2017 04:37 -5,6 °C -5,6 °C 86 % 1024,1 hPa 0,0 mm 0,0 km/h (0 Bft) O-NO 68 ° 0 min 0,000 mm 0,0 UV-I 0 W/m² -7,6 °C -5,6 °C 0,0 km/h (0 Bft)
29.01.2017 04:38 -5,6 °C -5,6 °C 86 % 1024,1 hPa 0,0 mm 0,0 km/h (0 Bft) O-NO 68 ° 0 min 0,000 mm 0,0 UV-I 0 W/m² -7,6 °C -5,6 °C 0,0 km/h (0 Bft)
29.01.2017 04:39 -5,6 °C -5,6 °C 86 % 1024,1 hPa 0,0 mm 0,0 km/h (0 Bft) O-NO 68 ° 0 min 0,000 mm 0,0 UV-I 0 W/m² -7,6 °C -5,6 °C 0,0 km/h (0 Bft)
29.01.2017 04:40 -5,6 °C -5,6 °C 86 % 1024,1 hPa 0,0 mm 0,0 km/h (0 Bft) O-NO 68 ° 0 min 0,000 mm 0,0 UV-I 0 W/m² -7,6 °C -5,6 °C 0,0 km/h (0 Bft)
29.01.2017 04:41 -5,6 °C -5,5 °C 87 % 1024,1 hPa 0,0 mm 0,0 km/h (0 Bft) O-NO 68 ° 0 min 0,000 mm 0,0 UV-I 0 W/m² -7,4 °C -5,6 °C 0,0 km/h (0 Bft)
29.01.2017 04:42 -5,6 °C -5,5 °C 86 % 1024,1 hPa 0,0 mm 0,0 km/h (0 Bft) O-NO 68 ° 0 min 0,000 mm 0,0 UV-I 0 W/m² -7,6 °C -5,6 °C 0,0 km/h (0 Bft)
29.01.2017 04:43 -5,5 °C -5,5 °C 86 % 1024,1 hPa 0,0 mm 0,0 km/h (0 Bft) O-NO 68 ° 0 min 0,000 mm 0,0 UV-I 0 W/m² -7,5 °C -5,5 °C 0,0 km/h (0 Bft)
29.01.2017 04:44 -5,5 °C -5,5 °C 86 % 1024,1 hPa 0,0 mm 0,0 km/h (0 Bft) O-NO 68 ° 0 min 0,000 mm 0,0 UV-I 0 W/m² -7,5 °C -5,5 °C 0,0 km/h (0 Bft)
29.01.2017 04:45 -5,5 °C -5,5 °C 86 % 1024,1 hPa 0,0 mm 0,0 km/h (0 Bft) O-NO 68 ° 0 min 0,000 mm 0,0 UV-I 0 W/m² -7,5 °C -5,5 °C 0,0 km/h (0 Bft)
29.01.2017 04:46 -5,5 °C -5,5 °C 86 % 1024,1 hPa 0,0 mm 0,0 km/h (0 Bft) O-NO 68 ° 0 min 0,000 mm 0,0 UV-I 0 W/m² -7,5 °C -5,5 °C 0,0 km/h (0 Bft)
29.01.2017 04:47 -5,6 °C -5,5 °C 86 % 1024,1 hPa 0,0 mm 0,0 km/h (0 Bft) O-NO 68 ° 0 min 0,000 mm 0,0 UV-I 0 W/m² -7,6 °C -5,6 °C 0,0 km/h (0 Bft)
29.01.2017 04:48 -5,6 °C -5,6 °C 86 % 1024,1 hPa 0,0 mm 0,0 km/h (0 Bft) O-NO 68 ° 0 min 0,000 mm 0,0 UV-I 0 W/m² -7,6 °C -5,6 °C 0,0 km/h (0 Bft)
29.01.2017 04:49 -5,6 °C -5,6 °C 86 % 1024,1 hPa 0,0 mm 0,0 km/h (0 Bft) O-NO 68 ° 0 min 0,000 mm 0,0 UV-I 0 W/m² -7,6 °C -5,6 °C 0,0 km/h (0 Bft)
29.01.2017 04:50 -5,6 °C -5,6 °C 86 % 1024,1 hPa 0,0 mm 0,0 km/h (0 Bft) O-NO 68 ° 0 min 0,000 mm 0,0 UV-I 0 W/m² -7,6 °C -5,6 °C 0,0 km/h (0 Bft)
29.01.2017 04:51 -5,5 °C -5,5 °C 86 % 1024,1 hPa 0,0 mm 0,0 km/h (0 Bft) O-NO 68 ° 0 min 0,000 mm 0,0 UV-I 0 W/m² -7,5 °C -5,5 °C 0,0 km/h (0 Bft)
29.01.2017 04:52 -5,6 °C -5,5 °C 86 % 1024,2 hPa 0,0 mm 0,0 km/h (0 Bft) O-NO 68 ° 0 min 0,000 mm 0,0 UV-I 0 W/m² -7,6 °C -5,6 °C 0,0 km/h (0 Bft)
29.01.2017 04:53 -5,6 °C -5,6 °C 86 % 1024,1 hPa 0,0 mm 0,0 km/h (0 Bft) O-NO 68 ° 0 min 0,000 mm 0,0 UV-I 0 W/m² -7,6 °C -5,6 °C 0,0 km/h (0 Bft)
29.01.2017 04:54 -5,6 °C -5,6 °C 86 % 1024,1 hPa 0,0 mm 0,0 km/h (0 Bft) O-NO 68 ° 0 min 0,000 mm 0,0 UV-I 0 W/m² -7,6 °C -5,6 °C 0,0 km/h (0 Bft)
29.01.2017 04:55 -5,6 °C -5,6 °C 86 % 1024,1 hPa 0,0 mm 0,0 km/h (0 Bft) O-NO 68 ° 0 min 0,000 mm 0,0 UV-I 0 W/m² -7,6 °C -5,6 °C 0,0 km/h (0 Bft)
29.01.2017 04:56 -5,6 °C -5,6 °C 86 % 1024,2 hPa 0,0 mm 1,3 km/h (1 Bft) O-NO 67 ° 0 min 0,000 mm 0,0 UV-I 0 W/m² -7,6 °C -5,6 °C 3,2 km/h (1 Bft)
29.01.2017 04:57 -5,6 °C -5,6 °C 86 % 1024,2 hPa 0,0 mm 1,2 km/h (1 Bft) O-NO 67 ° 0 min 0,000 mm 0,0 UV-I 0 W/m² -7,6 °C -5,6 °C 3,2 km/h (1 Bft)
29.01.2017 04:58 -5,6 °C -5,6 °C 86 % 1024,1 hPa 0,0 mm 2,8 km/h (1 Bft) O-SO 107 ° 0 min 0,000 mm 0,0 UV-I 0 W/m² -7,6 °C -5,6 °C 4,8 km/h (1 Bft)
29.01.2017 04:59 -5,6 °C -5,6 °C 86 % 1024,2 hPa 0,0 mm 0,6 km/h (0 Bft) O-SO 107 ° 0 min 0,000 mm 0,0 UV-I 0 W/m² -7,6 °C -5,6 °C 1,6 km/h (1 Bft)
29.01.2017 05:00 -5,6 °C -5,6 °C 87 % 1024,2 hPa 0,0 mm 0,3 km/h (0 Bft) O-SO 107 ° 0 min 0,000 mm 0,0 UV-I 0 W/m² -7,4 °C -5,6 °C 1,6 km/h (1 Bft)
29.01.2017 05:01 -5,6 °C -5,6 °C 86 % 1024,1 hPa 0,0 mm 0,1 km/h (0 Bft) O-SO 107 ° 0 min 0,000 mm 0,0 UV-I 0 W/m² -7,6 °C -5,6 °C 1,6 km/h (1 Bft)
29.01.2017 05:02 -5,6 °C -5,5 °C 86 % 1024,1 hPa 0,0 mm 0,5 km/h (0 Bft) O-SO 107 ° 0 min 0,000 mm 0,0 UV-I 0 W/m² -7,6 °C -5,6 °C 1,6 km/h (1 Bft)
29.01.2017 05:03 -5,6 °C -5,6 °C 86 % 1024,1 hPa 0,0 mm 0,2 km/h (0 Bft) O-SO 107 ° 0 min 0,000 mm 0,0 UV-I 0 W/m² -7,6 °C -5,6 °C 1,6 km/h (1 Bft)
29.01.2017 05:04 -5,6 °C -5,5 °C 86 % 1024,2 hPa 0,0 mm 0,2 km/h (0 Bft) O-SO 107 ° 0 min 0,000 mm 0,0 UV-I 0 W/m² -7,6 °C -5,6 °C 1,6 km/h (1 Bft)
29.01.2017 05:05 -5,6 °C -5,6 °C 86 % 1024,1 hPa 0,0 mm 0,4 km/h (0 Bft) O-SO 107 ° 0 min 0,000 mm 0,0 UV-I 0 W/m² -7,6 °C -5,6 °C 1,6 km/h (1 Bft)
29.01.2017 05:06 -5,6 °C -5,6 °C 86 % 1024,1 hPa 0,0 mm 0,1 km/h (0 Bft) O-SO 107 ° 0 min 0,000 mm 0,0 UV-I 0 W/m² -7,6 °C -5,6 °C 1,6 km/h (1 Bft)
29.01.2017 05:07 -5,6 °C -5,5 °C 86 % 1024,2 hPa 0,0 mm 0,0 km/h (0 Bft) O-SO 107 ° 0 min 0,000 mm 0,0 UV-I 0 W/m² -7,6 °C -5,6 °C 0,0 km/h (0 Bft)
29.01.2017 05:08 -5,6 °C -5,6 °C 86 % 1024,1 hPa 0,0 mm 0,0 km/h (0 Bft) O-SO 107 ° 0 min 0,000 mm 0,0 UV-I 0 W/m² -7,6 °C -5,6 °C 0,0 km/h (0 Bft)
29.01.2017 05:09 -5,6 °C -5,6 °C 86 % 1024,1 hPa 0,0 mm 0,0 km/h (0 Bft) O-SO 107 ° 0 min 0,000 mm 0,0 UV-I 0 W/m² -7,6 °C -5,6 °C 0,0 km/h (0 Bft)
29.01.2017 05:10 -5,6 °C -5,6 °C 86 % 1024,1 hPa 0,0 mm 0,0 km/h (0 Bft) O-SO 107 ° 0 min 0,000 mm 0,0 UV-I 0 W/m² -7,6 °C -5,6 °C 0,0 km/h (0 Bft)
29.01.2017 05:11 -5,6 °C -5,6 °C 86 % 1024,1 hPa 0,0 mm 0,4 km/h (0 Bft) O-SO 107 ° 0 min 0,000 mm 0,0 UV-I 0 W/m² -7,6 °C -5,6 °C 1,6 km/h (1 Bft)
29.01.2017 05:12 -5,6 °C -5,6 °C 86 % 1024,1 hPa 0,0 mm 0,1 km/h (0 Bft) O-SO 107 ° 0 min 0,000 mm 0,0 UV-I 0 W/m² -7,6 °C -5,6 °C 1,6 km/h (1 Bft)
29.01.2017 05:13 -5,6 °C -5,6 °C 86 % 1024,1 hPa 0,0 mm 0,1 km/h (0 Bft) O-SO 107 ° 0 min 0,000 mm 0,0 UV-I 0 W/m² -7,6 °C -5,6 °C 1,6 km/h (1 Bft)
29.01.2017 05:14 -5,6 °C -5,6 °C 86 % 1024,1 hPa 0,0 mm 2,4 km/h (1 Bft) O-SO 107 ° 0 min 0,000 mm 0,0 UV-I 0 W/m² -7,6 °C -5,6 °C 3,2 km/h (1 Bft)
29.01.2017 05:15 -5,6 °C -5,6 °C 86 % 1024,1 hPa 0,0 mm 1,3 km/h (1 Bft) O-SO 107 ° 0 min 0,000 mm 0,0 UV-I 0 W/m² -7,6 °C -5,6 °C 3,2 km/h (1 Bft)
29.01.2017 05:16 -5,6 °C -5,6 °C 86 % 1024,1 hPa 0,0 mm 0,0 km/h (0 Bft) O-SO 107 ° 0 min 0,000 mm 0,0 UV-I 0 W/m² -7,6 °C -5,6 °C 0,0 km/h (0 Bft)
29.01.2017 05:17 -5,6 °C -5,6 °C 86 % 1024,1 hPa 0,0 mm 0,2 km/h (0 Bft) O-SO 107 ° 0 min 0,000 mm 0,0 UV-I 0 W/m² -7,6 °C -5,6 °C 1,6 km/h (1 Bft)
29.01.2017 05:18 -5,6 °C -5,6 °C 86 % 1024,1 hPa 0,0 mm 0,1 km/h (0 Bft) O-SO 107 ° 0 min 0,000 mm 0,0 UV-I 0 W/m² -7,6 °C -5,6 °C 1,6 km/h (1 Bft)
29.01.2017 05:19 -5,6 °C -5,6 °C 87 % 1024,1 hPa 0,0 mm 0,0 km/h (0 Bft) O-SO 107 ° 0 min 0,000 mm 0,0 UV-I 0 W/m² -7,4 °C -5,6 °C 0,0 km/h (0 Bft)
29.01.2017 05:20 -5,6 °C -5,5 °C 87 % 1024,2 hPa 0,0 mm 0,0 km/h (0 Bft) O-SO 107 ° 0 min 0,000 mm 0,0 UV-I 0 W/m² -7,4 °C -5,6 °C 0,0 km/h (0 Bft)
29.01.2017 05:21 -5,5 °C -5,5 °C 87 % 1024,2 hPa 0,0 mm 0,0 km/h (0 Bft) O-SO 107 ° 0 min 0,000 mm 0,0 UV-I 0 W/m² -7,3 °C -5,5 °C 0,0 km/h (0 Bft)
29.01.2017 05:22 -5,4 °C -5,4 °C 88 % 1024,2 hPa 0,0 mm 0,3 km/h (0 Bft) O-SO 107 ° 0 min 0,000 mm 0,0 UV-I 0 W/m² -7,1 °C -5,4 °C 1,6 km/h (1 Bft)
29.01.2017 05:23 -5,4 °C -5,4 °C 87 % 1024,2 hPa 0,0 mm 1,1 km/h (1 Bft) O-SO 107 ° 0 min 0,000 mm 0,0 UV-I 0 W/m² -7,2 °C -5,4 °C 1,6 km/h (1 Bft)
29.01.2017 05:24 -5,4 °C -5,4 °C 87 % 1024,2 hPa 0,0 mm 1,1 km/h (1 Bft) O-SO 107 ° 0 min 0,000 mm 0,0 UV-I 0 W/m² -7,2 °C -5,4 °C 1,6 km/h (1 Bft)
29.01.2017 05:25 -5,4 °C -5,4 °C 86 % 1024,2 hPa 0,0 mm 0,2 km/h (0 Bft) O-SO 107 ° 0 min 0,000 mm 0,0 UV-I 0 W/m² -7,4 °C -5,4 °C 1,6 km/h (1 Bft)
29.01.2017 05:26 -5,4 °C -5,4 °C 86 % 1024,2 hPa 0,0 mm 0,0 km/h (0 Bft) O-SO 107 ° 0 min 0,000 mm 0,0 UV-I 0 W/m² -7,4 °C -5,4 °C 0,0 km/h (0 Bft)
29.01.2017 05:27 -5,4 °C -5,4 °C 86 % 1024,2 hPa 0,0 mm 0,3 km/h (0 Bft) O-SO 107 ° 0 min 0,000 mm 0,0 UV-I 0 W/m² -7,4 °C -5,4 °C 1,6 km/h (1 Bft)
29.01.2017 05:28 -5,4 °C -5,4 °C 86 % 1024,2 hPa 0,0 mm 0,0 km/h (0 Bft) O-SO 107 ° 0 min 0,000 mm 0,0 UV-I 0 W/m² -7,4 °C -5,4 °C 0,0 km/h (0 Bft)
29.01.2017 05:29 -5,4 °C -5,4 °C 86 % 1024,1 hPa 0,0 mm 0,5 km/h (0 Bft) O-SO 107 ° 0 min 0,000 mm 0,0 UV-I 0 W/m² -7,4 °C -5,4 °C 1,6 km/h (1 Bft)
29.01.2017 05:30 -5,4 °C -5,4 °C 86 % 1024,2 hPa 0,0 mm 0,4 km/h (0 Bft) O-SO 107 ° 0 min 0,000 mm 0,0 UV-I 0 W/m² -7,4 °C -5,4 °C 1,6 km/h (1 Bft)
29.01.2017 05:31 -5,4 °C -5,4 °C 86 % 1024,2 hPa 0,0 mm 0,7 km/h (0 Bft) O-SO 107 ° 0 min 0,000 mm 0,0 UV-I 0 W/m² -7,4 °C -5,4 °C 1,6 km/h (1 Bft)
29.01.2017 05:32 -5,4 °C -5,4 °C 86 % 1024,2 hPa 0,0 mm 0,7 km/h (0 Bft) O-SO 107 ° 0 min 0,000 mm 0,0 UV-I 0 W/m² -7,4 °C -5,4 °C 1,6 km/h (1 Bft)
29.01.2017 05:33 -5,4 °C -5,4 °C 86 % 1024,3 hPa 0,0 mm 0,0 km/h (0 Bft) O-SO 107 ° 0 min 0,000 mm 0,0 UV-I 0 W/m² -7,4 °C -5,4 °C 0,0 km/h (0 Bft)
29.01.2017 05:34 -5,4 °C -5,4 °C 86 % 1024,3 hPa 0,0 mm 0,2 km/h (0 Bft) O-SO 107 ° 0 min 0,000 mm 0,0 UV-I 0 W/m² -7,4 °C -5,4 °C 1,6 km/h (1 Bft)
29.01.2017 05:35 -5,4 °C -5,4 °C 86 % 1024,3 hPa 0,0 mm 0,0 km/h (0 Bft) O-SO 107 ° 0 min 0,000 mm 0,0 UV-I 0 W/m² -7,4 °C -5,4 °C 0,0 km/h (0 Bft)
29.01.2017 05:36 -5,4 °C -5,4 °C 86 % 1024,2 hPa 0,0 mm 0,0 km/h (0 Bft) O-SO 107 ° 0 min 0,000 mm 0,0 UV-I 0 W/m² -7,4 °C -5,4 °C 0,0 km/h (0 Bft)
29.01.2017 05:37 -5,4 °C -5,4 °C 86 % 1024,2 hPa 0,0 mm 1,4 km/h (1 Bft) O-SO 107 ° 0 min 0,000 mm 0,0 UV-I 0 W/m² -7,4 °C -5,4 °C 3,2 km/h (1 Bft)
29.01.2017 05:38 -5,4 °C -5,4 °C 86 % 1024,2 hPa 0,0 mm 0,8 km/h (0 Bft) O-SO 107 ° 0 min 0,000 mm 0,0 UV-I 0 W/m² -7,4 °C -5,4 °C 3,2 km/h (1 Bft)
29.01.2017 05:39 -5,4 °C -5,4 °C 86 % 1024,3 hPa 0,0 mm 0,2 km/h (0 Bft) O-SO 107 ° 0 min 0,000 mm 0,0 UV-I 0 W/m² -7,4 °C -5,4 °C 1,6 km/h (1 Bft)
29.01.2017 05:40 -5,4 °C -5,4 °C 86 % 1024,3 hPa 0,0 mm 1,1 km/h (1 Bft) O-SO 107 ° 0 min 0,000 mm 0,0 UV-I 0 W/m² -7,4 °C -5,4 °C 1,6 km/h (1 Bft)
29.01.2017 05:41 -5,4 °C -5,4 °C 86 % 1024,2 hPa 0,0 mm 1,1 km/h (1 Bft) O-SO 107 ° 0 min 0,000 mm 0,0 UV-I 0 W/m² -7,4 °C -5,4 °C 1,6 km/h (1 Bft)
29.01.2017 05:42 -5,4 °C -5,4 °C 86 % 1024,3 hPa 0,0 mm 0,7 km/h (0 Bft) O-SO 107 ° 0 min 0,000 mm 0,0 UV-I 0 W/m² -7,4 °C -5,4 °C 1,6 km/h (1 Bft)
29.01.2017 05:43 -5,4 °C -5,4 °C 86 % 1024,3 hPa 0,0 mm 0,5 km/h (0 Bft) O-SO 107 ° 0 min 0,000 mm 0,0 UV-I 0 W/m² -7,4 °C -5,4 °C 1,6 km/h (1 Bft)
29.01.2017 05:44 -5,4 °C -5,4 °C 86 % 1024,3 hPa 0,0 mm 0,5 km/h (0 Bft) O-SO 107 ° 0 min 0,000 mm 0,0 UV-I 0 W/m² -7,4 °C -5,4 °C 1,6 km/h (1 Bft)
29.01.2017 05:45 -5,4 °C -5,4 °C 86 % 1024,3 hPa 0,0 mm 0,0 km/h (0 Bft) O-SO 107 ° 0 min 0,000 mm 0,0 UV-I 0 W/m² -7,4 °C -5,4 °C 0,0 km/h (0 Bft)
29.01.2017 05:46 -5,5 °C -5,4 °C 86 % 1024,3 hPa 0,0 mm 0,1 km/h (0 Bft) O-SO 107 ° 0 min 0,000 mm 0,0 UV-I 0 W/m² -7,5 °C -5,5 °C 1,6 km/h (1 Bft)
29.01.2017 05:47 -5,4 °C -5,4 °C 86 % 1024,3 hPa 0,0 mm 0,0 km/h (0 Bft) O-SO 107 ° 0 min 0,000 mm 0,0 UV-I 0 W/m² -7,4 °C -5,4 °C 0,0 km/h (0 Bft)
29.01.2017 05:48 -5,5 °C -5,4 °C 86 % 1024,3 hPa 0,0 mm 0,1 km/h (0 Bft) O-SO 107 ° 0 min 0,000 mm 0,0 UV-I 0 W/m² -7,5 °C -5,5 °C 1,6 km/h (1 Bft)
29.01.2017 05:49 -5,5 °C -5,5 °C 86 % 1024,3 hPa 0,0 mm 0,0 km/h (0 Bft) O-SO 107 ° 0 min 0,000 mm 0,0 UV-I 0 W/m² -7,5 °C -5,5 °C 0,0 km/h (0 Bft)
29.01.2017 05:50 -5,6 °C -5,5 °C 86 % 1024,3 hPa 0,0 mm 0,5 km/h (0 Bft) O-SO 107 ° 0 min 0,000 mm 0,0 UV-I 0 W/m² -7,6 °C -5,6 °C 1,6 km/h (1 Bft)
29.01.2017 05:51 -5,5 °C -5,5 °C 86 % 1024,3 hPa 0,0 mm 0,0 km/h (0 Bft) O-SO 107 ° 0 min 0,000 mm 0,0 UV-I 0 W/m² -7,5 °C -5,5 °C 0,0 km/h (0 Bft)
29.01.2017 05:52 -5,5 °C -5,5 °C 86 % 1024,3 hPa 0,0 mm 0,2 km/h (0 Bft) O-SO 107 ° 0 min 0,000 mm 0,0 UV-I 0 W/m² -7,5 °C -5,5 °C 1,6 km/h (1 Bft)
29.01.2017 05:53 -5,5 °C -5,5 °C 86 % 1024,3 hPa 0,0 mm 0,1 km/h (0 Bft) O-SO 107 ° 0 min 0,000 mm 0,0 UV-I 0 W/m² -7,5 °C -5,5 °C 1,6 km/h (1 Bft)
29.01.2017 05:54 -5,6 °C -5,5 °C 86 % 1024,4 hPa 0,0 mm 0,2 km/h (0 Bft) O-SO 107 ° 0 min 0,000 mm 0,0 UV-I 0 W/m² -7,6 °C -5,6 °C 1,6 km/h (1 Bft)
29.01.2017 05:55 -5,5 °C -5,5 °C 86 % 1024,4 hPa 0,0 mm 0,1 km/h (0 Bft) O-SO 107 ° 0 min 0,000 mm 0,0 UV-I 0 W/m² -7,5 °C -5,5 °C 1,6 km/h (1 Bft)
29.01.2017 05:56 -5,5 °C -5,5 °C 87 % 1024,4 hPa 0,0 mm 1,2 km/h (1 Bft) O-SO 107 ° 0 min 0,000 mm 0,0 UV-I 0 W/m² -7,3 °C -5,5 °C 3,2 km/h (1 Bft)
29.01.2017 05:57 -5,5 °C -5,5 °C 87 % 1024,4 hPa 0,0 mm 0,6 km/h (0 Bft) O-SO 107 ° 0 min 0,000 mm 0,0 UV-I 0 W/m² -7,3 °C -5,5 °C 1,6 km/h (1 Bft)
29.01.2017 05:58 -5,5 °C -5,5 °C 87 % 1024,5 hPa 0,0 mm 0,0 km/h (0 Bft) O-SO 107 ° 0 min 0,000 mm 0,0 UV-I 0 W/m² -7,3 °C -5,5 °C 0,0 km/h (0 Bft)
29.01.2017 05:59 -5,5 °C -5,5 °C 87 % 1024,5 hPa 0,0 mm 0,6 km/h (0 Bft) O-SO 107 ° 0 min 0,000 mm 0,0 UV-I 0 W/m² -7,3 °C -5,5 °C 1,6 km/h (1 Bft)
29.01.2017 06:00 -5,6 °C -5,5 °C 87 % 1024,5 hPa 0,0 mm 0,0 km/h (0 Bft) O-SO 107 ° 0 min 0,000 mm 0,0 UV-I 0 W/m² -7,4 °C -5,6 °C 0,0 km/h (0 Bft)
29.01.2017 06:01 -5,6 °C -5,5 °C 87 % 1024,5 hPa 0,0 mm 0,2 km/h (0 Bft) O-SO 107 ° 0 min 0,000 mm 0,0 UV-I 0 W/m² -7,4 °C -5,6 °C 1,6 km/h (1 Bft)
29.01.2017 06:02 -5,6 °C -5,5 °C 86 % 1024,5 hPa 0,0 mm 0,6 km/h (0 Bft) O-SO 107 ° 0 min 0,000 mm 0,0 UV-I 0 W/m² -7,6 °C -5,6 °C 1,6 km/h (1 Bft)
29.01.2017 06:03 -5,6 °C -5,5 °C 86 % 1024,5 hPa 0,0 mm 0,1 km/h (0 Bft) O-SO 107 ° 0 min 0,000 mm 0,0 UV-I 0 W/m² -7,6 °C -5,6 °C 1,6 km/h (1 Bft)
29.01.2017 06:04 -5,6 °C -5,5 °C 87 % 1024,5 hPa 0,0 mm 0,1 km/h (0 Bft) O-SO 107 ° 0 min 0,000 mm 0,0 UV-I 0 W/m² -7,4 °C -5,6 °C 1,6 km/h (1 Bft)
29.01.2017 06:05 -5,6 °C -5,6 °C 87 % 1024,6 hPa 0,0 mm 0,0 km/h (0 Bft) O-SO 107 ° 0 min 0,000 mm 0,0 UV-I 0 W/m² -7,4 °C -5,6 °C 0,0 km/h (0 Bft)
29.01.2017 06:06 -5,6 °C -5,6 °C 87 % 1024,6 hPa 0,0 mm 0,0 km/h (0 Bft) O-SO 107 ° 0 min 0,000 mm 0,0 UV-I 0 W/m² -7,4 °C -5,6 °C 0,0 km/h (0 Bft)
29.01.2017 06:07 -5,6 °C -5,6 °C 87 % 1024,6 hPa 0,0 mm 0,0 km/h (0 Bft) O-SO 107 ° 0 min 0,000 mm 0,0 UV-I 0 W/m² -7,4 °C -5,6 °C 0,0 km/h (0 Bft)
29.01.2017 06:08 -5,6 °C -5,6 °C 86 % 1024,6 hPa 0,0 mm 0,2 km/h (0 Bft) O-SO 107 ° 0 min 0,000 mm 0,0 UV-I 0 W/m² -7,6 °C -5,6 °C 1,6 km/h (1 Bft)
29.01.2017 06:09 -5,6 °C -5,6 °C 86 % 1024,6 hPa 0,0 mm 0,0 km/h (0 Bft) O-SO 107 ° 0 min 0,000 mm 0,0 UV-I 0 W/m² -7,6 °C -5,6 °C 0,0 km/h (0 Bft)
29.01.2017 06:10 -5,6 °C -5,6 °C 86 % 1024,6 hPa 0,0 mm 0,0 km/h (0 Bft) O-SO 107 ° 0 min 0,000 mm 0,0 UV-I 0 W/m² -7,6 °C -5,6 °C 0,0 km/h (0 Bft)
29.01.2017 06:11 -5,6 °C -5,6 °C 86 % 1024,6 hPa 0,0 mm 0,0 km/h (0 Bft) O-SO 107 ° 0 min 0,000 mm 0,0 UV-I 0 W/m² -7,6 °C -5,6 °C 0,0 km/h (0 Bft)
29.01.2017 06:12 -5,6 °C -5,6 °C 86 % 1024,6 hPa 0,0 mm 0,0 km/h (0 Bft) O-SO 107 ° 0 min 0,000 mm 0,0 UV-I 0 W/m² -7,6 °C -5,6 °C 0,0 km/h (0 Bft)
29.01.2017 06:13 -5,6 °C -5,6 °C 86 % 1024,6 hPa 0,0 mm 0,0 km/h (0 Bft) O-SO 107 ° 0 min 0,000 mm 0,0 UV-I 0 W/m² -7,6 °C -5,6 °C 0,0 km/h (0 Bft)
29.01.2017 06:14 -5,6 °C -5,6 °C 87 % 1024,7 hPa 0,0 mm 0,8 km/h (0 Bft) O-SO 107 ° 0 min 0,000 mm 0,0 UV-I 0 W/m² -7,4 °C -5,6 °C 3,2 km/h (1 Bft)
29.01.2017 06:15 -5,6 °C -5,6 °C 87 % 1024,7 hPa 0,0 mm 1,1 km/h (1 Bft) O-SO 107 ° 0 min 0,000 mm 0,0 UV-I 0 W/m² -7,4 °C -5,6 °C 1,6 km/h (1 Bft)
29.01.2017 06:16 -5,6 °C -5,6 °C 87 % 1024,7 hPa 0,0 mm 2,5 km/h (1 Bft) O-SO 107 ° 0 min 0,000 mm 0,0 UV-I 0 W/m² -7,4 °C -5,6 °C 4,8 km/h (1 Bft)
29.01.2017 06:17 -5,6 °C -5,6 °C 87 % 1024,6 hPa 0,0 mm 1,1 km/h (1 Bft) O-SO 107 ° 0 min 0,000 mm 0,0 UV-I 0 W/m² -7,4 °C -5,6 °C 3,2 km/h (1 Bft)
29.01.2017 06:18 -5,6 °C -5,6 °C 87 % 1024,7 hPa 0,0 mm 2,7 km/h (1 Bft) O-SO 107 ° 0 min 0,000 mm 0,0 UV-I 0 W/m² -7,4 °C -5,6 °C 4,8 km/h (1 Bft)
29.01.2017 06:19 -5,6 °C -5,6 °C 87 % 1024,6 hPa 0,0 mm 0,6 km/h (0 Bft) O-SO 107 ° 0 min 0,000 mm 0,0 UV-I 0 W/m² -7,4 °C -5,6 °C 3,2 km/h (1 Bft)
29.01.2017 06:20 -5,7 °C -5,6 °C 87 % 1024,6 hPa 0,0 mm 2,4 km/h (1 Bft) O-SO 107 ° 0 min 0,000 mm 0,0 UV-I 0 W/m² -7,5 °C -5,7 °C 3,2 km/h (1 Bft)
29.01.2017 06:21 -5,7 °C -5,7 °C 87 % 1024,7 hPa 0,0 mm 1,4 km/h (1 Bft) O-SO 107 ° 0 min 0,000 mm 0,0 UV-I 0 W/m² -7,5 °C -5,7 °C 3,2 km/h (1 Bft)
29.01.2017 06:22 -5,7 °C -5,7 °C 87 % 1024,7 hPa 0,0 mm 1,5 km/h (1 Bft) O-SO 107 ° 0 min 0,000 mm 0,0 UV-I 0 W/m² -7,5 °C -5,7 °C 3,2 km/h (1 Bft)
29.01.2017 06:23 -5,7 °C -5,7 °C 87 % 1024,7 hPa 0,0 mm 1,0 km/h (0 Bft) O-SO 107 ° 0 min 0,000 mm 0,0 UV-I 0 W/m² -7,5 °C -5,7 °C 1,6 km/h (1 Bft)
29.01.2017 06:24 -5,7 °C -5,7 °C 86 % 1024,7 hPa 0,0 mm 0,4 km/h (0 Bft) O-SO 107 ° 0 min 0,000 mm 0,0 UV-I 0 W/m² -7,7 °C -5,7 °C 1,6 km/h (1 Bft)
29.01.2017 06:25 -5,7 °C -5,7 °C 86 % 1024,7 hPa 0,0 mm 0,3 km/h (0 Bft) O-SO 107 ° 0 min 0,000 mm 0,0 UV-I 0 W/m² -7,7 °C -5,7 °C 1,6 km/h (1 Bft)
29.01.2017 06:26 -5,7 °C -5,7 °C 86 % 1024,7 hPa 0,0 mm 0,1 km/h (0 Bft) O-SO 107 ° 0 min 0,000 mm 0,0 UV-I 0 W/m² -7,7 °C -5,7 °C 1,6 km/h (1 Bft)
29.01.2017 06:27 -5,7 °C -5,7 °C 86 % 1024,7 hPa 0,0 mm 0,0 km/h (0 Bft) O-SO 107 ° 0 min 0,000 mm 0,0 UV-I 0 W/m² -7,7 °C -5,7 °C 0,0 km/h (0 Bft)
29.01.2017 06:28 -5,7 °C -5,7 °C 86 % 1024,7 hPa 0,0 mm 0,1 km/h (0 Bft) O-SO 107 ° 0 min 0,000 mm 0,0 UV-I 0 W/m² -7,7 °C -5,7 °C 1,6 km/h (1 Bft)
29.01.2017 06:29 -5,7 °C -5,7 °C 86 % 1024,7 hPa 0,0 mm 0,5 km/h (0 Bft) O-SO 107 ° 0 min 0,000 mm 0,0 UV-I 0 W/m² -7,7 °C -5,7 °C 1,6 km/h (1 Bft)
29.01.2017 06:30 -5,7 °C -5,7 °C 87 % 1024,7 hPa 0,0 mm 0,4 km/h (0 Bft) O-SO 107 ° 0 min 0,000 mm 0,0 UV-I 0 W/m² -7,5 °C -5,7 °C 1,6 km/h (1 Bft)
29.01.2017 06:31 -5,8 °C -5,7 °C 87 % 1024,7 hPa 0,0 mm 0,3 km/h (0 Bft) O-SO 107 ° 0 min 0,000 mm 0,0 UV-I 0 W/m² -7,6 °C -5,8 °C 1,6 km/h (1 Bft)
29.01.2017 06:32 -5,7 °C -5,7 °C 87 % 1024,7 hPa 0,0 mm 2,2 km/h (1 Bft) O-SO 107 ° 0 min 0,000 mm 0,0 UV-I 0 W/m² -7,5 °C -5,7 °C 4,8 km/h (1 Bft)
29.01.2017 06:33 -5,7 °C -5,7 °C 88 % 1024,7 hPa 0,0 mm 2,4 km/h (1 Bft) S-SO 152 ° 0 min 0,000 mm 0,0 UV-I 0 W/m² -7,4 °C -5,7 °C 3,2 km/h (1 Bft)
29.01.2017 06:34 -5,6 °C -5,6 °C 89 % 1024,7 hPa 0,0 mm 0,7 km/h (0 Bft) S-SO 152 ° 0 min 0,000 mm 0,0 UV-I 0 W/m² -7,1 °C -5,6 °C 1,6 km/h (1 Bft)
29.01.2017 06:35 -5,6 °C -5,6 °C 89 % 1024,8 hPa 0,0 mm 0,3 km/h (0 Bft) S-SO 152 ° 0 min 0,000 mm 0,0 UV-I 0 W/m² -7,1 °C -5,6 °C 1,6 km/h (1 Bft)
29.01.2017 06:36 -5,4 °C -5,4 °C 89 % 1024,8 hPa 0,0 mm 0,3 km/h (0 Bft) S-SO 152 ° 0 min 0,000 mm 0,0 UV-I 0 W/m² -6,9 °C -5,4 °C 1,6 km/h (1 Bft)
29.01.2017 06:37 -5,4 °C -5,4 °C 89 % 1024,8 hPa 0,0 mm 0,2 km/h (0 Bft) S-SO 152 ° 0 min 0,000 mm 0,0 UV-I 0 W/m² -6,9 °C -5,4 °C 1,6 km/h (1 Bft)
29.01.2017 06:38 -5,4 °C -5,4 °C 89 % 1024,8 hPa 0,0 mm 0,3 km/h (0 Bft) S-SO 152 ° 0 min 0,000 mm 0,0 UV-I 0 W/m² -6,9 °C -5,4 °C 1,6 km/h (1 Bft)
29.01.2017 06:39 -5,4 °C -5,4 °C 88 % 1024,8 hPa 0,0 mm 0,0 km/h (0 Bft) S-SO 152 ° 0 min 0,000 mm 0,0 UV-I 0 W/m² -7,1 °C -5,4 °C 0,0 km/h (0 Bft)
29.01.2017 06:40 -5,3 °C -5,3 °C 88 % 1024,8 hPa 0,0 mm 0,1 km/h (0 Bft) S-SO 152 ° 0 min 0,000 mm 0,0 UV-I 0 W/m² -7,0 °C -5,3 °C 1,6 km/h (1 Bft)
29.01.2017 06:41 -5,3 °C -5,3 °C 88 % 1024,8 hPa 0,0 mm 0,0 km/h (0 Bft) S-SO 152 ° 0 min 0,000 mm 0,0 UV-I 0 W/m² -7,0 °C -5,3 °C 0,0 km/h (0 Bft)
29.01.2017 06:42 -5,3 °C -5,3 °C 88 % 1024,8 hPa 0,0 mm 0,0 km/h (0 Bft) S-SO 152 ° 0 min 0,000 mm 0,0 UV-I 0 W/m² -7,0 °C -5,3 °C 0,0 km/h (0 Bft)
29.01.2017 06:43 -5,3 °C -5,3 °C 88 % 1024,8 hPa 0,0 mm 0,1 km/h (0 Bft) S-SO 152 ° 0 min 0,000 mm 0,0 UV-I 0 W/m² -7,0 °C -5,3 °C 1,6 km/h (1 Bft)
29.01.2017 06:44 -5,3 °C -5,3 °C 88 % 1024,8 hPa 0,0 mm 0,0 km/h (0 Bft) S-SO 152 ° 0 min 0,000 mm 0,0 UV-I 0 W/m² -7,0 °C -5,3 °C 0,0 km/h (0 Bft)
29.01.2017 06:45 -5,3 °C -5,3 °C 88 % 1024,8 hPa 0,0 mm 0,1 km/h (0 Bft) S-SO 152 ° 0 min 0,000 mm 0,0 UV-I 0 W/m² -7,0 °C -5,3 °C 1,6 km/h (1 Bft)
29.01.2017 06:46 -5,3 °C -5,2 °C 88 % 1024,8 hPa 0,0 mm 0,0 km/h (0 Bft) S-SO 152 ° 0 min 0,000 mm 0,0 UV-I 0 W/m² -7,0 °C -5,3 °C 0,0 km/h (0 Bft)
29.01.2017 06:47 -5,2 °C -5,2 °C 88 % 1024,8 hPa 0,0 mm 0,0 km/h (0 Bft) S-SO 152 ° 0 min 0,000 mm 0,0 UV-I 0 W/m² -6,9 °C -5,2 °C 0,0 km/h (0 Bft)
29.01.2017 06:48 -5,2 °C -5,2 °C 88 % 1024,8 hPa 0,0 mm 0,0 km/h (0 Bft) S-SO 152 ° 0 min 0,000 mm 0,0 UV-I 0 W/m² -6,9 °C -5,2 °C 0,0 km/h (0 Bft)
29.01.2017 06:49 -5,2 °C -5,2 °C 88 % 1024,9 hPa 0,0 mm 0,2 km/h (0 Bft) S-SO 152 ° 0 min 0,000 mm 0,0 UV-I 0 W/m² -6,9 °C -5,2 °C 1,6 km/h (1 Bft)
29.01.2017 06:50 -5,2 °C -5,2 °C 88 % 1024,9 hPa 0,0 mm 0,0 km/h (0 Bft) S-SO 152 ° 0 min 0,000 mm 0,0 UV-I 0 W/m² -6,9 °C -5,2 °C 0,0 km/h (0 Bft)
29.01.2017 06:51 -5,2 °C -5,2 °C 87 % 1024,8 hPa 0,0 mm 0,9 km/h (0 Bft) S-SO 152 ° 0 min 0,000 mm 0,0 UV-I 0 W/m² -7,0 °C -5,2 °C 1,6 km/h (1 Bft)
29.01.2017 06:52 -5,2 °C -5,2 °C 87 % 1024,9 hPa 0,0 mm 0,2 km/h (0 Bft) S-SO 152 ° 0 min 0,000 mm 0,0 UV-I 0 W/m² -7,0 °C -5,2 °C 1,6 km/h (1 Bft)
29.01.2017 06:53 -5,2 °C -5,2 °C 87 % 1024,9 hPa 0,0 mm 0,0 km/h (0 Bft) S-SO 152 ° 0 min 0,000 mm 0,0 UV-I 0 W/m² -7,0 °C -5,2 °C 0,0 km/h (0 Bft)
29.01.2017 06:54 -5,2 °C -5,2 °C 87 % 1024,9 hPa 0,0 mm 1,0 km/h (0 Bft) S-SO 152 ° 0 min 0,000 mm 0,0 UV-I 0 W/m² -7,0 °C -5,2 °C 1,6 km/h (1 Bft)
29.01.2017 06:55 -5,2 °C -5,2 °C 87 % 1024,9 hPa 0,0 mm 1,7 km/h (1 Bft) S-SO 152 ° 0 min 0,000 mm 0,0 UV-I 0 W/m² -7,0 °C -5,2 °C 3,2 km/h (1 Bft)
29.01.2017 06:56 -5,2 °C -5,2 °C 87 % 1024,9 hPa 0,0 mm 0,8 km/h (0 Bft) S-SO 152 ° 0 min 0,000 mm 0,0 UV-I 0 W/m² -7,0 °C -5,2 °C 3,2 km/h (1 Bft)
29.01.2017 06:57 -5,2 °C -5,2 °C 87 % 1024,9 hPa 0,0 mm 0,9 km/h (0 Bft) S-SO 152 ° 0 min 0,000 mm 0,0 UV-I 0 W/m² -7,0 °C -5,2 °C 1,6 km/h (1 Bft)
29.01.2017 06:58 -5,1 °C -5,1 °C 88 % 1024,9 hPa 0,0 mm 4,0 km/h (1 Bft) SO 132 ° 0 min 0,000 mm 0,0 UV-I 0 W/m² -6,8 °C -5,1 °C 8,0 km/h (2 Bft)
29.01.2017 06:59 -5,1 °C -5,1 °C 89 % 1024,9 hPa 0,0 mm 4,6 km/h (1 Bft) SO 126 ° 0 min 0,000 mm 0,0 UV-I 0 W/m² -6,6 °C -7,1 °C 6,4 km/h (2 Bft)
29.01.2017 07:00 -5,0 °C -5,0 °C 89 % 1024,9 hPa 0,0 mm 4,3 km/h (1 Bft) SO 136 ° 0 min 0,000 mm 0,0 UV-I 0 W/m² -6,5 °C -5,0 °C 6,4 km/h (2 Bft)
29.01.2017 07:01 -4,9 °C -4,9 °C 89 % 1024,9 hPa 0,0 mm 1,9 km/h (1 Bft) SO 136 ° 0 min 0,000 mm 0,0 UV-I 0 W/m² -6,4 °C -4,9 °C 3,2 km/h (1 Bft)
29.01.2017 07:02 -4,9 °C -4,9 °C 89 % 1025,0 hPa 0,0 mm 3,2 km/h (1 Bft) SO 136 ° 0 min 0,000 mm 0,0 UV-I 0 W/m² -6,4 °C -4,9 °C 4,8 km/h (1 Bft)
29.01.2017 07:03 -4,8 °C -4,8 °C 89 % 1025,0 hPa 0,0 mm 2,2 km/h (1 Bft) SO 136 ° 0 min 0,000 mm 0,0 UV-I 0 W/m² -6,3 °C -4,8 °C 3,2 km/h (1 Bft)
29.01.2017 07:04 -4,8 °C -4,7 °C 90 % 1024,9 hPa 0,0 mm 3,8 km/h (1 Bft) SO 144 ° 0 min 0,000 mm 0,0 UV-I 0 W/m² -6,2 °C -4,8 °C 6,4 km/h (2 Bft)
29.01.2017 07:05 -4,6 °C -4,6 °C 90 % 1024,9 hPa 0,0 mm 2,0 km/h (1 Bft) SO 144 ° 0 min 0,000 mm 0,0 UV-I 0 W/m² -6,0 °C -4,6 °C 4,8 km/h (1 Bft)
29.01.2017 07:06 -4,5 °C -4,5 °C 89 % 1025,0 hPa 0,0 mm 1,7 km/h (1 Bft) SO 144 ° 0 min 0,000 mm 0,0 UV-I 0 W/m² -6,0 °C -4,5 °C 3,2 km/h (1 Bft)
29.01.2017 07:07 -4,4 °C -4,4 °C 90 % 1024,9 hPa 0,0 mm 2,3 km/h (1 Bft) SO 144 ° 0 min 0,000 mm 0,0 UV-I 0 W/m² -5,8 °C -4,4 °C 4,8 km/h (1 Bft)
29.01.2017 07:08 -4,3 °C -4,3 °C 89 % 1024,9 hPa 0,0 mm 3,9 km/h (1 Bft) SO 144 ° 0 min 0,000 mm 0,0 UV-I 0 W/m² -5,8 °C -4,3 °C 4,8 km/h (1 Bft)
29.01.2017 07:09 -4,2 °C -4,2 °C 89 % 1024,9 hPa 0,0 mm 1,4 km/h (1 Bft) SO 144 ° 0 min 0,000 mm 0,0 UV-I 0 W/m² -5,7 °C -4,2 °C 3,2 km/h (1 Bft)
29.01.2017 07:10 -4,1 °C -4,1 °C 89 % 1025,0 hPa 0,0 mm 1,7 km/h (1 Bft) SO 144 ° 0 min 0,000 mm 0,0 UV-I 0 W/m² -5,6 °C -4,1 °C 3,2 km/h (1 Bft)
29.01.2017 07:11 -4,1 °C -4,1 °C 87 % 1025,0 hPa 0,0 mm 0,9 km/h (0 Bft) SO 144 ° 0 min 0,000 mm 0,0 UV-I 0 W/m² -5,9 °C -4,1 °C 1,6 km/h (1 Bft)
29.01.2017 07:12 -4,0 °C -4,0 °C 86 % 1025,0 hPa 0,0 mm 0,1 km/h (0 Bft) SO 144 ° 0 min 0,000 mm 0,0 UV-I 0 W/m² -6,0 °C -4,0 °C 1,6 km/h (1 Bft)
29.01.2017 07:13 -3,9 °C -3,9 °C 86 % 1025,0 hPa 0,0 mm 0,0 km/h (0 Bft) SO 144 ° 0 min 0,000 mm 0,0 UV-I 0 W/m² -5,9 °C -3,9 °C 0,0 km/h (0 Bft)
29.01.2017 07:14 -3,9 °C -3,9 °C 85 % 1025,0 hPa 0,0 mm 0,5 km/h (0 Bft) SO 144 ° 0 min 0,000 mm 0,0 UV-I 0 W/m² -6,0 °C -3,9 °C 1,6 km/h (1 Bft)
29.01.2017 07:15 -3,9 °C -3,9 °C 85 % 1025,0 hPa 0,0 mm 0,3 km/h (0 Bft) SO 144 ° 0 min 0,000 mm 0,0 UV-I 0 W/m² -6,0 °C -3,9 °C 1,6 km/h (1 Bft)
29.01.2017 07:16 -3,9 °C -3,9 °C 84 % 1025,0 hPa 0,0 mm 0,0 km/h (0 Bft) SO 144 ° 0 min 0,000 mm 0,0 UV-I 0 W/m² -6,2 °C -3,9 °C 0,0 km/h (0 Bft)
29.01.2017 07:17 -3,9 °C -3,9 °C 84 % 1025,0 hPa 0,0 mm 0,1 km/h (0 Bft) SO 144 ° 0 min 0,000 mm 0,0 UV-I 0 W/m² -6,2 °C -3,9 °C 1,6 km/h (1 Bft)
29.01.2017 07:18 -3,9 °C -3,8 °C 84 % 1025,0 hPa 0,0 mm 0,0 km/h (0 Bft) SO 144 ° 0 min 0,000 mm 0,0 UV-I 0 W/m² -6,2 °C -3,9 °C 0,0 km/h (0 Bft)
29.01.2017 07:19 -3,8 °C -3,8 °C 83 % 1025,0 hPa 0,0 mm 0,0 km/h (0 Bft) SO 144 ° 0 min 0,000 mm 0,0 UV-I 0 W/m² -6,3 °C -3,8 °C 0,0 km/h (0 Bft)
29.01.2017 07:20 -3,8 °C -3,8 °C 83 % 1025,0 hPa 0,0 mm 0,4 km/h (0 Bft) SO 144 ° 0 min 0,000 mm 0,0 UV-I 0 W/m² -6,3 °C -3,8 °C 1,6 km/h (1 Bft)
29.01.2017 07:21 -3,8 °C -3,8 °C 83 % 1025,0 hPa 0,0 mm 0,1 km/h (0 Bft) SO 144 ° 0 min 0,000 mm 0,0 UV-I 0 W/m² -6,3 °C -3,8 °C 1,6 km/h (1 Bft)
29.01.2017 07:22 -3,8 °C -3,8 °C 83 % 1025,0 hPa 0,0 mm 1,1 km/h (1 Bft) SO 144 ° 0 min 0,000 mm 0,0 UV-I 0 W/m² -6,3 °C -3,8 °C 1,6 km/h (1 Bft)
29.01.2017 07:23 -3,8 °C -3,8 °C 83 % 1025,0 hPa 0,0 mm 0,0 km/h (0 Bft) SO 144 ° 0 min 0,000 mm 0,0 UV-I 0 W/m² -6,3 °C -3,8 °C 0,0 km/h (0 Bft)
29.01.2017 07:24 -3,8 °C -3,8 °C 82 % 1025,0 hPa 0,0 mm 0,1 km/h (0 Bft) SO 144 ° 0 min 0,000 mm 0,0 UV-I 0 W/m² -6,4 °C -3,8 °C 1,6 km/h (1 Bft)
29.01.2017 07:25 -3,8 °C -3,8 °C 82 % 1025,1 hPa 0,0 mm 0,2 km/h (0 Bft) SO 144 ° 0 min 0,000 mm 0,0 UV-I 0 W/m² -6,4 °C -3,8 °C 1,6 km/h (1 Bft)
29.01.2017 07:26 -3,8 °C -3,8 °C 82 % 1025,1 hPa 0,0 mm 0,0 km/h (0 Bft) SO 144 ° 0 min 0,000 mm 0,0 UV-I 0 W/m² -6,4 °C -3,8 °C 0,0 km/h (0 Bft)
29.01.2017 07:27 -3,8 °C -3,8 °C 81 % 1025,0 hPa 0,0 mm 0,0 km/h (0 Bft) SO 144 ° 0 min 0,000 mm 0,0 UV-I 0 W/m² -6,6 °C -3,8 °C 0,0 km/h (0 Bft)
29.01.2017 07:28 -3,8 °C -3,8 °C 81 % 1025,1 hPa 0,0 mm 0,0 km/h (0 Bft) SO 144 ° 0 min 0,000 mm 0,0 UV-I 0 W/m² -6,6 °C -3,8 °C 0,0 km/h (0 Bft)
29.01.2017 07:29 -3,9 °C -3,8 °C 81 % 1025,1 hPa 0,0 mm 0,0 km/h (0 Bft) SO 144 ° 0 min 0,000 mm 0,0 UV-I 0 W/m² -6,7 °C -3,9 °C 0,0 km/h (0 Bft)
29.01.2017 07:30 -3,9 °C -3,9 °C 82 % 1025,1 hPa 0,0 mm 0,1 km/h (0 Bft) SO 144 ° 0 min 0,000 mm 0,0 UV-I 0 W/m² -6,5 °C -3,9 °C 1,6 km/h (1 Bft)
29.01.2017 07:31 -3,9 °C -3,9 °C 82 % 1025,1 hPa 0,0 mm 1,8 km/h (1 Bft) SO 144 ° 0 min 0,000 mm 0,0 UV-I 0 W/m² -6,5 °C -3,9 °C 3,2 km/h (1 Bft)
29.01.2017 07:32 -3,9 °C -3,9 °C 82 % 1025,1 hPa 0,0 mm 1,0 km/h (0 Bft) SO 144 ° 0 min 0,000 mm 0,0 UV-I 0 W/m² -6,5 °C -3,9 °C 1,6 km/h (1 Bft)
29.01.2017 07:33 -3,9 °C -3,9 °C 82 % 1025,2 hPa 0,0 mm 0,5 km/h (0 Bft) SO 144 ° 0 min 0,000 mm 0,0 UV-I 0 W/m² -6,5 °C -3,9 °C 1,6 km/h (1 Bft)
29.01.2017 07:34 -3,9 °C -3,9 °C 82 % 1025,2 hPa 0,0 mm 0,0 km/h (0 Bft) SO 144 ° 0 min 0,000 mm 0,0 UV-I 0 W/m² -6,5 °C -3,9 °C 0,0 km/h (0 Bft)
29.01.2017 07:35 -3,9 °C -3,9 °C 82 % 1025,1 hPa 0,0 mm 0,0 km/h (0 Bft) SO 144 ° 0 min 0,000 mm 0,0 UV-I 0 W/m² -6,5 °C -3,9 °C 0,0 km/h (0 Bft)
29.01.2017 07:36 -4,0 °C -3,9 °C 82 % 1025,1 hPa 0,0 mm 0,8 km/h (0 Bft) SO 144 ° 0 min 0,000 mm 0,0 UV-I 0 W/m² -6,6 °C -4,0 °C 1,6 km/h (1 Bft)
29.01.2017 07:37 -4,1 °C -4,0 °C 82 % 1025,1 hPa 0,0 mm 1,5 km/h (1 Bft) S-SO 150 ° 0 min 0,000 mm 0,0 UV-I 0 W/m² -6,7 °C -4,1 °C 3,2 km/h (1 Bft)
29.01.2017 07:38 -4,1 °C -4,1 °C 83 % 1025,2 hPa 0,0 mm 0,5 km/h (0 Bft) S-SO 150 ° 0 min 0,000 mm 0,0 UV-I 0 W/m² -6,5 °C -4,1 °C 1,6 km/h (1 Bft)
29.01.2017 07:39 -4,1 °C -4,1 °C 83 % 1025,2 hPa 0,0 mm 0,0 km/h (0 Bft) S-SO 150 ° 0 min 0,000 mm 0,0 UV-I 0 W/m² -6,5 °C -4,1 °C 0,0 km/h (0 Bft)
29.01.2017 07:40 -4,1 °C -4,1 °C 83 % 1025,2 hPa 0,0 mm 0,2 km/h (0 Bft) S-SO 150 ° 0 min 0,000 mm 0,0 UV-I 0 W/m² -6,5 °C -4,1 °C 1,6 km/h (1 Bft)
29.01.2017 07:41 -4,2 °C -4,1 °C 82 % 1025,2 hPa 0,0 mm 0,3 km/h (0 Bft) S-SO 150 ° 0 min 0,000 mm 0,0 UV-I 0 W/m² -6,8 °C -4,2 °C 1,6 km/h (1 Bft)
29.01.2017 07:42 -4,1 °C -4,1 °C 82 % 1025,2 hPa 0,0 mm 0,4 km/h (0 Bft) S-SO 150 ° 0 min 0,000 mm 0,0 UV-I 0 W/m² -6,7 °C -4,1 °C 1,6 km/h (1 Bft)
29.01.2017 07:43 -4,2 °C -4,1 °C 82 % 1025,3 hPa 0,0 mm 2,0 km/h (1 Bft) S-SO 150 ° 0 min 0,000 mm 0,0 UV-I 0 W/m² -6,8 °C -4,2 °C 3,2 km/h (1 Bft)
29.01.2017 07:44 -4,2 °C -4,2 °C 83 % 1025,2 hPa 0,0 mm 1,1 km/h (1 Bft) S-SO 150 ° 0 min 0,000 mm 0,0 UV-I 0 W/m² -6,6 °C -4,2 °C 3,2 km/h (1 Bft)
29.01.2017 07:45 -4,2 °C -4,2 °C 83 % 1025,2 hPa 0,0 mm 0,5 km/h (0 Bft) S-SO 150 ° 0 min 0,000 mm 0,0 UV-I 0 W/m² -6,6 °C -4,2 °C 3,2 km/h (1 Bft)
29.01.2017 07:46 -4,2 °C -4,2 °C 83 % 1025,2 hPa 0,0 mm 0,4 km/h (0 Bft) S-SO 150 ° 0 min 0,000 mm 0,0 UV-I 0 W/m² -6,6 °C -4,2 °C 1,6 km/h (1 Bft)
29.01.2017 07:47 -4,2 °C -4,2 °C 83 % 1025,2 hPa 0,0 mm 0,0 km/h (0 Bft) S-SO 150 ° 0 min 0,000 mm 0,0 UV-I 0 W/m² -6,6 °C -4,2 °C 0,0 km/h (0 Bft)
29.01.2017 07:48 -4,2 °C -4,2 °C 82 % 1025,2 hPa 0,0 mm 0,1 km/h (0 Bft) S-SO 150 ° 0 min 0,000 mm 0,0 UV-I 5 W/m² -6,8 °C -4,2 °C 1,6 km/h (1 Bft)
29.01.2017 07:49 -4,2 °C -4,2 °C 82 % 1025,3 hPa 0,0 mm 1,9 km/h (1 Bft) S-SO 150 ° 0 min 0,000 mm 0,0 UV-I 5 W/m² -6,8 °C -4,2 °C 3,2 km/h (1 Bft)
29.01.2017 07:50 -4,2 °C -4,2 °C 84 % 1025,3 hPa 0,0 mm 1,4 km/h (1 Bft) S-SO 150 ° 0 min 0,000 mm 0,0 UV-I 5 W/m² -6,5 °C -4,2 °C 1,6 km/h (1 Bft)
29.01.2017 07:51 -4,3 °C -4,2 °C 84 % 1025,3 hPa 0,0 mm 1,0 km/h (0 Bft) S-SO 150 ° 0 min 0,000 mm 0,0 UV-I 5 W/m² -6,6 °C -4,3 °C 3,2 km/h (1 Bft)
29.01.2017 07:52 -4,2 °C -4,2 °C 85 % 1025,3 hPa 0,0 mm 1,8 km/h (1 Bft) S-SO 150 ° 0 min 0,000 mm 0,0 UV-I 5 W/m² -6,3 °C -4,2 °C 3,2 km/h (1 Bft)
29.01.2017 07:53 -4,2 °C -4,2 °C 85 % 1025,3 hPa 0,0 mm 2,2 km/h (1 Bft) S-SO 150 ° 0 min 0,000 mm 0,0 UV-I 5 W/m² -6,3 °C -4,2 °C 3,2 km/h (1 Bft)
29.01.2017 07:54 -4,2 °C -4,2 °C 86 % 1025,3 hPa 0,0 mm 3,4 km/h (1 Bft) S-SO 155 ° 0 min 0,000 mm 0,0 UV-I 5 W/m² -6,2 °C -4,2 °C 4,8 km/h (1 Bft)
29.01.2017 07:55 -4,2 °C -4,1 °C 86 % 1025,3 hPa 0,0 mm 4,1 km/h (1 Bft) S-SO 155 ° 0 min 0,000 mm 0,0 UV-I 7 W/m² -6,2 °C -4,2 °C 4,8 km/h (1 Bft)
29.01.2017 07:56 -4,1 °C -4,1 °C 86 % 1025,3 hPa 0,0 mm 2,7 km/h (1 Bft) S 186 ° 0 min 0,000 mm 0,0 UV-I 7 W/m² -6,1 °C -4,1 °C 4,8 km/h (1 Bft)
29.01.2017 07:57 -3,9 °C -3,9 °C 87 % 1025,3 hPa 0,0 mm 3,0 km/h (1 Bft) S 182 ° 0 min 0,000 mm 0,0 UV-I 7 W/m² -5,7 °C -3,9 °C 3,2 km/h (1 Bft)
29.01.2017 07:58 -3,8 °C -3,8 °C 87 % 1025,3 hPa 0,0 mm 3,0 km/h (1 Bft) S 182 ° 0 min 0,000 mm 0,0 UV-I 7 W/m² -5,6 °C -3,8 °C 4,8 km/h (1 Bft)
29.01.2017 07:59 -3,7 °C -3,7 °C 86 % 1025,3 hPa 0,0 mm 3,4 km/h (1 Bft) S 170 ° 0 min 0,000 mm 0,0 UV-I 7 W/m² -5,7 °C -3,7 °C 6,4 km/h (2 Bft)
29.01.2017 08:00 -3,7 °C -3,7 °C 86 % 1025,3 hPa 0,0 mm 3,0 km/h (1 Bft) S 170 ° 0 min 0,000 mm 0,0 UV-I 9 W/m² -5,7 °C -3,7 °C 6,4 km/h (2 Bft)
29.01.2017 08:01 -3,5 °C -3,5 °C 86 % 1025,3 hPa 0,0 mm 0,3 km/h (0 Bft) S 170 ° 0 min 0,000 mm 0,0 UV-I 9 W/m² -5,5 °C -3,5 °C 1,6 km/h (1 Bft)
29.01.2017 08:02 -3,4 °C -3,4 °C 86 % 1025,3 hPa 0,0 mm 2,0 km/h (1 Bft) S 170 ° 0 min 0,000 mm 0,0 UV-I 9 W/m² -5,4 °C -3,4 °C 3,2 km/h (1 Bft)
29.01.2017 08:03 -3,4 °C -3,4 °C 84 % 1025,3 hPa 0,0 mm 1,5 km/h (1 Bft) S 170 ° 0 min 0,000 mm 0,0 UV-I 9 W/m² -5,7 °C -3,4 °C 3,2 km/h (1 Bft)
29.01.2017 08:04 -3,3 °C -3,3 °C 84 % 1025,3 hPa 0,0 mm 0,3 km/h (0 Bft) S 170 ° 0 min 0,000 mm 0,0 UV-I 9 W/m² -5,6 °C -3,3 °C 1,6 km/h (1 Bft)
29.01.2017 08:05 -3,2 °C -3,2 °C 83 % 1025,3 hPa 0,0 mm 0,7 km/h (0 Bft) S 170 ° 0 min 0,000 mm 0,0 UV-I 11 W/m² -5,7 °C -3,2 °C 1,6 km/h (1 Bft)
29.01.2017 08:06 -3,3 °C -3,2 °C 83 % 1025,3 hPa 0,0 mm 3,1 km/h (1 Bft) S 169 ° 0 min 0,000 mm 0,0 UV-I 11 W/m² -5,8 °C -3,3 °C 6,4 km/h (2 Bft)
29.01.2017 08:07 -3,2 °C -3,2 °C 83 % 1025,3 hPa 0,0 mm 3,0 km/h (1 Bft) S 169 ° 0 min 0,000 mm 0,0 UV-I 11 W/m² -5,7 °C -3,2 °C 6,4 km/h (2 Bft)
29.01.2017 08:08 -3,1 °C -3,1 °C 84 % 1025,3 hPa 0,0 mm 2,1 km/h (1 Bft) S 174 ° 0 min 0,000 mm 0,0 UV-I 11 W/m² -5,4 °C -3,1 °C 4,8 km/h (1 Bft)
29.01.2017 08:09 -3,0 °C -3,0 °C 84 % 1025,3 hPa 0,0 mm 1,4 km/h (1 Bft) S 174 ° 0 min 0,000 mm 0,0 UV-I 11 W/m² -5,3 °C -3,0 °C 1,6 km/h (1 Bft)
29.01.2017 08:10 -3,0 °C -2,9 °C 83 % 1025,3 hPa 0,0 mm 1,9 km/h (1 Bft) S 174 ° 0 min 0,000 mm 0,0 UV-I 11 W/m² -5,5 °C -3,0 °C 4,8 km/h (1 Bft)
29.01.2017 08:11 -2,9 °C -2,9 °C 82 % 1025,3 hPa 0,0 mm 3,4 km/h (1 Bft) S 174 ° 0 min 0,000 mm 0,0 UV-I 11 W/m² -5,5 °C -2,9 °C 4,8 km/h (1 Bft)
29.01.2017 08:12 -2,8 °C -2,8 °C 83 % 1025,3 hPa 0,0 mm 3,3 km/h (1 Bft) S 174 ° 0 min 0,000 mm 0,0 UV-I 12 W/m² -5,3 °C -2,8 °C 4,8 km/h (1 Bft)
29.01.2017 08:13 -2,7 °C -2,7 °C 83 % 1025,3 hPa 0,0 mm 4,1 km/h (1 Bft) S 169 ° 0 min 0,000 mm 0,0 UV-I 12 W/m² -5,2 °C -2,7 °C 6,4 km/h (2 Bft)
29.01.2017 08:14 -2,6 °C -2,6 °C 82 % 1025,3 hPa 0,0 mm 4,2 km/h (1 Bft) S 169 ° 0 min 0,000 mm 0,0 UV-I 12 W/m² -5,2 °C -2,6 °C 6,4 km/h (2 Bft)
29.01.2017 08:15 -2,5 °C -2,5 °C 82 % 1025,3 hPa 0,0 mm 5,6 km/h (1 Bft) S 169 ° 0 min 0,000 mm 0,0 UV-I 12 W/m² -5,1 °C -4,7 °C 8,0 km/h (2 Bft)
29.01.2017 08:16 -2,3 °C -2,3 °C 82 % 1025,3 hPa 0,0 mm 3,9 km/h (1 Bft) S 169 ° 0 min 0,000 mm 0,0 UV-I 12 W/m² -4,9 °C -2,3 °C 6,4 km/h (2 Bft)
29.01.2017 08:17 -2,2 °C -2,2 °C 82 % 1025,3 hPa 0,0 mm 4,8 km/h (1 Bft) S-SO 166 ° 0 min 0,000 mm 0,0 UV-I 12 W/m² -4,8 °C -4,0 °C 6,4 km/h (2 Bft)
29.01.2017 08:18 -2,1 °C -2,1 °C 81 % 1025,3 hPa 0,0 mm 3,7 km/h (1 Bft) S-SO 166 ° 0 min 0,000 mm 0,0 UV-I 12 W/m² -4,9 °C -2,1 °C 6,4 km/h (2 Bft)
29.01.2017 08:19 -1,9 °C -1,9 °C 81 % 1025,3 hPa 0,0 mm 6,2 km/h (2 Bft) S-SO 165 ° 0 min 0,000 mm 0,0 UV-I 12 W/m² -4,7 °C -4,3 °C 6,4 km/h (2 Bft)
29.01.2017 08:20 -1,9 °C -1,9 °C 80 % 1025,3 hPa 0,0 mm 5,2 km/h (1 Bft) S 171 ° 0 min 0,000 mm 0,0 UV-I 12 W/m² -4,9 °C -3,8 °C 8,0 km/h (2 Bft)
29.01.2017 08:21 -1,8 °C -1,8 °C 80 % 1025,3 hPa 0,0 mm 1,7 km/h (1 Bft) S 171 ° 0 min 0,000 mm 0,0 UV-I 14 W/m² -4,8 °C -1,8 °C 3,2 km/h (1 Bft)
29.01.2017 08:22 -1,7 °C -1,7 °C 80 % 1025,3 hPa 0,0 mm 1,5 km/h (1 Bft) S 171 ° 0 min 0,000 mm 0,0 UV-I 14 W/m² -4,7 °C -1,7 °C 3,2 km/h (1 Bft)
29.01.2017 08:23 -1,6 °C -1,6 °C 80 % 1025,3 hPa 0,0 mm 4,2 km/h (1 Bft) S-SO 160 ° 0 min 0,000 mm 0,0 UV-I 14 W/m² -4,6 °C -1,6 °C 6,4 km/h (2 Bft)
29.01.2017 08:24 -1,6 °C -1,6 °C 79 % 1025,3 hPa 0,0 mm 4,9 km/h (1 Bft) S-SO 163 ° 0 min 0,000 mm 0,0 UV-I 14 W/m² -4,8 °C -3,4 °C 6,4 km/h (2 Bft)
29.01.2017 08:25 -1,4 °C -1,4 °C 79 % 1025,3 hPa 0,0 mm 3,4 km/h (1 Bft) S-SO 164 ° 0 min 0,000 mm 0,0 UV-I 14 W/m² -4,6 °C -1,4 °C 6,4 km/h (2 Bft)
29.01.2017 08:26 -1,4 °C -1,4 °C 78 % 1025,3 hPa 0,0 mm 3,2 km/h (1 Bft) S-SO 163 ° 0 min 0,000 mm 0,0 UV-I 14 W/m² -4,7 °C -1,4 °C 6,4 km/h (2 Bft)
29.01.2017 08:27 -1,3 °C -1,3 °C 78 % 1025,3 hPa 0,0 mm 2,9 km/h (1 Bft) S-SO 163 ° 0 min 0,000 mm 0,0 UV-I 14 W/m² -4,6 °C -1,3 °C 6,4 km/h (2 Bft)
29.01.2017 08:28 -1,2 °C -1,2 °C 78 % 1025,3 hPa 0,0 mm 1,2 km/h (1 Bft) S-SO 163 ° 0 min 0,000 mm 0,0 UV-I 16 W/m² -4,5 °C -1,2 °C 1,6 km/h (1 Bft)
29.01.2017 08:29 -1,2 °C -1,2 °C 78 % 1025,4 hPa 0,0 mm 2,2 km/h (1 Bft) S-SO 163 ° 0 min 0,000 mm 0,0 UV-I 16 W/m² -4,5 °C -1,2 °C 3,2 km/h (1 Bft)
29.01.2017 08:30 -1,2 °C -1,2 °C 78 % 1025,3 hPa 0,0 mm 3,4 km/h (1 Bft) S-SO 163 ° 0 min 0,000 mm 0,0 UV-I 16 W/m² -4,5 °C -1,2 °C 6,4 km/h (2 Bft)
29.01.2017 08:31 -1,1 °C -1,1 °C 78 % 1025,3 hPa 0,0 mm 2,5 km/h (1 Bft) S-SO 163 ° 0 min 0,000 mm 0,0 UV-I 16 W/m² -4,4 °C -1,1 °C 6,4 km/h (2 Bft)
29.01.2017 08:32 -1,0 °C -1,0 °C 77 % 1025,3 hPa 0,0 mm 3,2 km/h (1 Bft) S-SO 166 ° 0 min 0,000 mm 0,0 UV-I 16 W/m² -4,5 °C -1,0 °C 4,8 km/h (1 Bft)
29.01.2017 08:33 -0,9 °C -0,9 °C 77 % 1025,3 hPa 0,0 mm 2,5 km/h (1 Bft) S 175 ° 0 min 0,000 mm 0,0 UV-I 16 W/m² -4,4 °C -0,9 °C 6,4 km/h (2 Bft)
29.01.2017 08:34 -0,9 °C -0,9 °C 77 % 1025,3 hPa 0,0 mm 2,5 km/h (1 Bft) S 173 ° 0 min 0,000 mm 0,0 UV-I 16 W/m² -4,4 °C -0,9 °C 4,8 km/h (1 Bft)
29.01.2017 08:35 -0,9 °C -0,9 °C 77 % 1025,3 hPa 0,0 mm 2,7 km/h (1 Bft) S 173 ° 0 min 0,000 mm 0,0 UV-I 16 W/m² -4,4 °C -0,9 °C 4,8 km/h (1 Bft)
29.01.2017 08:36 -0,9 °C -0,9 °C 76 % 1025,3 hPa 0,0 mm 2,2 km/h (1 Bft) S 173 ° 0 min 0,000 mm 0,0 UV-I 16 W/m² -4,6 °C -0,9 °C 3,2 km/h (1 Bft)
29.01.2017 08:37 -0,9 °C -0,8 °C 76 % 1025,3 hPa 0,0 mm 3,1 km/h (1 Bft) S 173 ° 0 min 0,000 mm 0,0 UV-I 16 W/m² -4,6 °C -0,9 °C 4,8 km/h (1 Bft)
29.01.2017 08:38 -0,8 °C -0,8 °C 76 % 1025,3 hPa 0,0 mm 3,4 km/h (1 Bft) S 173 ° 0 min 0,000 mm 0,0 UV-I 18 W/m² -4,5 °C -0,8 °C 4,8 km/h (1 Bft)
29.01.2017 08:39 -0,8 °C -0,8 °C 76 % 1025,3 hPa 0,0 mm 3,5 km/h (1 Bft) S 177 ° 0 min 0,000 mm 0,0 UV-I 18 W/m² -4,5 °C -0,8 °C 6,4 km/h (2 Bft)
29.01.2017 08:40 -0,7 °C -0,7 °C 75 % 1025,3 hPa 0,0 mm 2,1 km/h (1 Bft) S 177 ° 0 min 0,000 mm 0,0 UV-I 18 W/m² -4,6 °C -0,7 °C 3,2 km/h (1 Bft)
29.01.2017 08:41 -0,7 °C -0,7 °C 75 % 1025,3 hPa 0,0 mm 2,4 km/h (1 Bft) S 177 ° 0 min 0,000 mm 0,0 UV-I 18 W/m² -4,6 °C -0,7 °C 3,2 km/h (1 Bft)
29.01.2017 08:42 -0,7 °C -0,7 °C 75 % 1025,3 hPa 0,0 mm 1,8 km/h (1 Bft) S 177 ° 0 min 0,000 mm 0,0 UV-I 18 W/m² -4,6 °C -0,7 °C 3,2 km/h (1 Bft)
29.01.2017 08:43 -0,7 °C -0,7 °C 75 % 1025,3 hPa 0,0 mm 2,3 km/h (1 Bft) S 177 ° 0 min 0,000 mm 0,0 UV-I 18 W/m² -4,6 °C -0,7 °C 3,2 km/h (1 Bft)
29.01.2017 08:44 -0,7 °C -0,7 °C 75 % 1025,3 hPa 0,0 mm 1,6 km/h (1 Bft) S 177 ° 0 min 0,000 mm 0,0 UV-I 18 W/m² -4,6 °C -0,7 °C 3,2 km/h (1 Bft)
29.01.2017 08:45 -0,7 °C -0,7 °C 74 % 1025,3 hPa 0,0 mm 2,1 km/h (1 Bft) S-SO 163 ° 0 min 0,000 mm 0,0 UV-I 18 W/m² -4,7 °C -0,7 °C 3,2 km/h (1 Bft)
29.01.2017 08:46 -0,7 °C -0,7 °C 74 % 1025,3 hPa 0,0 mm 3,1 km/h (1 Bft) S-SO 163 ° 0 min 0,000 mm 0,0 UV-I 18 W/m² -4,7 °C -0,7 °C 3,2 km/h (1 Bft)
29.01.2017 08:47 -0,7 °C -0,7 °C 74 % 1025,3 hPa 0,0 mm 3,8 km/h (1 Bft) S 178 ° 0 min 0,000 mm 0,0 UV-I 19 W/m² -4,7 °C -0,7 °C 6,4 km/h (2 Bft)
29.01.2017 08:48 -0,7 °C -0,7 °C 74 % 1025,3 hPa 0,0 mm 3,7 km/h (1 Bft) S 178 ° 0 min 0,000 mm 0,0 UV-I 19 W/m² -4,7 °C -0,7 °C 4,8 km/h (1 Bft)
29.01.2017 08:49 -0,7 °C -0,7 °C 74 % 1025,3 hPa 0,0 mm 5,4 km/h (1 Bft) S-SO 162 ° 0 min 0,000 mm 0,0 UV-I 19 W/m² -4,7 °C -2,6 °C 6,4 km/h (2 Bft)
29.01.2017 08:50 -0,7 °C -0,7 °C 74 % 1025,2 hPa 0,0 mm 3,9 km/h (1 Bft) S-SO 162 ° 0 min 0,000 mm 0,0 UV-I 19 W/m² -4,7 °C -0,7 °C 6,4 km/h (2 Bft)
29.01.2017 08:51 -0,7 °C -0,7 °C 74 % 1025,3 hPa 0,0 mm 4,4 km/h (1 Bft) S-SO 165 ° 0 min 0,000 mm 0,0 UV-I 19 W/m² -4,7 °C -0,7 °C 6,4 km/h (2 Bft)
29.01.2017 08:52 -0,7 °C -0,7 °C 74 % 1025,2 hPa 0,0 mm 2,1 km/h (1 Bft) S-SO 165 ° 0 min 0,000 mm 0,0 UV-I 19 W/m² -4,7 °C -0,7 °C 3,2 km/h (1 Bft)
29.01.2017 08:53 -0,7 °C -0,7 °C 75 % 1025,2 hPa 0,0 mm 2,0 km/h (1 Bft) S-SO 165 ° 0 min 0,000 mm 0,0 UV-I 19 W/m² -4,6 °C -0,7 °C 3,2 km/h (1 Bft)
29.01.2017 08:54 -0,7 °C -0,7 °C 75 % 1025,3 hPa 0,0 mm 1,8 km/h (1 Bft) S-SO 165 ° 0 min 0,000 mm 0,0 UV-I 19 W/m² -4,6 °C -0,7 °C 3,2 km/h (1 Bft)
29.01.2017 08:55 -0,7 °C -0,7 °C 74 % 1025,3 hPa 0,0 mm 1,3 km/h (1 Bft) S-SO 165 ° 0 min 0,000 mm 0,0 UV-I 19 W/m² -4,7 °C -0,7 °C 3,2 km/h (1 Bft)
29.01.2017 08:56 -0,7 °C -0,7 °C 74 % 1025,3 hPa 0,0 mm 0,6 km/h (0 Bft) S-SO 165 ° 0 min 0,000 mm 0,0 UV-I 19 W/m² -4,7 °C -0,7 °C 1,6 km/h (1 Bft)
29.01.2017 08:57 -0,7 °C -0,7 °C 74 % 1025,3 hPa 0,0 mm 2,3 km/h (1 Bft) S-SO 164 ° 0 min 0,000 mm 0,0 UV-I 21 W/m² -4,7 °C -0,7 °C 6,4 km/h (2 Bft)
29.01.2017 08:58 -0,8 °C -0,7 °C 74 % 1025,2 hPa 0,0 mm 4,0 km/h (1 Bft) S 171 ° 0 min 0,000 mm 0,0 UV-I 21 W/m² -4,8 °C -0,8 °C 6,4 km/h (2 Bft)
29.01.2017 08:59 -0,8 °C -0,7 °C 74 % 1025,3 hPa 0,0 mm 1,8 km/h (1 Bft) S 171 ° 0 min 0,000 mm 0,0 UV-I 21 W/m² -4,8 °C -0,8 °C 6,4 km/h (2 Bft)
29.01.2017 09:00 -0,8 °C -0,7 °C 74 % 1025,3 hPa 0,0 mm 1,3 km/h (1 Bft) S 171 ° 0 min 0,000 mm 0,0 UV-I 21 W/m² -4,8 °C -0,8 °C 1,6 km/h (1 Bft)
29.01.2017 09:01 -0,8 °C -0,8 °C 74 % 1025,3 hPa 0,0 mm 2,5 km/h (1 Bft) S 171 ° 0 min 0,000 mm 0,0 UV-I 21 W/m² -4,8 °C -0,8 °C 3,2 km/h (1 Bft)
29.01.2017 09:02 -0,8 °C -0,8 °C 74 % 1025,3 hPa 0,0 mm 2,5 km/h (1 Bft) S 171 ° 0 min 0,000 mm 0,0 UV-I 21 W/m² -4,8 °C -0,8 °C 3,2 km/h (1 Bft)
29.01.2017 09:03 -0,8 °C -0,8 °C 74 % 1025,3 hPa 0,0 mm 0,1 km/h (0 Bft) S 171 ° 0 min 0,000 mm 0,0 UV-I 21 W/m² -4,8 °C -0,8 °C 1,6 km/h (1 Bft)
29.01.2017 09:04 -0,9 °C -0,8 °C 74 % 1025,3 hPa 0,0 mm 0,3 km/h (0 Bft) S 171 ° 0 min 0,000 mm 0,0 UV-I 21 W/m² -4,9 °C -0,9 °C 1,6 km/h (1 Bft)
29.01.2017 09:05 -1,0 °C -0,9 °C 74 % 1025,3 hPa 0,0 mm 0,9 km/h (0 Bft) S 171 ° 0 min 0,000 mm 0,0 UV-I 21 W/m² -5,0 °C -1,0 °C 1,6 km/h (1 Bft)
29.01.2017 09:06 -1,1 °C -1,0 °C 74 % 1025,3 hPa 0,0 mm 0,4 km/h (0 Bft) S 171 ° 0 min 0,000 mm 0,0 UV-I 21 W/m² -5,1 °C -1,1 °C 1,6 km/h (1 Bft)
29.01.2017 09:07 -1,1 °C -1,1 °C 74 % 1025,3 hPa 0,0 mm 0,1 km/h (0 Bft) S 171 ° 0 min 0,000 mm 0,0 UV-I 21 W/m² -5,1 °C -1,1 °C 1,6 km/h (1 Bft)
29.01.2017 09:08 -1,2 °C -1,1 °C 74 % 1025,3 hPa 0,0 mm 0,7 km/h (0 Bft) S 171 ° 0 min 0,000 mm 0,0 UV-I 23 W/m² -5,2 °C -1,2 °C 1,6 km/h (1 Bft)
29.01.2017 09:09 -1,2 °C -1,2 °C 74 % 1025,3 hPa 0,0 mm 0,1 km/h (0 Bft) S 171 ° 0 min 0,000 mm 0,0 UV-I 23 W/m² -5,2 °C -1,2 °C 1,6 km/h (1 Bft)
29.01.2017 09:10 -1,2 °C -1,2 °C 74 % 1025,3 hPa 0,0 mm 0,3 km/h (0 Bft) S 171 ° 0 min 0,000 mm 0,0 UV-I 23 W/m² -5,2 °C -1,2 °C 1,6 km/h (1 Bft)
29.01.2017 09:11 -1,2 °C -1,2 °C 74 % 1025,3 hPa 0,0 mm 1,2 km/h (1 Bft) S 171 ° 0 min 0,000 mm 0,0 UV-I 23 W/m² -5,2 °C -1,2 °C 3,2 km/h (1 Bft)
29.01.2017 09:12 -1,2 °C -1,2 °C 74 % 1025,3 hPa 0,0 mm 1,7 km/h (1 Bft) S 171 ° 0 min 0,000 mm 0,0 UV-I 23 W/m² -5,2 °C -1,2 °C 3,2 km/h (1 Bft)
29.01.2017 09:13 -1,2 °C -1,2 °C 74 % 1025,4 hPa 0,0 mm 1,7 km/h (1 Bft) S-SO 167 ° 0 min 0,000 mm 0,0 UV-I 23 W/m² -5,2 °C -1,2 °C 4,8 km/h (1 Bft)
29.01.2017 09:14 -1,3 °C -1,2 °C 75 % 1025,4 hPa 0,0 mm 0,6 km/h (0 Bft) S-SO 167 ° 0 min 0,000 mm 0,0 UV-I 23 W/m² -5,1 °C -1,3 °C 1,6 km/h (1 Bft)
29.01.2017 09:15 -1,3 °C -1,3 °C 75 % 1025,4 hPa 0,0 mm 0,0 km/h (0 Bft) S-SO 167 ° 0 min 0,000 mm 0,0 UV-I 23 W/m² -5,1 °C -1,3 °C 0,0 km/h (0 Bft)
29.01.2017 09:16 -1,3 °C -1,3 °C 75 % 1025,4 hPa 0,0 mm 0,0 km/h (0 Bft) S-SO 167 ° 0 min 0,000 mm 0,0 UV-I 23 W/m² -5,1 °C -1,3 °C 0,0 km/h (0 Bft)
29.01.2017 09:17 -1,3 °C -1,3 °C 75 % 1025,4 hPa 0,0 mm 0,0 km/h (0 Bft) S-SO 167 ° 0 min 0,000 mm 0,0 UV-I 23 W/m² -5,1 °C -1,3 °C 0,0 km/h (0 Bft)
29.01.2017 09:18 -1,3 °C -1,3 °C 75 % 1025,4 hPa 0,0 mm 0,0 km/h (0 Bft) S-SO 167 ° 0 min 0,000 mm 0,0 UV-I 23 W/m² -5,1 °C -1,3 °C 0,0 km/h (0 Bft)
29.01.2017 09:19 -1,3 °C -1,3 °C 75 % 1025,4 hPa 0,0 mm 0,1 km/h (0 Bft) S-SO 167 ° 0 min 0,000 mm 0,0 UV-I 23 W/m² -5,1 °C -1,3 °C 1,6 km/h (1 Bft)
29.01.2017 09:20 -1,3 °C -1,3 °C 75 % 1025,3 hPa 0,0 mm 0,0 km/h (0 Bft) S-SO 167 ° 0 min 0,000 mm 0,0 UV-I 23 W/m² -5,1 °C -1,3 °C 0,0 km/h (0 Bft)
29.01.2017 09:21 -1,3 °C -1,3 °C 75 % 1025,3 hPa 0,0 mm 0,0 km/h (0 Bft) S-SO 167 ° 0 min 0,000 mm 0,0 UV-I 25 W/m² -5,1 °C -1,3 °C 0,0 km/h (0 Bft)
29.01.2017 09:22 -1,3 °C -1,3 °C 76 % 1025,3 hPa 0,0 mm 0,0 km/h (0 Bft) S-SO 167 ° 0 min 0,000 mm 0,0 UV-I 23 W/m² -5,0 °C -1,3 °C 0,0 km/h (0 Bft)
29.01.2017 09:23 -1,4 °C -1,3 °C 76 % 1025,3 hPa 0,0 mm 0,0 km/h (0 Bft) S-SO 167 ° 0 min 0,000 mm 0,0 UV-I 23 W/m² -5,1 °C -1,4 °C 0,0 km/h (0 Bft)
29.01.2017 09:24 -1,4 °C -1,3 °C 76 % 1025,3 hPa 0,0 mm 0,0 km/h (0 Bft) S-SO 167 ° 0 min 0,000 mm 0,0 UV-I 25 W/m² -5,1 °C -1,4 °C 0,0 km/h (0 Bft)
29.01.2017 09:25 -1,4 °C -1,4 °C 76 % 1025,3 hPa 0,0 mm 0,0 km/h (0 Bft) S-SO 167 ° 0 min 0,000 mm 0,0 UV-I 25 W/m² -5,1 °C -1,4 °C 0,0 km/h (0 Bft)
29.01.2017 09:26 -1,4 °C -1,4 °C 76 % 1025,2 hPa 0,0 mm 0,0 km/h (0 Bft) S-SO 167 ° 0 min 0,000 mm 0,0 UV-I 25 W/m² -5,1 °C -1,4 °C 0,0 km/h (0 Bft)
29.01.2017 09:27 -1,4 °C -1,4 °C 76 % 1025,2 hPa 0,0 mm 0,0 km/h (0 Bft) S-SO 167 ° 0 min 0,000 mm 0,0 UV-I 25 W/m² -5,1 °C -1,4 °C 0,0 km/h (0 Bft)
29.01.2017 09:28 -1,5 °C -1,4 °C 76 % 1025,2 hPa 0,0 mm 0,4 km/h (0 Bft) S-SO 167 ° 0 min 0,000 mm 0,0 UV-I 25 W/m² -5,2 °C -1,5 °C 1,6 km/h (1 Bft)
29.01.2017 09:29 -1,5 °C -1,4 °C 76 % 1025,2 hPa 0,0 mm 0,0 km/h (0 Bft) S-SO 167 ° 0 min 0,000 mm 0,0 UV-I 25 W/m² -5,2 °C -1,5 °C 0,0 km/h (0 Bft)
29.01.2017 09:30 -1,6 °C -1,5 °C 76 % 1025,3 hPa 0,0 mm 0,1 km/h (0 Bft) S-SO 167 ° 0 min 0,000 mm 0,0 UV-I 25 W/m² -5,3 °C -1,6 °C 1,6 km/h (1 Bft)
29.01.2017 09:31 -1,6 °C -1,5 °C 76 % 1025,3 hPa 0,0 mm 0,6 km/h (0 Bft) S-SO 167 ° 0 min 0,000 mm 0,0 UV-I 25 W/m² -5,3 °C -1,6 °C 1,6 km/h (1 Bft)
29.01.2017 09:32 -1,6 °C -1,6 °C 76 % 1025,3 hPa 0,0 mm 0,9 km/h (0 Bft) S-SO 167 ° 0 min 0,000 mm 0,0 UV-I 25 W/m² -5,3 °C -1,6 °C 1,6 km/h (1 Bft)
29.01.2017 09:33 -1,6 °C -1,6 °C 76 % 1025,3 hPa 0,0 mm 1,0 km/h (0 Bft) S-SO 167 ° 0 min 0,000 mm 0,0 UV-I 25 W/m² -5,3 °C -1,6 °C 1,6 km/h (1 Bft)
29.01.2017 09:34 -1,6 °C -1,6 °C 76 % 1025,3 hPa 0,0 mm 1,2 km/h (1 Bft) S-SO 167 ° 0 min 0,000 mm 0,0 UV-I 25 W/m² -5,3 °C -1,6 °C 1,6 km/h (1 Bft)
29.01.2017 09:35 -1,6 °C -1,6 °C 76 % 1025,3 hPa 0,0 mm 1,7 km/h (1 Bft) S-SO 167 ° 0 min 0,000 mm 0,0 UV-I 25 W/m² -5,3 °C -1,6 °C 4,8 km/h (1 Bft)
29.01.2017 09:36 -1,6 °C -1,6 °C 77 % 1025,3 hPa 0,0 mm 0,7 km/h (0 Bft) S-SO 167 ° 0 min 0,000 mm 0,0 UV-I 26 W/m² -5,1 °C -1,6 °C 1,6 km/h (1 Bft)
29.01.2017 09:37 -1,7 °C -1,6 °C 77 % 1025,2 hPa 0,0 mm 1,1 km/h (1 Bft) S-SO 167 ° 0 min 0,000 mm 0,0 UV-I 26 W/m² -5,2 °C -1,7 °C 1,6 km/h (1 Bft)
29.01.2017 09:38 -1,7 °C -1,7 °C 77 % 1025,2 hPa 0,0 mm 0,1 km/h (0 Bft) S-SO 167 ° 0 min 0,000 mm 0,0 UV-I 26 W/m² -5,2 °C -1,7 °C 1,6 km/h (1 Bft)
29.01.2017 09:39 -1,7 °C -1,7 °C 77 % 1025,2 hPa 0,0 mm 0,0 km/h (0 Bft) S-SO 167 ° 0 min 0,000 mm 0,0 UV-I 26 W/m² -5,2 °C -1,7 °C 0,0 km/h (0 Bft)
29.01.2017 09:40 -1,7 °C -1,7 °C 77 % 1025,2 hPa 0,0 mm 0,1 km/h (0 Bft) S-SO 167 ° 0 min 0,000 mm 0,0 UV-I 26 W/m² -5,2 °C -1,7 °C 1,6 km/h (1 Bft)
29.01.2017 09:41 -1,7 °C -1,7 °C 77 % 1025,3 hPa 0,0 mm 0,7 km/h (0 Bft) S-SO 167 ° 0 min 0,000 mm 0,0 UV-I 26 W/m² -5,2 °C -1,7 °C 1,6 km/h (1 Bft)
29.01.2017 09:42 -1,8 °C -1,7 °C 77 % 1025,3 hPa 0,0 mm 0,0 km/h (0 Bft) S-SO 167 ° 0 min 0,000 mm 0,0 UV-I 26 W/m² -5,3 °C -1,8 °C 0,0 km/h (0 Bft)
29.01.2017 09:43 -1,8 °C -1,7 °C 77 % 1025,3 hPa 0,0 mm 0,0 km/h (0 Bft) S-SO 167 ° 0 min 0,000 mm 0,0 UV-I 26 W/m² -5,3 °C -1,8 °C 0,0 km/h (0 Bft)
29.01.2017 09:44 -1,8 °C -1,7 °C 77 % 1025,3 hPa 0,0 mm 0,0 km/h (0 Bft) S-SO 167 ° 0 min 0,000 mm 0,0 UV-I 28 W/m² -5,3 °C -1,8 °C 0,0 km/h (0 Bft)
29.01.2017 09:45 -1,8 °C -1,8 °C 77 % 1025,3 hPa 0,0 mm 0,0 km/h (0 Bft) S-SO 167 ° 0 min 0,000 mm 0,0 UV-I 28 W/m² -5,3 °C -1,8 °C 0,0 km/h (0 Bft)
29.01.2017 09:46 -1,8 °C -1,8 °C 77 % 1025,3 hPa 0,0 mm 0,0 km/h (0 Bft) S-SO 167 ° 0 min 0,000 mm 0,0 UV-I 28 W/m² -5,3 °C -1,8 °C 0,0 km/h (0 Bft)
29.01.2017 09:47 -1,8 °C -1,8 °C 78 % 1025,3 hPa 0,0 mm 0,3 km/h (0 Bft) S-SO 167 ° 0 min 0,000 mm 0,0 UV-I 28 W/m² -5,1 °C -1,8 °C 1,6 km/h (1 Bft)
29.01.2017 09:48 -1,8 °C -1,8 °C 78 % 1025,4 hPa 0,0 mm 0,4 km/h (0 Bft) S-SO 167 ° 0 min 0,000 mm 0,0 UV-I 28 W/m² -5,1 °C -1,8 °C 1,6 km/h (1 Bft)
29.01.2017 09:49 -1,8 °C -1,8 °C 78 % 1025,3 hPa 0,0 mm 0,9 km/h (0 Bft) S-SO 167 ° 0 min 0,000 mm 0,0 UV-I 28 W/m² -5,1 °C -1,8 °C 1,6 km/h (1 Bft)
29.01.2017 09:50 -1,8 °C -1,8 °C 79 % 1025,3 hPa 0,0 mm 0,1 km/h (0 Bft) S-SO 167 ° 0 min 0,000 mm 0,0 UV-I 28 W/m² -4,9 °C -1,8 °C 1,6 km/h (1 Bft)
29.01.2017 09:51 -1,8 °C -1,8 °C 79 % 1025,4 hPa 0,0 mm 0,0 km/h (0 Bft) S-SO 167 ° 0 min 0,000 mm 0,0 UV-I 28 W/m² -4,9 °C -1,8 °C 0,0 km/h (0 Bft)
29.01.2017 09:52 -1,8 °C -1,8 °C 79 % 1025,3 hPa 0,0 mm 0,0 km/h (0 Bft) S-SO 167 ° 0 min 0,000 mm 0,0 UV-I 28 W/m² -4,9 °C -1,8 °C 0,0 km/h (0 Bft)
29.01.2017 09:53 -1,8 °C -1,8 °C 79 % 1025,3 hPa 0,0 mm 0,0 km/h (0 Bft) S-SO 167 ° 0 min 0,000 mm 0,0 UV-I 28 W/m² -4,9 °C -1,8 °C 0,0 km/h (0 Bft)
29.01.2017 09:54 -1,8 °C -1,8 °C 79 % 1025,3 hPa 0,0 mm 0,3 km/h (0 Bft) S-SO 167 ° 0 min 0,000 mm 0,0 UV-I 28 W/m² -4,9 °C -1,8 °C 1,6 km/h (1 Bft)
29.01.2017 09:55 -1,8 °C -1,8 °C 79 % 1025,3 hPa 0,0 mm 0,2 km/h (0 Bft) S-SO 167 ° 0 min 0,000 mm 0,0 UV-I 30 W/m² -4,9 °C -1,8 °C 1,6 km/h (1 Bft)
29.01.2017 09:56 -1,8 °C -1,8 °C 79 % 1025,3 hPa 0,0 mm 0,1 km/h (0 Bft) S-SO 167 ° 0 min 0,000 mm 0,0 UV-I 30 W/m² -4,9 °C -1,8 °C 1,6 km/h (1 Bft)
29.01.2017 09:57 -1,8 °C -1,8 °C 80 % 1025,3 hPa 0,0 mm 0,0 km/h (0 Bft) S-SO 167 ° 0 min 0,000 mm 0,0 UV-I 30 W/m² -4,8 °C -1,8 °C 0,0 km/h (0 Bft)
29.01.2017 09:58 -1,8 °C -1,8 °C 80 % 1025,3 hPa 0,0 mm 0,8 km/h (0 Bft) S-SO 167 ° 0 min 0,000 mm 0,0 UV-I 30 W/m² -4,8 °C -1,8 °C 1,6 km/h (1 Bft)
29.01.2017 09:59 -1,8 °C -1,8 °C 80 % 1025,3 hPa 0,0 mm 0,9 km/h (0 Bft) S-SO 167 ° 0 min 0,000 mm 0,0 UV-I 30 W/m² -4,8 °C -1,8 °C 1,6 km/h (1 Bft)
29.01.2017 10:00 -1,8 °C -1,8 °C 81 % 1025,3 hPa 0,0 mm 0,5 km/h (0 Bft) S-SO 167 ° 0 min 0,000 mm 0,0 UV-I 30 W/m² -4,6 °C -1,8 °C 1,6 km/h (1 Bft)
29.01.2017 10:01 -1,8 °C -1,8 °C 80 % 1025,3 hPa 0,0 mm 0,0 km/h (0 Bft) S-SO 167 ° 0 min 0,000 mm 0,0 UV-I 30 W/m² -4,8 °C -1,8 °C 0,0 km/h (0 Bft)
29.01.2017 10:02 -1,8 °C -1,8 °C 80 % 1025,3 hPa 0,0 mm 0,3 km/h (0 Bft) S-SO 167 ° 0 min 0,000 mm 0,0 UV-I 30 W/m² -4,8 °C -1,8 °C 1,6 km/h (1 Bft)
29.01.2017 10:03 -1,8 °C -1,8 °C 80 % 1025,3 hPa 0,0 mm 0,3 km/h (0 Bft) S-SO 167 ° 0 min 0,000 mm 0,0 UV-I 30 W/m² -4,8 °C -1,8 °C 1,6 km/h (1 Bft)
29.01.2017 10:04 -1,8 °C -1,8 °C 80 % 1025,3 hPa 0,0 mm 0,3 km/h (0 Bft) S-SO 167 ° 0 min 0,000 mm 0,0 UV-I 30 W/m² -4,8 °C -1,8 °C 1,6 km/h (1 Bft)
29.01.2017 10:05 -1,8 °C -1,8 °C 80 % 1025,3 hPa 0,0 mm 0,0 km/h (0 Bft) S-SO 167 ° 0 min 0,000 mm 0,0 UV-I 30 W/m² -4,8 °C -1,8 °C 0,0 km/h (0 Bft)
29.01.2017 10:06 -1,8 °C -1,8 °C 80 % 1025,2 hPa 0,0 mm 0,0 km/h (0 Bft) S-SO 167 ° 0 min 0,000 mm 0,0 UV-I 30 W/m² -4,8 °C -1,8 °C 0,0 km/h (0 Bft)
29.01.2017 10:07 -1,7 °C -1,7 °C 80 % 1025,2 hPa 0,0 mm 0,8 km/h (0 Bft) S-SO 167 ° 0 min 0,000 mm 0,0 UV-I 30 W/m² -4,7 °C -1,7 °C 1,6 km/h (1 Bft)
29.01.2017 10:08 -1,7 °C -1,7 °C 80 % 1025,3 hPa 0,0 mm 0,3 km/h (0 Bft) S-SO 167 ° 0 min 0,000 mm 0,0 UV-I 32 W/m² -4,7 °C -1,7 °C 1,6 km/h (1 Bft)
29.01.2017 10:09 -1,7 °C -1,7 °C 80 % 1025,4 hPa 0,0 mm 0,1 km/h (0 Bft) S-SO 167 ° 0 min 0,000 mm 0,0 UV-I 32 W/m² -4,7 °C -1,7 °C 1,6 km/h (1 Bft)
29.01.2017 10:10 -1,7 °C -1,7 °C 80 % 1025,3 hPa 0,0 mm 0,0 km/h (0 Bft) S-SO 167 ° 0 min 0,000 mm 0,0 UV-I 32 W/m² -4,7 °C -1,7 °C 0,0 km/h (0 Bft)
29.01.2017 10:11 -1,7 °C -1,7 °C 80 % 1025,4 hPa 0,0 mm 0,0 km/h (0 Bft) S-SO 167 ° 0 min 0,000 mm 0,0 UV-I 32 W/m² -4,7 °C -1,7 °C 0,0 km/h (0 Bft)
29.01.2017 10:12 -1,7 °C -1,7 °C 80 % 1025,4 hPa 0,0 mm 0,0 km/h (0 Bft) S-SO 167 ° 0 min 0,000 mm 0,0 UV-I 32 W/m² -4,7 °C -1,7 °C 0,0 km/h (0 Bft)
29.01.2017 10:13 -1,6 °C -1,6 °C 80 % 1025,4 hPa 0,0 mm 0,0 km/h (0 Bft) S-SO 167 ° 0 min 0,000 mm 0,0 UV-I 32 W/m² -4,6 °C -1,6 °C 0,0 km/h (0 Bft)
29.01.2017 10:14 -1,6 °C -1,6 °C 80 % 1025,4 hPa 0,0 mm 0,0 km/h (0 Bft) S-SO 167 ° 0 min 0,000 mm 0,0 UV-I 44 W/m² -4,6 °C -1,6 °C 0,0 km/h (0 Bft)
29.01.2017 10:15 -1,6 °C -1,6 °C 80 % 1025,4 hPa 0,0 mm 0,0 km/h (0 Bft) S-SO 167 ° 0 min 0,000 mm 0,9 UV-I 58 W/m² -4,6 °C -1,6 °C 0,0 km/h (0 Bft)
29.01.2017 10:16 -1,4 °C -1,4 °C 81 % 1025,4 hPa 0,0 mm 0,0 km/h (0 Bft) S-SO 167 ° 0 min 0,000 mm 1,0 UV-I 63 W/m² -4,2 °C -1,4 °C 0,0 km/h (0 Bft)
29.01.2017 10:17 -1,1 °C -1,1 °C 80 % 1025,4 hPa 0,0 mm 0,0 km/h (0 Bft) S-SO 167 ° 0 min 0,000 mm 1,0 UV-I 58 W/m² -4,1 °C -1,1 °C 0,0 km/h (0 Bft)
29.01.2017 10:18 -0,8 °C -0,8 °C 79 % 1025,4 hPa 0,0 mm 0,0 km/h (0 Bft) S-SO 167 ° 0 min 0,000 mm 0,0 UV-I 47 W/m² -4,0 °C -0,8 °C 0,0 km/h (0 Bft)
29.01.2017 10:19 -0,6 °C -0,6 °C 78 % 1025,5 hPa 0,0 mm 0,0 km/h (0 Bft) S-SO 167 ° 0 min 0,000 mm 0,0 UV-I 37 W/m² -3,9 °C -0,6 °C 0,0 km/h (0 Bft)
29.01.2017 10:20 -0,5 °C -0,5 °C 76 % 1025,4 hPa 0,0 mm 1,8 km/h (1 Bft) S-SO 167 ° 0 min 0,000 mm 0,0 UV-I 37 W/m² -4,2 °C -0,5 °C 4,8 km/h (1 Bft)
29.01.2017 10:21 -0,4 °C -0,4 °C 76 % 1025,4 hPa 0,0 mm 1,5 km/h (1 Bft) S-SO 167 ° 0 min 0,000 mm 0,0 UV-I 35 W/m² -4,1 °C -0,4 °C 4,8 km/h (1 Bft)
29.01.2017 10:22 -0,3 °C -0,3 °C 77 % 1025,5 hPa 0,0 mm 2,1 km/h (1 Bft) S-SO 167 ° 0 min 0,000 mm 0,0 UV-I 35 W/m² -3,8 °C -0,3 °C 4,8 km/h (1 Bft)
29.01.2017 10:23 -0,2 °C -0,2 °C 76 % 1025,5 hPa 0,0 mm 4,3 km/h (1 Bft) S-SO 167 ° 0 min 0,000 mm 0,0 UV-I 33 W/m² -3,9 °C -0,2 °C 4,8 km/h (1 Bft)
29.01.2017 10:24 -0,1 °C -0,1 °C 76 % 1025,4 hPa 0,0 mm 1,6 km/h (1 Bft) S-SO 167 ° 0 min 0,000 mm 0,0 UV-I 33 W/m² -3,8 °C -0,1 °C 4,8 km/h (1 Bft)
29.01.2017 10:25 0,1 °C 0,1 °C 76 % 1025,4 hPa 0,0 mm 1,0 km/h (0 Bft) S-SO 167 ° 0 min 0,000 mm 0,0 UV-I 35 W/m² -3,6 °C 0,1 °C 1,6 km/h (1 Bft)
29.01.2017 10:26 0,1 °C 0,1 °C 77 % 1025,5 hPa 0,0 mm 1,5 km/h (1 Bft) S-SO 167 ° 0 min 0,000 mm 0,0 UV-I 33 W/m² -3,4 °C 0,1 °C 1,6 km/h (1 Bft)
29.01.2017 10:27 0,2 °C 0,2 °C 76 % 1025,5 hPa 0,0 mm 0,8 km/h (0 Bft) S-SO 167 ° 0 min 0,000 mm 0,0 UV-I 33 W/m² -3,5 °C 0,2 °C 1,6 km/h (1 Bft)
29.01.2017 10:28 0,2 °C 0,2 °C 76 % 1025,4 hPa 0,0 mm 1,9 km/h (1 Bft) S-SO 167 ° 0 min 0,000 mm 0,0 UV-I 33 W/m² -3,5 °C 0,2 °C 4,8 km/h (1 Bft)
29.01.2017 10:29 0,3 °C 0,3 °C 76 % 1025,4 hPa 0,0 mm 2,3 km/h (1 Bft) S-SO 167 ° 0 min 0,000 mm 0,0 UV-I 33 W/m² -3,4 °C 0,3 °C 4,8 km/h (1 Bft)
29.01.2017 10:30 0,3 °C 0,3 °C 75 % 1025,4 hPa 0,0 mm 1,0 km/h (0 Bft) S-SO 167 ° 0 min 0,000 mm 0,0 UV-I 33 W/m² -3,6 °C 0,3 °C 1,6 km/h (1 Bft)
29.01.2017 10:31 0,4 °C 0,4 °C 75 % 1025,5 hPa 0,0 mm 2,1 km/h (1 Bft) S-SO 167 ° 0 min 0,000 mm 0,0 UV-I 33 W/m² -3,5 °C 0,4 °C 4,8 km/h (1 Bft)
29.01.2017 10:32 0,5 °C 0,6 °C 75 % 1025,5 hPa 0,0 mm 2,2 km/h (1 Bft) S-SO 167 ° 0 min 0,000 mm 0,0 UV-I 33 W/m² -3,4 °C 0,5 °C 4,8 km/h (1 Bft)
29.01.2017 10:33 0,7 °C 0,7 °C 74 % 1025,4 hPa 0,0 mm 0,9 km/h (0 Bft) S-SO 167 ° 0 min 0,000 mm 0,0 UV-I 33 W/m² -3,4 °C 0,7 °C 4,8 km/h (1 Bft)
29.01.2017 10:34 0,7 °C 0,7 °C 75 % 1025,4 hPa 0,0 mm 0,9 km/h (0 Bft) S-SO 167 ° 0 min 0,000 mm 0,0 UV-I 33 W/m² -3,2 °C 0,7 °C 4,8 km/h (1 Bft)
29.01.2017 10:35 0,8 °C 0,8 °C 74 % 1025,4 hPa 0,0 mm 0,5 km/h (0 Bft) S-SO 167 ° 0 min 0,000 mm 0,0 UV-I 33 W/m² -3,3 °C 0,8 °C 1,6 km/h (1 Bft)
29.01.2017 10:36 0,8 °C 0,8 °C 74 % 1025,4 hPa 0,0 mm 0,0 km/h (0 Bft) S-SO 167 ° 0 min 0,000 mm 0,0 UV-I 33 W/m² -3,3 °C 0,8 °C 0,0 km/h (0 Bft)
29.01.2017 10:37 0,8 °C 0,9 °C 73 % 1025,4 hPa 0,0 mm 0,0 km/h (0 Bft) S-SO 167 ° 0 min 0,000 mm 0,0 UV-I 33 W/m² -3,5 °C 0,8 °C 0,0 km/h (0 Bft)
29.01.2017 10:38 0,8 °C 0,8 °C 74 % 1025,3 hPa 0,0 mm 0,0 km/h (0 Bft) S-SO 167 ° 0 min 0,000 mm 0,0 UV-I 33 W/m² -3,3 °C 0,8 °C 0,0 km/h (0 Bft)
29.01.2017 10:39 0,8 °C 0,8 °C 74 % 1025,4 hPa 0,0 mm 0,0 km/h (0 Bft) S-SO 167 ° 0 min 0,000 mm 0,0 UV-I 33 W/m² -3,3 °C 0,8 °C 0,0 km/h (0 Bft)
29.01.2017 10:40 0,8 °C 0,8 °C 74 % 1025,4 hPa 0,0 mm 0,0 km/h (0 Bft) S-SO 167 ° 0 min 0,000 mm 0,0 UV-I 33 W/m² -3,3 °C 0,8 °C 0,0 km/h (0 Bft)
29.01.2017 10:41 0,8 °C 0,8 °C 74 % 1025,3 hPa 0,0 mm 0,0 km/h (0 Bft) S-SO 167 ° 0 min 0,000 mm 0,0 UV-I 33 W/m² -3,3 °C 0,8 °C 0,0 km/h (0 Bft)
29.01.2017 10:42 0,9 °C 0,9 °C 75 % 1025,3 hPa 0,0 mm 0,0 km/h (0 Bft) S-SO 167 ° 0 min 0,000 mm 0,0 UV-I 33 W/m² -3,0 °C 0,9 °C 0,0 km/h (0 Bft)
29.01.2017 10:43 1,0 °C 1,0 °C 74 % 1025,4 hPa 0,0 mm 0,3 km/h (0 Bft) S-SO 167 ° 0 min 0,000 mm 0,0 UV-I 33 W/m² -3,1 °C 1,0 °C 1,6 km/h (1 Bft)
29.01.2017 10:44 1,1 °C 1,1 °C 74 % 1025,4 hPa 0,0 mm 2,2 km/h (1 Bft) S-SO 167 ° 0 min 0,000 mm 0,0 UV-I 33 W/m² -3,0 °C 1,1 °C 4,8 km/h (1 Bft)
29.01.2017 10:45 1,1 °C 1,1 °C 74 % 1025,4 hPa 0,0 mm 0,3 km/h (0 Bft) S-SO 167 ° 0 min 0,000 mm 0,0 UV-I 33 W/m² -3,0 °C 1,1 °C 1,6 km/h (1 Bft)
29.01.2017 10:46 1,2 °C 1,2 °C 74 % 1025,4 hPa 0,0 mm 0,0 km/h (0 Bft) S-SO 167 ° 0 min 0,000 mm 0,0 UV-I 33 W/m² -2,9 °C 1,2 °C 0,0 km/h (0 Bft)
29.01.2017 10:47 1,2 °C 1,2 °C 74 % 1025,4 hPa 0,0 mm 0,7 km/h (0 Bft) S-SO 167 ° 0 min 0,000 mm 0,0 UV-I 33 W/m² -2,9 °C 1,2 °C 1,6 km/h (1 Bft)
29.01.2017 10:48 1,2 °C 1,3 °C 73 % 1025,4 hPa 0,0 mm 1,8 km/h (1 Bft) S-SO 167 ° 0 min 0,000 mm 0,0 UV-I 33 W/m² -3,1 °C 1,2 °C 4,8 km/h (1 Bft)
29.01.2017 10:49 1,3 °C 1,3 °C 73 % 1025,3 hPa 0,0 mm 0,5 km/h (0 Bft) S-SO 167 ° 0 min 0,000 mm 0,0 UV-I 33 W/m² -3,0 °C 1,3 °C 1,6 km/h (1 Bft)
29.01.2017 10:50 1,3 °C 1,4 °C 74 % 1025,4 hPa 0,0 mm 0,0 km/h (0 Bft) S-SO 167 ° 0 min 0,000 mm 0,0 UV-I 33 W/m² -2,8 °C 1,3 °C 0,0 km/h (0 Bft)
29.01.2017 10:51 1,4 °C 1,4 °C 73 % 1025,4 hPa 0,0 mm 0,6 km/h (0 Bft) S-SO 167 ° 0 min 0,000 mm 0,0 UV-I 33 W/m² -2,9 °C 1,4 °C 1,6 km/h (1 Bft)
29.01.2017 10:52 1,4 °C 1,4 °C 72 % 1025,5 hPa 0,0 mm 0,7 km/h (0 Bft) S-SO 167 ° 0 min 0,000 mm 0,0 UV-I 33 W/m² -3,1 °C 1,4 °C 1,6 km/h (1 Bft)
29.01.2017 10:53 1,4 °C 1,4 °C 72 % 1025,4 hPa 0,0 mm 0,3 km/h (0 Bft) S-SO 167 ° 0 min 0,000 mm 0,0 UV-I 33 W/m² -3,1 °C 1,4 °C 1,6 km/h (1 Bft)
29.01.2017 10:54 1,6 °C 1,6 °C 73 % 1025,4 hPa 0,0 mm 0,0 km/h (0 Bft) S-SO 167 ° 0 min 0,000 mm 0,0 UV-I 35 W/m² -2,7 °C 1,6 °C 0,0 km/h (0 Bft)
29.01.2017 10:55 1,7 °C 1,7 °C 74 % 1025,4 hPa 0,0 mm 0,1 km/h (0 Bft) S-SO 167 ° 0 min 0,000 mm 0,0 UV-I 35 W/m² -2,4 °C 1,7 °C 1,6 km/h (1 Bft)
29.01.2017 10:56 1,7 °C 1,7 °C 73 % 1025,4 hPa 0,0 mm 0,4 km/h (0 Bft) S-SO 167 ° 0 min 0,000 mm 0,0 UV-I 35 W/m² -2,6 °C 1,7 °C 1,6 km/h (1 Bft)
29.01.2017 10:57 1,9 °C 1,9 °C 72 % 1025,4 hPa 0,0 mm 0,1 km/h (0 Bft) S-SO 167 ° 0 min 0,000 mm 0,0 UV-I 35 W/m² -2,6 °C 1,9 °C 1,6 km/h (1 Bft)
29.01.2017 10:58 1,9 °C 1,9 °C 72 % 1025,4 hPa 0,0 mm 0,1 km/h (0 Bft) S-SO 167 ° 0 min 0,000 mm 0,0 UV-I 35 W/m² -2,6 °C 1,9 °C 1,6 km/h (1 Bft)
29.01.2017 10:59 1,9 °C 1,9 °C 72 % 1025,4 hPa 0,0 mm 0,0 km/h (0 Bft) S-SO 167 ° 0 min 0,000 mm 0,0 UV-I 35 W/m² -2,6 °C 1,9 °C 0,0 km/h (0 Bft)
29.01.2017 11:00 1,8 °C 1,9 °C 73 % 1025,4 hPa 0,0 mm 0,0 km/h (0 Bft) S-SO 167 ° 0 min 0,000 mm 0,0 UV-I 35 W/m² -2,5 °C 1,8 °C 0,0 km/h (0 Bft)
29.01.2017 11:01 1,8 °C 1,8 °C 72 % 1025,4 hPa 0,0 mm 0,0 km/h (0 Bft) S-SO 167 ° 0 min 0,025 mm 0,0 UV-I 35 W/m² -2,7 °C 1,8 °C 0,0 km/h (0 Bft)
29.01.2017 11:02 1,7 °C 1,8 °C 72 % 1025,3 hPa 0,0 mm 0,0 km/h (0 Bft) S-SO 167 ° 0 min 0,000 mm 0,0 UV-I 35 W/m² -2,8 °C 1,7 °C 0,0 km/h (0 Bft)
29.01.2017 11:03 1,8 °C 1,8 °C 72 % 1025,3 hPa 0,0 mm 0,0 km/h (0 Bft) S-SO 167 ° 0 min 0,000 mm 0,0 UV-I 35 W/m² -2,7 °C 1,8 °C 0,0 km/h (0 Bft)
29.01.2017 11:04 1,8 °C 1,8 °C 72 % 1025,4 hPa 0,0 mm 0,0 km/h (0 Bft) S-SO 167 ° 0 min 0,000 mm 0,0 UV-I 35 W/m² -2,7 °C 1,8 °C 0,0 km/h (0 Bft)
29.01.2017 11:05 1,9 °C 1,9 °C 72 % 1025,4 hPa 0,0 mm 0,0 km/h (0 Bft) S-SO 167 ° 0 min 0,000 mm 0,0 UV-I 35 W/m² -2,6 °C 1,9 °C 0,0 km/h (0 Bft)
29.01.2017 11:06 1,9 °C 2,0 °C 72 % 1025,4 hPa 0,0 mm 0,0 km/h (0 Bft) S-SO 167 ° 0 min 0,000 mm 0,0 UV-I 35 W/m² -2,6 °C 1,9 °C 0,0 km/h (0 Bft)
29.01.2017 11:07 2,0 °C 2,0 °C 71 % 1025,3 hPa 0,0 mm 0,7 km/h (0 Bft) S-SO 167 ° 0 min 0,000 mm 0,0 UV-I 35 W/m² -2,7 °C 2,0 °C 1,6 km/h (1 Bft)
29.01.2017 11:08 2,1 °C 2,1 °C 70 % 1025,3 hPa 0,0 mm 0,7 km/h (0 Bft) S-SO 167 ° 0 min 0,000 mm 0,0 UV-I 35 W/m² -2,8 °C 2,1 °C 1,6 km/h (1 Bft)
29.01.2017 11:09 2,2 °C 2,2 °C 71 % 1025,3 hPa 0,0 mm 1,3 km/h (1 Bft) S-SO 167 ° 0 min 0,000 mm 0,0 UV-I 35 W/m² -2,5 °C 2,2 °C 1,6 km/h (1 Bft)
29.01.2017 11:10 2,3 °C 2,3 °C 71 % 1025,3 hPa 0,0 mm 0,5 km/h (0 Bft) S-SO 167 ° 0 min 0,000 mm 0,0 UV-I 35 W/m² -2,4 °C 2,3 °C 1,6 km/h (1 Bft)
29.01.2017 11:11 2,3 °C 2,3 °C 71 % 1025,3 hPa 0,0 mm 0,0 km/h (0 Bft) S-SO 167 ° 0 min 0,000 mm 0,0 UV-I 35 W/m² -2,4 °C 2,3 °C 0,0 km/h (0 Bft)
29.01.2017 11:12 2,2 °C 2,3 °C 71 % 1025,3 hPa 0,0 mm 0,3 km/h (0 Bft) S-SO 167 ° 0 min 0,000 mm 0,0 UV-I 35 W/m² -2,5 °C 2,2 °C 1,6 km/h (1 Bft)
29.01.2017 11:13 2,2 °C 2,2 °C 71 % 1025,3 hPa 0,0 mm 0,6 km/h (0 Bft) S-SO 167 ° 0 min 0,000 mm 0,0 UV-I 35 W/m² -2,5 °C 2,2 °C 1,6 km/h (1 Bft)
29.01.2017 11:14 2,2 °C 2,2 °C 71 % 1025,3 hPa 0,0 mm 0,4 km/h (0 Bft) S-SO 167 ° 0 min 0,000 mm 0,0 UV-I 35 W/m² -2,5 °C 2,2 °C 1,6 km/h (1 Bft)
29.01.2017 11:15 2,3 °C 2,3 °C 71 % 1025,3 hPa 0,0 mm 0,1 km/h (0 Bft) S-SO 167 ° 0 min 0,000 mm 0,0 UV-I 35 W/m² -2,4 °C 2,3 °C 1,6 km/h (1 Bft)
29.01.2017 11:16 2,3 °C 2,3 °C 70 % 1025,3 hPa 0,0 mm 1,3 km/h (1 Bft) S-SO 167 ° 0 min 0,000 mm 0,0 UV-I 35 W/m² -2,6 °C 2,3 °C 1,6 km/h (1 Bft)
29.01.2017 11:17 2,4 °C 2,4 °C 69 % 1025,3 hPa 0,0 mm 1,6 km/h (1 Bft) S-SO 167 ° 0 min 0,000 mm 0,0 UV-I 35 W/m² -2,7 °C 2,4 °C 1,6 km/h (1 Bft)
29.01.2017 11:18 2,6 °C 2,6 °C 69 % 1025,3 hPa 0,0 mm 1,1 km/h (1 Bft) S-SO 167 ° 0 min 0,000 mm 0,0 UV-I 35 W/m² -2,5 °C 2,6 °C 1,6 km/h (1 Bft)
29.01.2017 11:19 2,7 °C 2,7 °C 69 % 1025,2 hPa 0,0 mm 1,2 km/h (1 Bft) S-SO 167 ° 0 min 0,000 mm 0,0 UV-I 35 W/m² -2,4 °C 2,7 °C 1,6 km/h (1 Bft)
29.01.2017 11:20 2,8 °C 2,8 °C 69 % 1025,2 hPa 0,0 mm 0,9 km/h (0 Bft) S-SO 167 ° 0 min 0,000 mm 0,0 UV-I 35 W/m² -2,3 °C 2,8 °C 1,6 km/h (1 Bft)
29.01.2017 11:21 2,8 °C 2,8 °C 69 % 1025,2 hPa 0,0 mm 1,2 km/h (1 Bft) S-SO 167 ° 0 min 0,000 mm 0,0 UV-I 35 W/m² -2,3 °C 2,8 °C 1,6 km/h (1 Bft)
29.01.2017 11:22 2,9 °C 2,9 °C 69 % 1025,2 hPa 0,0 mm 1,1 km/h (1 Bft) S-SO 167 ° 0 min 0,000 mm 0,0 UV-I 35 W/m² -2,2 °C 2,9 °C 1,6 km/h (1 Bft)
29.01.2017 11:23 3,0 °C 3,0 °C 69 % 1025,2 hPa 0,0 mm 1,1 km/h (1 Bft) S-SO 167 ° 0 min 0,000 mm 0,0 UV-I 35 W/m² -2,1 °C 3,0 °C 1,6 km/h (1 Bft)
29.01.2017 11:24 3,1 °C 3,1 °C 69 % 1025,2 hPa 0,0 mm 0,7 km/h (0 Bft) S-SO 167 ° 0 min 0,000 mm 0,0 UV-I 35 W/m² -2,0 °C 3,1 °C 1,6 km/h (1 Bft)
29.01.2017 11:25 3,2 °C 3,2 °C 69 % 1025,1 hPa 0,0 mm 0,1 km/h (0 Bft) S-SO 167 ° 0 min 0,000 mm 0,0 UV-I 35 W/m² -1,9 °C 3,2 °C 1,6 km/h (1 Bft)
29.01.2017 11:26 3,3 °C 3,3 °C 70 % 1025,2 hPa 0,0 mm 0,4 km/h (0 Bft) S-SO 167 ° 0 min 0,000 mm 0,0 UV-I 37 W/m² -1,6 °C 3,3 °C 1,6 km/h (1 Bft)
29.01.2017 11:27 3,3 °C 3,3 °C 68 % 1025,2 hPa 0,0 mm 0,6 km/h (0 Bft) S-SO 167 ° 0 min 0,000 mm 0,0 UV-I 37 W/m² -2,0 °C 3,3 °C 1,6 km/h (1 Bft)
29.01.2017 11:28 3,4 °C 3,4 °C 68 % 1025,2 hPa 0,0 mm 1,0 km/h (0 Bft) S-SO 167 ° 0 min 0,000 mm 0,0 UV-I 37 W/m² -1,9 °C 3,4 °C 1,6 km/h (1 Bft)
29.01.2017 11:29 3,4 °C 3,4 °C 68 % 1025,2 hPa 0,0 mm 0,1 km/h (0 Bft) S-SO 167 ° 0 min 0,000 mm 0,0 UV-I 37 W/m² -1,9 °C 3,4 °C 1,6 km/h (1 Bft)
29.01.2017 11:30 3,4 °C 3,4 °C 68 % 1025,2 hPa 0,0 mm 0,0 km/h (0 Bft) S-SO 167 ° 0 min 0,000 mm 0,0 UV-I 35 W/m² -1,9 °C 3,4 °C 0,0 km/h (0 Bft)
29.01.2017 11:31 3,4 °C 3,4 °C 68 % 1025,2 hPa 0,0 mm 0,1 km/h (0 Bft) S-SO 167 ° 0 min 0,000 mm 0,0 UV-I 35 W/m² -1,9 °C 3,4 °C 1,6 km/h (1 Bft)
29.01.2017 11:32 3,4 °C 3,4 °C 68 % 1025,1 hPa 0,0 mm 0,1 km/h (0 Bft) S-SO 167 ° 0 min 0,000 mm 0,0 UV-I 35 W/m² -1,9 °C 3,4 °C 1,6 km/h (1 Bft)
29.01.2017 11:33 3,5 °C 3,5 °C 68 % 1025,1 hPa 0,0 mm 0,0 km/h (0 Bft) S-SO 167 ° 0 min 0,000 mm 0,0 UV-I 35 W/m² -1,8 °C 3,5 °C 0,0 km/h (0 Bft)
29.01.2017 11:34 3,5 °C 3,5 °C 69 % 1025,1 hPa 0,0 mm 0,3 km/h (0 Bft) S-SO 167 ° 0 min 0,000 mm 0,0 UV-I 35 W/m² -1,6 °C 3,5 °C 1,6 km/h (1 Bft)
29.01.2017 11:35 3,6 °C 3,6 °C 69 % 1025,1 hPa 0,0 mm 0,8 km/h (0 Bft) S-SO 167 ° 0 min 0,000 mm 0,0 UV-I 35 W/m² -1,5 °C 3,6 °C 1,6 km/h (1 Bft)
29.01.2017 11:36 3,8 °C 3,8 °C 71 % 1025,1 hPa 0,0 mm 1,3 km/h (1 Bft) S-SO 167 ° 0 min 0,000 mm 0,0 UV-I 37 W/m² -1,0 °C 3,8 °C 4,8 km/h (1 Bft)
29.01.2017 11:37 3,9 °C 3,9 °C 70 % 1025,1 hPa 0,0 mm 2,1 km/h (1 Bft) S-SO 167 ° 0 min 0,000 mm 0,0 UV-I 37 W/m² -1,1 °C 3,9 °C 4,8 km/h (1 Bft)
29.01.2017 11:38 4,0 °C 4,0 °C 70 % 1025,1 hPa 0,0 mm 0,5 km/h (0 Bft) S-SO 167 ° 0 min 0,000 mm 0,0 UV-I 37 W/m² -1,0 °C 4,0 °C 1,6 km/h (1 Bft)
29.01.2017 11:39 4,1 °C 4,1 °C 70 % 1025,1 hPa 0,0 mm 0,0 km/h (0 Bft) S-SO 167 ° 0 min 0,000 mm 0,0 UV-I 37 W/m² -0,9 °C 4,1 °C 0,0 km/h (0 Bft)
29.01.2017 11:40 4,2 °C 4,2 °C 70 % 1025,0 hPa 0,0 mm 0,5 km/h (0 Bft) S-SO 167 ° 0 min 0,000 mm 0,0 UV-I 37 W/m² -0,8 °C 4,2 °C 1,6 km/h (1 Bft)
29.01.2017 11:41 4,3 °C 4,3 °C 70 % 1025,0 hPa 0,0 mm 0,1 km/h (0 Bft) S-SO 167 ° 0 min 0,000 mm 0,0 UV-I 37 W/m² -0,7 °C 4,3 °C 1,6 km/h (1 Bft)
29.01.2017 11:42 4,3 °C 4,3 °C 70 % 1025,0 hPa 0,0 mm 1,4 km/h (1 Bft) S-SO 167 ° 0 min 0,000 mm 0,0 UV-I 37 W/m² -0,7 °C 4,3 °C 1,6 km/h (1 Bft)
29.01.2017 11:43 4,3 °C 4,3 °C 70 % 1025,0 hPa 0,0 mm 1,0 km/h (0 Bft) S-SO 167 ° 0 min 0,000 mm 0,0 UV-I 37 W/m² -0,7 °C 4,3 °C 1,6 km/h (1 Bft)
29.01.2017 11:44 4,4 °C 4,4 °C 70 % 1024,9 hPa 0,0 mm 1,3 km/h (1 Bft) S-SO 167 ° 0 min 0,000 mm 0,0 UV-I 37 W/m² -0,6 °C 4,4 °C 1,6 km/h (1 Bft)
29.01.2017 11:45 4,5 °C 4,5 °C 70 % 1024,9 hPa 0,0 mm 2,9 km/h (1 Bft) S-SO 167 ° 0 min 0,000 mm 0,0 UV-I 37 W/m² -0,5 °C 4,5 °C 4,8 km/h (1 Bft)
29.01.2017 11:46 4,6 °C 4,6 °C 71 % 1024,9 hPa 0,0 mm 2,3 km/h (1 Bft) S-SO 168 ° 0 min 0,000 mm 0,0 UV-I 37 W/m² -0,2 °C 4,6 °C 3,2 km/h (1 Bft)
29.01.2017 11:47 4,6 °C 4,6 °C 71 % 1024,9 hPa 0,0 mm 2,6 km/h (1 Bft) S-SO 168 ° 0 min 0,000 mm 0,0 UV-I 37 W/m² -0,2 °C 4,6 °C 3,2 km/h (1 Bft)
29.01.2017 11:48 4,6 °C 4,6 °C 70 % 1024,9 hPa 0,0 mm 2,1 km/h (1 Bft) W 260 ° 0 min 0,000 mm 0,0 UV-I 37 W/m² -0,4 °C 4,6 °C 3,2 km/h (1 Bft)
29.01.2017 11:49 4,6 °C 4,7 °C 70 % 1024,9 hPa 0,0 mm 3,5 km/h (1 Bft) W 259 ° 0 min 0,000 mm 0,0 UV-I 37 W/m² -0,4 °C 4,6 °C 4,8 km/h (1 Bft)
29.01.2017 11:50 4,7 °C 4,7 °C 70 % 1024,9 hPa 0,0 mm 2,9 km/h (1 Bft) W 259 ° 0 min 0,000 mm 0,0 UV-I 37 W/m² -0,3 °C 4,7 °C 4,8 km/h (1 Bft)
29.01.2017 11:51 4,7 °C 4,7 °C 70 % 1024,9 hPa 0,0 mm 3,2 km/h (1 Bft) W 273 ° 0 min 0,000 mm 0,0 UV-I 37 W/m² -0,3 °C 4,7 °C 4,8 km/h (1 Bft)
29.01.2017 11:52 4,7 °C 4,7 °C 71 % 1024,9 hPa 0,0 mm 3,0 km/h (1 Bft) W 272 ° 0 min 0,000 mm 0,0 UV-I 35 W/m² -0,1 °C 4,7 °C 4,8 km/h (1 Bft)
29.01.2017 11:53 4,7 °C 4,7 °C 71 % 1024,8 hPa 0,0 mm 1,7 km/h (1 Bft) W 272 ° 0 min 0,000 mm 0,0 UV-I 35 W/m² -0,1 °C 4,7 °C 3,2 km/h (1 Bft)
29.01.2017 11:54 4,8 °C 4,8 °C 71 % 1024,8 hPa 0,0 mm 1,9 km/h (1 Bft) W 272 ° 0 min 0,000 mm 0,0 UV-I 35 W/m² -0,0 °C 4,8 °C 3,2 km/h (1 Bft)
29.01.2017 11:55 4,8 °C 4,8 °C 70 % 1024,8 hPa 0,0 mm 2,4 km/h (1 Bft) W 273 ° 0 min 0,000 mm 0,0 UV-I 35 W/m² -0,2 °C 4,8 °C 4,8 km/h (1 Bft)
29.01.2017 11:56 4,8 °C 4,8 °C 71 % 1024,8 hPa 0,0 mm 1,2 km/h (1 Bft) W 273 ° 0 min 0,000 mm 0,0 UV-I 35 W/m² -0,0 °C 4,8 °C 3,2 km/h (1 Bft)
29.01.2017 11:57 4,8 °C 4,8 °C 71 % 1024,8 hPa 0,0 mm 0,7 km/h (0 Bft) W 273 ° 0 min 0,000 mm 0,0 UV-I 35 W/m² -0,0 °C 4,8 °C 3,2 km/h (1 Bft)
29.01.2017 11:58 4,7 °C 4,8 °C 71 % 1024,8 hPa 0,0 mm 3,0 km/h (1 Bft) NW 313 ° 0 min 0,000 mm 0,0 UV-I 35 W/m² -0,1 °C 4,7 °C 4,8 km/h (1 Bft)
29.01.2017 11:59 4,7 °C 4,8 °C 71 % 1024,7 hPa 0,0 mm 3,0 km/h (1 Bft) W-NW 293 ° 0 min 0,000 mm 0,0 UV-I 35 W/m² -0,1 °C 4,7 °C 4,8 km/h (1 Bft)
29.01.2017 12:00 4,7 °C 4,7 °C 71 % 1024,7 hPa 0,0 mm 2,5 km/h (1 Bft) W-NW 286 ° 0 min 0,026 mm 0,0 UV-I 35 W/m² -0,1 °C 4,7 °C 4,8 km/h (1 Bft)
29.01.2017 12:01 4,7 °C 4,7 °C 71 % 1024,7 hPa 0,0 mm 3,0 km/h (1 Bft) W 271 ° 0 min 0,000 mm 0,0 UV-I 35 W/m² -0,1 °C 4,7 °C 4,8 km/h (1 Bft)
29.01.2017 12:02 4,7 °C 4,7 °C 71 % 1024,7 hPa 0,0 mm 1,7 km/h (1 Bft) W 271 ° 0 min 0,000 mm 0,0 UV-I 35 W/m² -0,1 °C 4,7 °C 3,2 km/h (1 Bft)
29.01.2017 12:03 4,7 °C 4,7 °C 71 % 1024,7 hPa 0,0 mm 2,6 km/h (1 Bft) W 271 ° 0 min 0,000 mm 0,0 UV-I 35 W/m² -0,1 °C 4,7 °C 4,8 km/h (1 Bft)
29.01.2017 12:04 4,7 °C 4,7 °C 71 % 1024,7 hPa 0,0 mm 0,9 km/h (0 Bft) W 271 ° 0 min 0,000 mm 0,0 UV-I 35 W/m² -0,1 °C 4,7 °C 1,6 km/h (1 Bft)
29.01.2017 12:05 4,7 °C 4,7 °C 71 % 1024,7 hPa 0,0 mm 1,7 km/h (1 Bft) W 271 ° 0 min 0,000 mm 0,0 UV-I 35 W/m² -0,1 °C 4,7 °C 3,2 km/h (1 Bft)
29.01.2017 12:06 4,7 °C 4,7 °C 71 % 1024,6 hPa 0,0 mm 4,2 km/h (1 Bft) W-SW 252 ° 0 min 0,000 mm 0,0 UV-I 35 W/m² -0,1 °C 4,7 °C 6,4 km/h (2 Bft)
29.01.2017 12:07 4,7 °C 4,7 °C 71 % 1024,6 hPa 0,0 mm 3,6 km/h (1 Bft) W-SW 252 ° 0 min 0,000 mm 0,0 UV-I 35 W/m² -0,1 °C 4,7 °C 4,8 km/h (1 Bft)
29.01.2017 12:08 4,7 °C 4,7 °C 71 % 1024,6 hPa 0,0 mm 3,0 km/h (1 Bft) W-SW 254 ° 0 min 0,000 mm 0,0 UV-I 35 W/m² -0,1 °C 4,7 °C 4,8 km/h (1 Bft)
29.01.2017 12:09 4,7 °C 4,7 °C 71 % 1024,6 hPa 0,0 mm 1,3 km/h (1 Bft) W-SW 254 ° 0 min 0,000 mm 0,0 UV-I 35 W/m² -0,1 °C 4,7 °C 1,6 km/h (1 Bft)
29.01.2017 12:10 4,7 °C 4,8 °C 71 % 1024,6 hPa 0,0 mm 4,2 km/h (1 Bft) W-NW 293 ° 0 min 0,000 mm 0,0 UV-I 35 W/m² -0,1 °C 4,7 °C 4,8 km/h (1 Bft)
29.01.2017 12:11 4,7 °C 4,8 °C 71 % 1024,6 hPa 0,0 mm 2,7 km/h (1 Bft) W-NW 293 ° 0 min 0,000 mm 0,0 UV-I 35 W/m² -0,1 °C 4,7 °C 4,8 km/h (1 Bft)
29.01.2017 12:12 4,7 °C 4,8 °C 71 % 1024,5 hPa 0,0 mm 1,1 km/h (1 Bft) W-NW 293 ° 0 min 0,000 mm 0,0 UV-I 37 W/m² -0,1 °C 4,7 °C 3,2 km/h (1 Bft)
29.01.2017 12:13 4,8 °C 4,8 °C 71 % 1024,5 hPa 0,0 mm 0,9 km/h (0 Bft) W-NW 293 ° 0 min 0,000 mm 0,0 UV-I 37 W/m² -0,0 °C 4,8 °C 1,6 km/h (1 Bft)
29.01.2017 12:14 4,8 °C 4,8 °C 71 % 1024,5 hPa 0,0 mm 0,4 km/h (0 Bft) W-NW 293 ° 0 min 0,000 mm 0,0 UV-I 35 W/m² -0,0 °C 4,8 °C 1,6 km/h (1 Bft)
29.01.2017 12:15 4,8 °C 4,8 °C 71 % 1024,6 hPa 0,0 mm 0,7 km/h (0 Bft) W-NW 293 ° 0 min 0,000 mm 0,0 UV-I 35 W/m² -0,0 °C 4,8 °C 1,6 km/h (1 Bft)
29.01.2017 12:16 4,8 °C 4,8 °C 71 % 1024,6 hPa 0,0 mm 0,3 km/h (0 Bft) W-NW 293 ° 0 min 0,000 mm 0,0 UV-I 35 W/m² -0,0 °C 4,8 °C 1,6 km/h (1 Bft)
29.01.2017 12:17 4,8 °C 4,8 °C 71 % 1024,5 hPa 0,0 mm 0,0 km/h (0 Bft) W-NW 293 ° 0 min 0,000 mm 0,0 UV-I 35 W/m² -0,0 °C 4,8 °C 0,0 km/h (0 Bft)
29.01.2017 12:18 4,8 °C 4,8 °C 71 % 1024,5 hPa 0,0 mm 0,7 km/h (0 Bft) W-NW 293 ° 0 min 0,000 mm 0,0 UV-I 35 W/m² -0,0 °C 4,8 °C 1,6 km/h (1 Bft)
29.01.2017 12:19 4,9 °C 4,9 °C 71 % 1024,6 hPa 0,0 mm 0,5 km/h (0 Bft) W-NW 293 ° 0 min 0,000 mm 0,0 UV-I 35 W/m² 0,1 °C 4,9 °C 1,6 km/h (1 Bft)
29.01.2017 12:20 4,9 °C 4,9 °C 71 % 1024,5 hPa 0,0 mm 0,0 km/h (0 Bft) W-NW 293 ° 0 min 0,000 mm 0,0 UV-I 35 W/m² 0,1 °C 4,9 °C 0,0 km/h (0 Bft)
29.01.2017 12:21 4,9 °C 4,9 °C 71 % 1024,5 hPa 0,0 mm 0,2 km/h (0 Bft) W-NW 293 ° 0 min 0,000 mm 0,0 UV-I 35 W/m² 0,1 °C 4,9 °C 1,6 km/h (1 Bft)
29.01.2017 12:22 4,9 °C 4,9 °C 71 % 1024,5 hPa 0,0 mm 0,6 km/h (0 Bft) W-NW 293 ° 0 min 0,000 mm 0,0 UV-I 35 W/m² 0,1 °C 4,9 °C 1,6 km/h (1 Bft)
29.01.2017 12:23 4,9 °C 4,9 °C 71 % 1024,5 hPa 0,0 mm 1,3 km/h (1 Bft) W-NW 293 ° 0 min 0,000 mm 0,0 UV-I 35 W/m² 0,1 °C 4,9 °C 3,2 km/h (1 Bft)
29.01.2017 12:24 5,0 °C 5,0 °C 71 % 1024,5 hPa 0,0 mm 0,1 km/h (0 Bft) W-NW 293 ° 0 min 0,000 mm 0,0 UV-I 35 W/m² 0,2 °C 5,0 °C 1,6 km/h (1 Bft)
29.01.2017 12:25 5,1 °C 5,1 °C 70 % 1024,5 hPa 0,0 mm 0,3 km/h (0 Bft) W-NW 293 ° 0 min 0,000 mm 0,0 UV-I 35 W/m² 0,1 °C 5,1 °C 1,6 km/h (1 Bft)
29.01.2017 12:26 4,9 °C 5,1 °C 70 % 1024,5 hPa 0,0 mm 0,5 km/h (0 Bft) W-NW 293 ° 0 min 0,000 mm 0,0 UV-I 35 W/m² -0,1 °C 4,9 °C 1,6 km/h (1 Bft)
29.01.2017 12:27 4,9 °C 4,9 °C 70 % 1024,5 hPa 0,0 mm 0,0 km/h (0 Bft) W-NW 293 ° 0 min 0,000 mm 0,0 UV-I 35 W/m² -0,1 °C 4,9 °C 0,0 km/h (0 Bft)
29.01.2017 12:28 4,9 °C 4,9 °C 71 % 1024,4 hPa 0,0 mm 0,0 km/h (0 Bft) W-NW 293 ° 0 min 0,000 mm 0,0 UV-I 35 W/m² 0,1 °C 4,9 °C 0,0 km/h (0 Bft)
29.01.2017 12:29 5,0 °C 5,0 °C 71 % 1024,4 hPa 0,0 mm 0,0 km/h (0 Bft) W-NW 293 ° 0 min 0,000 mm 0,0 UV-I 35 W/m² 0,2 °C 5,0 °C 0,0 km/h (0 Bft)
29.01.2017 12:30 5,1 °C 5,1 °C 71 % 1024,4 hPa 0,0 mm 0,1 km/h (0 Bft) W-NW 293 ° 0 min 0,000 mm 0,0 UV-I 35 W/m² 0,3 °C 5,1 °C 1,6 km/h (1 Bft)
29.01.2017 12:31 5,2 °C 5,2 °C 71 % 1024,4 hPa 0,0 mm 0,0 km/h (0 Bft) W-NW 293 ° 0 min 0,000 mm 0,0 UV-I 35 W/m² 0,4 °C 5,2 °C 0,0 km/h (0 Bft)
29.01.2017 12:32 5,3 °C 5,3 °C 70 % 1024,4 hPa 0,0 mm 0,1 km/h (0 Bft) W-NW 293 ° 0 min 0,000 mm 0,0 UV-I 35 W/m² 0,3 °C 5,3 °C 1,6 km/h (1 Bft)
29.01.2017 12:33 5,4 °C 5,4 °C 70 % 1024,4 hPa 0,0 mm 0,0 km/h (0 Bft) W-NW 293 ° 0 min 0,000 mm 0,0 UV-I 35 W/m² 0,4 °C 5,4 °C 0,0 km/h (0 Bft)
29.01.2017 12:34 5,4 °C 5,4 °C 69 % 1024,4 hPa 0,0 mm 0,1 km/h (0 Bft) W-NW 293 ° 0 min 0,000 mm 0,0 UV-I 35 W/m² 0,2 °C 5,4 °C 1,6 km/h (1 Bft)
29.01.2017 12:35 5,4 °C 5,4 °C 69 % 1024,4 hPa 0,0 mm 0,3 km/h (0 Bft) W-NW 293 ° 0 min 0,000 mm 0,0 UV-I 35 W/m² 0,2 °C 5,4 °C 1,6 km/h (1 Bft)
29.01.2017 12:36 5,4 °C 5,4 °C 69 % 1024,4 hPa 0,0 mm 0,1 km/h (0 Bft) W-NW 293 ° 0 min 0,000 mm 0,0 UV-I 35 W/m² 0,2 °C 5,4 °C 1,6 km/h (1 Bft)
29.01.2017 12:37 5,4 °C 5,4 °C 69 % 1024,4 hPa 0,0 mm 0,0 km/h (0 Bft) W-NW 293 ° 0 min 0,000 mm 0,0 UV-I 35 W/m² 0,2 °C 5,4 °C 0,0 km/h (0 Bft)
29.01.2017 12:38 5,4 °C 5,4 °C 69 % 1024,4 hPa 0,0 mm 0,4 km/h (0 Bft) W-NW 293 ° 0 min 0,000 mm 0,0 UV-I 35 W/m² 0,2 °C 5,4 °C 1,6 km/h (1 Bft)
29.01.2017 12:39 5,4 °C 5,4 °C 69 % 1024,4 hPa 0,0 mm 1,5 km/h (1 Bft) W-NW 293 ° 0 min 0,000 mm 0,0 UV-I 35 W/m² 0,2 °C 5,4 °C 3,2 km/h (1 Bft)
29.01.2017 12:40 5,4 °C 5,4 °C 69 % 1024,4 hPa 0,0 mm 0,8 km/h (0 Bft) W-NW 293 ° 0 min 0,000 mm 0,0 UV-I 35 W/m² 0,2 °C 5,4 °C 1,6 km/h (1 Bft)
29.01.2017 12:41 5,4 °C 5,4 °C 69 % 1024,3 hPa 0,0 mm 0,0 km/h (0 Bft) W-NW 293 ° 0 min 0,000 mm 0,0 UV-I 37 W/m² 0,2 °C 5,4 °C 0,0 km/h (0 Bft)
29.01.2017 12:42 5,5 °C 5,5 °C 69 % 1024,4 hPa 0,0 mm 0,1 km/h (0 Bft) W-NW 293 ° 0 min 0,000 mm 0,0 UV-I 37 W/m² 0,3 °C 5,5 °C 1,6 km/h (1 Bft)
29.01.2017 12:43 5,6 °C 5,6 °C 68 % 1024,3 hPa 0,0 mm 0,3 km/h (0 Bft) W-NW 293 ° 0 min 0,000 mm 0,0 UV-I 35 W/m² 0,2 °C 5,6 °C 1,6 km/h (1 Bft)
29.01.2017 12:44 5,6 °C 5,6 °C 68 % 1024,3 hPa 0,0 mm 0,4 km/h (0 Bft) W-NW 293 ° 0 min 0,000 mm 0,0 UV-I 35 W/m² 0,2 °C 5,6 °C 1,6 km/h (1 Bft)
29.01.2017 12:45 5,6 °C 5,6 °C 68 % 1024,4 hPa 0,0 mm 0,0 km/h (0 Bft) W-NW 293 ° 0 min 0,000 mm 0,0 UV-I 35 W/m² 0,2 °C 5,6 °C 0,0 km/h (0 Bft)
29.01.2017 12:46 5,6 °C 5,6 °C 67 % 1024,4 hPa 0,0 mm 0,0 km/h (0 Bft) W-NW 293 ° 0 min 0,000 mm 0,0 UV-I 40 W/m² -0,0 °C 5,6 °C 0,0 km/h (0 Bft)
29.01.2017 12:47 5,2 °C 5,6 °C 66 % 1024,3 hPa 0,0 mm 0,0 km/h (0 Bft) W-NW 293 ° 0 min 0,000 mm 0,0 UV-I 39 W/m² -0,6 °C 5,2 °C 0,0 km/h (0 Bft)
29.01.2017 12:48 5,1 °C 5,2 °C 68 % 1024,3 hPa 0,0 mm 0,0 km/h (0 Bft) W-NW 293 ° 0 min 0,000 mm 0,0 UV-I 35 W/m² -0,3 °C 5,1 °C 0,0 km/h (0 Bft)
29.01.2017 12:49 5,0 °C 5,1 °C 70 % 1024,4 hPa 0,0 mm 0,3 km/h (0 Bft) W-NW 293 ° 0 min 0,000 mm 0,0 UV-I 35 W/m² -0,0 °C 5,0 °C 1,6 km/h (1 Bft)
29.01.2017 12:50 5,0 °C 5,0 °C 69 % 1024,3 hPa 0,0 mm 0,3 km/h (0 Bft) W-NW 293 ° 0 min 0,000 mm 0,0 UV-I 35 W/m² -0,2 °C 5,0 °C 1,6 km/h (1 Bft)
29.01.2017 12:51 4,9 °C 5,0 °C 69 % 1024,4 hPa 0,0 mm 0,0 km/h (0 Bft) W-NW 293 ° 0 min 0,000 mm 0,0 UV-I 35 W/m² -0,3 °C 4,9 °C 0,0 km/h (0 Bft)
29.01.2017 12:52 4,9 °C 4,9 °C 70 % 1024,3 hPa 0,0 mm 1,4 km/h (1 Bft) W-NW 293 ° 0 min 0,000 mm 0,0 UV-I 35 W/m² -0,1 °C 4,9 °C 3,2 km/h (1 Bft)
29.01.2017 12:53 4,9 °C 5,0 °C 69 % 1024,4 hPa 0,0 mm 2,4 km/h (1 Bft) W-NW 293 ° 0 min 0,000 mm 0,0 UV-I 35 W/m² -0,3 °C 4,9 °C 3,2 km/h (1 Bft)
29.01.2017 12:54 5,0 °C 5,0 °C 70 % 1024,3 hPa 0,0 mm 1,1 km/h (1 Bft) W-NW 293 ° 0 min 0,000 mm 0,0 UV-I 35 W/m² -0,0 °C 5,0 °C 1,6 km/h (1 Bft)
29.01.2017 12:55 5,1 °C 5,1 °C 70 % 1024,3 hPa 0,0 mm 1,0 km/h (0 Bft) W-NW 293 ° 0 min 0,000 mm 0,0 UV-I 35 W/m² 0,1 °C 5,1 °C 1,6 km/h (1 Bft)
29.01.2017 12:56 5,2 °C 5,2 °C 69 % 1024,3 hPa 0,0 mm 1,3 km/h (1 Bft) W-NW 293 ° 0 min 0,000 mm 0,0 UV-I 35 W/m² -0,0 °C 5,2 °C 1,6 km/h (1 Bft)
29.01.2017 12:57 5,2 °C 5,2 °C 69 % 1024,3 hPa 0,0 mm 2,2 km/h (1 Bft) W-NW 294 ° 0 min 0,000 mm 0,0 UV-I 35 W/m² -0,0 °C 5,2 °C 4,8 km/h (1 Bft)
29.01.2017 12:58 5,1 °C 5,2 °C 68 % 1024,3 hPa 0,0 mm 1,1 km/h (1 Bft) W-NW 294 ° 0 min 0,000 mm 0,0 UV-I 35 W/m² -0,3 °C 5,1 °C 1,6 km/h (1 Bft)
29.01.2017 12:59 5,1 °C 5,2 °C 68 % 1024,3 hPa 0,0 mm 0,0 km/h (0 Bft) W-NW 294 ° 0 min 0,000 mm 0,0 UV-I 35 W/m² -0,3 °C 5,1 °C 0,0 km/h (0 Bft)
29.01.2017 13:00 5,1 °C 5,1 °C 68 % 1024,4 hPa 0,0 mm 1,4 km/h (1 Bft) W-NW 294 ° 0 min 0,025 mm 0,0 UV-I 35 W/m² -0,3 °C 5,1 °C 3,2 km/h (1 Bft)
29.01.2017 13:01 5,1 °C 5,1 °C 68 % 1024,3 hPa 0,0 mm 0,6 km/h (0 Bft) W-NW 294 ° 0 min 0,000 mm 0,0 UV-I 35 W/m² -0,3 °C 5,1 °C 1,6 km/h (1 Bft)
29.01.2017 13:02 5,1 °C 5,1 °C 68 % 1024,2 hPa 0,0 mm 0,5 km/h (0 Bft) W-NW 294 ° 0 min 0,000 mm 0,0 UV-I 35 W/m² -0,3 °C 5,1 °C 1,6 km/h (1 Bft)
29.01.2017 13:03 5,1 °C 5,1 °C 68 % 1024,2 hPa 0,0 mm 0,0 km/h (0 Bft) W-NW 294 ° 0 min 0,000 mm 0,0 UV-I 35 W/m² -0,3 °C 5,1 °C 0,0 km/h (0 Bft)
29.01.2017 13:04 5,1 °C 5,1 °C 68 % 1024,3 hPa 0,0 mm 0,1 km/h (0 Bft) W-NW 294 ° 0 min 0,000 mm 0,0 UV-I 35 W/m² -0,3 °C 5,1 °C 1,6 km/h (1 Bft)
29.01.2017 13:05 5,1 °C 5,2 °C 67 % 1024,2 hPa 0,0 mm 1,0 km/h (0 Bft) W-NW 294 ° 0 min 0,000 mm 0,0 UV-I 35 W/m² -0,5 °C 5,1 °C 3,2 km/h (1 Bft)
29.01.2017 13:06 5,1 °C 5,1 °C 67 % 1024,2 hPa 0,0 mm 1,4 km/h (1 Bft) W-NW 294 ° 0 min 0,000 mm 0,0 UV-I 35 W/m² -0,5 °C 5,1 °C 3,2 km/h (1 Bft)
29.01.2017 13:07 5,1 °C 5,1 °C 68 % 1024,2 hPa 0,0 mm 1,1 km/h (1 Bft) W-NW 294 ° 0 min 0,000 mm 0,0 UV-I 35 W/m² -0,3 °C 5,1 °C 1,6 km/h (1 Bft)
29.01.2017 13:08 5,1 °C 5,1 °C 68 % 1024,2 hPa 0,0 mm 2,0 km/h (1 Bft) NW 321 ° 0 min 0,000 mm 0,0 UV-I 35 W/m² -0,3 °C 5,1 °C 3,2 km/h (1 Bft)
29.01.2017 13:09 5,2 °C 5,2 °C 67 % 1024,2 hPa 0,0 mm 2,0 km/h (1 Bft) NW 321 ° 0 min 0,000 mm 0,0 UV-I 35 W/m² -0,4 °C 5,2 °C 3,2 km/h (1 Bft)
29.01.2017 13:10 5,3 °C 5,3 °C 66 % 1024,2 hPa 0,0 mm 2,8 km/h (1 Bft) N-NW 327 ° 0 min 0,000 mm 0,0 UV-I 35 W/m² -0,5 °C 5,3 °C 4,8 km/h (1 Bft)
29.01.2017 13:11 5,3 °C 5,3 °C 66 % 1024,1 hPa 0,0 mm 2,3 km/h (1 Bft) N-NW 327 ° 0 min 0,000 mm 0,0 UV-I 35 W/m² -0,5 °C 5,3 °C 4,8 km/h (1 Bft)
29.01.2017 13:12 5,3 °C 5,3 °C 66 % 1024,1 hPa 0,0 mm 0,7 km/h (0 Bft) N-NW 327 ° 0 min 0,000 mm 0,0 UV-I 35 W/m² -0,5 °C 5,3 °C 1,6 km/h (1 Bft)
29.01.2017 13:13 5,3 °C 5,4 °C 66 % 1024,1 hPa 0,0 mm 0,1 km/h (0 Bft) N-NW 327 ° 0 min 0,000 mm 0,0 UV-I 35 W/m² -0,5 °C 5,3 °C 1,6 km/h (1 Bft)
29.01.2017 13:14 5,4 °C 5,4 °C 65 % 1024,1 hPa 0,0 mm 1,4 km/h (1 Bft) N-NW 327 ° 0 min 0,000 mm 0,0 UV-I 35 W/m² -0,6 °C 5,4 °C 1,6 km/h (1 Bft)
29.01.2017 13:15 5,3 °C 5,4 °C 65 % 1024,1 hPa 0,0 mm 1,7 km/h (1 Bft) N-NW 327 ° 0 min 0,000 mm 0,0 UV-I 35 W/m² -0,7 °C 5,3 °C 3,2 km/h (1 Bft)
29.01.2017 13:16 5,2 °C 5,3 °C 65 % 1024,1 hPa 0,0 mm 1,7 km/h (1 Bft) N-NO 28 ° 0 min 0,000 mm 0,0 UV-I 35 W/m² -0,8 °C 5,2 °C 3,2 km/h (1 Bft)
29.01.2017 13:17 5,2 °C 5,2 °C 66 % 1024,1 hPa 0,0 mm 2,5 km/h (1 Bft) NO 51 ° 0 min 0,000 mm 0,0 UV-I 35 W/m² -0,6 °C 5,2 °C 4,8 km/h (1 Bft)
29.01.2017 13:18 5,1 °C 5,2 °C 66 % 1024,1 hPa 0,0 mm 1,9 km/h (1 Bft) NO 51 ° 0 min 0,000 mm 0,0 UV-I 35 W/m² -0,7 °C 5,1 °C 3,2 km/h (1 Bft)
29.01.2017 13:19 5,2 °C 5,2 °C 67 % 1024,0 hPa 0,0 mm 2,3 km/h (1 Bft) O-NO 57 ° 0 min 0,000 mm 0,0 UV-I 35 W/m² -0,4 °C 5,2 °C 4,8 km/h (1 Bft)
29.01.2017 13:20 5,3 °C 5,3 °C 66 % 1024,0 hPa 0,0 mm 2,1 km/h (1 Bft) O-NO 57 ° 0 min 0,000 mm 0,0 UV-I 35 W/m² -0,5 °C 5,3 °C 4,8 km/h (1 Bft)
29.01.2017 13:21 5,3 °C 5,3 °C 66 % 1024,0 hPa 0,0 mm 0,2 km/h (0 Bft) O-NO 57 ° 0 min 0,000 mm 0,0 UV-I 35 W/m² -0,5 °C 5,3 °C 1,6 km/h (1 Bft)
29.01.2017 13:22 5,4 °C 5,4 °C 65 % 1024,0 hPa 0,0 mm 1,5 km/h (1 Bft) O-NO 57 ° 0 min 0,000 mm 0,0 UV-I 35 W/m² -0,6 °C 5,4 °C 3,2 km/h (1 Bft)
29.01.2017 13:23 5,4 °C 5,5 °C 65 % 1024,0 hPa 0,0 mm 2,6 km/h (1 Bft) O-NO 57 ° 0 min 0,000 mm 0,0 UV-I 35 W/m² -0,6 °C 5,4 °C 3,2 km/h (1 Bft)
29.01.2017 13:24 5,5 °C 5,6 °C 64 % 1024,0 hPa 0,0 mm 2,9 km/h (1 Bft) O-NO 57 ° 0 min 0,000 mm 0,0 UV-I 35 W/m² -0,8 °C 5,5 °C 3,2 km/h (1 Bft)
29.01.2017 13:25 5,4 °C 5,5 °C 65 % 1023,9 hPa 0,0 mm 4,3 km/h (1 Bft) O-NO 73 ° 0 min 0,000 mm 0,0 UV-I 35 W/m² -0,6 °C 5,4 °C 6,4 km/h (2 Bft)
29.01.2017 13:26 5,4 °C 5,4 °C 66 % 1023,9 hPa 0,0 mm 2,3 km/h (1 Bft) O-NO 73 ° 0 min 0,000 mm 0,0 UV-I 35 W/m² -0,4 °C 5,4 °C 3,2 km/h (1 Bft)
29.01.2017 13:27 5,4 °C 5,4 °C 66 % 1023,9 hPa 0,0 mm 0,9 km/h (0 Bft) O-NO 73 ° 0 min 0,000 mm 0,0 UV-I 33 W/m² -0,4 °C 5,4 °C 1,6 km/h (1 Bft)
29.01.2017 13:28 5,6 °C 5,6 °C 65 % 1023,9 hPa 0,0 mm 0,3 km/h (0 Bft) O-NO 73 ° 0 min 0,000 mm 0,0 UV-I 33 W/m² -0,4 °C 5,6 °C 1,6 km/h (1 Bft)
29.01.2017 13:29 5,6 °C 5,6 °C 65 % 1023,9 hPa 0,0 mm 0,6 km/h (0 Bft) O-NO 73 ° 0 min 0,000 mm 0,0 UV-I 33 W/m² -0,4 °C 5,6 °C 1,6 km/h (1 Bft)
29.01.2017 13:30 5,6 °C 5,6 °C 65 % 1023,8 hPa 0,0 mm 1,4 km/h (1 Bft) O-NO 73 ° 0 min 0,000 mm 0,0 UV-I 33 W/m² -0,4 °C 5,6 °C 1,6 km/h (1 Bft)
29.01.2017 13:31 5,7 °C 5,7 °C 65 % 1023,8 hPa 0,0 mm 0,6 km/h (0 Bft) O-NO 73 ° 0 min 0,000 mm 0,0 UV-I 33 W/m² -0,4 °C 5,7 °C 1,6 km/h (1 Bft)
29.01.2017 13:32 5,8 °C 5,8 °C 65 % 1023,8 hPa 0,0 mm 0,1 km/h (0 Bft) O-NO 73 ° 0 min 0,000 mm 0,0 UV-I 33 W/m² -0,3 °C 5,8 °C 1,6 km/h (1 Bft)
29.01.2017 13:33 5,8 °C 5,8 °C 64 % 1023,8 hPa 0,0 mm 1,5 km/h (1 Bft) O-NO 73 ° 0 min 0,000 mm 0,0 UV-I 33 W/m² -0,5 °C 5,8 °C 3,2 km/h (1 Bft)
29.01.2017 13:34 5,8 °C 5,8 °C 64 % 1023,7 hPa 0,0 mm 2,0 km/h (1 Bft) O-NO 73 ° 0 min 0,000 mm 0,0 UV-I 33 W/m² -0,5 °C 5,8 °C 3,2 km/h (1 Bft)
29.01.2017 13:35 5,8 °C 5,8 °C 65 % 1023,7 hPa 0,0 mm 2,8 km/h (1 Bft) O-NO 71 ° 0 min 0,000 mm 0,0 UV-I 33 W/m² -0,3 °C 5,8 °C 4,8 km/h (1 Bft)
29.01.2017 13:36 5,7 °C 5,8 °C 63 % 1023,8 hPa 0,0 mm 1,0 km/h (0 Bft) O-NO 71 ° 0 min 0,000 mm 0,0 UV-I 33 W/m² -0,8 °C 5,7 °C 3,2 km/h (1 Bft)
29.01.2017 13:37 5,6 °C 5,7 °C 64 % 1023,7 hPa 0,0 mm 2,4 km/h (1 Bft) O-NO 71 ° 0 min 0,000 mm 0,0 UV-I 33 W/m² -0,7 °C 5,6 °C 3,2 km/h (1 Bft)
29.01.2017 13:38 5,6 °C 5,6 °C 64 % 1023,7 hPa 0,0 mm 0,9 km/h (0 Bft) O-NO 71 ° 0 min 0,000 mm 0,0 UV-I 33 W/m² -0,7 °C 5,6 °C 3,2 km/h (1 Bft)
29.01.2017 13:39 5,5 °C 5,6 °C 65 % 1023,7 hPa 0,0 mm 2,4 km/h (1 Bft) O-NO 71 ° 0 min 0,000 mm 0,0 UV-I 33 W/m² -0,5 °C 5,5 °C 3,2 km/h (1 Bft)
29.01.2017 13:40 5,6 °C 5,6 °C 65 % 1023,6 hPa 0,0 mm 2,5 km/h (1 Bft) O-NO 71 ° 0 min 0,000 mm 0,0 UV-I 33 W/m² -0,4 °C 5,6 °C 3,2 km/h (1 Bft)
29.01.2017 13:41 5,6 °C 5,6 °C 65 % 1023,6 hPa 0,0 mm 2,5 km/h (1 Bft) O-NO 71 ° 0 min 0,000 mm 0,0 UV-I 33 W/m² -0,4 °C 5,6 °C 3,2 km/h (1 Bft)
29.01.2017 13:42 5,7 °C 5,7 °C 65 % 1023,6 hPa 0,0 mm 1,7 km/h (1 Bft) O-NO 71 ° 0 min 0,000 mm 0,0 UV-I 33 W/m² -0,4 °C 5,7 °C 3,2 km/h (1 Bft)
29.01.2017 13:43 5,8 °C 5,8 °C 65 % 1023,6 hPa 0,0 mm 1,3 km/h (1 Bft) O-NO 71 ° 0 min 0,000 mm 0,0 UV-I 33 W/m² -0,3 °C 5,8 °C 3,2 km/h (1 Bft)
29.01.2017 13:44 5,7 °C 5,8 °C 63 % 1023,6 hPa 0,0 mm 2,6 km/h (1 Bft) O-NO 71 ° 0 min 0,000 mm 0,0 UV-I 35 W/m² -0,8 °C 5,7 °C 3,2 km/h (1 Bft)
29.01.2017 13:45 5,6 °C 5,7 °C 64 % 1023,6 hPa 0,0 mm 3,8 km/h (1 Bft) O-NO 71 ° 0 min 0,000 mm 0,0 UV-I 35 W/m² -0,7 °C 5,6 °C 4,8 km/h (1 Bft)
29.01.2017 13:46 5,6 °C 5,6 °C 65 % 1023,6 hPa 0,0 mm 3,1 km/h (1 Bft) O-NO 71 ° 0 min 0,000 mm 0,0 UV-I 42 W/m² -0,4 °C 5,6 °C 4,8 km/h (1 Bft)
29.01.2017 13:47 5,7 °C 5,7 °C 65 % 1023,5 hPa 0,0 mm 2,6 km/h (1 Bft) O-NO 71 ° 0 min 0,000 mm 0,0 UV-I 53 W/m² -0,4 °C 5,7 °C 3,2 km/h (1 Bft)
29.01.2017 13:48 5,9 °C 5,9 °C 64 % 1023,6 hPa 0,0 mm 2,2 km/h (1 Bft) O-NO 71 ° 0 min 0,000 mm 1,3 UV-I 62 W/m² -0,4 °C 5,9 °C 3,2 km/h (1 Bft)
29.01.2017 13:49 6,1 °C 6,1 °C 64 % 1023,6 hPa 0,0 mm 1,6 km/h (1 Bft) O-NO 71 ° 0 min 0,000 mm 1,3 UV-I 70 W/m² -0,2 °C 6,1 °C 3,2 km/h (1 Bft)
29.01.2017 13:50 5,9 °C 6,1 °C 62 % 1023,5 hPa 0,0 mm 2,0 km/h (1 Bft) O-NO 71 ° 0 min 0,000 mm 1,3 UV-I 185 W/m² -0,8 °C 5,9 °C 3,2 km/h (1 Bft)
29.01.2017 13:51 6,0 °C 6,0 °C 64 % 1023,6 hPa 0,0 mm 1,1 km/h (1 Bft) O-NO 71 ° 1 min 0,000 mm 1,4 UV-I 248 W/m² -0,3 °C 6,0 °C 1,6 km/h (1 Bft)
29.01.2017 13:52 6,2 °C 6,2 °C 63 % 1023,6 hPa 0,0 mm 1,1 km/h (1 Bft) O-NO 71 ° 1 min 0,000 mm 1,5 UV-I 269 W/m² -0,3 °C 6,2 °C 1,6 km/h (1 Bft)
29.01.2017 13:53 6,2 °C 6,2 °C 63 % 1023,6 hPa 0,0 mm 0,2 km/h (0 Bft) O-NO 71 ° 1 min 0,000 mm 1,5 UV-I 236 W/m² -0,3 °C 6,2 °C 1,6 km/h (1 Bft)
29.01.2017 13:54 6,3 °C 6,3 °C 63 % 1023,6 hPa 0,0 mm 1,1 km/h (1 Bft) O-NO 71 ° 1 min 0,000 mm 1,4 UV-I 221 W/m² -0,2 °C 6,3 °C 3,2 km/h (1 Bft)
29.01.2017 13:55 6,3 °C 6,3 °C 63 % 1023,6 hPa 0,0 mm 1,1 km/h (1 Bft) O-NO 71 ° 1 min 0,000 mm 1,5 UV-I 221 W/m² -0,2 °C 6,3 °C 1,6 km/h (1 Bft)
29.01.2017 13:56 6,3 °C 6,3 °C 63 % 1023,6 hPa 0,0 mm 1,5 km/h (1 Bft) O-NO 71 ° 1 min 0,000 mm 1,5 UV-I 323 W/m² -0,2 °C 6,3 °C 3,2 km/h (1 Bft)
29.01.2017 13:57 6,3 °C 6,3 °C 63 % 1023,6 hPa 0,0 mm 2,6 km/h (1 Bft) O-NO 71 ° 1 min 0,000 mm 1,6 UV-I 309 W/m² -0,2 °C 6,3 °C 4,8 km/h (1 Bft)
29.01.2017 13:58 6,3 °C 6,3 °C 63 % 1023,6 hPa 0,0 mm 2,1 km/h (1 Bft) O-NO 71 ° 1 min 0,000 mm 1,6 UV-I 315 W/m² -0,2 °C 6,3 °C 3,2 km/h (1 Bft)
29.01.2017 13:59 6,4 °C 6,4 °C 63 % 1023,6 hPa 0,0 mm 1,7 km/h (1 Bft) O-NO 71 ° 1 min 0,000 mm 1,6 UV-I 334 W/m² -0,1 °C 6,4 °C 3,2 km/h (1 Bft)
29.01.2017 14:00 6,5 °C 6,5 °C 62 % 1023,6 hPa 0,0 mm 2,2 km/h (1 Bft) O-NO 71 ° 1 min 0,000 mm 1,6 UV-I 334 W/m² -0,2 °C 6,5 °C 3,2 km/h (1 Bft)
29.01.2017 14:01 6,4 °C 6,5 °C 62 % 1023,6 hPa 0,0 mm 1,6 km/h (1 Bft) O-NO 71 ° 1 min 0,051 mm 1,6 UV-I 343 W/m² -0,3 °C 6,4 °C 3,2 km/h (1 Bft)
29.01.2017 14:02 6,4 °C 6,4 °C 62 % 1023,5 hPa 0,2 mm 0,3 km/h (0 Bft) O-NO 71 ° 1 min 0,000 mm 1,6 UV-I 341 W/m² -0,3 °C 6,4 °C 1,6 km/h (1 Bft)
29.01.2017 14:03 6,6 °C 6,6 °C 61 % 1023,5 hPa 0,0 mm 0,0 km/h (0 Bft) O-NO 71 ° 1 min 0,000 mm 1,6 UV-I 339 W/m² -0,4 °C 6,6 °C 0,0 km/h (0 Bft)
29.01.2017 14:04 6,4 °C 6,6 °C 61 % 1023,5 hPa 0,0 mm 1,0 km/h (0 Bft) O-NO 71 ° 1 min 0,000 mm 1,6 UV-I 338 W/m² -0,6 °C 6,4 °C 1,6 km/h (1 Bft)
29.01.2017 14:05 6,0 °C 6,4 °C 62 % 1023,5 hPa 0,0 mm 0,0 km/h (0 Bft) O-NO 71 ° 1 min 0,000 mm 1,6 UV-I 338 W/m² -0,7 °C 6,0 °C 0,0 km/h (0 Bft)
29.01.2017 14:06 5,9 °C 6,0 °C 63 % 1023,5 hPa 0,0 mm 0,1 km/h (0 Bft) O-NO 71 ° 1 min 0,000 mm 1,6 UV-I 336 W/m² -0,6 °C 5,9 °C 1,6 km/h (1 Bft)
29.01.2017 14:07 5,9 °C 5,9 °C 63 % 1023,5 hPa 0,0 mm 0,8 km/h (0 Bft) O-NO 71 ° 1 min 0,000 mm 1,6 UV-I 334 W/m² -0,6 °C 5,9 °C 1,6 km/h (1 Bft)
29.01.2017 14:08 6,2 °C 6,2 °C 63 % 1023,5 hPa 0,0 mm 0,8 km/h (0 Bft) O-NO 71 ° 1 min 0,000 mm 1,5 UV-I 332 W/m² -0,3 °C 6,2 °C 1,6 km/h (1 Bft)
29.01.2017 14:09 6,3 °C 6,3 °C 62 % 1023,5 hPa 0,0 mm 0,9 km/h (0 Bft) O-NO 71 ° 1 min 0,000 mm 1,5 UV-I 332 W/m² -0,4 °C 6,3 °C 1,6 km/h (1 Bft)
29.01.2017 14:10 6,4 °C 6,4 °C 62 % 1023,5 hPa 0,0 mm 1,7 km/h (1 Bft) O-NO 71 ° 1 min 0,000 mm 1,5 UV-I 330 W/m² -0,3 °C 6,4 °C 3,2 km/h (1 Bft)
29.01.2017 14:11 6,5 °C 6,5 °C 61 % 1023,4 hPa 0,0 mm 1,5 km/h (1 Bft) O-NO 71 ° 1 min 0,000 mm 1,5 UV-I 330 W/m² -0,5 °C 6,5 °C 3,2 km/h (1 Bft)
29.01.2017 14:12 6,7 °C 6,7 °C 60 % 1023,4 hPa 0,0 mm 0,8 km/h (0 Bft) O-NO 71 ° 1 min 0,000 mm 1,5 UV-I 329 W/m² -0,5 °C 6,7 °C 1,6 km/h (1 Bft)
29.01.2017 14:13 6,4 °C 6,7 °C 60 % 1023,4 hPa 0,0 mm 1,5 km/h (1 Bft) O-NO 71 ° 1 min 0,000 mm 1,5 UV-I 327 W/m² -0,8 °C 6,4 °C 3,2 km/h (1 Bft)
29.01.2017 14:14 6,4 °C 6,4 °C 61 % 1023,4 hPa 0,0 mm 0,4 km/h (0 Bft) O-NO 71 ° 1 min 0,000 mm 1,5 UV-I 325 W/m² -0,6 °C 6,4 °C 1,6 km/h (1 Bft)
29.01.2017 14:15 6,4 °C 6,5 °C 60 % 1023,4 hPa 0,0 mm 1,2 km/h (1 Bft) O-NO 71 ° 1 min 0,000 mm 1,5 UV-I 323 W/m² -0,8 °C 6,4 °C 1,6 km/h (1 Bft)
29.01.2017 14:16 6,4 °C 6,4 °C 61 % 1023,4 hPa 0,0 mm 0,0 km/h (0 Bft) O-NO 71 ° 1 min 0,000 mm 1,5 UV-I 322 W/m² -0,6 °C 6,4 °C 0,0 km/h (0 Bft)
29.01.2017 14:17 6,3 °C 6,4 °C 61 % 1023,4 hPa 0,0 mm 0,5 km/h (0 Bft) O-NO 71 ° 1 min 0,000 mm 1,5 UV-I 322 W/m² -0,7 °C 6,3 °C 1,6 km/h (1 Bft)
29.01.2017 14:18 6,4 °C 6,4 °C 61 % 1023,4 hPa 0,0 mm 1,0 km/h (0 Bft) O-NO 71 ° 1 min 0,000 mm 1,5 UV-I 320 W/m² -0,6 °C 6,4 °C 1,6 km/h (1 Bft)
29.01.2017 14:19 6,2 °C 6,4 °C 60 % 1023,4 hPa 0,2 mm 1,8 km/h (1 Bft) O-NO 71 ° 1 min 0,000 mm 1,5 UV-I 318 W/m² -1,0 °C 6,2 °C 3,2 km/h (1 Bft)
29.01.2017 14:20 6,3 °C 6,3 °C 62 % 1023,5 hPa 0,0 mm 1,6 km/h (1 Bft) O-NO 71 ° 1 min 0,000 mm 1,5 UV-I 318 W/m² -0,4 °C 6,3 °C 3,2 km/h (1 Bft)
29.01.2017 14:21 6,4 °C 6,4 °C 61 % 1023,4 hPa 0,0 mm 1,6 km/h (1 Bft) O-NO 71 ° 1 min 0,000 mm 1,4 UV-I 313 W/m² -0,6 °C 6,4 °C 3,2 km/h (1 Bft)
29.01.2017 14:22 6,5 °C 6,5 °C 60 % 1023,4 hPa 0,0 mm 1,5 km/h (1 Bft) O-NO 71 ° 1 min 0,000 mm 1,4 UV-I 299 W/m² -0,7 °C 6,5 °C 1,6 km/h (1 Bft)
29.01.2017 14:23 6,6 °C 6,6 °C 60 % 1023,4 hPa 0,0 mm 0,9 km/h (0 Bft) O-NO 71 ° 1 min 0,000 mm 1,4 UV-I 267 W/m² -0,6 °C 6,6 °C 1,6 km/h (1 Bft)
29.01.2017 14:24 6,6 °C 6,6 °C 60 % 1023,4 hPa 0,0 mm 0,7 km/h (0 Bft) O-NO 71 ° 1 min 0,000 mm 1,3 UV-I 218 W/m² -0,6 °C 6,6 °C 1,6 km/h (1 Bft)
29.01.2017 14:25 6,5 °C 6,6 °C 59 % 1023,4 hPa 0,0 mm 1,0 km/h (0 Bft) O-NO 71 ° 0 min 0,000 mm 1,3 UV-I 193 W/m² -0,9 °C 6,5 °C 1,6 km/h (1 Bft)
29.01.2017 14:26 6,6 °C 6,6 °C 59 % 1023,4 hPa 0,0 mm 0,0 km/h (0 Bft) O-NO 71 ° 0 min 0,000 mm 1,3 UV-I 176 W/m² -0,8 °C 6,6 °C 0,0 km/h (0 Bft)
29.01.2017 14:27 6,6 °C 6,7 °C 58 % 1023,4 hPa 0,0 mm 0,1 km/h (0 Bft) O-NO 71 ° 0 min 0,000 mm 1,3 UV-I 176 W/m² -1,1 °C 6,6 °C 1,6 km/h (1 Bft)
29.01.2017 14:28 6,3 °C 6,6 °C 58 % 1023,4 hPa 0,0 mm 0,6 km/h (0 Bft) O-NO 71 ° 0 min 0,000 mm 1,2 UV-I 165 W/m² -1,3 °C 6,3 °C 1,6 km/h (1 Bft)
29.01.2017 14:29 6,1 °C 6,3 °C 60 % 1023,4 hPa 0,0 mm 0,6 km/h (0 Bft) O-NO 71 ° 0 min 0,000 mm 1,2 UV-I 163 W/m² -1,1 °C 6,1 °C 1,6 km/h (1 Bft)
29.01.2017 14:30 6,1 °C 6,1 °C 59 % 1023,3 hPa 0,0 mm 0,7 km/h (0 Bft) O-NO 71 ° 0 min 0,000 mm 1,2 UV-I 156 W/m² -1,3 °C 6,1 °C 1,6 km/h (1 Bft)
29.01.2017 14:31 6,2 °C 6,2 °C 59 % 1023,4 hPa 0,0 mm 0,1 km/h (0 Bft) O-NO 71 ° 0 min 0,000 mm 1,2 UV-I 120 W/m² -1,2 °C 6,2 °C 1,6 km/h (1 Bft)
29.01.2017 14:32 6,2 °C 6,2 °C 60 % 1023,4 hPa 0,0 mm 1,1 km/h (1 Bft) O-NO 71 ° 0 min 0,000 mm 1,1 UV-I 86 W/m² -1,0 °C 6,2 °C 3,2 km/h (1 Bft)
29.01.2017 14:33 6,3 °C 6,3 °C 60 % 1023,4 hPa 0,0 mm 1,3 km/h (1 Bft) O-NO 71 ° 0 min 0,000 mm 1,1 UV-I 72 W/m² -0,9 °C 6,3 °C 1,6 km/h (1 Bft)
29.01.2017 14:34 6,3 °C 6,3 °C 59 % 1023,4 hPa 0,0 mm 1,0 km/h (0 Bft) O-NO 71 ° 0 min 0,000 mm 1,1 UV-I 60 W/m² -1,1 °C 6,3 °C 3,2 km/h (1 Bft)
29.01.2017 14:35 6,1 °C 6,3 °C 60 % 1023,4 hPa 0,0 mm 1,9 km/h (1 Bft) O-NO 71 ° 0 min 0,000 mm 0,0 UV-I 54 W/m² -1,1 °C 6,1 °C 3,2 km/h (1 Bft)
29.01.2017 14:36 5,7 °C 6,1 °C 61 % 1023,4 hPa 0,0 mm 1,5 km/h (1 Bft) O-NO 71 ° 0 min 0,000 mm 1,1 UV-I 58 W/m² -1,2 °C 5,7 °C 3,2 km/h (1 Bft)
29.01.2017 14:37 5,7 °C 5,7 °C 62 % 1023,4 hPa 0,2 mm 3,2 km/h (1 Bft) O-NO 71 ° 0 min 0,000 mm 1,0 UV-I 60 W/m² -1,0 °C 5,7 °C 4,8 km/h (1 Bft)
29.01.2017 14:38 5,8 °C 5,8 °C 62 % 1023,3 hPa 0,0 mm 2,6 km/h (1 Bft) O-NO 71 ° 0 min 0,000 mm 1,0 UV-I 62 W/m² -0,9 °C 5,8 °C 3,2 km/h (1 Bft)
29.01.2017 14:39 5,8 °C 5,8 °C 61 % 1023,4 hPa 0,0 mm 2,5 km/h (1 Bft) O-NO 71 ° 0 min 0,000 mm 0,0 UV-I 53 W/m² -1,1 °C 5,8 °C 3,2 km/h (1 Bft)
29.01.2017 14:40 5,7 °C 5,9 °C 61 % 1023,3 hPa 0,0 mm 2,0 km/h (1 Bft) O-NO 71 ° 0 min 0,000 mm 0,0 UV-I 51 W/m² -1,2 °C 5,7 °C 3,2 km/h (1 Bft)
29.01.2017 14:41 5,5 °C 5,7 °C 63 % 1023,3 hPa 0,0 mm 4,1 km/h (1 Bft) SO 128 ° 0 min 0,000 mm 0,0 UV-I 53 W/m² -1,0 °C 5,5 °C 4,8 km/h (1 Bft)
29.01.2017 14:42 5,6 °C 5,6 °C 62 % 1023,3 hPa 0,0 mm 1,5 km/h (1 Bft) SO 128 ° 0 min 0,000 mm 1,0 UV-I 62 W/m² -1,1 °C 5,6 °C 3,2 km/h (1 Bft)
29.01.2017 14:43 5,4 °C 5,6 °C 62 % 1023,3 hPa 0,0 mm 2,4 km/h (1 Bft) O-SO 122 ° 0 min 0,000 mm 1,0 UV-I 63 W/m² -1,3 °C 5,4 °C 4,8 km/h (1 Bft)
29.01.2017 14:44 5,5 °C 5,5 °C 62 % 1023,3 hPa 0,0 mm 2,6 km/h (1 Bft) O-SO 122 ° 0 min 0,000 mm 1,0 UV-I 69 W/m² -1,2 °C 5,5 °C 3,2 km/h (1 Bft)
29.01.2017 14:45 5,6 °C 5,6 °C 62 % 1023,3 hPa 0,0 mm 0,7 km/h (0 Bft) O-SO 122 ° 0 min 0,000 mm 1,0 UV-I 69 W/m² -1,1 °C 5,6 °C 1,6 km/h (1 Bft)
29.01.2017 14:46 5,8 °C 5,8 °C 62 % 1023,3 hPa 0,0 mm 1,8 km/h (1 Bft) O-SO 122 ° 0 min 0,000 mm 1,0 UV-I 88 W/m² -0,9 °C 5,8 °C 3,2 km/h (1 Bft)
29.01.2017 14:47 5,7 °C 5,8 °C 62 % 1023,3 hPa 0,0 mm 2,0 km/h (1 Bft) O-SO 122 ° 0 min 0,000 mm 1,1 UV-I 130 W/m² -1,0 °C 5,7 °C 3,2 km/h (1 Bft)
29.01.2017 14:48 5,7 °C 5,7 °C 62 % 1023,2 hPa 0,0 mm 1,9 km/h (1 Bft) O-SO 122 ° 0 min 0,000 mm 1,1 UV-I 163 W/m² -1,0 °C 5,7 °C 3,2 km/h (1 Bft)
29.01.2017 14:49 5,7 °C 5,7 °C 62 % 1023,3 hPa 0,0 mm 3,0 km/h (1 Bft) O 80 ° 0 min 0,000 mm 1,1 UV-I 163 W/m² -1,0 °C 5,7 °C 4,8 km/h (1 Bft)
29.01.2017 14:50 5,7 °C 5,7 °C 62 % 1023,3 hPa 0,0 mm 3,1 km/h (1 Bft) O 80 ° 0 min 0,000 mm 1,1 UV-I 149 W/m² -1,0 °C 5,7 °C 4,8 km/h (1 Bft)
29.01.2017 14:51 5,6 °C 5,7 °C 62 % 1023,2 hPa 0,0 mm 2,7 km/h (1 Bft) O 80 ° 0 min 0,000 mm 1,0 UV-I 155 W/m² -1,1 °C 5,6 °C 3,2 km/h (1 Bft)
29.01.2017 14:52 5,6 °C 5,6 °C 62 % 1023,2 hPa 0,0 mm 2,9 km/h (1 Bft) O 80 ° 0 min 0,000 mm 1,1 UV-I 176 W/m² -1,1 °C 5,6 °C 4,8 km/h (1 Bft)
29.01.2017 14:53 5,7 °C 5,7 °C 63 % 1023,2 hPa 0,0 mm 2,5 km/h (1 Bft) O-SO 117 ° 1 min 0,000 mm 1,1 UV-I 209 W/m² -0,8 °C 5,7 °C 4,8 km/h (1 Bft)
29.01.2017 14:54 5,7 °C 5,7 °C 63 % 1023,2 hPa 0,0 mm 3,1 km/h (1 Bft) O-NO 72 ° 1 min 0,000 mm 1,1 UV-I 230 W/m² -0,8 °C 5,7 °C 4,8 km/h (1 Bft)
29.01.2017 14:55 5,8 °C 5,8 °C 63 % 1023,2 hPa 0,0 mm 2,6 km/h (1 Bft) O-NO 72 ° 1 min 0,000 mm 1,1 UV-I 230 W/m² -0,7 °C 5,8 °C 3,2 km/h (1 Bft)
29.01.2017 14:56 5,8 °C 5,8 °C 63 % 1023,2 hPa 0,0 mm 3,1 km/h (1 Bft) O-SO 112 ° 1 min 0,000 mm 1,1 UV-I 243 W/m² -0,7 °C 5,8 °C 4,8 km/h (1 Bft)
29.01.2017 14:57 5,8 °C 5,8 °C 63 % 1023,2 hPa 0,0 mm 2,5 km/h (1 Bft) O-SO 112 ° 1 min 0,000 mm 1,1 UV-I 248 W/m² -0,7 °C 5,8 °C 4,8 km/h (1 Bft)
29.01.2017 14:58 5,9 °C 5,9 °C 62 % 1023,2 hPa 0,0 mm 2,4 km/h (1 Bft) O-SO 115 ° 1 min 0,000 mm 1,1 UV-I 246 W/m² -0,8 °C 5,9 °C 4,8 km/h (1 Bft)
29.01.2017 14:59 6,1 °C 6,1 °C 62 % 1023,2 hPa 0,0 mm 1,0 km/h (0 Bft) O-SO 115 ° 1 min 0,000 mm 1,0 UV-I 246 W/m² -0,6 °C 6,1 °C 1,6 km/h (1 Bft)
29.01.2017 15:00 6,0 °C 6,1 °C 61 % 1023,2 hPa 0,0 mm 2,1 km/h (1 Bft) O 91 ° 1 min 0,102 mm 1,0 UV-I 244 W/m² -0,9 °C 6,0 °C 4,8 km/h (1 Bft)
29.01.2017 15:01 5,5 °C 6,0 °C 61 % 1023,2 hPa 0,2 mm 2,6 km/h (1 Bft) O 91 ° 1 min 0,000 mm 1,0 UV-I 239 W/m² -1,4 °C 5,5 °C 4,8 km/h (1 Bft)
29.01.2017 15:02 5,2 °C 5,5 °C 63 % 1023,2 hPa 0,0 mm 1,2 km/h (1 Bft) O 91 ° 1 min 0,000 mm 1,0 UV-I 236 W/m² -1,3 °C 5,2 °C 3,2 km/h (1 Bft)
29.01.2017 15:03 5,3 °C 5,3 °C 64 % 1023,2 hPa 0,0 mm 1,5 km/h (1 Bft) O 91 ° 1 min 0,000 mm 1,0 UV-I 234 W/m² -0,9 °C 5,3 °C 3,2 km/h (1 Bft)
29.01.2017 15:04 5,4 °C 5,4 °C 64 % 1023,2 hPa 0,0 mm 2,1 km/h (1 Bft) O 91 ° 1 min 0,000 mm 1,0 UV-I 234 W/m² -0,9 °C 5,4 °C 3,2 km/h (1 Bft)
29.01.2017 15:05 5,4 °C 5,4 °C 64 % 1023,2 hPa 0,0 mm 2,5 km/h (1 Bft) O 91 ° 1 min 0,000 mm 0,9 UV-I 230 W/m² -0,9 °C 5,4 °C 3,2 km/h (1 Bft)
29.01.2017 15:06 5,6 °C 5,6 °C 64 % 1023,3 hPa 0,0 mm 1,5 km/h (1 Bft) O 91 ° 1 min 0,000 mm 0,9 UV-I 229 W/m² -0,7 °C 5,6 °C 3,2 km/h (1 Bft)
29.01.2017 15:07 5,6 °C 5,6 °C 63 % 1023,2 hPa 0,0 mm 1,2 km/h (1 Bft) O 91 ° 1 min 0,000 mm 0,9 UV-I 223 W/m² -0,9 °C 5,6 °C 3,2 km/h (1 Bft)
29.01.2017 15:08 5,7 °C 5,7 °C 64 % 1023,2 hPa 0,0 mm 1,6 km/h (1 Bft) O 91 ° 1 min 0,000 mm 0,9 UV-I 221 W/m² -0,6 °C 5,7 °C 3,2 km/h (1 Bft)
29.01.2017 15:09 5,7 °C 5,7 °C 63 % 1023,2 hPa 0,0 mm 2,1 km/h (1 Bft) O 91 ° 1 min 0,000 mm 0,9 UV-I 218 W/m² -0,8 °C 5,7 °C 3,2 km/h (1 Bft)
29.01.2017 15:10 5,8 °C 5,8 °C 63 % 1023,2 hPa 0,0 mm 1,7 km/h (1 Bft) O 91 ° 1 min 0,000 mm 0,9 UV-I 216 W/m² -0,7 °C 5,8 °C 3,2 km/h (1 Bft)
29.01.2017 15:11 5,9 °C 5,9 °C 63 % 1023,2 hPa 0,0 mm 0,5 km/h (0 Bft) O 91 ° 1 min 0,000 mm 0,9 UV-I 216 W/m² -0,6 °C 5,9 °C 1,6 km/h (1 Bft)
29.01.2017 15:12 5,9 °C 5,9 °C 63 % 1023,2 hPa 0,0 mm 1,9 km/h (1 Bft) O 91 ° 1 min 0,000 mm 0,9 UV-I 211 W/m² -0,6 °C 5,9 °C 3,2 km/h (1 Bft)
29.01.2017 15:13 5,9 °C 5,9 °C 63 % 1023,2 hPa 0,0 mm 1,5 km/h (1 Bft) O 91 ° 1 min 0,000 mm 0,9 UV-I 209 W/m² -0,6 °C 5,9 °C 3,2 km/h (1 Bft)
29.01.2017 15:14 5,9 °C 5,9 °C 63 % 1023,2 hPa 0,0 mm 0,7 km/h (0 Bft) O 91 ° 1 min 0,000 mm 0,9 UV-I 207 W/m² -0,6 °C 5,9 °C 1,6 km/h (1 Bft)
29.01.2017 15:15 5,8 °C 5,9 °C 62 % 1023,2 hPa 0,0 mm 2,0 km/h (1 Bft) O 91 ° 1 min 0,000 mm 0,9 UV-I 207 W/m² -0,9 °C 5,8 °C 3,2 km/h (1 Bft)
29.01.2017 15:16 5,8 °C 5,8 °C 63 % 1023,2 hPa 0,2 mm 1,7 km/h (1 Bft) O 91 ° 1 min 0,000 mm 0,9 UV-I 204 W/m² -0,7 °C 5,8 °C 4,8 km/h (1 Bft)
29.01.2017 15:17 5,8 °C 5,9 °C 63 % 1023,2 hPa 0,0 mm 2,6 km/h (1 Bft) O 91 ° 1 min 0,000 mm 0,9 UV-I 202 W/m² -0,7 °C 5,8 °C 3,2 km/h (1 Bft)
29.01.2017 15:18 5,9 °C 5,9 °C 62 % 1023,2 hPa 0,0 mm 1,9 km/h (1 Bft) O 91 ° 0 min 0,000 mm 0,8 UV-I 199 W/m² -0,8 °C 5,9 °C 3,2 km/h (1 Bft)
29.01.2017 15:19 5,9 °C 5,9 °C 63 % 1023,2 hPa 0,0 mm 2,2 km/h (1 Bft) O 91 ° 0 min 0,000 mm 0,8 UV-I 195 W/m² -0,6 °C 5,9 °C 4,8 km/h (1 Bft)
29.01.2017 15:20 5,9 °C 5,9 °C 62 % 1023,2 hPa 0,0 mm 1,7 km/h (1 Bft) O 91 ° 0 min 0,000 mm 0,8 UV-I 193 W/m² -0,8 °C 5,9 °C 3,2 km/h (1 Bft)
29.01.2017 15:21 5,9 °C 5,9 °C 62 % 1023,2 hPa 0,0 mm 1,9 km/h (1 Bft) O 91 ° 0 min 0,000 mm 0,8 UV-I 190 W/m² -0,8 °C 5,9 °C 3,2 km/h (1 Bft)
29.01.2017 15:22 5,9 °C 5,9 °C 62 % 1023,2 hPa 0,0 mm 1,7 km/h (1 Bft) O 91 ° 0 min 0,000 mm 0,8 UV-I 188 W/m² -0,8 °C 5,9 °C 3,2 km/h (1 Bft)
29.01.2017 15:23 5,9 °C 5,9 °C 62 % 1023,3 hPa 0,0 mm 1,5 km/h (1 Bft) O 91 ° 0 min 0,000 mm 0,8 UV-I 186 W/m² -0,8 °C 5,9 °C 3,2 km/h (1 Bft)
29.01.2017 15:24 6,0 °C 6,0 °C 62 % 1023,2 hPa 0,0 mm 1,5 km/h (1 Bft) O 91 ° 0 min 0,000 mm 0,8 UV-I 181 W/m² -0,7 °C 6,0 °C 3,2 km/h (1 Bft)
29.01.2017 15:25 5,8 °C 6,0 °C 61 % 1023,2 hPa 0,0 mm 1,7 km/h (1 Bft) O 91 ° 0 min 0,000 mm 0,8 UV-I 165 W/m² -1,1 °C 5,8 °C 3,2 km/h (1 Bft)
29.01.2017 15:26 5,7 °C 5,8 °C 63 % 1023,3 hPa 0,2 mm 2,1 km/h (1 Bft) O 91 ° 0 min 0,000 mm 0,8 UV-I 153 W/m² -0,8 °C 5,7 °C 4,8 km/h (1 Bft)
29.01.2017 15:27 5,6 °C 5,7 °C 63 % 1023,3 hPa 0,0 mm 2,2 km/h (1 Bft) O 91 ° 0 min 0,000 mm 0,8 UV-I 156 W/m² -0,9 °C 5,6 °C 3,2 km/h (1 Bft)
29.01.2017 15:28 5,6 °C 5,6 °C 64 % 1023,3 hPa 0,0 mm 1,7 km/h (1 Bft) O 91 ° 0 min 0,000 mm 0,7 UV-I 162 W/m² -0,7 °C 5,6 °C 3,2 km/h (1 Bft)
29.01.2017 15:29 5,6 °C 5,6 °C 64 % 1023,3 hPa 0,0 mm 2,1 km/h (1 Bft) O 91 ° 0 min 0,000 mm 0,7 UV-I 162 W/m² -0,7 °C 5,6 °C 3,2 km/h (1 Bft)
29.01.2017 15:30 5,6 °C 5,6 °C 64 % 1023,3 hPa 0,0 mm 1,8 km/h (1 Bft) O 91 ° 0 min 0,000 mm 0,7 UV-I 142 W/m² -0,7 °C 5,6 °C 3,2 km/h (1 Bft)
29.01.2017 15:31 5,6 °C 5,6 °C 64 % 1023,2 hPa 0,0 mm 1,8 km/h (1 Bft) O 91 ° 0 min 0,000 mm 0,7 UV-I 114 W/m² -0,7 °C 5,6 °C 3,2 km/h (1 Bft)
29.01.2017 15:32 5,7 °C 5,7 °C 64 % 1023,3 hPa 0,0 mm 1,7 km/h (1 Bft) O 91 ° 0 min 0,000 mm 0,7 UV-I 98 W/m² -0,6 °C 5,7 °C 3,2 km/h (1 Bft)
29.01.2017 15:33 5,8 °C 5,8 °C 63 % 1023,3 hPa 0,0 mm 2,3 km/h (1 Bft) O 91 ° 0 min 0,000 mm 0,7 UV-I 95 W/m² -0,7 °C 5,8 °C 3,2 km/h (1 Bft)
29.01.2017 15:34 5,8 °C 5,8 °C 63 % 1023,3 hPa 0,0 mm 2,5 km/h (1 Bft) O 91 ° 0 min 0,000 mm 0,7 UV-I 98 W/m² -0,7 °C 5,8 °C 3,2 km/h (1 Bft)
29.01.2017 15:35 5,8 °C 5,9 °C 63 % 1023,3 hPa 0,0 mm 2,5 km/h (1 Bft) O 91 ° 0 min 0,000 mm 0,7 UV-I 54 W/m² -0,7 °C 5,8 °C 3,2 km/h (1 Bft)
29.01.2017 15:36 5,9 °C 5,9 °C 63 % 1023,3 hPa 0,0 mm 0,6 km/h (0 Bft) O 91 ° 0 min 0,000 mm 0,0 UV-I 39 W/m² -0,6 °C 5,9 °C 1,6 km/h (1 Bft)
29.01.2017 15:37 5,9 °C 5,9 °C 63 % 1023,3 hPa 0,0 mm 2,1 km/h (1 Bft) O 91 ° 0 min 0,000 mm 0,0 UV-I 26 W/m² -0,6 °C 5,9 °C 3,2 km/h (1 Bft)
29.01.2017 15:38 5,9 °C 5,9 °C 63 % 1023,3 hPa 0,0 mm 2,2 km/h (1 Bft) O 91 ° 0 min 0,000 mm 0,0 UV-I 23 W/m² -0,6 °C 5,9 °C 3,2 km/h (1 Bft)
29.01.2017 15:39 5,8 °C 5,9 °C 64 % 1023,3 hPa 0,0 mm 2,6 km/h (1 Bft) O 91 ° 0 min 0,000 mm 0,0 UV-I 25 W/m² -0,5 °C 5,8 °C 4,8 km/h (1 Bft)
29.01.2017 15:40 5,8 °C 5,8 °C 64 % 1023,3 hPa 0,0 mm 1,9 km/h (1 Bft) O 91 ° 0 min 0,000 mm 0,0 UV-I 26 W/m² -0,5 °C 5,8 °C 3,2 km/h (1 Bft)
29.01.2017 15:41 5,8 °C 5,8 °C 64 % 1023,3 hPa 0,2 mm 1,7 km/h (1 Bft) O 91 ° 0 min 0,000 mm 0,0 UV-I 23 W/m² -0,5 °C 5,8 °C 3,2 km/h (1 Bft)
29.01.2017 15:42 5,7 °C 5,8 °C 64 % 1023,3 hPa 0,0 mm 2,5 km/h (1 Bft) O 91 ° 0 min 0,000 mm 0,0 UV-I 23 W/m² -0,6 °C 5,7 °C 3,2 km/h (1 Bft)
29.01.2017 15:43 5,7 °C 5,7 °C 64 % 1023,3 hPa 0,0 mm 1,9 km/h (1 Bft) O 91 ° 0 min 0,000 mm 0,0 UV-I 23 W/m² -0,6 °C 5,7 °C 3,2 km/h (1 Bft)
29.01.2017 15:44 5,7 °C 5,7 °C 64 % 1023,3 hPa 0,0 mm 2,4 km/h (1 Bft) O 91 ° 0 min 0,000 mm 0,0 UV-I 23 W/m² -0,6 °C 5,7 °C 3,2 km/h (1 Bft)
29.01.2017 15:45 5,8 °C 5,8 °C 64 % 1023,3 hPa 0,0 mm 2,4 km/h (1 Bft) O 91 ° 0 min 0,000 mm 0,0 UV-I 23 W/m² -0,5 °C 5,8 °C 3,2 km/h (1 Bft)
29.01.2017 15:46 5,8 °C 5,8 °C 64 % 1023,3 hPa 0,0 mm 3,1 km/h (1 Bft) O 92 ° 0 min 0,000 mm 0,0 UV-I 23 W/m² -0,5 °C 5,8 °C 4,8 km/h (1 Bft)
29.01.2017 15:47 5,7 °C 5,8 °C 64 % 1023,3 hPa 0,0 mm 2,9 km/h (1 Bft) O 91 ° 0 min 0,000 mm 0,0 UV-I 23 W/m² -0,6 °C 5,7 °C 4,8 km/h (1 Bft)
29.01.2017 15:48 5,7 °C 5,8 °C 64 % 1023,3 hPa 0,0 mm 1,7 km/h (1 Bft) O 91 ° 0 min 0,000 mm 0,0 UV-I 23 W/m² -0,6 °C 5,7 °C 3,2 km/h (1 Bft)
29.01.2017 15:49 5,7 °C 5,7 °C 64 % 1023,3 hPa 0,0 mm 2,5 km/h (1 Bft) O 92 ° 0 min 0,000 mm 0,0 UV-I 23 W/m² -0,6 °C 5,7 °C 4,8 km/h (1 Bft)
29.01.2017 15:50 5,6 °C 5,7 °C 64 % 1023,4 hPa 0,0 mm 2,5 km/h (1 Bft) O 92 ° 0 min 0,000 mm 0,0 UV-I 21 W/m² -0,7 °C 5,6 °C 3,2 km/h (1 Bft)
29.01.2017 15:51 5,6 °C 5,7 °C 64 % 1023,4 hPa 0,0 mm 2,2 km/h (1 Bft) O 92 ° 0 min 0,000 mm 0,0 UV-I 21 W/m² -0,7 °C 5,6 °C 3,2 km/h (1 Bft)
29.01.2017 15:52 5,6 °C 5,6 °C 64 % 1023,3 hPa 0,0 mm 1,7 km/h (1 Bft) O 92 ° 0 min 0,000 mm 0,0 UV-I 21 W/m² -0,7 °C 5,6 °C 3,2 km/h (1 Bft)
29.01.2017 15:53 5,4 °C 5,6 °C 64 % 1023,4 hPa 0,0 mm 1,7 km/h (1 Bft) O 92 ° 0 min 0,000 mm 0,0 UV-I 21 W/m² -0,9 °C 5,4 °C 3,2 km/h (1 Bft)
29.01.2017 15:54 5,4 °C 5,4 °C 65 % 1023,4 hPa 0,0 mm 2,6 km/h (1 Bft) O 92 ° 0 min 0,000 mm 0,0 UV-I 21 W/m² -0,6 °C 5,4 °C 3,2 km/h (1 Bft)
29.01.2017 15:55 5,4 °C 5,4 °C 65 % 1023,4 hPa 0,0 mm 2,1 km/h (1 Bft) O 92 ° 0 min 0,000 mm 0,0 UV-I 21 W/m² -0,6 °C 5,4 °C 3,2 km/h (1 Bft)
29.01.2017 15:56 5,4 °C 5,4 °C 65 % 1023,3 hPa 0,0 mm 2,7 km/h (1 Bft) O 92 ° 0 min 0,000 mm 0,0 UV-I 21 W/m² -0,6 °C 5,4 °C 3,2 km/h (1 Bft)
29.01.2017 15:57 5,4 °C 5,5 °C 65 % 1023,4 hPa 0,0 mm 2,4 km/h (1 Bft) O 92 ° 0 min 0,000 mm 0,0 UV-I 21 W/m² -0,6 °C 5,4 °C 3,2 km/h (1 Bft)
29.01.2017 15:58 5,5 °C 5,5 °C 65 % 1023,4 hPa 0,0 mm 2,9 km/h (1 Bft) O 92 ° 0 min 0,000 mm 0,0 UV-I 21 W/m² -0,5 °C 5,5 °C 3,2 km/h (1 Bft)
29.01.2017 15:59 5,5 °C 5,5 °C 65 % 1023,4 hPa 0,0 mm 2,0 km/h (1 Bft) O 92 ° 0 min 0,000 mm 0,0 UV-I 21 W/m² -0,5 °C 5,5 °C 3,2 km/h (1 Bft)
29.01.2017 16:00 5,6 °C 5,6 °C 65 % 1023,4 hPa 0,0 mm 2,5 km/h (1 Bft) O 92 ° 0 min 0,050 mm 0,0 UV-I 21 W/m² -0,4 °C 5,6 °C 4,8 km/h (1 Bft)
29.01.2017 16:01 5,6 °C 5,6 °C 65 % 1023,4 hPa 0,0 mm 1,9 km/h (1 Bft) O 92 ° 0 min 0,000 mm 0,0 UV-I 21 W/m² -0,4 °C 5,6 °C 3,2 km/h (1 Bft)
29.01.2017 16:02 5,6 °C 5,6 °C 65 % 1023,4 hPa 0,0 mm 1,2 km/h (1 Bft) O 92 ° 0 min 0,000 mm 0,0 UV-I 21 W/m² -0,4 °C 5,6 °C 3,2 km/h (1 Bft)
29.01.2017 16:03 5,6 °C 5,6 °C 65 % 1023,4 hPa 0,0 mm 1,8 km/h (1 Bft) O 92 ° 0 min 0,000 mm 0,0 UV-I 21 W/m² -0,4 °C 5,6 °C 3,2 km/h (1 Bft)
29.01.2017 16:04 5,5 °C 5,6 °C 65 % 1023,5 hPa 0,0 mm 2,5 km/h (1 Bft) O 92 ° 0 min 0,000 mm 0,0 UV-I 21 W/m² -0,5 °C 5,5 °C 3,2 km/h (1 Bft)
29.01.2017 16:05 5,5 °C 5,5 °C 65 % 1023,4 hPa 0,0 mm 2,2 km/h (1 Bft) O 92 ° 0 min 0,000 mm 0,0 UV-I 19 W/m² -0,5 °C 5,5 °C 3,2 km/h (1 Bft)
29.01.2017 16:06 5,4 °C 5,5 °C 65 % 1023,4 hPa 0,0 mm 2,3 km/h (1 Bft) O 92 ° 0 min 0,000 mm 0,0 UV-I 19 W/m² -0,6 °C 5,4 °C 3,2 km/h (1 Bft)
29.01.2017 16:07 5,5 °C 5,5 °C 65 % 1023,4 hPa 0,0 mm 2,4 km/h (1 Bft) O 92 ° 0 min 0,000 mm 0,0 UV-I 19 W/m² -0,5 °C 5,5 °C 3,2 km/h (1 Bft)
29.01.2017 16:08 5,4 °C 5,5 °C 65 % 1023,4 hPa 0,0 mm 1,5 km/h (1 Bft) O 92 ° 0 min 0,000 mm 0,0 UV-I 19 W/m² -0,6 °C 5,4 °C 3,2 km/h (1 Bft)
29.01.2017 16:09 5,4 °C 5,4 °C 65 % 1023,4 hPa 0,0 mm 2,2 km/h (1 Bft) O 92 ° 0 min 0,000 mm 0,0 UV-I 19 W/m² -0,6 °C 5,4 °C 3,2 km/h (1 Bft)
29.01.2017 16:10 5,4 °C 5,4 °C 65 % 1023,4 hPa 0,0 mm 2,5 km/h (1 Bft) O 92 ° 0 min 0,000 mm 0,0 UV-I 19 W/m² -0,6 °C 5,4 °C 3,2 km/h (1 Bft)
29.01.2017 16:11 5,4 °C 5,4 °C 65 % 1023,4 hPa 0,0 mm 2,4 km/h (1 Bft) O 92 ° 0 min 0,000 mm 0,0 UV-I 19 W/m² -0,6 °C 5,4 °C 3,2 km/h (1 Bft)
29.01.2017 16:12 5,4 °C 5,4 °C 65 % 1023,4 hPa 0,0 mm 2,4 km/h (1 Bft) O 92 ° 0 min 0,000 mm 0,0 UV-I 19 W/m² -0,6 °C 5,4 °C 3,2 km/h (1 Bft)
29.01.2017 16:13 5,3 °C 5,4 °C 65 % 1023,4 hPa 0,0 mm 2,3 km/h (1 Bft) O 92 ° 0 min 0,000 mm 0,0 UV-I 19 W/m² -0,7 °C 5,3 °C 3,2 km/h (1 Bft)
29.01.2017 16:14 5,3 °C 5,3 °C 66 % 1023,4 hPa 0,0 mm 2,1 km/h (1 Bft) O 92 ° 0 min 0,000 mm 0,0 UV-I 19 W/m² -0,5 °C 5,3 °C 3,2 km/h (1 Bft)
29.01.2017 16:15 5,3 °C 5,3 °C 66 % 1023,4 hPa 0,0 mm 2,0 km/h (1 Bft) O 92 ° 0 min 0,000 mm 0,0 UV-I 19 W/m² -0,5 °C 5,3 °C 3,2 km/h (1 Bft)
29.01.2017 16:16 5,3 °C 5,3 °C 66 % 1023,5 hPa 0,0 mm 2,4 km/h (1 Bft) O 92 ° 0 min 0,000 mm 0,0 UV-I 18 W/m² -0,5 °C 5,3 °C 4,8 km/h (1 Bft)
29.01.2017 16:17 5,2 °C 5,3 °C 66 % 1023,5 hPa 0,0 mm 2,1 km/h (1 Bft) O 92 ° 0 min 0,000 mm 0,0 UV-I 18 W/m² -0,6 °C 5,2 °C 3,2 km/h (1 Bft)
29.01.2017 16:18 5,2 °C 5,2 °C 66 % 1023,5 hPa 0,0 mm 3,0 km/h (1 Bft) O 92 ° 0 min 0,000 mm 0,0 UV-I 18 W/m² -0,6 °C 5,2 °C 4,8 km/h (1 Bft)
29.01.2017 16:19 5,2 °C 5,2 °C 66 % 1023,4 hPa 0,0 mm 3,2 km/h (1 Bft) O 92 ° 0 min 0,000 mm 0,0 UV-I 18 W/m² -0,6 °C 5,2 °C 3,2 km/h (1 Bft)
29.01.2017 16:20 5,2 °C 5,2 °C 66 % 1023,4 hPa 0,0 mm 2,2 km/h (1 Bft) O 92 ° 0 min 0,000 mm 0,0 UV-I 18 W/m² -0,6 °C 5,2 °C 3,2 km/h (1 Bft)
29.01.2017 16:21 5,2 °C 5,2 °C 66 % 1023,5 hPa 0,0 mm 2,3 km/h (1 Bft) O 92 ° 0 min 0,000 mm 0,0 UV-I 18 W/m² -0,6 °C 5,2 °C 4,8 km/h (1 Bft)
29.01.2017 16:22 5,2 °C 5,2 °C 66 % 1023,5 hPa 0,0 mm 2,1 km/h (1 Bft) O 92 ° 0 min 0,000 mm 0,0 UV-I 18 W/m² -0,6 °C 5,2 °C 3,2 km/h (1 Bft)
29.01.2017 16:23 5,2 °C 5,2 °C 66 % 1023,5 hPa 0,0 mm 2,5 km/h (1 Bft) O 92 ° 0 min 0,000 mm 0,0 UV-I 18 W/m² -0,6 °C 5,2 °C 3,2 km/h (1 Bft)
29.01.2017 16:24 5,2 °C 5,2 °C 66 % 1023,5 hPa 0,0 mm 3,2 km/h (1 Bft) O 92 ° 0 min 0,000 mm 0,0 UV-I 18 W/m² -0,6 °C 5,2 °C 4,8 km/h (1 Bft)
29.01.2017 16:25 5,2 °C 5,2 °C 66 % 1023,5 hPa 0,0 mm 3,3 km/h (1 Bft) O 92 ° 0 min 0,000 mm 0,0 UV-I 16 W/m² -0,6 °C 5,2 °C 4,8 km/h (1 Bft)
29.01.2017 16:26 5,1 °C 5,2 °C 67 % 1023,5 hPa 0,0 mm 2,7 km/h (1 Bft) O 92 ° 0 min 0,000 mm 0,0 UV-I 16 W/m² -0,5 °C 5,1 °C 3,2 km/h (1 Bft)
29.01.2017 16:27 5,1 °C 5,1 °C 67 % 1023,4 hPa 0,0 mm 2,8 km/h (1 Bft) O 92 ° 0 min 0,000 mm 0,0 UV-I 16 W/m² -0,5 °C 5,1 °C 3,2 km/h (1 Bft)
29.01.2017 16:28 5,1 °C 5,1 °C 67 % 1023,5 hPa 0,0 mm 2,2 km/h (1 Bft) O 92 ° 0 min 0,000 mm 0,0 UV-I 16 W/m² -0,5 °C 5,1 °C 3,2 km/h (1 Bft)
29.01.2017 16:29 5,1 °C 5,1 °C 67 % 1023,5 hPa 0,0 mm 1,9 km/h (1 Bft) O 92 ° 0 min 0,000 mm 0,0 UV-I 16 W/m² -0,5 °C 5,1 °C 3,2 km/h (1 Bft)
29.01.2017 16:30 5,1 °C 5,1 °C 67 % 1023,5 hPa 0,0 mm 2,3 km/h (1 Bft) O 92 ° 0 min 0,000 mm 0,0 UV-I 16 W/m² -0,5 °C 5,1 °C 3,2 km/h (1 Bft)
29.01.2017 16:31 5,1 °C 5,1 °C 67 % 1023,4 hPa 0,2 mm 2,9 km/h (1 Bft) O 92 ° 0 min 0,000 mm 0,0 UV-I 16 W/m² -0,5 °C 5,1 °C 3,2 km/h (1 Bft)
29.01.2017 16:32 5,0 °C 5,1 °C 67 % 1023,5 hPa 0,0 mm 3,2 km/h (1 Bft) O 92 ° 0 min 0,000 mm 0,0 UV-I 16 W/m² -0,6 °C 5,0 °C 3,2 km/h (1 Bft)
29.01.2017 16:33 4,9 °C 5,0 °C 67 % 1023,5 hPa 0,0 mm 3,4 km/h (1 Bft) O 92 ° 0 min 0,000 mm 0,0 UV-I 16 W/m² -0,7 °C 4,9 °C 4,8 km/h (1 Bft)
29.01.2017 16:34 4,9 °C 4,9 °C 67 % 1023,5 hPa 0,0 mm 3,4 km/h (1 Bft) O 92 ° 0 min 0,000 mm 0,0 UV-I 14 W/m² -0,7 °C 4,9 °C 4,8 km/h (1 Bft)
29.01.2017 16:35 4,9 °C 4,9 °C 67 % 1023,5 hPa 0,0 mm 3,2 km/h (1 Bft) O 92 ° 0 min 0,000 mm 0,0 UV-I 14 W/m² -0,7 °C 4,9 °C 3,2 km/h (1 Bft)
29.01.2017 16:36 4,9 °C 4,9 °C 67 % 1023,5 hPa 0,0 mm 3,0 km/h (1 Bft) O 92 ° 0 min 0,000 mm 0,0 UV-I 14 W/m² -0,7 °C 4,9 °C 3,2 km/h (1 Bft)
29.01.2017 16:37 4,9 °C 4,9 °C 67 % 1023,5 hPa 0,0 mm 3,6 km/h (1 Bft) O 92 ° 0 min 0,000 mm 0,0 UV-I 14 W/m² -0,7 °C 4,9 °C 4,8 km/h (1 Bft)
29.01.2017 16:38 4,8 °C 4,9 °C 67 % 1023,5 hPa 0,0 mm 4,0 km/h (1 Bft) O 92 ° 0 min 0,000 mm 0,0 UV-I 14 W/m² -0,8 °C 4,8 °C 4,8 km/h (1 Bft)
29.01.2017 16:39 4,8 °C 4,8 °C 68 % 1023,5 hPa 0,0 mm 3,8 km/h (1 Bft) O 92 ° 0 min 0,000 mm 0,0 UV-I 14 W/m² -0,6 °C 4,8 °C 4,8 km/h (1 Bft)
29.01.2017 16:40 4,8 °C 4,8 °C 68 % 1023,5 hPa 0,0 mm 4,3 km/h (1 Bft) O 92 ° 0 min 0,000 mm 0,0 UV-I 14 W/m² -0,6 °C 4,8 °C 4,8 km/h (1 Bft)
29.01.2017 16:41 4,8 °C 4,8 °C 68 % 1023,4 hPa 0,0 mm 3,7 km/h (1 Bft) O 92 ° 0 min 0,000 mm 0,0 UV-I 12 W/m² -0,6 °C 4,8 °C 4,8 km/h (1 Bft)
29.01.2017 16:42 4,8 °C 4,8 °C 68 % 1023,4 hPa 0,0 mm 3,6 km/h (1 Bft) O 92 ° 0 min 0,000 mm 0,0 UV-I 12 W/m² -0,6 °C 4,8 °C 4,8 km/h (1 Bft)
29.01.2017 16:43 4,7 °C 4,8 °C 68 % 1023,4 hPa 0,0 mm 4,1 km/h (1 Bft) O 92 ° 0 min 0,000 mm 0,0 UV-I 12 W/m² -0,7 °C 4,7 °C 4,8 km/h (1 Bft)
29.01.2017 16:44 4,7 °C 4,7 °C 68 % 1023,4 hPa 0,0 mm 3,7 km/h (1 Bft) O 92 ° 0 min 0,000 mm 0,0 UV-I 12 W/m² -0,7 °C 4,7 °C 4,8 km/h (1 Bft)
29.01.2017 16:45 4,6 °C 4,7 °C 68 % 1023,4 hPa 0,0 mm 4,2 km/h (1 Bft) O 92 ° 0 min 0,000 mm 0,0 UV-I 12 W/m² -0,8 °C 4,6 °C 4,8 km/h (1 Bft)
29.01.2017 16:46 4,6 °C 4,6 °C 68 % 1023,4 hPa 0,0 mm 4,5 km/h (1 Bft) O 92 ° 0 min 0,000 mm 0,0 UV-I 12 W/m² -0,8 °C 4,6 °C 6,4 km/h (2 Bft)
29.01.2017 16:47 4,6 °C 4,6 °C 69 % 1023,5 hPa 0,0 mm 3,6 km/h (1 Bft) O 92 ° 0 min 0,000 mm 0,0 UV-I 12 W/m² -0,6 °C 4,6 °C 4,8 km/h (1 Bft)
29.01.2017 16:48 4,5 °C 4,6 °C 69 % 1023,5 hPa 0,0 mm 3,2 km/h (1 Bft) O 92 ° 0 min 0,000 mm 0,0 UV-I 12 W/m² -0,7 °C 4,5 °C 4,8 km/h (1 Bft)
29.01.2017 16:49 4,5 °C 4,5 °C 69 % 1023,5 hPa 0,0 mm 3,6 km/h (1 Bft) O 92 ° 0 min 0,000 mm 0,0 UV-I 11 W/m² -0,7 °C 4,5 °C 4,8 km/h (1 Bft)
29.01.2017 16:50 4,4 °C 4,5 °C 69 % 1023,5 hPa 0,0 mm 3,0 km/h (1 Bft) O 92 ° 0 min 0,000 mm 0,0 UV-I 11 W/m² -0,8 °C 4,4 °C 4,8 km/h (1 Bft)
29.01.2017 16:51 4,4 °C 4,4 °C 69 % 1023,6 hPa 0,0 mm 3,1 km/h (1 Bft) O 92 ° 0 min 0,000 mm 0,0 UV-I 11 W/m² -0,8 °C 4,4 °C 4,8 km/h (1 Bft)
29.01.2017 16:52 4,4 °C 4,4 °C 69 % 1023,5 hPa 0,0 mm 2,7 km/h (1 Bft) O 92 ° 0 min 0,000 mm 0,0 UV-I 11 W/m² -0,8 °C 4,4 °C 4,8 km/h (1 Bft)
29.01.2017 16:53 4,3 °C 4,4 °C 69 % 1023,6 hPa 0,0 mm 2,3 km/h (1 Bft) O 92 ° 0 min 0,000 mm 0,0 UV-I 11 W/m² -0,9 °C 4,3 °C 3,2 km/h (1 Bft)
29.01.2017 16:54 4,3 °C 4,3 °C 70 % 1023,6 hPa 0,0 mm 1,9 km/h (1 Bft) O 92 ° 0 min 0,000 mm 0,0 UV-I 9 W/m² -0,7 °C 4,3 °C 3,2 km/h (1 Bft)
29.01.2017 16:55 4,3 °C 4,3 °C 70 % 1023,5 hPa 0,0 mm 1,0 km/h (0 Bft) O 92 ° 0 min 0,000 mm 0,0 UV-I 9 W/m² -0,7 °C 4,3 °C 3,2 km/h (1 Bft)
29.01.2017 16:56 4,2 °C 4,3 °C 70 % 1023,6 hPa 0,0 mm 0,6 km/h (0 Bft) O 92 ° 0 min 0,000 mm 0,0 UV-I 9 W/m² -0,8 °C 4,2 °C 1,6 km/h (1 Bft)
29.01.2017 16:57 4,1 °C 4,2 °C 67 % 1023,5 hPa 0,0 mm 0,7 km/h (0 Bft) O 92 ° 0 min 0,000 mm 0,0 UV-I 9 W/m² -1,5 °C 4,1 °C 1,6 km/h (1 Bft)
29.01.2017 16:58 3,7 °C 4,1 °C 68 % 1023,5 hPa 0,0 mm 0,5 km/h (0 Bft) O 92 ° 0 min 0,000 mm 0,0 UV-I 9 W/m² -1,6 °C 3,7 °C 1,6 km/h (1 Bft)
29.01.2017 16:59 3,3 °C 3,7 °C 69 % 1023,6 hPa 0,0 mm 0,9 km/h (0 Bft) O 92 ° 0 min 0,000 mm 0,0 UV-I 7 W/m² -1,8 °C 3,3 °C 1,6 km/h (1 Bft)
29.01.2017 17:00 3,0 °C 3,3 °C 71 % 1023,6 hPa 0,0 mm 0,2 km/h (0 Bft) O 92 ° 0 min 0,026 mm 0,0 UV-I 7 W/m² -1,7 °C 3,0 °C 1,6 km/h (1 Bft)
29.01.2017 17:01 2,7 °C 3,0 °C 72 % 1023,6 hPa 0,0 mm 0,1 km/h (0 Bft) O 92 ° 0 min 0,000 mm 0,0 UV-I 7 W/m² -1,8 °C 2,7 °C 1,6 km/h (1 Bft)
29.01.2017 17:02 2,6 °C 2,7 °C 73 % 1023,6 hPa 0,0 mm 0,0 km/h (0 Bft) O 92 ° 0 min 0,000 mm 0,0 UV-I 7 W/m² -1,7 °C 2,6 °C 0,0 km/h (0 Bft)
29.01.2017 17:03 2,4 °C 2,6 °C 74 % 1023,6 hPa 0,0 mm 0,0 km/h (0 Bft) O 92 ° 0 min 0,000 mm 0,0 UV-I 7 W/m² -1,7 °C 2,4 °C 0,0 km/h (0 Bft)
29.01.2017 17:04 2,3 °C 2,4 °C 75 % 1023,6 hPa 0,0 mm 0,0 km/h (0 Bft) O 92 ° 0 min 0,000 mm 0,0 UV-I 5 W/m² -1,7 °C 2,3 °C 0,0 km/h (0 Bft)
29.01.2017 17:05 2,3 °C 2,3 °C 76 % 1023,6 hPa 0,0 mm 0,0 km/h (0 Bft) O 92 ° 0 min 0,000 mm 0,0 UV-I 5 W/m² -1,5 °C 2,3 °C 0,0 km/h (0 Bft)
29.01.2017 17:06 2,3 °C 2,3 °C 76 % 1023,7 hPa 0,0 mm 0,0 km/h (0 Bft) O 92 ° 0 min 0,000 mm 0,0 UV-I 5 W/m² -1,5 °C 2,3 °C 0,0 km/h (0 Bft)
29.01.2017 17:07 2,3 °C 2,3 °C 76 % 1023,6 hPa 0,0 mm 0,0 km/h (0 Bft) O 92 ° 0 min 0,000 mm 0,0 UV-I 5 W/m² -1,5 °C 2,3 °C 0,0 km/h (0 Bft)
29.01.2017 17:08 2,3 °C 2,3 °C 76 % 1023,6 hPa 0,0 mm 1,5 km/h (1 Bft) O 92 ° 0 min 0,000 mm 0,0 UV-I 5 W/m² -1,5 °C 2,3 °C 3,2 km/h (1 Bft)
29.01.2017 17:09 2,3 °C 2,3 °C 76 % 1023,7 hPa 0,0 mm 2,6 km/h (1 Bft) O 92 ° 0 min 0,000 mm 0,0 UV-I 5 W/m² -1,5 °C 2,3 °C 3,2 km/h (1 Bft)
29.01.2017 17:10 2,4 °C 2,4 °C 76 % 1023,7 hPa 0,0 mm 3,6 km/h (1 Bft) O 92 ° 0 min 0,000 mm 0,0 UV-I 5 W/m² -1,4 °C 2,4 °C 4,8 km/h (1 Bft)
29.01.2017 17:11 2,6 °C 2,6 °C 76 % 1023,7 hPa 0,0 mm 2,8 km/h (1 Bft) O 92 ° 0 min 0,000 mm 0,0 UV-I 0 W/m² -1,2 °C 2,6 °C 3,2 km/h (1 Bft)
29.01.2017 17:12 2,6 °C 2,6 °C 76 % 1023,7 hPa 0,0 mm 3,6 km/h (1 Bft) O 92 ° 0 min 0,000 mm 0,0 UV-I 0 W/m² -1,2 °C 2,6 °C 4,8 km/h (1 Bft)
29.01.2017 17:13 2,7 °C 2,7 °C 75 % 1023,7 hPa 0,0 mm 3,7 km/h (1 Bft) O 92 ° 0 min 0,000 mm 0,0 UV-I 0 W/m² -1,3 °C 2,7 °C 4,8 km/h (1 Bft)
29.01.2017 17:14 2,8 °C 2,8 °C 75 % 1023,7 hPa 0,0 mm 3,6 km/h (1 Bft) O 92 ° 0 min 0,000 mm 0,0 UV-I 0 W/m² -1,2 °C 2,8 °C 4,8 km/h (1 Bft)
29.01.2017 17:15 2,8 °C 2,8 °C 75 % 1023,7 hPa 0,0 mm 2,8 km/h (1 Bft) O 92 ° 0 min 0,000 mm 0,0 UV-I 0 W/m² -1,2 °C 2,8 °C 4,8 km/h (1 Bft)
29.01.2017 17:16 2,9 °C 2,9 °C 74 % 1023,7 hPa 0,0 mm 0,7 km/h (0 Bft) O 92 ° 0 min 0,000 mm 0,0 UV-I 0 W/m² -1,3 °C 2,9 °C 1,6 km/h (1 Bft)
29.01.2017 17:17 2,9 °C 2,9 °C 75 % 1023,7 hPa 0,0 mm 0,0 km/h (0 Bft) O 92 ° 0 min 0,000 mm 0,0 UV-I 0 W/m² -1,1 °C 2,9 °C 0,0 km/h (0 Bft)
29.01.2017 17:18 2,9 °C 2,9 °C 73 % 1023,7 hPa 0,0 mm 0,8 km/h (0 Bft) O 92 ° 0 min 0,000 mm 0,0 UV-I 0 W/m² -1,5 °C 2,9 °C 1,6 km/h (1 Bft)
29.01.2017 17:19 2,9 °C 2,9 °C 72 % 1023,7 hPa 0,0 mm 0,6 km/h (0 Bft) O 92 ° 0 min 0,000 mm 0,0 UV-I 0 W/m² -1,6 °C 2,9 °C 1,6 km/h (1 Bft)
29.01.2017 17:20 2,9 °C 2,9 °C 72 % 1023,7 hPa 0,0 mm 0,3 km/h (0 Bft) O 92 ° 0 min 0,000 mm 0,0 UV-I 0 W/m² -1,6 °C 2,9 °C 1,6 km/h (1 Bft)
29.01.2017 17:21 2,9 °C 2,9 °C 72 % 1023,7 hPa 0,0 mm 0,6 km/h (0 Bft) O 92 ° 0 min 0,000 mm 0,0 UV-I 0 W/m² -1,6 °C 2,9 °C 1,6 km/h (1 Bft)
29.01.2017 17:22 2,9 °C 2,9 °C 72 % 1023,7 hPa 0,0 mm 0,6 km/h (0 Bft) O 92 ° 0 min 0,000 mm 0,0 UV-I 0 W/m² -1,6 °C 2,9 °C 1,6 km/h (1 Bft)
29.01.2017 17:23 2,9 °C 2,9 °C 71 % 1023,7 hPa 0,0 mm 1,2 km/h (1 Bft) O 92 ° 0 min 0,000 mm 0,0 UV-I 0 W/m² -1,8 °C 2,9 °C 1,6 km/h (1 Bft)
29.01.2017 17:24 2,8 °C 2,9 °C 71 % 1023,7 hPa 0,0 mm 1,4 km/h (1 Bft) O 92 ° 0 min 0,000 mm 0,0 UV-I 0 W/m² -1,9 °C 2,8 °C 3,2 km/h (1 Bft)
29.01.2017 17:25 2,8 °C 2,9 °C 71 % 1023,7 hPa 0,0 mm 0,9 km/h (0 Bft) O 92 ° 0 min 0,000 mm 0,0 UV-I 0 W/m² -1,9 °C 2,8 °C 1,6 km/h (1 Bft)
29.01.2017 17:26 2,8 °C 2,8 °C 71 % 1023,7 hPa 0,0 mm 0,1 km/h (0 Bft) O 92 ° 0 min 0,000 mm 0,0 UV-I 0 W/m² -1,9 °C 2,8 °C 1,6 km/h (1 Bft)
29.01.2017 17:27 2,7 °C 2,8 °C 72 % 1023,7 hPa 0,0 mm 0,1 km/h (0 Bft) O 92 ° 0 min 0,000 mm 0,0 UV-I 0 W/m² -1,8 °C 2,7 °C 1,6 km/h (1 Bft)
29.01.2017 17:28 2,7 °C 2,7 °C 72 % 1023,8 hPa 0,0 mm 1,5 km/h (1 Bft) O 92 ° 0 min 0,000 mm 0,0 UV-I 0 W/m² -1,8 °C 2,7 °C 3,2 km/h (1 Bft)
29.01.2017 17:29 2,6 °C 2,7 °C 72 % 1023,8 hPa 0,0 mm 1,7 km/h (1 Bft) O 92 ° 0 min 0,000 mm 0,0 UV-I 0 W/m² -1,9 °C 2,6 °C 3,2 km/h (1 Bft)
29.01.2017 17:30 2,6 °C 2,6 °C 73 % 1023,8 hPa 0,0 mm 2,3 km/h (1 Bft) S-SO 152 ° 0 min 0,000 mm 0,0 UV-I 0 W/m² -1,7 °C 2,6 °C 4,8 km/h (1 Bft)
29.01.2017 17:31 2,4 °C 2,6 °C 73 % 1023,8 hPa 0,0 mm 2,8 km/h (1 Bft) S-SO 152 ° 0 min 0,000 mm 0,0 UV-I 0 W/m² -1,9 °C 2,4 °C 4,8 km/h (1 Bft)
29.01.2017 17:32 2,4 °C 2,4 °C 74 % 1023,8 hPa 0,0 mm 2,7 km/h (1 Bft) S-SO 152 ° 0 min 0,000 mm 0,0 UV-I 0 W/m² -1,7 °C 2,4 °C 4,8 km/h (1 Bft)
29.01.2017 17:33 2,3 °C 2,4 °C 74 % 1023,8 hPa 0,0 mm 0,1 km/h (0 Bft) S-SO 152 ° 0 min 0,000 mm 0,0 UV-I 0 W/m² -1,8 °C 2,3 °C 1,6 km/h (1 Bft)
29.01.2017 17:34 2,3 °C 2,3 °C 73 % 1023,8 hPa 0,0 mm 0,5 km/h (0 Bft) S-SO 152 ° 0 min 0,000 mm 0,0 UV-I 0 W/m² -2,0 °C 2,3 °C 3,2 km/h (1 Bft)
29.01.2017 17:35 2,2 °C 2,3 °C 74 % 1023,9 hPa 0,0 mm 0,0 km/h (0 Bft) S-SO 152 ° 0 min 0,000 mm 0,0 UV-I 0 W/m² -1,9 °C 2,2 °C 0,0 km/h (0 Bft)
29.01.2017 17:36 2,2 °C 2,2 °C 73 % 1023,9 hPa 0,0 mm 0,0 km/h (0 Bft) S-SO 152 ° 0 min 0,000 mm 0,0 UV-I 0 W/m² -2,1 °C 2,2 °C 0,0 km/h (0 Bft)
29.01.2017 17:37 2,1 °C 2,2 °C 74 % 1023,9 hPa 0,0 mm 0,2 km/h (0 Bft) S-SO 152 ° 0 min 0,000 mm 0,0 UV-I 0 W/m² -2,0 °C 2,1 °C 1,6 km/h (1 Bft)
29.01.2017 17:38 2,1 °C 2,1 °C 74 % 1023,9 hPa 0,0 mm 2,0 km/h (1 Bft) S-SO 152 ° 0 min 0,000 mm 0,0 UV-I 0 W/m² -2,0 °C 2,1 °C 3,2 km/h (1 Bft)
29.01.2017 17:39 2,1 °C 2,1 °C 75 % 1023,9 hPa 0,0 mm 1,3 km/h (1 Bft) S-SO 152 ° 0 min 0,000 mm 0,0 UV-I 0 W/m² -1,9 °C 2,1 °C 3,2 km/h (1 Bft)
29.01.2017 17:40 2,0 °C 2,1 °C 75 % 1023,9 hPa 0,0 mm 0,0 km/h (0 Bft) S-SO 152 ° 0 min 0,000 mm 0,0 UV-I 0 W/m² -2,0 °C 2,0 °C 0,0 km/h (0 Bft)
29.01.2017 17:41 1,9 °C 2,0 °C 75 % 1024,0 hPa 0,0 mm 0,0 km/h (0 Bft) S-SO 152 ° 0 min 0,000 mm 0,0 UV-I 0 W/m² -2,1 °C 1,9 °C 0,0 km/h (0 Bft)
29.01.2017 17:42 1,9 °C 1,9 °C 75 % 1023,9 hPa 0,0 mm 0,0 km/h (0 Bft) S-SO 152 ° 0 min 0,000 mm 0,0 UV-I 0 W/m² -2,1 °C 1,9 °C 0,0 km/h (0 Bft)
29.01.2017 17:43 1,9 °C 1,9 °C 75 % 1024,0 hPa 0,0 mm 0,0 km/h (0 Bft) S-SO 152 ° 0 min 0,000 mm 0,0 UV-I 0 W/m² -2,1 °C 1,9 °C 0,0 km/h (0 Bft)
29.01.2017 17:44 1,8 °C 1,9 °C 75 % 1024,0 hPa 0,0 mm 0,1 km/h (0 Bft) S-SO 152 ° 0 min 0,000 mm 0,0 UV-I 0 W/m² -2,1 °C 1,8 °C 1,6 km/h (1 Bft)
29.01.2017 17:45 1,7 °C 1,8 °C 75 % 1024,0 hPa 0,0 mm 0,0 km/h (0 Bft) S-SO 152 ° 0 min 0,000 mm 0,0 UV-I 0 W/m² -2,2 °C 1,7 °C 0,0 km/h (0 Bft)
29.01.2017 17:46 1,7 °C 1,8 °C 76 % 1024,0 hPa 0,0 mm 1,9 km/h (1 Bft) S-SO 152 ° 0 min 0,000 mm 0,0 UV-I 0 W/m² -2,1 °C 1,7 °C 3,2 km/h (1 Bft)
29.01.2017 17:47 1,7 °C 1,7 °C 76 % 1024,0 hPa 0,0 mm 4,5 km/h (1 Bft) S-SO 163 ° 0 min 0,000 mm 0,0 UV-I 0 W/m² -2,1 °C 1,7 °C 8,0 km/h (2 Bft)
29.01.2017 17:48 1,7 °C 1,7 °C 76 % 1024,0 hPa 0,0 mm 6,0 km/h (2 Bft) S-SO 163 ° 0 min 0,000 mm 0,0 UV-I 0 W/m² -2,1 °C -0,1 °C 8,0 km/h (2 Bft)
29.01.2017 17:49 1,7 °C 1,7 °C 77 % 1024,0 hPa 0,0 mm 3,6 km/h (1 Bft) S-SO 163 ° 0 min 0,000 mm 0,0 UV-I 0 W/m² -1,9 °C 1,7 °C 6,4 km/h (2 Bft)
29.01.2017 17:50 1,6 °C 1,7 °C 77 % 1024,0 hPa 0,0 mm 2,4 km/h (1 Bft) S-SO 163 ° 0 min 0,000 mm 0,0 UV-I 0 W/m² -2,0 °C 1,6 °C 3,2 km/h (1 Bft)
29.01.2017 17:51 1,6 °C 1,6 °C 77 % 1024,0 hPa 0,0 mm 3,0 km/h (1 Bft) S-SO 163 ° 0 min 0,000 mm 0,0 UV-I 0 W/m² -2,0 °C 1,6 °C 3,2 km/h (1 Bft)
29.01.2017 17:52 1,6 °C 1,6 °C 77 % 1024,0 hPa 0,0 mm 3,2 km/h (1 Bft) S-SO 163 ° 0 min 0,000 mm 0,0 UV-I 0 W/m² -2,0 °C 1,6 °C 6,4 km/h (2 Bft)
29.01.2017 17:53 1,6 °C 1,6 °C 77 % 1024,0 hPa 0,0 mm 2,9 km/h (1 Bft) S-SO 163 ° 0 min 0,000 mm 0,0 UV-I 0 W/m² -2,0 °C 1,6 °C 3,2 km/h (1 Bft)
29.01.2017 17:54 1,6 °C 1,6 °C 77 % 1024,1 hPa 0,0 mm 2,3 km/h (1 Bft) S-SO 163 ° 0 min 0,000 mm 0,0 UV-I 0 W/m² -2,0 °C 1,6 °C 6,4 km/h (2 Bft)
29.01.2017 17:55 1,6 °C 1,6 °C 77 % 1024,1 hPa 0,0 mm 1,9 km/h (1 Bft) S-SO 163 ° 0 min 0,000 mm 0,0 UV-I 0 W/m² -2,0 °C 1,6 °C 3,2 km/h (1 Bft)
29.01.2017 17:56 1,6 °C 1,6 °C 76 % 1024,1 hPa 0,0 mm 0,0 km/h (0 Bft) S-SO 163 ° 0 min 0,000 mm 0,0 UV-I 0 W/m² -2,2 °C 1,6 °C 0,0 km/h (0 Bft)
29.01.2017 17:57 1,4 °C 1,6 °C 74 % 1024,1 hPa 0,0 mm 0,0 km/h (0 Bft) S-SO 163 ° 0 min 0,000 mm 0,0 UV-I 0 W/m² -2,7 °C 1,4 °C 0,0 km/h (0 Bft)
29.01.2017 17:58 1,3 °C 1,4 °C 74 % 1024,1 hPa 0,0 mm 0,0 km/h (0 Bft) S-SO 163 ° 0 min 0,000 mm 0,0 UV-I 0 W/m² -2,8 °C 1,3 °C 0,0 km/h (0 Bft)
29.01.2017 17:59 1,2 °C 1,3 °C 75 % 1024,1 hPa 0,0 mm 0,0 km/h (0 Bft) S-SO 163 ° 0 min 0,000 mm 0,0 UV-I 0 W/m² -2,7 °C 1,2 °C 0,0 km/h (0 Bft)
29.01.2017 18:00 1,1 °C 1,2 °C 74 % 1024,1 hPa 0,0 mm 0,1 km/h (0 Bft) S-SO 163 ° 0 min 0,000 mm 0,0 UV-I 0 W/m² -3,0 °C 1,1 °C 1,6 km/h (1 Bft)
29.01.2017 18:01 1,0 °C 1,1 °C 76 % 1024,1 hPa 0,0 mm 2,5 km/h (1 Bft) S-SO 165 ° 0 min 0,000 mm 0,0 UV-I 0 W/m² -2,7 °C 1,0 °C 6,4 km/h (2 Bft)
29.01.2017 18:02 0,9 °C 1,0 °C 78 % 1024,1 hPa 0,0 mm 4,7 km/h (1 Bft) S-SO 165 ° 0 min 0,000 mm 0,0 UV-I 0 W/m² -2,5 °C -0,4 °C 8,0 km/h (2 Bft)
29.01.2017 18:03 0,9 °C 0,9 °C 78 % 1024,1 hPa 0,0 mm 4,8 km/h (1 Bft) S 175 ° 0 min 0,000 mm 0,0 UV-I 0 W/m² -2,5 °C -0,5 °C 6,4 km/h (2 Bft)
29.01.2017 18:04 0,9 °C 0,9 °C 79 % 1024,1 hPa 0,0 mm 1,9 km/h (1 Bft) S 175 ° 0 min 0,000 mm 0,0 UV-I 0 W/m² -2,3 °C 0,9 °C 3,2 km/h (1 Bft)
29.01.2017 18:05 1,0 °C 1,0 °C 79 % 1024,1 hPa 0,0 mm 1,4 km/h (1 Bft) S 175 ° 0 min 0,000 mm 0,0 UV-I 0 W/m² -2,2 °C 1,0 °C 4,8 km/h (1 Bft)
29.01.2017 18:06 1,0 °C 1,0 °C 79 % 1024,1 hPa 0,0 mm 3,8 km/h (1 Bft) S 175 ° 0 min 0,000 mm 0,0 UV-I 0 W/m² -2,2 °C 1,0 °C 4,8 km/h (1 Bft)
29.01.2017 18:07 1,1 °C 1,1 °C 79 % 1024,1 hPa 0,0 mm 0,9 km/h (0 Bft) S 175 ° 0 min 0,000 mm 0,0 UV-I 0 W/m² -2,1 °C 1,1 °C 3,2 km/h (1 Bft)
29.01.2017 18:08 1,1 °C 1,1 °C 79 % 1024,1 hPa 0,0 mm 0,9 km/h (0 Bft) S 175 ° 0 min 0,000 mm 0,0 UV-I 0 W/m² -2,1 °C 1,1 °C 1,6 km/h (1 Bft)
29.01.2017 18:09 1,1 °C 1,1 °C 79 % 1024,1 hPa 0,0 mm 0,1 km/h (0 Bft) S 175 ° 0 min 0,000 mm 0,0 UV-I 0 W/m² -2,1 °C 1,1 °C 1,6 km/h (1 Bft)
29.01.2017 18:10 1,1 °C 1,1 °C 79 % 1024,2 hPa 0,0 mm 0,5 km/h (0 Bft) S 175 ° 0 min 0,000 mm 0,0 UV-I 0 W/m² -2,1 °C 1,1 °C 1,6 km/h (1 Bft)
29.01.2017 18:11 1,0 °C 1,1 °C 77 % 1024,2 hPa 0,0 mm 0,0 km/h (0 Bft) S 175 ° 0 min 0,000 mm 0,0 UV-I 0 W/m² -2,6 °C 1,0 °C 0,0 km/h (0 Bft)
29.01.2017 18:12 0,9 °C 1,0 °C 76 % 1024,2 hPa 0,0 mm 0,0 km/h (0 Bft) S 175 ° 0 min 0,000 mm 0,0 UV-I 0 W/m² -2,8 °C 0,9 °C 0,0 km/h (0 Bft)
29.01.2017 18:13 0,8 °C 0,9 °C 76 % 1024,2 hPa 0,0 mm 0,2 km/h (0 Bft) S 175 ° 0 min 0,000 mm 0,0 UV-I 0 W/m² -2,9 °C 0,8 °C 1,6 km/h (1 Bft)
29.01.2017 18:14 0,8 °C 0,8 °C 77 % 1024,2 hPa 0,0 mm 1,5 km/h (1 Bft) S 175 ° 0 min 0,000 mm 0,0 UV-I 0 W/m² -2,8 °C 0,8 °C 4,8 km/h (1 Bft)
29.01.2017 18:15 0,8 °C 0,8 °C 78 % 1024,2 hPa 0,0 mm 3,1 km/h (1 Bft) S 175 ° 0 min 0,000 mm 0,0 UV-I 0 W/m² -2,6 °C 0,8 °C 4,8 km/h (1 Bft)
29.01.2017 18:16 0,8 °C 0,8 °C 79 % 1024,2 hPa 0,0 mm 1,4 km/h (1 Bft) S 175 ° 0 min 0,000 mm 0,0 UV-I 0 W/m² -2,4 °C 0,8 °C 3,2 km/h (1 Bft)
29.01.2017 18:17 0,8 °C 0,8 °C 79 % 1024,2 hPa 0,0 mm 2,0 km/h (1 Bft) S 175 ° 0 min 0,000 mm 0,0 UV-I 0 W/m² -2,4 °C 0,8 °C 3,2 km/h (1 Bft)
29.01.2017 18:18 0,8 °C 0,8 °C 79 % 1024,2 hPa 0,0 mm 0,4 km/h (0 Bft) S 175 ° 0 min 0,000 mm 0,0 UV-I 0 W/m² -2,4 °C 0,8 °C 1,6 km/h (1 Bft)
29.01.2017 18:19 0,8 °C 0,8 °C 79 % 1024,2 hPa 0,0 mm 0,9 km/h (0 Bft) S 175 ° 0 min 0,000 mm 0,0 UV-I 0 W/m² -2,4 °C 0,8 °C 1,6 km/h (1 Bft)
29.01.2017 18:20 0,8 °C 0,8 °C 79 % 1024,2 hPa 0,0 mm 0,8 km/h (0 Bft) S 175 ° 0 min 0,000 mm 0,0 UV-I 0 W/m² -2,4 °C 0,8 °C 3,2 km/h (1 Bft)
29.01.2017 18:21 0,8 °C 0,8 °C 79 % 1024,2 hPa 0,0 mm 0,8 km/h (0 Bft) S 175 ° 0 min 0,000 mm 0,0 UV-I 0 W/m² -2,4 °C 0,8 °C 1,6 km/h (1 Bft)
29.01.2017 18:22 0,7 °C 0,8 °C 79 % 1024,2 hPa 0,0 mm 0,4 km/h (0 Bft) S 175 ° 0 min 0,000 mm 0,0 UV-I 0 W/m² -2,5 °C 0,7 °C 1,6 km/h (1 Bft)
29.01.2017 18:23 0,7 °C 0,7 °C 77 % 1024,2 hPa 0,0 mm 0,0 km/h (0 Bft) S 175 ° 0 min 0,000 mm 0,0 UV-I 0 W/m² -2,9 °C 0,7 °C 0,0 km/h (0 Bft)
29.01.2017 18:24 0,6 °C 0,7 °C 77 % 1024,2 hPa 0,0 mm 0,0 km/h (0 Bft) S 175 ° 0 min 0,000 mm 0,0 UV-I 0 W/m² -3,0 °C 0,6 °C 0,0 km/h (0 Bft)
29.01.2017 18:25 0,6 °C 0,6 °C 78 % 1024,2 hPa 0,0 mm 0,0 km/h (0 Bft) S 175 ° 0 min 0,000 mm 0,0 UV-I 0 W/m² -2,8 °C 0,6 °C 0,0 km/h (0 Bft)
29.01.2017 18:26 0,6 °C 0,6 °C 78 % 1024,2 hPa 0,0 mm 0,0 km/h (0 Bft) S 175 ° 0 min 0,000 mm 0,0 UV-I 0 W/m² -2,8 °C 0,6 °C 0,0 km/h (0 Bft)
29.01.2017 18:27 0,6 °C 0,6 °C 78 % 1024,3 hPa 0,0 mm 0,0 km/h (0 Bft) S 175 ° 0 min 0,000 mm 0,0 UV-I 0 W/m² -2,8 °C 0,6 °C 0,0 km/h (0 Bft)
29.01.2017 18:28 0,4 °C 0,6 °C 77 % 1024,3 hPa 0,0 mm 0,0 km/h (0 Bft) S 175 ° 0 min 0,000 mm 0,0 UV-I 0 W/m² -3,1 °C 0,4 °C 0,0 km/h (0 Bft)
29.01.2017 18:29 0,4 °C 0,4 °C 77 % 1024,3 hPa 0,0 mm 0,0 km/h (0 Bft) S 175 ° 0 min 0,000 mm 0,0 UV-I 0 W/m² -3,1 °C 0,4 °C 0,0 km/h (0 Bft)
29.01.2017 18:30 0,4 °C 0,4 °C 77 % 1024,3 hPa 0,0 mm 0,0 km/h (0 Bft) S 175 ° 0 min 0,000 mm 0,0 UV-I 0 W/m² -3,1 °C 0,4 °C 0,0 km/h (0 Bft)
29.01.2017 18:31 0,4 °C 0,4 °C 77 % 1024,2 hPa 0,0 mm 0,0 km/h (0 Bft) S 175 ° 0 min 0,000 mm 0,0 UV-I 0 W/m² -3,1 °C 0,4 °C 0,0 km/h (0 Bft)
29.01.2017 18:32 0,3 °C 0,4 °C 77 % 1024,3 hPa 0,0 mm 0,0 km/h (0 Bft) S 175 ° 0 min 0,000 mm 0,0 UV-I 0 W/m² -3,2 °C 0,3 °C 0,0 km/h (0 Bft)
29.01.2017 18:33 0,3 °C 0,4 °C 77 % 1024,3 hPa 0,0 mm 0,0 km/h (0 Bft) S 175 ° 0 min 0,000 mm 0,0 UV-I 0 W/m² -3,2 °C 0,3 °C 0,0 km/h (0 Bft)
29.01.2017 18:34 0,3 °C 0,3 °C 77 % 1024,3 hPa 0,0 mm 0,0 km/h (0 Bft) S 175 ° 0 min 0,000 mm 0,0 UV-I 0 W/m² -3,2 °C 0,3 °C 0,0 km/h (0 Bft)
29.01.2017 18:35 0,2 °C 0,3 °C 78 % 1024,3 hPa 0,0 mm 0,0 km/h (0 Bft) S 175 ° 0 min 0,000 mm 0,0 UV-I 0 W/m² -3,2 °C 0,2 °C 0,0 km/h (0 Bft)
29.01.2017 18:36 0,2 °C 0,3 °C 78 % 1024,3 hPa 0,0 mm 0,0 km/h (0 Bft) S 175 ° 0 min 0,000 mm 0,0 UV-I 0 W/m² -3,2 °C 0,2 °C 0,0 km/h (0 Bft)
29.01.2017 18:37 0,2 °C 0,2 °C 78 % 1024,3 hPa 0,0 mm 0,0 km/h (0 Bft) S 175 ° 0 min 0,000 mm 0,0 UV-I 0 W/m² -3,2 °C 0,2 °C 0,0 km/h (0 Bft)
29.01.2017 18:38 0,2 °C 0,2 °C 78 % 1024,3 hPa 0,0 mm 0,0 km/h (0 Bft) S 175 ° 0 min 0,000 mm 0,0 UV-I 0 W/m² -3,2 °C 0,2 °C 0,0 km/h (0 Bft)
29.01.2017 18:39 0,1 °C 0,2 °C 78 % 1024,3 hPa 0,0 mm 0,0 km/h (0 Bft) S 175 ° 0 min 0,000 mm 0,0 UV-I 0 W/m² -3,3 °C 0,1 °C 0,0 km/h (0 Bft)
29.01.2017 18:40 0,1 °C 0,1 °C 78 % 1024,3 hPa 0,0 mm 0,0 km/h (0 Bft) S 175 ° 0 min 0,000 mm 0,0 UV-I 0 W/m² -3,3 °C 0,1 °C 0,0 km/h (0 Bft)
29.01.2017 18:41 0,0 °C 0,1 °C 77 % 1024,3 hPa 0,0 mm 0,0 km/h (0 Bft) S 175 ° 0 min 0,000 mm 0,0 UV-I 0 W/m² -3,5 °C 0,0 °C 0,0 km/h (0 Bft)
29.01.2017 18:42 -0,1 °C 0,0 °C 77 % 1024,4 hPa 0,0 mm 0,0 km/h (0 Bft) S 175 ° 0 min 0,000 mm 0,0 UV-I 0 W/m² -3,6 °C -0,1 °C 0,0 km/h (0 Bft)
29.01.2017 18:43 -0,2 °C -0,1 °C 78 % 1024,3 hPa 0,0 mm 0,0 km/h (0 Bft) S 175 ° 0 min 0,000 mm 0,0 UV-I 0 W/m² -3,6 °C -0,2 °C 0,0 km/h (0 Bft)
29.01.2017 18:44 -0,2 °C -0,1 °C 78 % 1024,3 hPa 0,0 mm 0,0 km/h (0 Bft) S 175 ° 0 min 0,000 mm 0,0 UV-I 0 W/m² -3,6 °C -0,2 °C 0,0 km/h (0 Bft)
29.01.2017 18:45 -0,2 °C -0,2 °C 78 % 1024,3 hPa 0,0 mm 0,0 km/h (0 Bft) S 175 ° 0 min 0,000 mm 0,0 UV-I 0 W/m² -3,6 °C -0,2 °C 0,0 km/h (0 Bft)
29.01.2017 18:46 -0,3 °C -0,2 °C 78 % 1024,3 hPa 0,0 mm 0,2 km/h (0 Bft) S 175 ° 0 min 0,000 mm 0,0 UV-I 0 W/m² -3,7 °C -0,3 °C 1,6 km/h (1 Bft)
29.01.2017 18:47 -0,3 °C -0,3 °C 79 % 1024,3 hPa 0,0 mm 0,1 km/h (0 Bft) S 175 ° 0 min 0,000 mm 0,0 UV-I 0 W/m² -3,5 °C -0,3 °C 1,6 km/h (1 Bft)
29.01.2017 18:48 -0,3 °C -0,3 °C 79 % 1024,3 hPa 0,0 mm 0,0 km/h (0 Bft) S 175 ° 0 min 0,000 mm 0,0 UV-I 0 W/m² -3,5 °C -0,3 °C 0,0 km/h (0 Bft)
29.01.2017 18:49 -0,4 °C -0,3 °C 80 % 1024,3 hPa 0,0 mm 0,0 km/h (0 Bft) S 175 ° 0 min 0,000 mm 0,0 UV-I 0 W/m² -3,4 °C -0,4 °C 0,0 km/h (0 Bft)
29.01.2017 18:50 -0,4 °C -0,4 °C 80 % 1024,3 hPa 0,0 mm 1,5 km/h (1 Bft) S 175 ° 0 min 0,000 mm 0,0 UV-I 0 W/m² -3,4 °C -0,4 °C 3,2 km/h (1 Bft)
29.01.2017 18:51 -0,4 °C -0,4 °C 81 % 1024,3 hPa 0,0 mm 2,2 km/h (1 Bft) S 175 ° 0 min 0,000 mm 0,0 UV-I 0 W/m² -3,3 °C -0,4 °C 3,2 km/h (1 Bft)
29.01.2017 18:52 -0,4 °C -0,4 °C 82 % 1024,3 hPa 0,0 mm 2,3 km/h (1 Bft) S 175 ° 0 min 0,000 mm 0,0 UV-I 0 W/m² -3,1 °C -0,4 °C 4,8 km/h (1 Bft)
29.01.2017 18:53 -0,4 °C -0,4 °C 82 % 1024,3 hPa 0,0 mm 3,8 km/h (1 Bft) S 175 ° 0 min 0,000 mm 0,0 UV-I 0 W/m² -3,1 °C -0,4 °C 4,8 km/h (1 Bft)
29.01.2017 18:54 -0,3 °C -0,3 °C 82 % 1024,3 hPa 0,0 mm 2,1 km/h (1 Bft) S 175 ° 0 min 0,000 mm 0,0 UV-I 0 W/m² -3,0 °C -0,3 °C 3,2 km/h (1 Bft)
29.01.2017 18:55 -0,3 °C -0,3 °C 82 % 1024,3 hPa 0,0 mm 2,2 km/h (1 Bft) S 175 ° 0 min 0,000 mm 0,0 UV-I 0 W/m² -3,0 °C -0,3 °C 3,2 km/h (1 Bft)
29.01.2017 18:56 -0,3 °C -0,3 °C 82 % 1024,3 hPa 0,0 mm 1,5 km/h (1 Bft) S 175 ° 0 min 0,000 mm 0,0 UV-I 0 W/m² -3,0 °C -0,3 °C 3,2 km/h (1 Bft)
29.01.2017 18:57 -0,2 °C -0,2 °C 82 % 1024,3 hPa 0,0 mm 0,9 km/h (0 Bft) S 175 ° 0 min 0,000 mm 0,0 UV-I 0 W/m² -2,9 °C -0,2 °C 1,6 km/h (1 Bft)
29.01.2017 18:58 -0,2 °C -0,2 °C 82 % 1024,3 hPa 0,0 mm 0,2 km/h (0 Bft) S 175 ° 0 min 0,000 mm 0,0 UV-I 0 W/m² -2,9 °C -0,2 °C 1,6 km/h (1 Bft)
29.01.2017 18:59 -0,2 °C -0,2 °C 81 % 1024,3 hPa 0,0 mm 1,1 km/h (1 Bft) S 175 ° 0 min 0,000 mm 0,0 UV-I 0 W/m² -3,1 °C -0,2 °C 1,6 km/h (1 Bft)
29.01.2017 19:00 -0,3 °C -0,2 °C 80 % 1024,3 hPa 0,0 mm 0,9 km/h (0 Bft) S 175 ° 0 min 0,000 mm 0,0 UV-I 0 W/m² -3,3 °C -0,3 °C 1,6 km/h (1 Bft)
29.01.2017 19:01 -0,3 °C -0,2 °C 79 % 1024,4 hPa 0,0 mm 0,6 km/h (0 Bft) S 175 ° 0 min 0,000 mm 0,0 UV-I 0 W/m² -3,5 °C -0,3 °C 1,6 km/h (1 Bft)
29.01.2017 19:02 -0,3 °C -0,3 °C 79 % 1024,4 hPa 0,0 mm 0,1 km/h (0 Bft) S 175 ° 0 min 0,000 mm 0,0 UV-I 0 W/m² -3,5 °C -0,3 °C 1,6 km/h (1 Bft)
29.01.2017 19:03 -0,3 °C -0,3 °C 79 % 1024,4 hPa 0,0 mm 0,0 km/h (0 Bft) S 175 ° 0 min 0,000 mm 0,0 UV-I 0 W/m² -3,5 °C -0,3 °C 0,0 km/h (0 Bft)
29.01.2017 19:04 -0,3 °C -0,3 °C 80 % 1024,3 hPa 0,0 mm 0,0 km/h (0 Bft) S 175 ° 0 min 0,000 mm 0,0 UV-I 0 W/m² -3,3 °C -0,3 °C 0,0 km/h (0 Bft)
29.01.2017 19:05 -0,3 °C -0,3 °C 80 % 1024,4 hPa 0,0 mm 0,0 km/h (0 Bft) S 175 ° 0 min 0,000 mm 0,0 UV-I 0 W/m² -3,3 °C -0,3 °C 0,0 km/h (0 Bft)
29.01.2017 19:06 -0,3 °C -0,3 °C 80 % 1024,3 hPa 0,0 mm 0,0 km/h (0 Bft) S 175 ° 0 min 0,000 mm 0,0 UV-I 0 W/m² -3,3 °C -0,3 °C 0,0 km/h (0 Bft)
29.01.2017 19:07 -0,4 °C -0,3 °C 80 % 1024,4 hPa 0,0 mm 0,0 km/h (0 Bft) S 175 ° 0 min 0,000 mm 0,0 UV-I 0 W/m² -3,4 °C -0,4 °C 0,0 km/h (0 Bft)
29.01.2017 19:08 -0,3 °C -0,3 °C 80 % 1024,3 hPa 0,0 mm 0,0 km/h (0 Bft) S 175 ° 0 min 0,000 mm 0,0 UV-I 0 W/m² -3,3 °C -0,3 °C 0,0 km/h (0 Bft)
29.01.2017 19:09 -0,4 °C -0,3 °C 79 % 1024,4 hPa 0,0 mm 0,0 km/h (0 Bft) S 175 ° 0 min 0,000 mm 0,0 UV-I 0 W/m² -3,6 °C -0,4 °C 0,0 km/h (0 Bft)
29.01.2017 19:10 -0,4 °C -0,4 °C 79 % 1024,4 hPa 0,0 mm 0,0 km/h (0 Bft) S 175 ° 0 min 0,000 mm 0,0 UV-I 0 W/m² -3,6 °C -0,4 °C 0,0 km/h (0 Bft)
29.01.2017 19:11 -0,4 °C -0,4 °C 79 % 1024,5 hPa 0,0 mm 0,0 km/h (0 Bft) S 175 ° 0 min 0,000 mm 0,0 UV-I 0 W/m² -3,6 °C -0,4 °C 0,0 km/h (0 Bft)
29.01.2017 19:12 -0,4 °C -0,4 °C 79 % 1024,5 hPa 0,0 mm 0,0 km/h (0 Bft) S 175 ° 0 min 0,000 mm 0,0 UV-I 0 W/m² -3,6 °C -0,4 °C 0,0 km/h (0 Bft)
29.01.2017 19:13 -0,5 °C -0,4 °C 79 % 1024,5 hPa 0,0 mm 0,0 km/h (0 Bft) S 175 ° 0 min 0,000 mm 0,0 UV-I 0 W/m² -3,7 °C -0,5 °C 0,0 km/h (0 Bft)
29.01.2017 19:14 -0,5 °C -0,5 °C 79 % 1024,5 hPa 0,0 mm 0,0 km/h (0 Bft) S 175 ° 0 min 0,000 mm 0,0 UV-I 0 W/m² -3,7 °C -0,5 °C 0,0 km/h (0 Bft)
29.01.2017 19:15 -0,6 °C -0,5 °C 79 % 1024,5 hPa 0,0 mm 0,0 km/h (0 Bft) S 175 ° 0 min 0,000 mm 0,0 UV-I 0 W/m² -3,8 °C -0,6 °C 0,0 km/h (0 Bft)
29.01.2017 19:16 -0,6 °C -0,6 °C 79 % 1024,6 hPa 0,0 mm 0,0 km/h (0 Bft) S 175 ° 0 min 0,000 mm 0,0 UV-I 0 W/m² -3,8 °C -0,6 °C 0,0 km/h (0 Bft)
29.01.2017 19:17 -0,6 °C -0,6 °C 79 % 1024,6 hPa 0,0 mm 0,0 km/h (0 Bft) S 175 ° 0 min 0,000 mm 0,0 UV-I 0 W/m² -3,8 °C -0,6 °C 0,0 km/h (0 Bft)
29.01.2017 19:18 -0,6 °C -0,6 °C 79 % 1024,5 hPa 0,0 mm 0,1 km/h (0 Bft) S 175 ° 0 min 0,000 mm 0,0 UV-I 0 W/m² -3,8 °C -0,6 °C 1,6 km/h (1 Bft)
29.01.2017 19:19 -0,6 °C -0,6 °C 79 % 1024,6 hPa 0,0 mm 0,5 km/h (0 Bft) S 175 ° 0 min 0,000 mm 0,0 UV-I 0 W/m² -3,8 °C -0,6 °C 1,6 km/h (1 Bft)
29.01.2017 19:20 -0,7 °C -0,6 °C 80 % 1024,6 hPa 0,0 mm 0,1 km/h (0 Bft) S 175 ° 0 min 0,000 mm 0,0 UV-I 0 W/m² -3,7 °C -0,7 °C 1,6 km/h (1 Bft)
29.01.2017 19:21 -0,7 °C -0,7 °C 80 % 1024,6 hPa 0,0 mm 0,0 km/h (0 Bft) S 175 ° 0 min 0,000 mm 0,0 UV-I 0 W/m² -3,7 °C -0,7 °C 0,0 km/h (0 Bft)
29.01.2017 19:22 -0,8 °C -0,7 °C 81 % 1024,6 hPa 0,0 mm 0,0 km/h (0 Bft) S 175 ° 0 min 0,000 mm 0,0 UV-I 0 W/m² -3,6 °C -0,8 °C 0,0 km/h (0 Bft)
29.01.2017 19:23 -0,8 °C -0,8 °C 81 % 1024,5 hPa 0,0 mm 0,0 km/h (0 Bft) S 175 ° 0 min 0,000 mm 0,0 UV-I 0 W/m² -3,6 °C -0,8 °C 0,0 km/h (0 Bft)
29.01.2017 19:24 -0,8 °C -0,8 °C 81 % 1024,6 hPa 0,0 mm 0,0 km/h (0 Bft) S 175 ° 0 min 0,000 mm 0,0 UV-I 0 W/m² -3,6 °C -0,8 °C 0,0 km/h (0 Bft)
29.01.2017 19:25 -0,9 °C -0,8 °C 82 % 1024,5 hPa 0,0 mm 0,0 km/h (0 Bft) S 175 ° 0 min 0,000 mm 0,0 UV-I 0 W/m² -3,6 °C -0,9 °C 0,0 km/h (0 Bft)
29.01.2017 19:26 -0,9 °C -0,9 °C 82 % 1024,5 hPa 0,0 mm 0,0 km/h (0 Bft) S 175 ° 0 min 0,000 mm 0,0 UV-I 0 W/m² -3,6 °C -0,9 °C 0,0 km/h (0 Bft)
29.01.2017 19:27 -0,9 °C -0,9 °C 82 % 1024,6 hPa 0,0 mm 0,0 km/h (0 Bft) S 175 ° 0 min 0,000 mm 0,0 UV-I 0 W/m² -3,6 °C -0,9 °C 0,0 km/h (0 Bft)
29.01.2017 19:28 -1,0 °C -0,9 °C 81 % 1024,5 hPa 0,0 mm 0,0 km/h (0 Bft) S 175 ° 0 min 0,000 mm 0,0 UV-I 0 W/m² -3,8 °C -1,0 °C 0,0 km/h (0 Bft)
29.01.2017 19:29 -1,0 °C -0,9 °C 81 % 1024,5 hPa 0,0 mm 0,0 km/h (0 Bft) S 175 ° 0 min 0,000 mm 0,0 UV-I 0 W/m² -3,8 °C -1,0 °C 0,0 km/h (0 Bft)
29.01.2017 19:30 -1,1 °C -1,0 °C 81 % 1024,6 hPa 0,0 mm 0,0 km/h (0 Bft) S 175 ° 0 min 0,000 mm 0,0 UV-I 0 W/m² -3,9 °C -1,1 °C 0,0 km/h (0 Bft)
29.01.2017 19:31 -1,1 °C -1,1 °C 81 % 1024,6 hPa 0,0 mm 0,0 km/h (0 Bft) S 175 ° 0 min 0,000 mm 0,0 UV-I 0 W/m² -3,9 °C -1,1 °C 0,0 km/h (0 Bft)
29.01.2017 19:32 -1,1 °C -1,1 °C 81 % 1024,6 hPa 0,0 mm 0,0 km/h (0 Bft) S 175 ° 0 min 0,000 mm 0,0 UV-I 0 W/m² -3,9 °C -1,1 °C 0,0 km/h (0 Bft)
29.01.2017 19:33 -1,1 °C -1,1 °C 80 % 1024,5 hPa 0,0 mm 0,0 km/h (0 Bft) S 175 ° 0 min 0,000 mm 0,0 UV-I 0 W/m² -4,1 °C -1,1 °C 0,0 km/h (0 Bft)
29.01.2017 19:34 -1,2 °C -1,1 °C 80 % 1024,5 hPa 0,0 mm 0,0 km/h (0 Bft) S 175 ° 0 min 0,000 mm 0,0 UV-I 0 W/m² -4,2 °C -1,2 °C 0,0 km/h (0 Bft)
29.01.2017 19:35 -1,2 °C -1,2 °C 81 % 1024,5 hPa 0,0 mm 0,0 km/h (0 Bft) S 175 ° 0 min 0,000 mm 0,0 UV-I 0 W/m² -4,0 °C -1,2 °C 0,0 km/h (0 Bft)
29.01.2017 19:36 -1,2 °C -1,2 °C 81 % 1024,5 hPa 0,0 mm 0,0 km/h (0 Bft) S 175 ° 0 min 0,000 mm 0,0 UV-I 0 W/m² -4,0 °C -1,2 °C 0,0 km/h (0 Bft)
29.01.2017 19:37 -1,2 °C -1,2 °C 81 % 1024,5 hPa 0,0 mm 0,0 km/h (0 Bft) S 175 ° 0 min 0,000 mm 0,0 UV-I 0 W/m² -4,0 °C -1,2 °C 0,0 km/h (0 Bft)
29.01.2017 19:38 -1,3 °C -1,2 °C 81 % 1024,5 hPa 0,0 mm 0,0 km/h (0 Bft) S 175 ° 0 min 0,000 mm 0,0 UV-I 0 W/m² -4,1 °C -1,3 °C 0,0 km/h (0 Bft)
29.01.2017 19:39 -1,3 °C -1,3 °C 82 % 1024,5 hPa 0,0 mm 0,0 km/h (0 Bft) S 175 ° 0 min 0,000 mm 0,0 UV-I 0 W/m² -4,0 °C -1,3 °C 0,0 km/h (0 Bft)
29.01.2017 19:40 -1,3 °C -1,3 °C 82 % 1024,5 hPa 0,0 mm 0,0 km/h (0 Bft) S 175 ° 0 min 0,000 mm 0,0 UV-I 0 W/m² -4,0 °C -1,3 °C 0,0 km/h (0 Bft)
29.01.2017 19:41 -1,3 °C -1,3 °C 82 % 1024,5 hPa 0,0 mm 0,0 km/h (0 Bft) S 175 ° 0 min 0,000 mm 0,0 UV-I 0 W/m² -4,0 °C -1,3 °C 0,0 km/h (0 Bft)
29.01.2017 19:42 -1,3 °C -1,3 °C 82 % 1024,5 hPa 0,0 mm 0,0 km/h (0 Bft) S 175 ° 0 min 0,000 mm 0,0 UV-I 0 W/m² -4,0 °C -1,3 °C 0,0 km/h (0 Bft)
29.01.2017 19:43 -1,4 °C -1,3 °C 82 % 1024,5 hPa 0,0 mm 0,0 km/h (0 Bft) S 175 ° 0 min 0,000 mm 0,0 UV-I 0 W/m² -4,1 °C -1,4 °C 0,0 km/h (0 Bft)
29.01.2017 19:44 -1,4 °C -1,3 °C 82 % 1024,5 hPa 0,0 mm 0,0 km/h (0 Bft) S 175 ° 0 min 0,000 mm 0,0 UV-I 0 W/m² -4,1 °C -1,4 °C 0,0 km/h (0 Bft)
29.01.2017 19:45 -1,4 °C -1,4 °C 82 % 1024,5 hPa 0,0 mm 0,0 km/h (0 Bft) S 175 ° 0 min 0,000 mm 0,0 UV-I 0 W/m² -4,1 °C -1,4 °C 0,0 km/h (0 Bft)
29.01.2017 19:46 -1,4 °C -1,4 °C 82 % 1024,5 hPa 0,0 mm 0,0 km/h (0 Bft) S 175 ° 0 min 0,000 mm 0,0 UV-I 0 W/m² -4,1 °C -1,4 °C 0,0 km/h (0 Bft)
29.01.2017 19:47 -1,5 °C -1,4 °C 82 % 1024,5 hPa 0,0 mm 0,0 km/h (0 Bft) S 175 ° 0 min 0,000 mm 0,0 UV-I 0 W/m² -4,2 °C -1,5 °C 0,0 km/h (0 Bft)
29.01.2017 19:48 -1,5 °C -1,4 °C 82 % 1024,5 hPa 0,0 mm 0,0 km/h (0 Bft) S 175 ° 0 min 0,000 mm 0,0 UV-I 0 W/m² -4,2 °C -1,5 °C 0,0 km/h (0 Bft)
29.01.2017 19:49 -1,5 °C -1,5 °C 82 % 1024,5 hPa 0,0 mm 0,0 km/h (0 Bft) S 175 ° 0 min 0,000 mm 0,0 UV-I 0 W/m² -4,2 °C -1,5 °C 0,0 km/h (0 Bft)
29.01.2017 19:50 -1,6 °C -1,5 °C 82 % 1024,4 hPa 0,0 mm 0,0 km/h (0 Bft) S 175 ° 0 min 0,000 mm 0,0 UV-I 0 W/m² -4,3 °C -1,6 °C 0,0 km/h (0 Bft)
29.01.2017 19:51 -1,6 °C -1,6 °C 83 % 1024,5 hPa 0,0 mm 0,0 km/h (0 Bft) S 175 ° 0 min 0,000 mm 0,0 UV-I 0 W/m² -4,1 °C -1,6 °C 0,0 km/h (0 Bft)
29.01.2017 19:52 -1,6 °C -1,6 °C 82 % 1024,5 hPa 0,0 mm 0,0 km/h (0 Bft) S 175 ° 0 min 0,000 mm 0,0 UV-I 0 W/m² -4,3 °C -1,6 °C 0,0 km/h (0 Bft)
29.01.2017 19:53 -1,6 °C -1,6 °C 82 % 1024,5 hPa 0,0 mm 0,0 km/h (0 Bft) S 175 ° 0 min 0,000 mm 0,0 UV-I 0 W/m² -4,3 °C -1,6 °C 0,0 km/h (0 Bft)
29.01.2017 19:54 -1,7 °C -1,6 °C 82 % 1024,5 hPa 0,0 mm 0,0 km/h (0 Bft) S 175 ° 0 min 0,000 mm 0,0 UV-I 0 W/m² -4,4 °C -1,7 °C 0,0 km/h (0 Bft)
29.01.2017 19:55 -1,7 °C -1,6 °C 83 % 1024,5 hPa 0,0 mm 0,0 km/h (0 Bft) S 175 ° 0 min 0,000 mm 0,0 UV-I 0 W/m² -4,2 °C -1,7 °C 0,0 km/h (0 Bft)
29.01.2017 19:56 -1,7 °C -1,7 °C 83 % 1024,5 hPa 0,0 mm 0,0 km/h (0 Bft) S 175 ° 0 min 0,000 mm 0,0 UV-I 0 W/m² -4,2 °C -1,7 °C 0,0 km/h (0 Bft)
29.01.2017 19:57 -1,7 °C -1,7 °C 83 % 1024,5 hPa 0,0 mm 0,0 km/h (0 Bft) S 175 ° 0 min 0,000 mm 0,0 UV-I 0 W/m² -4,2 °C -1,7 °C 0,0 km/h (0 Bft)
29.01.2017 19:58 -1,7 °C -1,7 °C 84 % 1024,5 hPa 0,0 mm 0,0 km/h (0 Bft) S 175 ° 0 min 0,000 mm 0,0 UV-I 0 W/m² -4,0 °C -1,7 °C 0,0 km/h (0 Bft)
29.01.2017 19:59 -1,8 °C -1,7 °C 84 % 1024,4 hPa 0,0 mm 0,0 km/h (0 Bft) S 175 ° 0 min 0,000 mm 0,0 UV-I 0 W/m² -4,1 °C -1,8 °C 0,0 km/h (0 Bft)
29.01.2017 20:00 -1,8 °C -1,8 °C 84 % 1024,5 hPa 0,0 mm 0,0 km/h (0 Bft) S 175 ° 0 min 0,000 mm 0,0 UV-I 0 W/m² -4,1 °C -1,8 °C 0,0 km/h (0 Bft)
29.01.2017 20:01 -1,8 °C -1,8 °C 84 % 1024,5 hPa 0,0 mm 0,0 km/h (0 Bft) S 175 ° 0 min 0,000 mm 0,0 UV-I 0 W/m² -4,1 °C -1,8 °C 0,0 km/h (0 Bft)
29.01.2017 20:02 -1,8 °C -1,8 °C 84 % 1024,5 hPa 0,0 mm 0,0 km/h (0 Bft) S 175 ° 0 min 0,000 mm 0,0 UV-I 0 W/m² -4,1 °C -1,8 °C 0,0 km/h (0 Bft)
29.01.2017 20:03 -1,8 °C -1,8 °C 84 % 1024,5 hPa 0,0 mm 0,0 km/h (0 Bft) S 175 ° 0 min 0,000 mm 0,0 UV-I 0 W/m² -4,1 °C -1,8 °C 0,0 km/h (0 Bft)
29.01.2017 20:04 -1,9 °C -1,8 °C 84 % 1024,5 hPa 0,0 mm 0,0 km/h (0 Bft) S 175 ° 0 min 0,000 mm 0,0 UV-I 0 W/m² -4,2 °C -1,9 °C 0,0 km/h (0 Bft)
29.01.2017 20:05 -1,9 °C -1,9 °C 84 % 1024,6 hPa 0,0 mm 0,0 km/h (0 Bft) S 175 ° 0 min 0,000 mm 0,0 UV-I 0 W/m² -4,2 °C -1,9 °C 0,0 km/h (0 Bft)
29.01.2017 20:06 -1,9 °C -1,9 °C 84 % 1024,5 hPa 0,0 mm 0,0 km/h (0 Bft) S 175 ° 0 min 0,000 mm 0,0 UV-I 0 W/m² -4,2 °C -1,9 °C 0,0 km/h (0 Bft)
29.01.2017 20:07 -1,9 °C -1,9 °C 84 % 1024,6 hPa 0,0 mm 0,0 km/h (0 Bft) S 175 ° 0 min 0,000 mm 0,0 UV-I 0 W/m² -4,2 °C -1,9 °C 0,0 km/h (0 Bft)
29.01.2017 20:08 -2,0 °C -1,9 °C 84 % 1024,5 hPa 0,0 mm 0,0 km/h (0 Bft) S 175 ° 0 min 0,000 mm 0,0 UV-I 0 W/m² -4,3 °C -2,0 °C 0,0 km/h (0 Bft)
29.01.2017 20:09 -2,1 °C -2,0 °C 84 % 1024,6 hPa 0,0 mm 0,0 km/h (0 Bft) S 175 ° 0 min 0,000 mm 0,0 UV-I 0 W/m² -4,4 °C -2,1 °C 0,0 km/h (0 Bft)
29.01.2017 20:10 -2,1 °C -2,1 °C 84 % 1024,5 hPa 0,0 mm 0,0 km/h (0 Bft) S 175 ° 0 min 0,000 mm 0,0 UV-I 0 W/m² -4,4 °C -2,1 °C 0,0 km/h (0 Bft)
29.01.2017 20:11 -2,1 °C -2,1 °C 84 % 1024,5 hPa 0,0 mm 0,2 km/h (0 Bft) S 175 ° 0 min 0,000 mm 0,0 UV-I 0 W/m² -4,4 °C -2,1 °C 1,6 km/h (1 Bft)
29.01.2017 20:12 -2,1 °C -2,1 °C 84 % 1024,6 hPa 0,0 mm 0,8 km/h (0 Bft) S 175 ° 0 min 0,000 mm 0,0 UV-I 0 W/m² -4,4 °C -2,1 °C 1,6 km/h (1 Bft)
29.01.2017 20:13 -2,2 °C -2,1 °C 84 % 1024,6 hPa 0,0 mm 0,3 km/h (0 Bft) S 175 ° 0 min 0,000 mm 0,0 UV-I 0 W/m² -4,5 °C -2,2 °C 1,6 km/h (1 Bft)
29.01.2017 20:14 -2,2 °C -2,2 °C 84 % 1024,6 hPa 0,0 mm 0,0 km/h (0 Bft) S 175 ° 0 min 0,000 mm 0,0 UV-I 0 W/m² -4,5 °C -2,2 °C 0,0 km/h (0 Bft)
29.01.2017 20:15 -2,2 °C -2,2 °C 85 % 1024,6 hPa 0,0 mm 0,1 km/h (0 Bft) S 175 ° 0 min 0,000 mm 0,0 UV-I 0 W/m² -4,4 °C -2,2 °C 1,6 km/h (1 Bft)
29.01.2017 20:16 -2,2 °C -2,2 °C 85 % 1024,6 hPa 0,0 mm 0,2 km/h (0 Bft) S 175 ° 0 min 0,000 mm 0,0 UV-I 0 W/m² -4,4 °C -2,2 °C 1,6 km/h (1 Bft)
29.01.2017 20:17 -2,2 °C -2,2 °C 85 % 1024,5 hPa 0,0 mm 0,2 km/h (0 Bft) S 175 ° 0 min 0,000 mm 0,0 UV-I 0 W/m² -4,4 °C -2,2 °C 1,6 km/h (1 Bft)
29.01.2017 20:18 -2,2 °C -2,2 °C 85 % 1024,5 hPa 0,0 mm 0,2 km/h (0 Bft) S 175 ° 0 min 0,000 mm 0,0 UV-I 0 W/m² -4,4 °C -2,2 °C 1,6 km/h (1 Bft)
29.01.2017 20:19 -2,3 °C -2,2 °C 85 % 1024,5 hPa 0,0 mm 0,2 km/h (0 Bft) S 175 ° 0 min 0,000 mm 0,0 UV-I 0 W/m² -4,5 °C -2,3 °C 1,6 km/h (1 Bft)
29.01.2017 20:20 -2,3 °C -2,3 °C 85 % 1024,5 hPa 0,0 mm 0,0 km/h (0 Bft) S 175 ° 0 min 0,000 mm 0,0 UV-I 0 W/m² -4,5 °C -2,3 °C 0,0 km/h (0 Bft)
29.01.2017 20:21 -2,3 °C -2,3 °C 86 % 1024,4 hPa 0,0 mm 0,0 km/h (0 Bft) S 175 ° 0 min 0,000 mm 0,0 UV-I 0 W/m² -4,3 °C -2,3 °C 0,0 km/h (0 Bft)
29.01.2017 20:22 -2,3 °C -2,3 °C 86 % 1024,5 hPa 0,0 mm 0,0 km/h (0 Bft) S 175 ° 0 min 0,000 mm 0,0 UV-I 0 W/m² -4,3 °C -2,3 °C 0,0 km/h (0 Bft)
29.01.2017 20:23 -2,4 °C -2,3 °C 86 % 1024,5 hPa 0,0 mm 0,0 km/h (0 Bft) S 175 ° 0 min 0,000 mm 0,0 UV-I 0 W/m² -4,4 °C -2,4 °C 0,0 km/h (0 Bft)
29.01.2017 20:24 -2,4 °C -2,3 °C 86 % 1024,6 hPa 0,0 mm 0,0 km/h (0 Bft) S 175 ° 0 min 0,000 mm 0,0 UV-I 0 W/m² -4,4 °C -2,4 °C 0,0 km/h (0 Bft)
29.01.2017 20:25 -2,4 °C -2,4 °C 86 % 1024,6 hPa 0,0 mm 0,0 km/h (0 Bft) S 175 ° 0 min 0,000 mm 0,0 UV-I 0 W/m² -4,4 °C -2,4 °C 0,0 km/h (0 Bft)
29.01.2017 20:26 -2,4 °C -2,4 °C 87 % 1024,5 hPa 0,0 mm 0,0 km/h (0 Bft) S 175 ° 0 min 0,000 mm 0,0 UV-I 0 W/m² -4,3 °C -2,4 °C 0,0 km/h (0 Bft)
29.01.2017 20:27 -2,4 °C -2,4 °C 87 % 1024,6 hPa 0,0 mm 0,0 km/h (0 Bft) S 175 ° 0 min 0,000 mm 0,0 UV-I 0 W/m² -4,3 °C -2,4 °C 0,0 km/h (0 Bft)
29.01.2017 20:28 -2,4 °C -2,4 °C 87 % 1024,4 hPa 0,0 mm 0,0 km/h (0 Bft) S 175 ° 0 min 0,000 mm 0,0 UV-I 0 W/m² -4,3 °C -2,4 °C 0,0 km/h (0 Bft)
29.01.2017 20:29 -2,4 °C -2,4 °C 87 % 1024,4 hPa 0,0 mm 0,0 km/h (0 Bft) S 175 ° 0 min 0,000 mm 0,0 UV-I 0 W/m² -4,3 °C -2,4 °C 0,0 km/h (0 Bft)
29.01.2017 20:30 -2,5 °C -2,4 °C 87 % 1024,4 hPa 0,0 mm 0,0 km/h (0 Bft) S 175 ° 0 min 0,000 mm 0,0 UV-I 0 W/m² -4,4 °C -2,5 °C 0,0 km/h (0 Bft)
29.01.2017 20:31 -2,5 °C -2,5 °C 87 % 1024,4 hPa 0,0 mm 0,0 km/h (0 Bft) S 175 ° 0 min 0,000 mm 0,0 UV-I 0 W/m² -4,4 °C -2,5 °C 0,0 km/h (0 Bft)
29.01.2017 20:32 -2,5 °C -2,5 °C 87 % 1024,4 hPa 0,0 mm 0,0 km/h (0 Bft) S 175 ° 0 min 0,000 mm 0,0 UV-I 0 W/m² -4,4 °C -2,5 °C 0,0 km/h (0 Bft)
29.01.2017 20:33 -2,5 °C -2,5 °C 87 % 1024,5 hPa 0,0 mm 0,0 km/h (0 Bft) S 175 ° 0 min 0,000 mm 0,0 UV-I 0 W/m² -4,4 °C -2,5 °C 0,0 km/h (0 Bft)
29.01.2017 20:34 -2,6 °C -2,5 °C 87 % 1024,4 hPa 0,0 mm 0,0 km/h (0 Bft) S 175 ° 0 min 0,000 mm 0,0 UV-I 0 W/m² -4,5 °C -2,6 °C 0,0 km/h (0 Bft)
29.01.2017 20:35 -2,6 °C -2,6 °C 87 % 1024,5 hPa 0,0 mm 0,0 km/h (0 Bft) S 175 ° 0 min 0,000 mm 0,0 UV-I 0 W/m² -4,5 °C -2,6 °C 0,0 km/h (0 Bft)
29.01.2017 20:36 -2,6 °C -2,6 °C 87 % 1024,5 hPa 0,0 mm 0,0 km/h (0 Bft) S 175 ° 0 min 0,000 mm 0,0 UV-I 0 W/m² -4,5 °C -2,6 °C 0,0 km/h (0 Bft)
29.01.2017 20:37 -2,6 °C -2,6 °C 87 % 1024,4 hPa 0,0 mm 0,0 km/h (0 Bft) S 175 ° 0 min 0,000 mm 0,0 UV-I 0 W/m² -4,5 °C -2,6 °C 0,0 km/h (0 Bft)
29.01.2017 20:38 -2,6 °C -2,6 °C 87 % 1024,4 hPa 0,0 mm 0,0 km/h (0 Bft) S 175 ° 0 min 0,000 mm 0,0 UV-I 0 W/m² -4,5 °C -2,6 °C 0,0 km/h (0 Bft)
29.01.2017 20:39 -2,7 °C -2,6 °C 87 % 1024,4 hPa 0,0 mm 0,0 km/h (0 Bft) S 175 ° 0 min 0,000 mm 0,0 UV-I 0 W/m² -4,6 °C -2,7 °C 0,0 km/h (0 Bft)
29.01.2017 20:40 -2,6 °C -2,6 °C 87 % 1024,4 hPa 0,0 mm 0,0 km/h (0 Bft) S 175 ° 0 min 0,000 mm 0,0 UV-I 0 W/m² -4,5 °C -2,6 °C 0,0 km/h (0 Bft)
29.01.2017 20:41 -2,7 °C -2,6 °C 87 % 1024,4 hPa 0,0 mm 0,0 km/h (0 Bft) S 175 ° 0 min 0,000 mm 0,0 UV-I 0 W/m² -4,6 °C -2,7 °C 0,0 km/h (0 Bft)
29.01.2017 20:42 -2,7 °C -2,7 °C 88 % 1024,4 hPa 0,0 mm 0,0 km/h (0 Bft) S 175 ° 0 min 0,000 mm 0,0 UV-I 0 W/m² -4,4 °C -2,7 °C 0,0 km/h (0 Bft)
29.01.2017 20:43 -2,7 °C -2,7 °C 88 % 1024,4 hPa 0,0 mm 0,1 km/h (0 Bft) S 175 ° 0 min 0,000 mm 0,0 UV-I 0 W/m² -4,4 °C -2,7 °C 1,6 km/h (1 Bft)
29.01.2017 20:44 -2,7 °C -2,7 °C 88 % 1024,4 hPa 0,0 mm 0,1 km/h (0 Bft) S 175 ° 0 min 0,000 mm 0,0 UV-I 0 W/m² -4,4 °C -2,7 °C 1,6 km/h (1 Bft)
29.01.2017 20:45 -2,7 °C -2,7 °C 88 % 1024,4 hPa 0,0 mm 0,0 km/h (0 Bft) S 175 ° 0 min 0,000 mm 0,0 UV-I 0 W/m² -4,4 °C -2,7 °C 0,0 km/h (0 Bft)
29.01.2017 20:46 -2,7 °C -2,7 °C 88 % 1024,4 hPa 0,0 mm 0,0 km/h (0 Bft) S 175 ° 0 min 0,000 mm 0,0 UV-I 0 W/m² -4,4 °C -2,7 °C 0,0 km/h (0 Bft)
29.01.2017 20:47 -2,7 °C -2,7 °C 88 % 1024,3 hPa 0,0 mm 0,0 km/h (0 Bft) S 175 ° 0 min 0,000 mm 0,0 UV-I 0 W/m² -4,4 °C -2,7 °C 0,0 km/h (0 Bft)
29.01.2017 20:48 -2,8 °C -2,7 °C 88 % 1024,4 hPa 0,0 mm 0,0 km/h (0 Bft) S 175 ° 0 min 0,000 mm 0,0 UV-I 0 W/m² -4,5 °C -2,8 °C 0,0 km/h (0 Bft)
29.01.2017 20:49 -2,8 °C -2,8 °C 88 % 1024,5 hPa 0,0 mm 0,0 km/h (0 Bft) S 175 ° 0 min 0,000 mm 0,0 UV-I 0 W/m² -4,5 °C -2,8 °C 0,0 km/h (0 Bft)
29.01.2017 20:50 -2,8 °C -2,8 °C 88 % 1024,4 hPa 0,0 mm 0,1 km/h (0 Bft) S 175 ° 0 min 0,000 mm 0,0 UV-I 0 W/m² -4,5 °C -2,8 °C 1,6 km/h (1 Bft)
29.01.2017 20:51 -2,8 °C -2,8 °C 88 % 1024,4 hPa 0,0 mm 0,1 km/h (0 Bft) S 175 ° 0 min 0,000 mm 0,0 UV-I 0 W/m² -4,5 °C -2,8 °C 1,6 km/h (1 Bft)
29.01.2017 20:52 -2,8 °C -2,8 °C 88 % 1024,4 hPa 0,0 mm 0,1 km/h (0 Bft) S 175 ° 0 min 0,000 mm 0,0 UV-I 0 W/m² -4,5 °C -2,8 °C 1,6 km/h (1 Bft)
29.01.2017 20:53 -2,8 °C -2,8 °C 87 % 1024,3 hPa 0,0 mm 0,0 km/h (0 Bft) S 175 ° 0 min 0,000 mm 0,0 UV-I 0 W/m² -4,7 °C -2,8 °C 0,0 km/h (0 Bft)
29.01.2017 20:54 -2,8 °C -2,8 °C 88 % 1024,3 hPa 0,0 mm 0,0 km/h (0 Bft) S 175 ° 0 min 0,000 mm 0,0 UV-I 0 W/m² -4,5 °C -2,8 °C 0,0 km/h (0 Bft)
29.01.2017 20:55 -2,9 °C -2,8 °C 87 % 1024,3 hPa 0,0 mm 0,0 km/h (0 Bft) S 175 ° 0 min 0,000 mm 0,0 UV-I 0 W/m² -4,8 °C -2,9 °C 0,0 km/h (0 Bft)
29.01.2017 20:56 -2,9 °C -2,9 °C 87 % 1024,3 hPa 0,0 mm 0,0 km/h (0 Bft) S 175 ° 0 min 0,000 mm 0,0 UV-I 0 W/m² -4,8 °C -2,9 °C 0,0 km/h (0 Bft)
29.01.2017 20:57 -2,9 °C -2,9 °C 88 % 1024,3 hPa 0,0 mm 0,0 km/h (0 Bft) S 175 ° 0 min 0,000 mm 0,0 UV-I 0 W/m² -4,6 °C -2,9 °C 0,0 km/h (0 Bft)
29.01.2017 20:58 -2,9 °C -2,9 °C 88 % 1024,3 hPa 0,0 mm 0,0 km/h (0 Bft) S 175 ° 0 min 0,000 mm 0,0 UV-I 0 W/m² -4,6 °C -2,9 °C 0,0 km/h (0 Bft)
29.01.2017 20:59 -2,9 °C -2,9 °C 88 % 1024,4 hPa 0,0 mm 0,0 km/h (0 Bft) S 175 ° 0 min 0,000 mm 0,0 UV-I 0 W/m² -4,6 °C -2,9 °C 0,0 km/h (0 Bft)
29.01.2017 21:00 -2,9 °C -2,9 °C 88 % 1024,4 hPa 0,0 mm 0,0 km/h (0 Bft) S 175 ° 0 min 0,000 mm 0,0 UV-I 0 W/m² -4,6 °C -2,9 °C 0,0 km/h (0 Bft)
29.01.2017 21:01 -2,9 °C -2,9 °C 88 % 1024,4 hPa 0,0 mm 0,0 km/h (0 Bft) S 175 ° 0 min 0,000 mm 0,0 UV-I 0 W/m² -4,6 °C -2,9 °C 0,0 km/h (0 Bft)
29.01.2017 21:02 -2,9 °C -2,9 °C 88 % 1024,4 hPa 0,0 mm 0,0 km/h (0 Bft) S 175 ° 0 min 0,000 mm 0,0 UV-I 0 W/m² -4,6 °C -2,9 °C 0,0 km/h (0 Bft)
29.01.2017 21:03 -3,0 °C -2,9 °C 88 % 1024,4 hPa 0,0 mm 0,0 km/h (0 Bft) S 175 ° 0 min 0,000 mm 0,0 UV-I 0 W/m² -4,7 °C -3,0 °C 0,0 km/h (0 Bft)
29.01.2017 21:04 -3,0 °C -3,0 °C 88 % 1024,4 hPa 0,0 mm 0,0 km/h (0 Bft) S 175 ° 0 min 0,000 mm 0,0 UV-I 0 W/m² -4,7 °C -3,0 °C 0,0 km/h (0 Bft)
29.01.2017 21:05 -3,1 °C -3,0 °C 88 % 1024,4 hPa 0,0 mm 0,0 km/h (0 Bft) S 175 ° 0 min 0,000 mm 0,0 UV-I 0 W/m² -4,8 °C -3,1 °C 0,0 km/h (0 Bft)
29.01.2017 21:06 -3,1 °C -3,1 °C 88 % 1024,4 hPa 0,0 mm 0,0 km/h (0 Bft) S 175 ° 0 min 0,000 mm 0,0 UV-I 0 W/m² -4,8 °C -3,1 °C 0,0 km/h (0 Bft)
29.01.2017 21:07 -3,1 °C -3,1 °C 88 % 1024,4 hPa 0,0 mm 0,0 km/h (0 Bft) S 175 ° 0 min 0,000 mm 0,0 UV-I 0 W/m² -4,8 °C -3,1 °C 0,0 km/h (0 Bft)
29.01.2017 21:08 -3,1 °C -3,1 °C 88 % 1024,4 hPa 0,0 mm 0,0 km/h (0 Bft) S 175 ° 0 min 0,000 mm 0,0 UV-I 0 W/m² -4,8 °C -3,1 °C 0,0 km/h (0 Bft)
29.01.2017 21:09 -3,1 °C -3,1 °C 88 % 1024,4 hPa 0,0 mm 0,0 km/h (0 Bft) S 175 ° 0 min 0,000 mm 0,0 UV-I 0 W/m² -4,8 °C -3,1 °C 0,0 km/h (0 Bft)
29.01.2017 21:10 -3,1 °C -3,1 °C 88 % 1024,4 hPa 0,0 mm 0,0 km/h (0 Bft) S 175 ° 0 min 0,000 mm 0,0 UV-I 0 W/m² -4,8 °C -3,1 °C 0,0 km/h (0 Bft)
29.01.2017 21:11 -3,1 °C -3,1 °C 88 % 1024,3 hPa 0,0 mm 0,0 km/h (0 Bft) S 175 ° 0 min 0,000 mm 0,0 UV-I 0 W/m² -4,8 °C -3,1 °C 0,0 km/h (0 Bft)
29.01.2017 21:12 -3,1 °C -3,1 °C 89 % 1024,3 hPa 0,0 mm 0,0 km/h (0 Bft) S 175 ° 0 min 0,000 mm 0,0 UV-I 0 W/m² -4,6 °C -3,1 °C 0,0 km/h (0 Bft)
29.01.2017 21:13 -3,1 °C -3,1 °C 89 % 1024,4 hPa 0,0 mm 0,0 km/h (0 Bft) S 175 ° 0 min 0,000 mm 0,0 UV-I 0 W/m² -4,6 °C -3,1 °C 0,0 km/h (0 Bft)
29.01.2017 21:14 -3,2 °C -3,1 °C 89 % 1024,3 hPa 0,0 mm 0,0 km/h (0 Bft) S 175 ° 0 min 0,000 mm 0,0 UV-I 0 W/m² -4,7 °C -3,2 °C 0,0 km/h (0 Bft)
29.01.2017 21:15 -3,2 °C -3,2 °C 89 % 1024,4 hPa 0,0 mm 0,0 km/h (0 Bft) S 175 ° 0 min 0,000 mm 0,0 UV-I 0 W/m² -4,7 °C -3,2 °C 0,0 km/h (0 Bft)
29.01.2017 21:16 -3,2 °C -3,2 °C 89 % 1024,4 hPa 0,0 mm 0,0 km/h (0 Bft) S 175 ° 0 min 0,000 mm 0,0 UV-I 0 W/m² -4,7 °C -3,2 °C 0,0 km/h (0 Bft)
29.01.2017 21:17 -3,2 °C -3,2 °C 88 % 1024,4 hPa 0,0 mm 0,0 km/h (0 Bft) S 175 ° 0 min 0,000 mm 0,0 UV-I 0 W/m² -4,9 °C -3,2 °C 0,0 km/h (0 Bft)
29.01.2017 21:18 -3,2 °C -3,2 °C 88 % 1024,3 hPa 0,0 mm 0,0 km/h (0 Bft) S 175 ° 0 min 0,000 mm 0,0 UV-I 0 W/m² -4,9 °C -3,2 °C 0,0 km/h (0 Bft)
29.01.2017 21:19 -3,3 °C -3,2 °C 88 % 1024,4 hPa 0,0 mm 0,0 km/h (0 Bft) S 175 ° 0 min 0,000 mm 0,0 UV-I 0 W/m² -5,0 °C -3,3 °C 0,0 km/h (0 Bft)
29.01.2017 21:20 -3,3 °C -3,3 °C 88 % 1024,4 hPa 0,0 mm 0,0 km/h (0 Bft) S 175 ° 0 min 0,000 mm 0,0 UV-I 0 W/m² -5,0 °C -3,3 °C 0,0 km/h (0 Bft)
29.01.2017 21:21 -3,3 °C -3,3 °C 89 % 1024,4 hPa 0,0 mm 0,0 km/h (0 Bft) S 175 ° 0 min 0,000 mm 0,0 UV-I 0 W/m² -4,8 °C -3,3 °C 0,0 km/h (0 Bft)
29.01.2017 21:22 -3,3 °C -3,3 °C 89 % 1024,4 hPa 0,0 mm 0,0 km/h (0 Bft) S 175 ° 0 min 0,000 mm 0,0 UV-I 0 W/m² -4,8 °C -3,3 °C 0,0 km/h (0 Bft)
29.01.2017 21:23 -3,3 °C -3,3 °C 89 % 1024,4 hPa 0,0 mm 0,0 km/h (0 Bft) S 175 ° 0 min 0,000 mm 0,0 UV-I 0 W/m² -4,8 °C -3,3 °C 0,0 km/h (0 Bft)
29.01.2017 21:24 -3,3 °C -3,3 °C 89 % 1024,4 hPa 0,0 mm 0,0 km/h (0 Bft) S 175 ° 0 min 0,000 mm 0,0 UV-I 0 W/m² -4,8 °C -3,3 °C 0,0 km/h (0 Bft)
29.01.2017 21:25 -3,3 °C -3,3 °C 89 % 1024,4 hPa 0,0 mm 0,0 km/h (0 Bft) S 175 ° 0 min 0,000 mm 0,0 UV-I 0 W/m² -4,8 °C -3,3 °C 0,0 km/h (0 Bft)
29.01.2017 21:26 -3,3 °C -3,3 °C 89 % 1024,4 hPa 0,0 mm 0,0 km/h (0 Bft) S 175 ° 0 min 0,000 mm 0,0 UV-I 0 W/m² -4,8 °C -3,3 °C 0,0 km/h (0 Bft)
29.01.2017 21:27 -3,3 °C -3,3 °C 89 % 1024,4 hPa 0,0 mm 0,0 km/h (0 Bft) S 175 ° 0 min 0,000 mm 0,0 UV-I 0 W/m² -4,8 °C -3,3 °C 0,0 km/h (0 Bft)
29.01.2017 21:28 -3,4 °C -3,3 °C 89 % 1024,4 hPa 0,0 mm 0,0 km/h (0 Bft) S 175 ° 0 min 0,000 mm 0,0 UV-I 0 W/m² -4,9 °C -3,4 °C 0,0 km/h (0 Bft)
29.01.2017 21:29 -3,4 °C -3,4 °C 89 % 1024,4 hPa 0,0 mm 0,0 km/h (0 Bft) S 175 ° 0 min 0,000 mm 0,0 UV-I 0 W/m² -4,9 °C -3,4 °C 0,0 km/h (0 Bft)
29.01.2017 21:30 -3,4 °C -3,4 °C 89 % 1024,4 hPa 0,0 mm 0,0 km/h (0 Bft) S 175 ° 0 min 0,000 mm 0,0 UV-I 0 W/m² -4,9 °C -3,4 °C 0,0 km/h (0 Bft)
29.01.2017 21:31 -3,4 °C -3,4 °C 89 % 1024,3 hPa 0,0 mm 0,0 km/h (0 Bft) S 175 ° 0 min 0,000 mm 0,0 UV-I 0 W/m² -4,9 °C -3,4 °C 0,0 km/h (0 Bft)
29.01.2017 21:32 -3,4 °C -3,4 °C 89 % 1024,3 hPa 0,0 mm 0,0 km/h (0 Bft) S 175 ° 0 min 0,000 mm 0,0 UV-I 0 W/m² -4,9 °C -3,4 °C 0,0 km/h (0 Bft)
29.01.2017 21:33 -3,4 °C -3,4 °C 89 % 1024,3 hPa 0,0 mm 0,0 km/h (0 Bft) S 175 ° 0 min 0,000 mm 0,0 UV-I 0 W/m² -4,9 °C -3,4 °C 0,0 km/h (0 Bft)
29.01.2017 21:34 -3,4 °C -3,4 °C 89 % 1024,4 hPa 0,0 mm 0,0 km/h (0 Bft) S 175 ° 0 min 0,000 mm 0,0 UV-I 0 W/m² -4,9 °C -3,4 °C 0,0 km/h (0 Bft)
29.01.2017 21:35 -3,5 °C -3,4 °C 89 % 1024,4 hPa 0,0 mm 0,0 km/h (0 Bft) S 175 ° 0 min 0,000 mm 0,0 UV-I 0 W/m² -5,0 °C -3,5 °C 0,0 km/h (0 Bft)
29.01.2017 21:36 -3,5 °C -3,4 °C 89 % 1024,4 hPa 0,0 mm 0,0 km/h (0 Bft) S 175 ° 0 min 0,000 mm 0,0 UV-I 0 W/m² -5,0 °C -3,5 °C 0,0 km/h (0 Bft)
29.01.2017 21:37 -3,5 °C -3,5 °C 89 % 1024,4 hPa 0,0 mm 0,0 km/h (0 Bft) S 175 ° 0 min 0,000 mm 0,0 UV-I 0 W/m² -5,0 °C -3,5 °C 0,0 km/h (0 Bft)
29.01.2017 21:38 -3,6 °C -3,5 °C 89 % 1024,3 hPa 0,0 mm 0,0 km/h (0 Bft) S 175 ° 0 min 0,000 mm 0,0 UV-I 0 W/m² -5,1 °C -3,6 °C 0,0 km/h (0 Bft)
29.01.2017 21:39 -3,6 °C -3,6 °C 89 % 1024,3 hPa 0,0 mm 0,0 km/h (0 Bft) S 175 ° 0 min 0,000 mm 0,0 UV-I 0 W/m² -5,1 °C -3,6 °C 0,0 km/h (0 Bft)
29.01.2017 21:40 -3,6 °C -3,6 °C 89 % 1024,3 hPa 0,0 mm 0,0 km/h (0 Bft) S 175 ° 0 min 0,000 mm 0,0 UV-I 0 W/m² -5,1 °C -3,6 °C 0,0 km/h (0 Bft)
29.01.2017 21:41 -3,6 °C -3,6 °C 89 % 1024,2 hPa 0,0 mm 0,0 km/h (0 Bft) S 175 ° 0 min 0,000 mm 0,0 UV-I 0 W/m² -5,1 °C -3,6 °C 0,0 km/h (0 Bft)
29.01.2017 21:42 -3,6 °C -3,6 °C 89 % 1024,2 hPa 0,0 mm 0,0 km/h (0 Bft) S 175 ° 0 min 0,000 mm 0,0 UV-I 0 W/m² -5,1 °C -3,6 °C 0,0 km/h (0 Bft)
29.01.2017 21:43 -3,6 °C -3,6 °C 89 % 1024,3 hPa 0,0 mm 0,0 km/h (0 Bft) S 175 ° 0 min 0,000 mm 0,0 UV-I 0 W/m² -5,1 °C -3,6 °C 0,0 km/h (0 Bft)
29.01.2017 21:44 -3,6 °C -3,6 °C 89 % 1024,2 hPa 0,0 mm 0,0 km/h (0 Bft) S 175 ° 0 min 0,000 mm 0,0 UV-I 0 W/m² -5,1 °C -3,6 °C 0,0 km/h (0 Bft)
29.01.2017 21:45 -3,7 °C -3,6 °C 89 % 1024,3 hPa 0,0 mm 0,0 km/h (0 Bft) S 175 ° 0 min 0,000 mm 0,0 UV-I 0 W/m² -5,2 °C -3,7 °C 0,0 km/h (0 Bft)
29.01.2017 21:46 -3,7 °C -3,7 °C 89 % 1024,3 hPa 0,0 mm 0,0 km/h (0 Bft) S 175 ° 0 min 0,000 mm 0,0 UV-I 0 W/m² -5,2 °C -3,7 °C 0,0 km/h (0 Bft)
29.01.2017 21:47 -3,7 °C -3,7 °C 89 % 1024,3 hPa 0,0 mm 0,0 km/h (0 Bft) S 175 ° 0 min 0,000 mm 0,0 UV-I 0 W/m² -5,2 °C -3,7 °C 0,0 km/h (0 Bft)
29.01.2017 21:48 -3,7 °C -3,7 °C 90 % 1024,2 hPa 0,0 mm 0,0 km/h (0 Bft) S 175 ° 0 min 0,000 mm 0,0 UV-I 0 W/m² -5,1 °C -3,7 °C 0,0 km/h (0 Bft)
29.01.2017 21:49 -3,7 °C -3,7 °C 90 % 1024,2 hPa 0,0 mm 0,0 km/h (0 Bft) S 175 ° 0 min 0,000 mm 0,0 UV-I 0 W/m² -5,1 °C -3,7 °C 0,0 km/h (0 Bft)
29.01.2017 21:50 -3,7 °C -3,7 °C 90 % 1024,2 hPa 0,0 mm 0,0 km/h (0 Bft) S 175 ° 0 min 0,000 mm 0,0 UV-I 0 W/m² -5,1 °C -3,7 °C 0,0 km/h (0 Bft)
29.01.2017 21:51 -3,7 °C -3,7 °C 90 % 1024,2 hPa 0,0 mm 0,0 km/h (0 Bft) S 175 ° 0 min 0,000 mm 0,0 UV-I 0 W/m² -5,1 °C -3,7 °C 0,0 km/h (0 Bft)
29.01.2017 21:52 -3,7 °C -3,7 °C 90 % 1024,2 hPa 0,0 mm 0,0 km/h (0 Bft) S 175 ° 0 min 0,000 mm 0,0 UV-I 0 W/m² -5,1 °C -3,7 °C 0,0 km/h (0 Bft)
29.01.2017 21:53 -3,7 °C -3,7 °C 90 % 1024,2 hPa 0,0 mm 0,0 km/h (0 Bft) S 175 ° 0 min 0,000 mm 0,0 UV-I 0 W/m² -5,1 °C -3,7 °C 0,0 km/h (0 Bft)
29.01.2017 21:54 -3,8 °C -3,7 °C 90 % 1024,2 hPa 0,0 mm 0,0 km/h (0 Bft) S 175 ° 0 min 0,000 mm 0,0 UV-I 0 W/m² -5,2 °C -3,8 °C 0,0 km/h (0 Bft)
29.01.2017 21:55 -3,8 °C -3,7 °C 90 % 1024,2 hPa 0,0 mm 0,0 km/h (0 Bft) S 175 ° 0 min 0,000 mm 0,0 UV-I 0 W/m² -5,2 °C -3,8 °C 0,0 km/h (0 Bft)
29.01.2017 21:56 -3,8 °C -3,8 °C 90 % 1024,1 hPa 0,0 mm 0,4 km/h (0 Bft) S 175 ° 0 min 0,000 mm 0,0 UV-I 0 W/m² -5,2 °C -3,8 °C 1,6 km/h (1 Bft)
29.01.2017 21:57 -3,8 °C -3,8 °C 90 % 1024,2 hPa 0,0 mm 0,0 km/h (0 Bft) S 175 ° 0 min 0,000 mm 0,0 UV-I 0 W/m² -5,2 °C -3,8 °C 0,0 km/h (0 Bft)
29.01.2017 21:58 -3,8 °C -3,8 °C 90 % 1024,2 hPa 0,0 mm 0,0 km/h (0 Bft) S 175 ° 0 min 0,000 mm 0,0 UV-I 0 W/m² -5,2 °C -3,8 °C 0,0 km/h (0 Bft)
29.01.2017 21:59 -3,8 °C -3,8 °C 90 % 1024,2 hPa 0,0 mm 0,0 km/h (0 Bft) S 175 ° 0 min 0,000 mm 0,0 UV-I 0 W/m² -5,2 °C -3,8 °C 0,0 km/h (0 Bft)
29.01.2017 22:00 -3,8 °C -3,8 °C 90 % 1024,2 hPa 0,0 mm 0,0 km/h (0 Bft) S 175 ° 0 min 0,000 mm 0,0 UV-I 0 W/m² -5,2 °C -3,8 °C 0,0 km/h (0 Bft)
29.01.2017 22:01 -3,8 °C -3,8 °C 90 % 1024,2 hPa 0,0 mm 0,0 km/h (0 Bft) S 175 ° 0 min 0,000 mm 0,0 UV-I 0 W/m² -5,2 °C -3,8 °C 0,0 km/h (0 Bft)
29.01.2017 22:02 -3,8 °C -3,8 °C 90 % 1024,1 hPa 0,0 mm 0,0 km/h (0 Bft) S 175 ° 0 min 0,000 mm 0,0 UV-I 0 W/m² -5,2 °C -3,8 °C 0,0 km/h (0 Bft)
29.01.2017 22:03 -3,8 °C -3,8 °C 90 % 1024,1 hPa 0,0 mm 0,0 km/h (0 Bft) S 175 ° 0 min 0,000 mm 0,0 UV-I 0 W/m² -5,2 °C -3,8 °C 0,0 km/h (0 Bft)
29.01.2017 22:04 -3,8 °C -3,8 °C 90 % 1024,1 hPa 0,0 mm 0,0 km/h (0 Bft) S 175 ° 0 min 0,000 mm 0,0 UV-I 0 W/m² -5,2 °C -3,8 °C 0,0 km/h (0 Bft)
29.01.2017 22:05 -3,9 °C -3,8 °C 90 % 1024,1 hPa 0,0 mm 0,0 km/h (0 Bft) S 175 ° 0 min 0,000 mm 0,0 UV-I 0 W/m² -5,3 °C -3,9 °C 0,0 km/h (0 Bft)
29.01.2017 22:06 -3,9 °C -3,9 °C 90 % 1024,1 hPa 0,0 mm 0,0 km/h (0 Bft) S 175 ° 0 min 0,000 mm 0,0 UV-I 0 W/m² -5,3 °C -3,9 °C 0,0 km/h (0 Bft)
29.01.2017 22:07 -3,9 °C -3,9 °C 90 % 1024,2 hPa 0,0 mm 0,0 km/h (0 Bft) S 175 ° 0 min 0,000 mm 0,0 UV-I 0 W/m² -5,3 °C -3,9 °C 0,0 km/h (0 Bft)
29.01.2017 22:08 -3,9 °C -3,9 °C 90 % 1024,1 hPa 0,0 mm 0,0 km/h (0 Bft) S 175 ° 0 min 0,000 mm 0,0 UV-I 0 W/m² -5,3 °C -3,9 °C 0,0 km/h (0 Bft)
29.01.2017 22:09 -3,9 °C -3,9 °C 90 % 1024,1 hPa 0,0 mm 0,0 km/h (0 Bft) S 175 ° 0 min 0,000 mm 0,0 UV-I 0 W/m² -5,3 °C -3,9 °C 0,0 km/h (0 Bft)
29.01.2017 22:10 -3,9 °C -3,9 °C 90 % 1024,1 hPa 0,0 mm 0,0 km/h (0 Bft) S 175 ° 0 min 0,000 mm 0,0 UV-I 0 W/m² -5,3 °C -3,9 °C 0,0 km/h (0 Bft)
29.01.2017 22:11 -4,0 °C -3,9 °C 90 % 1024,1 hPa 0,0 mm 0,0 km/h (0 Bft) S 175 ° 0 min 0,000 mm 0,0 UV-I 0 W/m² -5,4 °C -4,0 °C 0,0 km/h (0 Bft)
29.01.2017 22:12 -4,0 °C -3,9 °C 90 % 1024,1 hPa 0,0 mm 0,2 km/h (0 Bft) S 175 ° 0 min 0,000 mm 0,0 UV-I 0 W/m² -5,4 °C -4,0 °C 1,6 km/h (1 Bft)
29.01.2017 22:13 -4,0 °C -4,0 °C 90 % 1024,0 hPa 0,0 mm 0,5 km/h (0 Bft) S 175 ° 0 min 0,000 mm 0,0 UV-I 0 W/m² -5,4 °C -4,0 °C 1,6 km/h (1 Bft)
29.01.2017 22:14 -4,1 °C -4,0 °C 90 % 1024,1 hPa 0,0 mm 0,0 km/h (0 Bft) S 175 ° 0 min 0,000 mm 0,0 UV-I 0 W/m² -5,5 °C -4,1 °C 0,0 km/h (0 Bft)
29.01.2017 22:15 -4,1 °C -4,0 °C 90 % 1024,1 hPa 0,0 mm 0,0 km/h (0 Bft) S 175 ° 0 min 0,000 mm 0,0 UV-I 0 W/m² -5,5 °C -4,1 °C 0,0 km/h (0 Bft)
29.01.2017 22:16 -4,1 °C -4,1 °C 90 % 1024,0 hPa 0,0 mm 0,0 km/h (0 Bft) S 175 ° 0 min 0,000 mm 0,0 UV-I 0 W/m² -5,5 °C -4,1 °C 0,0 km/h (0 Bft)
29.01.2017 22:17 -4,1 °C -4,1 °C 90 % 1024,0 hPa 0,0 mm 0,0 km/h (0 Bft) S 175 ° 0 min 0,000 mm 0,0 UV-I 0 W/m² -5,5 °C -4,1 °C 0,0 km/h (0 Bft)
29.01.2017 22:18 -4,1 °C -4,1 °C 90 % 1024,0 hPa 0,0 mm 0,0 km/h (0 Bft) S 175 ° 0 min 0,000 mm 0,0 UV-I 0 W/m² -5,5 °C -4,1 °C 0,0 km/h (0 Bft)
29.01.2017 22:19 -4,1 °C -4,1 °C 90 % 1024,0 hPa 0,0 mm 0,0 km/h (0 Bft) S 175 ° 0 min 0,000 mm 0,0 UV-I 0 W/m² -5,5 °C -4,1 °C 0,0 km/h (0 Bft)
29.01.2017 22:20 -4,1 °C -4,1 °C 90 % 1024,0 hPa 0,0 mm 0,0 km/h (0 Bft) S 175 ° 0 min 0,000 mm 0,0 UV-I 0 W/m² -5,5 °C -4,1 °C 0,0 km/h (0 Bft)
29.01.2017 22:21 -4,1 °C -4,1 °C 90 % 1024,0 hPa 0,0 mm 0,0 km/h (0 Bft) S 175 ° 0 min 0,000 mm 0,0 UV-I 0 W/m² -5,5 °C -4,1 °C 0,0 km/h (0 Bft)
29.01.2017 22:22 -4,1 °C -4,1 °C 90 % 1024,0 hPa 0,0 mm 0,4 km/h (0 Bft) S 175 ° 0 min 0,000 mm 0,0 UV-I 0 W/m² -5,5 °C -4,1 °C 1,6 km/h (1 Bft)
29.01.2017 22:23 -4,1 °C -4,1 °C 91 % 1024,0 hPa 0,0 mm 0,0 km/h (0 Bft) S 175 ° 0 min 0,000 mm 0,0 UV-I 0 W/m² -5,3 °C -4,1 °C 0,0 km/h (0 Bft)
29.01.2017 22:24 -4,1 °C -4,1 °C 91 % 1024,0 hPa 0,0 mm 0,0 km/h (0 Bft) S 175 ° 0 min 0,000 mm 0,0 UV-I 0 W/m² -5,3 °C -4,1 °C 0,0 km/h (0 Bft)
29.01.2017 22:25 -4,1 °C -4,1 °C 91 % 1024,0 hPa 0,0 mm 0,0 km/h (0 Bft) S 175 ° 0 min 0,000 mm 0,0 UV-I 0 W/m² -5,3 °C -4,1 °C 0,0 km/h (0 Bft)
29.01.2017 22:26 -4,1 °C -4,1 °C 91 % 1024,0 hPa 0,0 mm 0,0 km/h (0 Bft) S 175 ° 0 min 0,000 mm 0,0 UV-I 0 W/m² -5,3 °C -4,1 °C 0,0 km/h (0 Bft)
29.01.2017 22:27 -4,1 °C -4,1 °C 91 % 1024,0 hPa 0,0 mm 0,0 km/h (0 Bft) S 175 ° 0 min 0,000 mm 0,0 UV-I 0 W/m² -5,3 °C -4,1 °C 0,0 km/h (0 Bft)
29.01.2017 22:28 -4,1 °C -4,1 °C 91 % 1024,0 hPa 0,0 mm 0,0 km/h (0 Bft) S 175 ° 0 min 0,000 mm 0,0 UV-I 0 W/m² -5,3 °C -4,1 °C 0,0 km/h (0 Bft)
29.01.2017 22:29 -4,1 °C -4,1 °C 91 % 1024,0 hPa 0,0 mm 0,0 km/h (0 Bft) S 175 ° 0 min 0,000 mm 0,0 UV-I 0 W/m² -5,3 °C -4,1 °C 0,0 km/h (0 Bft)
29.01.2017 22:30 -4,1 °C -4,1 °C 91 % 1024,0 hPa 0,0 mm 0,0 km/h (0 Bft) S 175 ° 0 min 0,000 mm 0,0 UV-I 0 W/m² -5,3 °C -4,1 °C 0,0 km/h (0 Bft)
29.01.2017 22:31 -4,1 °C -4,1 °C 91 % 1024,0 hPa 0,0 mm 0,3 km/h (0 Bft) S 175 ° 0 min 0,000 mm 0,0 UV-I 0 W/m² -5,3 °C -4,1 °C 1,6 km/h (1 Bft)
29.01.2017 22:32 -4,1 °C -4,1 °C 91 % 1023,9 hPa 0,0 mm 0,0 km/h (0 Bft) S 175 ° 0 min 0,000 mm 0,0 UV-I 0 W/m² -5,3 °C -4,1 °C 0,0 km/h (0 Bft)
29.01.2017 22:33 -4,2 °C -4,1 °C 91 % 1024,0 hPa 0,0 mm 0,1 km/h (0 Bft) S 175 ° 0 min 0,000 mm 0,0 UV-I 0 W/m² -5,4 °C -4,2 °C 1,6 km/h (1 Bft)
29.01.2017 22:34 -4,2 °C -4,2 °C 91 % 1024,0 hPa 0,0 mm 0,0 km/h (0 Bft) S 175 ° 0 min 0,000 mm 0,0 UV-I 0 W/m² -5,4 °C -4,2 °C 0,0 km/h (0 Bft)
29.01.2017 22:35 -4,2 °C -4,2 °C 91 % 1024,0 hPa 0,0 mm 0,0 km/h (0 Bft) S 175 ° 0 min 0,000 mm 0,0 UV-I 0 W/m² -5,4 °C -4,2 °C 0,0 km/h (0 Bft)
29.01.2017 22:36 -4,2 °C -4,2 °C 91 % 1024,0 hPa 0,0 mm 0,0 km/h (0 Bft) S 175 ° 0 min 0,000 mm 0,0 UV-I 0 W/m² -5,4 °C -4,2 °C 0,0 km/h (0 Bft)
29.01.2017 22:37 -4,2 °C -4,2 °C 91 % 1024,0 hPa 0,0 mm 0,0 km/h (0 Bft) S 175 ° 0 min 0,000 mm 0,0 UV-I 0 W/m² -5,4 °C -4,2 °C 0,0 km/h (0 Bft)
29.01.2017 22:38 -4,2 °C -4,2 °C 91 % 1024,0 hPa 0,0 mm 0,0 km/h (0 Bft) S 175 ° 0 min 0,000 mm 0,0 UV-I 0 W/m² -5,4 °C -4,2 °C 0,0 km/h (0 Bft)
29.01.2017 22:39 -4,2 °C -4,2 °C 91 % 1024,0 hPa 0,0 mm 0,0 km/h (0 Bft) S 175 ° 0 min 0,000 mm 0,0 UV-I 0 W/m² -5,4 °C -4,2 °C 0,0 km/h (0 Bft)
29.01.2017 22:40 -4,2 °C -4,2 °C 91 % 1023,9 hPa 0,0 mm 0,0 km/h (0 Bft) S 175 ° 0 min 0,000 mm 0,0 UV-I 0 W/m² -5,4 °C -4,2 °C 0,0 km/h (0 Bft)
29.01.2017 22:41 -4,3 °C -4,2 °C 91 % 1023,9 hPa 0,0 mm 0,0 km/h (0 Bft) S 175 ° 0 min 0,000 mm 0,0 UV-I 0 W/m² -5,5 °C -4,3 °C 0,0 km/h (0 Bft)
29.01.2017 22:42 -4,2 °C -4,2 °C 91 % 1023,9 hPa 0,0 mm 0,0 km/h (0 Bft) S 175 ° 0 min 0,000 mm 0,0 UV-I 0 W/m² -5,4 °C -4,2 °C 0,0 km/h (0 Bft)
29.01.2017 22:43 -4,3 °C -4,2 °C 91 % 1023,9 hPa 0,0 mm 0,0 km/h (0 Bft) S 175 ° 0 min 0,000 mm 0,0 UV-I 0 W/m² -5,5 °C -4,3 °C 0,0 km/h (0 Bft)
29.01.2017 22:44 -4,3 °C -4,3 °C 91 % 1023,9 hPa 0,0 mm 0,0 km/h (0 Bft) S 175 ° 0 min 0,000 mm 0,0 UV-I 0 W/m² -5,5 °C -4,3 °C 0,0 km/h (0 Bft)
29.01.2017 22:45 -4,3 °C -4,3 °C 91 % 1023,9 hPa 0,0 mm 0,0 km/h (0 Bft) S 175 ° 0 min 0,000 mm 0,0 UV-I 0 W/m² -5,5 °C -4,3 °C 0,0 km/h (0 Bft)
29.01.2017 22:46 -4,3 °C -4,3 °C 91 % 1023,9 hPa 0,0 mm 0,0 km/h (0 Bft) S 175 ° 0 min 0,000 mm 0,0 UV-I 0 W/m² -5,5 °C -4,3 °C 0,0 km/h (0 Bft)
29.01.2017 22:47 -4,3 °C -4,3 °C 91 % 1023,9 hPa 0,0 mm 0,0 km/h (0 Bft) S 175 ° 0 min 0,000 mm 0,0 UV-I 0 W/m² -5,5 °C -4,3 °C 0,0 km/h (0 Bft)
29.01.2017 22:48 -4,3 °C -4,3 °C 91 % 1023,9 hPa 0,0 mm 0,0 km/h (0 Bft) S 175 ° 0 min 0,000 mm 0,0 UV-I 0 W/m² -5,5 °C -4,3 °C 0,0 km/h (0 Bft)
29.01.2017 22:49 -4,3 °C -4,3 °C 91 % 1023,9 hPa 0,0 mm 0,0 km/h (0 Bft) S 175 ° 0 min 0,000 mm 0,0 UV-I 0 W/m² -5,5 °C -4,3 °C 0,0 km/h (0 Bft)
29.01.2017 22:50 -4,3 °C -4,3 °C 91 % 1023,9 hPa 0,0 mm 0,0 km/h (0 Bft) S 175 ° 0 min 0,000 mm 0,0 UV-I 0 W/m² -5,5 °C -4,3 °C 0,0 km/h (0 Bft)
29.01.2017 22:51 -4,3 °C -4,3 °C 91 % 1023,9 hPa 0,0 mm 0,0 km/h (0 Bft) S 175 ° 0 min 0,000 mm 0,0 UV-I 0 W/m² -5,5 °C -4,3 °C 0,0 km/h (0 Bft)
29.01.2017 22:52 -4,4 °C -4,3 °C 91 % 1023,9 hPa 0,0 mm 0,0 km/h (0 Bft) S 175 ° 0 min 0,000 mm 0,0 UV-I 0 W/m² -5,6 °C -4,4 °C 0,0 km/h (0 Bft)
29.01.2017 22:53 -4,4 °C -4,3 °C 91 % 1023,9 hPa 0,0 mm 0,0 km/h (0 Bft) S 175 ° 0 min 0,000 mm 0,0 UV-I 0 W/m² -5,6 °C -4,4 °C 0,0 km/h (0 Bft)
29.01.2017 22:54 -4,4 °C -4,4 °C 91 % 1023,9 hPa 0,0 mm 0,0 km/h (0 Bft) S 175 ° 0 min 0,000 mm 0,0 UV-I 0 W/m² -5,6 °C -4,4 °C 0,0 km/h (0 Bft)
29.01.2017 22:55 -4,4 °C -4,4 °C 91 % 1023,9 hPa 0,0 mm 0,0 km/h (0 Bft) S 175 ° 0 min 0,000 mm 0,0 UV-I 0 W/m² -5,6 °C -4,4 °C 0,0 km/h (0 Bft)
29.01.2017 22:56 -4,4 °C -4,4 °C 91 % 1023,9 hPa 0,0 mm 0,0 km/h (0 Bft) S 175 ° 0 min 0,000 mm 0,0 UV-I 0 W/m² -5,6 °C -4,4 °C 0,0 km/h (0 Bft)
29.01.2017 22:57 -4,4 °C -4,4 °C 91 % 1023,9 hPa 0,0 mm 0,0 km/h (0 Bft) S 175 ° 0 min 0,000 mm 0,0 UV-I 0 W/m² -5,6 °C -4,4 °C 0,0 km/h (0 Bft)
29.01.2017 22:58 -4,4 °C -4,4 °C 91 % 1023,9 hPa 0,0 mm 0,0 km/h (0 Bft) S 175 ° 0 min 0,000 mm 0,0 UV-I 0 W/m² -5,6 °C -4,4 °C 0,0 km/h (0 Bft)
29.01.2017 22:59 -4,4 °C -4,4 °C 91 % 1023,8 hPa 0,0 mm 0,0 km/h (0 Bft) S 175 ° 0 min 0,000 mm 0,0 UV-I 0 W/m² -5,6 °C -4,4 °C 0,0 km/h (0 Bft)
29.01.2017 23:00 -4,4 °C -4,4 °C 91 % 1023,8 hPa 0,0 mm 0,0 km/h (0 Bft) S 175 ° 0 min 0,000 mm 0,0 UV-I 0 W/m² -5,6 °C -4,4 °C 0,0 km/h (0 Bft)
29.01.2017 23:01 -4,4 °C -4,4 °C 91 % 1023,7 hPa 0,0 mm 0,0 km/h (0 Bft) S 175 ° 0 min 0,000 mm 0,0 UV-I 0 W/m² -5,6 °C -4,4 °C 0,0 km/h (0 Bft)
29.01.2017 23:02 -4,4 °C -4,4 °C 91 % 1023,7 hPa 0,0 mm 0,0 km/h (0 Bft) S 175 ° 0 min 0,000 mm 0,0 UV-I 0 W/m² -5,6 °C -4,4 °C 0,0 km/h (0 Bft)
29.01.2017 23:03 -4,4 °C -4,4 °C 91 % 1023,7 hPa 0,0 mm 0,0 km/h (0 Bft) S 175 ° 0 min 0,000 mm 0,0 UV-I 0 W/m² -5,6 °C -4,4 °C 0,0 km/h (0 Bft)
29.01.2017 23:04 -4,4 °C -4,4 °C 91 % 1023,7 hPa 0,0 mm 0,0 km/h (0 Bft) S 175 ° 0 min 0,000 mm 0,0 UV-I 0 W/m² -5,6 °C -4,4 °C 0,0 km/h (0 Bft)
29.01.2017 23:05 -4,4 °C -4,4 °C 92 % 1023,6 hPa 0,0 mm 0,0 km/h (0 Bft) S 175 ° 0 min 0,000 mm 0,0 UV-I 0 W/m² -5,5 °C -4,4 °C 0,0 km/h (0 Bft)
29.01.2017 23:06 -4,4 °C -4,4 °C 92 % 1023,7 hPa 0,0 mm 0,0 km/h (0 Bft) S 175 ° 0 min 0,000 mm 0,0 UV-I 0 W/m² -5,5 °C -4,4 °C 0,0 km/h (0 Bft)
29.01.2017 23:07 -4,4 °C -4,4 °C 92 % 1023,6 hPa 0,0 mm 0,0 km/h (0 Bft) S 175 ° 0 min 0,000 mm 0,0 UV-I 0 W/m² -5,5 °C -4,4 °C 0,0 km/h (0 Bft)
29.01.2017 23:08 -4,4 °C -4,4 °C 91 % 1023,7 hPa 0,0 mm 0,0 km/h (0 Bft) S 175 ° 0 min 0,000 mm 0,0 UV-I 0 W/m² -5,6 °C -4,4 °C 0,0 km/h (0 Bft)
29.01.2017 23:09 -4,4 °C -4,4 °C 91 % 1023,7 hPa 0,0 mm 0,0 km/h (0 Bft) S 175 ° 0 min 0,000 mm 0,0 UV-I 0 W/m² -5,6 °C -4,4 °C 0,0 km/h (0 Bft)
29.01.2017 23:10 -4,4 °C -4,4 °C 92 % 1023,7 hPa 0,0 mm 0,0 km/h (0 Bft) S 175 ° 0 min 0,000 mm 0,0 UV-I 0 W/m² -5,5 °C -4,4 °C 0,0 km/h (0 Bft)
29.01.2017 23:11 -4,4 °C -4,4 °C 92 % 1023,7 hPa 0,0 mm 1,6 km/h (1 Bft) S 175 ° 0 min 0,000 mm 0,0 UV-I 0 W/m² -5,5 °C -4,4 °C 3,2 km/h (1 Bft)
29.01.2017 23:12 -4,4 °C -4,4 °C 92 % 1023,7 hPa 0,0 mm 0,7 km/h (0 Bft) S 175 ° 0 min 0,000 mm 0,0 UV-I 0 W/m² -5,5 °C -4,4 °C 1,6 km/h (1 Bft)
29.01.2017 23:13 -4,4 °C -4,4 °C 92 % 1023,7 hPa 0,0 mm 0,2 km/h (0 Bft) S 175 ° 0 min 0,000 mm 0,0 UV-I 0 W/m² -5,5 °C -4,4 °C 1,6 km/h (1 Bft)
29.01.2017 23:14 -4,4 °C -4,4 °C 92 % 1023,7 hPa 0,0 mm 0,0 km/h (0 Bft) S 175 ° 0 min 0,000 mm 0,0 UV-I 0 W/m² -5,5 °C -4,4 °C 0,0 km/h (0 Bft)
29.01.2017 23:15 -4,4 °C -4,4 °C 92 % 1023,6 hPa 0,0 mm 0,0 km/h (0 Bft) S 175 ° 0 min 0,000 mm 0,0 UV-I 0 W/m² -5,5 °C -4,4 °C 0,0 km/h (0 Bft)
29.01.2017 23:16 -4,4 °C -4,3 °C 92 % 1023,6 hPa 0,0 mm 0,0 km/h (0 Bft) S 175 ° 0 min 0,000 mm 0,0 UV-I 0 W/m² -5,5 °C -4,4 °C 0,0 km/h (0 Bft)
29.01.2017 23:17 -4,4 °C -4,4 °C 92 % 1023,6 hPa 0,0 mm 0,0 km/h (0 Bft) S 175 ° 0 min 0,000 mm 0,0 UV-I 0 W/m² -5,5 °C -4,4 °C 0,0 km/h (0 Bft)
29.01.2017 23:18 -4,3 °C -4,3 °C 92 % 1023,6 hPa 0,0 mm 0,0 km/h (0 Bft) S 175 ° 0 min 0,000 mm 0,0 UV-I 0 W/m² -5,4 °C -4,3 °C 0,0 km/h (0 Bft)
29.01.2017 23:19 -4,3 °C -4,3 °C 92 % 1023,6 hPa 0,0 mm 0,0 km/h (0 Bft) S 175 ° 0 min 0,000 mm 0,0 UV-I 0 W/m² -5,4 °C -4,3 °C 0,0 km/h (0 Bft)
29.01.2017 23:20 -4,3 °C -4,3 °C 92 % 1023,6 hPa 0,0 mm 0,3 km/h (0 Bft) S 175 ° 0 min 0,000 mm 0,0 UV-I 0 W/m² -5,4 °C -4,3 °C 1,6 km/h (1 Bft)
29.01.2017 23:21 -4,4 °C -4,3 °C 92 % 1023,6 hPa 0,0 mm 0,0 km/h (0 Bft) S 175 ° 0 min 0,000 mm 0,0 UV-I 0 W/m² -5,5 °C -4,4 °C 0,0 km/h (0 Bft)
29.01.2017 23:22 -4,4 °C -4,3 °C 92 % 1023,6 hPa 0,0 mm 0,0 km/h (0 Bft) S 175 ° 0 min 0,000 mm 0,0 UV-I 0 W/m² -5,5 °C -4,4 °C 0,0 km/h (0 Bft)
29.01.2017 23:23 -4,4 °C -4,4 °C 92 % 1023,5 hPa 0,0 mm 0,0 km/h (0 Bft) S 175 ° 0 min 0,000 mm 0,0 UV-I 0 W/m² -5,5 °C -4,4 °C 0,0 km/h (0 Bft)
29.01.2017 23:24 -4,4 °C -4,3 °C 92 % 1023,6 hPa 0,0 mm 0,1 km/h (0 Bft) S 175 ° 0 min 0,000 mm 0,0 UV-I 0 W/m² -5,5 °C -4,4 °C 1,6 km/h (1 Bft)
29.01.2017 23:25 -4,4 °C -4,3 °C 92 % 1023,6 hPa 0,0 mm 0,7 km/h (0 Bft) S 175 ° 0 min 0,000 mm 0,0 UV-I 0 W/m² -5,5 °C -4,4 °C 1,6 km/h (1 Bft)
29.01.2017 23:26 -4,3 °C -4,3 °C 92 % 1023,6 hPa 0,0 mm 0,4 km/h (0 Bft) S 175 ° 0 min 0,000 mm 0,0 UV-I 0 W/m² -5,4 °C -4,3 °C 1,6 km/h (1 Bft)
29.01.2017 23:27 -4,3 °C -4,3 °C 92 % 1023,6 hPa 0,0 mm 0,0 km/h (0 Bft) S 175 ° 0 min 0,000 mm 0,0 UV-I 0 W/m² -5,4 °C -4,3 °C 0,0 km/h (0 Bft)
29.01.2017 23:28 -4,4 °C -4,3 °C 92 % 1023,5 hPa 0,0 mm 0,0 km/h (0 Bft) S 175 ° 0 min 0,000 mm 0,0 UV-I 0 W/m² -5,5 °C -4,4 °C 0,0 km/h (0 Bft)
29.01.2017 23:29 -4,3 °C -4,3 °C 92 % 1023,5 hPa 0,0 mm 0,0 km/h (0 Bft) S 175 ° 0 min 0,000 mm 0,0 UV-I 0 W/m² -5,4 °C -4,3 °C 0,0 km/h (0 Bft)
29.01.2017 23:30 -4,4 °C -4,3 °C 92 % 1023,5 hPa 0,0 mm 0,0 km/h (0 Bft) S 175 ° 0 min 0,000 mm 0,0 UV-I 0 W/m² -5,5 °C -4,4 °C 0,0 km/h (0 Bft)
29.01.2017 23:31 -4,4 °C -4,3 °C 92 % 1023,5 hPa 0,0 mm 0,0 km/h (0 Bft) S 175 ° 0 min 0,000 mm 0,0 UV-I 0 W/m² -5,5 °C -4,4 °C 0,0 km/h (0 Bft)
29.01.2017 23:32 -4,4 °C -4,4 °C 92 % 1023,5 hPa 0,0 mm 0,0 km/h (0 Bft) S 175 ° 0 min 0,000 mm 0,0 UV-I 0 W/m² -5,5 °C -4,4 °C 0,0 km/h (0 Bft)
29.01.2017 23:33 -4,4 °C -4,3 °C 92 % 1023,5 hPa 0,0 mm 0,0 km/h (0 Bft) S 175 ° 0 min 0,000 mm 0,0 UV-I 0 W/m² -5,5 °C -4,4 °C 0,0 km/h (0 Bft)
29.01.2017 23:34 -4,4 °C -4,4 °C 92 % 1023,4 hPa 0,0 mm 0,0 km/h (0 Bft) S 175 ° 0 min 0,000 mm 0,0 UV-I 0 W/m² -5,5 °C -4,4 °C 0,0 km/h (0 Bft)
29.01.2017 23:35 -4,4 °C -4,4 °C 92 % 1023,4 hPa 0,0 mm 0,0 km/h (0 Bft) S 175 ° 0 min 0,000 mm 0,0 UV-I 0 W/m² -5,5 °C -4,4 °C 0,0 km/h (0 Bft)
29.01.2017 23:36 -4,4 °C -4,4 °C 92 % 1023,5 hPa 0,0 mm 0,0 km/h (0 Bft) S 175 ° 0 min 0,000 mm 0,0 UV-I 0 W/m² -5,5 °C -4,4 °C 0,0 km/h (0 Bft)
29.01.2017 23:37 -4,4 °C -4,4 °C 92 % 1023,4 hPa 0,0 mm 0,0 km/h (0 Bft) S 175 ° 0 min 0,000 mm 0,0 UV-I 0 W/m² -5,5 °C -4,4 °C 0,0 km/h (0 Bft)
29.01.2017 23:38 -4,4 °C -4,4 °C 92 % 1023,5 hPa 0,0 mm 0,0 km/h (0 Bft) S 175 ° 0 min 0,000 mm 0,0 UV-I 0 W/m² -5,5 °C -4,4 °C 0,0 km/h (0 Bft)
29.01.2017 23:39 -4,4 °C -4,4 °C 92 % 1023,4 hPa 0,0 mm 0,0 km/h (0 Bft) S 175 ° 0 min 0,000 mm 0,0 UV-I 0 W/m² -5,5 °C -4,4 °C 0,0 km/h (0 Bft)
29.01.2017 23:40 -4,4 °C -4,4 °C 92 % 1023,4 hPa 0,0 mm 0,0 km/h (0 Bft) S 175 ° 0 min 0,000 mm 0,0 UV-I 0 W/m² -5,5 °C -4,4 °C 0,0 km/h (0 Bft)
29.01.2017 23:41 -4,4 °C -4,4 °C 92 % 1023,5 hPa 0,0 mm 0,0 km/h (0 Bft) S 175 ° 0 min 0,000 mm 0,0 UV-I 0 W/m² -5,5 °C -4,4 °C 0,0 km/h (0 Bft)
29.01.2017 23:42 -4,4 °C -4,4 °C 92 % 1023,4 hPa 0,0 mm 0,0 km/h (0 Bft) S 175 ° 0 min 0,000 mm 0,0 UV-I 0 W/m² -5,5 °C -4,4 °C 0,0 km/h (0 Bft)
29.01.2017 23:43 -4,4 °C -4,4 °C 92 % 1023,4 hPa 0,0 mm 0,0 km/h (0 Bft) S 175 ° 0 min 0,000 mm 0,0 UV-I 0 W/m² -5,5 °C -4,4 °C 0,0 km/h (0 Bft)
29.01.2017 23:44 -4,4 °C -4,4 °C 92 % 1023,3 hPa 0,0 mm 0,0 km/h (0 Bft) S 175 ° 0 min 0,000 mm 0,0 UV-I 0 W/m² -5,5 °C -4,4 °C 0,0 km/h (0 Bft)
29.01.2017 23:45 -4,4 °C -4,4 °C 92 % 1023,4 hPa 0,0 mm 0,0 km/h (0 Bft) S 175 ° 0 min 0,000 mm 0,0 UV-I 0 W/m² -5,5 °C -4,4 °C 0,0 km/h (0 Bft)
29.01.2017 23:46 -4,4 °C -4,4 °C 92 % 1023,4 hPa 0,0 mm 0,0 km/h (0 Bft) S 175 ° 0 min 0,000 mm 0,0 UV-I 0 W/m² -5,5 °C -4,4 °C 0,0 km/h (0 Bft)
29.01.2017 23:47 -4,4 °C -4,4 °C 92 % 1023,4 hPa 0,0 mm 0,0 km/h (0 Bft) S 175 ° 0 min 0,000 mm 0,0 UV-I 0 W/m² -5,5 °C -4,4 °C 0,0 km/h (0 Bft)
29.01.2017 23:48 -4,4 °C -4,4 °C 92 % 1023,3 hPa 0,0 mm 0,0 km/h (0 Bft) S 175 ° 0 min 0,000 mm 0,0 UV-I 0 W/m² -5,5 °C -4,4 °C 0,0 km/h (0 Bft)
29.01.2017 23:49 -4,4 °C -4,4 °C 92 % 1023,3 hPa 0,0 mm 0,0 km/h (0 Bft) S 175 ° 0 min 0,000 mm 0,0 UV-I 0 W/m² -5,5 °C -4,4 °C 0,0 km/h (0 Bft)
29.01.2017 23:50 -4,4 °C -4,4 °C 92 % 1023,3 hPa 0,0 mm 0,0 km/h (0 Bft) S 175 ° 0 min 0,000 mm 0,0 UV-I 0 W/m² -5,5 °C -4,4 °C 0,0 km/h (0 Bft)
29.01.2017 23:51 -4,4 °C -4,4 °C 92 % 1023,3 hPa 0,0 mm 0,0 km/h (0 Bft) S 175 ° 0 min 0,000 mm 0,0 UV-I 0 W/m² -5,5 °C -4,4 °C 0,0 km/h (0 Bft)
29.01.2017 23:52 -4,4 °C -4,4 °C 92 % 1023,3 hPa 0,0 mm 0,0 km/h (0 Bft) S 175 ° 0 min 0,000 mm 0,0 UV-I 0 W/m² -5,5 °C -4,4 °C 0,0 km/h (0 Bft)
29.01.2017 23:53 -4,4 °C -4,4 °C 92 % 1023,3 hPa 0,0 mm 0,0 km/h (0 Bft) S 175 ° 0 min 0,000 mm 0,0 UV-I 0 W/m² -5,5 °C -4,4 °C 0,0 km/h (0 Bft)
29.01.2017 23:54 -4,4 °C -4,4 °C 92 % 1023,3 hPa 0,0 mm 0,0 km/h (0 Bft) S 175 ° 0 min 0,000 mm 0,0 UV-I 0 W/m² -5,5 °C -4,4 °C 0,0 km/h (0 Bft)
29.01.2017 23:55 -4,4 °C -4,4 °C 92 % 1023,3 hPa 0,0 mm 0,0 km/h (0 Bft) S 175 ° 0 min 0,000 mm 0,0 UV-I 0 W/m² -5,5 °C -4,4 °C 0,0 km/h (0 Bft)
29.01.2017 23:56 -4,4 °C -4,4 °C 92 % 1023,4 hPa 0,0 mm 0,0 km/h (0 Bft) S 175 ° 0 min 0,000 mm 0,0 UV-I 0 W/m² -5,5 °C -4,4 °C 0,0 km/h (0 Bft)
29.01.2017 23:57 -4,4 °C -4,4 °C 92 % 1023,3 hPa 0,0 mm 0,0 km/h (0 Bft) S 175 ° 0 min 0,000 mm 0,0 UV-I 0 W/m² -5,5 °C -4,4 °C 0,0 km/h (0 Bft)
29.01.2017 23:58 -4,4 °C -4,4 °C 92 % 1023,3 hPa 0,0 mm 0,0 km/h (0 Bft) S 175 ° 0 min 0,000 mm 0,0 UV-I 0 W/m² -5,5 °C -4,4 °C 0,0 km/h (0 Bft)
29.01.2017 23:59 -4,5 °C -4,4 °C 92 % 1023,3 hPa 0,0 mm 0,0 km/h (0 Bft) S 175 ° 0 min 0,000 mm 0,0 UV-I 0 W/m² -5,6 °C -4,5 °C 0,0 km/h (0 Bft)
_ Min-Zeit 06:31 06:33 14:28 15:31 - 23:59 - - - - - - 03:22 00:37 23:59
Minimum _ -5,8 °C -5,7 °C 58 % 1023,2 hPa - 0,0 km/h (0 Bft) - - - - - - -7,9 °C -8,7 °C 0,0 km/h (0 Bft)
_ Max-Zeit 14:12 14:27 23:59 10:52 16:31 00:37 - - 15:17 15:00 14:07 14:01 12:31 14:12 00:38
Maximum _ 6,7 °C 6,7 °C 92 % 1025,5 hPa 0,2 mm 7,4 km/h
S-SW (2 Bft)
- - 1 min 0,102 mm 1,6 UV-I 343 W/m² 0,4 °C 6,7 °C 11,3 km/h
S-SW (2 Bft)
Durchschnitt _ -1,0 °C -1,0 °C 79 % 1024,2 hPa #1,6 mm 0,9 km/h (0 Bft) O - #59 min. #0,305 mm 1,1 UV-I 24 W/m² -4,3 °C -1,1 °C 1,8 km/h (1 Bft)